South Armidale Weather

South Armidale Weather


<
This Months Observations
Date Time Temperature Humidity Dewpoint Wind Speed High Gust Wind Bearing Rainfall Rate Total Rainfall Pressure Gust Wind Chill Heat Index UV Index
01/10/19 00:00 10.5 92 9.3 1.8 11.2 81 0.0 0.0 1024.0 2.5 10.5 10.5 0.0
01/10/19 00:02 10.5 92 9.3 3.2 4.7 122 0.0 0.0 1024.0 3.6 10.5 10.5 0.0
01/10/19 00:03 10.5 92 9.3 4.3 8.6 127 0.0 0.0 1024.0 0.0 10.5 10.5 0.0
01/10/19 00:04 10.5 92 9.3 3.2 8.6 129 0.0 0.0 1024.0 1.4 10.5 10.5 0.0
01/10/19 00:05 10.5 92 9.3 7.9 13.0 126 0.0 0.0 1024.0 5.8 9.6 10.5 0.0
01/10/19 00:06 10.5 92 9.3 6.1 13.0 127 0.0 0.0 1024.0 5.0 10.0 10.5 0.0
01/10/19 00:07 10.5 93 9.4 6.5 13.0 128 0.0 0.0 1024.0 4.0 9.9 10.5 0.0
01/10/19 00:08 10.4 93 9.3 2.5 13.0 131 0.0 0.0 1025.0 8.6 10.4 10.4 0.0
01/10/19 00:09 10.4 93 9.3 4.7 13.0 133 0.0 0.0 1025.0 1.4 10.4 10.4 0.0
01/10/19 00:10 10.4 93 9.3 5.0 13.0 132 0.0 0.0 1025.0 9.7 10.2 10.4 0.0
01/10/19 00:11 10.4 93 9.3 4.3 13.0 133 0.0 0.0 1025.0 4.7 10.4 10.4 0.0
01/10/19 00:12 10.4 93 9.3 1.8 13.0 133 0.0 0.0 1025.0 5.0 10.4 10.4 0.0
01/10/19 00:13 10.4 93 9.3 2.5 13.0 133 0.0 0.0 1025.0 0.0 10.4 10.4 0.0
01/10/19 00:14 10.4 93 9.3 2.5 13.0 133 0.0 0.0 1025.0 4.3 10.4 10.4 0.0
01/10/19 00:15 10.4 93 9.3 6.1 10.1 137 0.0 0.0 1025.0 10.1 9.9 10.4 0.0
01/10/19 00:17 10.4 93 9.3 3.2 10.1 133 0.0 0.0 1025.0 4.7 10.4 10.4 0.0
01/10/19 00:18 10.4 93 9.3 3.6 10.1 126 0.0 0.0 1025.0 4.0 10.4 10.4 0.0
01/10/19 00:19 10.4 93 9.3 4.3 10.1 123 0.0 0.0 1025.0 1.8 10.4 10.4 0.0
01/10/19 00:20 10.4 93 9.3 2.2 10.1 125 0.0 0.0 1025.0 4.3 10.4 10.4 0.0
01/10/19 00:21 10.4 93 9.3 2.2 10.1 125 0.0 0.0 1025.0 0.0 10.4 10.4 0.0
01/10/19 00:22 10.4 93 9.3 1.8 10.1 126 0.0 0.0 1025.0 0.0 10.4 10.4 0.0
01/10/19 00:23 10.4 93 9.3 0.0 10.1 126 0.0 0.0 1025.0 0.0 10.4 10.4 0.0
01/10/19 00:24 10.4 92 9.2 2.2 11.9 127 0.0 0.0 1025.0 7.6 10.4 10.4 0.0
01/10/19 00:25 10.4 93 9.3 6.1 11.9 129 0.0 0.0 1025.0 5.8 9.9 10.4 0.0
01/10/19 00:26 10.4 93 9.3 1.8 11.9 130 0.0 0.0 1025.0 5.4 10.4 10.4 0.0
01/10/19 00:27 10.4 93 9.3 4.0 11.9 132 0.0 0.0 1025.0 4.0 10.4 10.4 0.0
01/10/19 00:28 10.4 93 9.3 6.5 11.9 136 0.0 0.0 1025.0 7.2 9.8 10.4 0.0
01/10/19 00:29 10.3 93 9.2 7.2 11.9 138 0.0 0.0 1025.0 2.5 9.5 10.3 0.0
01/10/19 00:30 10.3 93 9.2 5.0 11.9 138 0.0 0.0 1025.0 0.0 10.1 10.3 0.0
01/10/19 00:32 10.3 93 9.2 3.2 7.6 132 0.0 0.0 1025.0 0.0 10.3 10.3 0.0
01/10/19 00:33 10.3 93 9.2 1.4 7.6 110 0.0 0.0 1025.0 4.0 10.3 10.3 0.0
01/10/19 00:34 10.3 93 9.2 3.6 7.6 120 0.0 0.0 1025.0 6.1 10.3 10.3 0.0
01/10/19 00:35 10.3 93 9.2 3.6 7.2 116 0.0 0.0 1025.0 0.0 10.3 10.3 0.0
01/10/19 00:36 10.3 93 9.2 3.2 7.2 123 0.0 0.0 1025.0 4.0 10.3 10.3 0.0
01/10/19 00:37 10.3 93 9.2 3.2 7.9 123 0.0 0.0 1025.0 7.2 10.3 10.3 0.0
01/10/19 00:38 10.3 93 9.2 2.5 13.0 121 0.0 0.0 1025.0 13.0 10.3 10.3 0.0
01/10/19 00:39 10.3 93 9.2 2.5 13.0 121 0.0 0.0 1025.0 3.6 10.3 10.3 0.0
01/10/19 00:40 10.3 93 9.2 4.3 13.0 110 0.0 0.0 1025.0 7.9 10.3 10.3 0.0
01/10/19 00:41 10.2 93 9.1 3.2 13.0 114 0.0 0.0 1025.0 5.0 10.3 10.2 0.0
01/10/19 00:42 10.2 93 9.1 2.5 13.0 112 0.0 0.0 1025.0 5.0 10.2 10.2 0.0
01/10/19 00:43 10.2 93 9.1 2.2 13.0 117 0.0 0.0 1025.0 2.5 10.2 10.2 0.0
01/10/19 00:44 10.2 93 9.1 2.5 13.0 122 0.0 0.0 1025.0 4.3 10.2 10.2 0.0
01/10/19 00:47 10.2 93 9.1 2.2 13.0 129 0.0 0.0 1025.0 3.2 10.2 10.2 0.0
01/10/19 00:48 10.3 93 9.2 3.6 13.0 130 0.0 0.0 1025.0 0.0 10.2 10.3 0.0
01/10/19 00:49 10.3 93 9.2 4.0 7.9 115 0.0 0.0 1025.0 2.2 10.3 10.3 0.0
01/10/19 00:50 10.3 93 9.2 2.2 7.9 124 0.0 0.0 1025.0 0.0 10.3 10.3 0.0
01/10/19 00:51 10.3 93 9.2 3.2 11.9 129 0.0 0.0 1025.0 11.9 10.3 10.3 0.0
01/10/19 00:52 10.3 93 9.2 3.2 11.9 131 0.0 0.0 1025.0 4.0 10.3 10.3 0.0
01/10/19 00:53 10.3 93 9.2 1.8 11.9 138 0.0 0.0 1024.0 0.0 10.3 10.3 0.0
01/10/19 00:54 10.3 93 9.2 2.2 11.9 145 0.0 0.0 1024.0 6.1 10.3 10.3 0.0
01/10/19 00:55 10.3 93 9.2 5.8 11.9 143 0.0 0.0 1024.0 4.3 9.9 10.3 0.0
01/10/19 00:56 10.3 93 9.2 2.5 11.9 141 0.0 0.0 1024.0 0.0 10.3 10.3 0.0
01/10/19 00:57 10.3 93 9.2 2.5 11.9 135 0.0 0.0 1024.0 4.7 10.3 10.3 0.0
01/10/19 00:58 10.3 93 9.2 3.2 11.9 139 0.0 0.0 1024.0 2.5 10.3 10.3 0.0
01/10/19 00:59 10.3 93 9.2 4.7 11.9 133 0.0 0.0 1024.0 2.2 10.3 10.3 0.0
01/10/19 01:00 10.3 93 9.2 2.2 11.9 133 0.0 0.0 1024.0 2.5 10.3 10.3 0.0
01/10/19 01:02 10.3 93 9.2 6.8 11.9 139 0.0 0.0 1024.0 1.4 9.6 10.3 0.0
01/10/19 01:03 10.3 93 9.2 6.8 11.9 145 0.0 0.0 1024.0 4.7 9.6 10.3 0.0
01/10/19 01:04 10.3 93 9.2 1.4 11.9 146 0.0 0.0 1024.0 5.8 10.3 10.3 0.0
01/10/19 01:05 10.3 93 9.2 2.5 11.9 152 0.0 0.0 1024.0 0.0 10.3 10.3 0.0
01/10/19 01:06 10.3 93 9.2 0.0 11.9 158 0.0 0.0 1024.0 3.2 10.3 10.3 0.0
01/10/19 01:07 10.3 93 9.2 4.3 11.9 140 0.0 0.0 1024.0 7.9 10.3 10.3 0.0
01/10/19 01:08 10.3 93 9.2 4.3 11.9 139 0.0 0.0 1025.0 5.8 10.3 10.3 0.0
01/10/19 01:09 10.3 93 9.2 4.3 11.9 139 0.0 0.0 1025.0 7.6 10.3 10.3 0.0
01/10/19 01:10 10.3 93 9.2 2.2 11.9 136 0.0 0.0 1025.0 1.4 10.3 10.3 0.0
01/10/19 01:11 10.3 93 9.2 3.2 12.6 142 0.0 0.0 1025.0 10.4 10.3 10.3 0.0
01/10/19 01:12 10.3 93 9.2 3.2 13.0 150 0.0 0.0 1025.0 7.6 10.3 10.3 0.0
01/10/19 01:13 10.2 93 9.1 2.5 13.0 146 0.0 0.0 1025.0 4.0 10.2 10.2 0.0
01/10/19 01:14 10.2 93 9.1 2.5 13.0 144 0.0 0.0 1025.0 7.9 10.2 10.2 0.0
01/10/19 01:17 10.2 93 9.1 4.0 10.4 140 0.0 0.0 1025.0 4.0 10.2 10.2 0.0
01/10/19 01:18 10.2 93 9.1 2.2 10.4 141 0.0 0.0 1025.0 0.0 10.2 10.2 0.0
01/10/19 01:19 10.2 93 9.1 1.8 10.4 143 0.0 0.0 1025.0 4.7 10.2 10.2 0.0
01/10/19 01:20 10.2 93 9.1 1.8 10.4 143 0.0 0.0 1025.0 0.0 10.2 10.2 0.0
01/10/19 01:21 10.2 93 9.1 4.0 10.4 142 0.0 0.0 1025.0 4.3 10.2 10.2 0.0
01/10/19 01:22 10.2 93 9.1 2.2 9.0 142 0.0 0.0 1025.0 1.8 10.2 10.2 0.0
01/10/19 01:23 10.2 93 9.1 2.5 9.0 142 0.0 0.0 1024.0 0.0 10.2 10.2 0.0
01/10/19 01:24 10.2 93 9.1 2.5 9.0 141 0.0 0.0 1024.0 2.2 10.2 10.2 0.0
01/10/19 01:25 10.2 93 9.1 2.2 9.0 140 0.0 0.0 1024.0 2.2 10.2 10.2 0.0
01/10/19 01:26 10.2 93 9.1 4.3 9.0 139 0.0 0.0 1024.0 5.4 10.2 10.2 0.0
01/10/19 01:27 10.2 93 9.1 3.6 6.5 139 0.0 0.0 1024.0 4.0 10.2 10.2 0.0
01/10/19 01:28 10.2 93 9.1 2.5 6.5 134 0.0 0.0 1024.0 3.6 10.2 10.2 0.0
01/10/19 01:29 10.2 93 9.1 3.2 6.5 129 0.0 0.0 1024.0 0.0 10.2 10.2 0.0
01/10/19 01:32 10.2 93 9.1 1.4 5.4 143 0.0 0.0 1024.0 0.0 10.2 10.2 0.0
01/10/19 01:33 10.2 93 9.1 0.0 5.4 152 0.0 0.0 1024.0 0.0 10.2 10.2 0.0
01/10/19 01:34 10.3 93 9.2 1.8 5.4 135 0.0 0.0 1024.0 4.0 10.3 10.3 0.0
01/10/19 01:35 10.3 93 9.2 1.4 5.4 129 0.0 0.0 1024.0 2.5 10.3 10.3 0.0
01/10/19 01:36 10.3 93 9.2 2.2 5.4 123 0.0 0.0 1024.0 0.0 10.3 10.3 0.0
01/10/19 01:37 10.3 93 9.2 3.6 6.8 110 0.0 0.0 1024.0 2.2 10.3 10.3 0.0
01/10/19 01:38 10.3 93 9.2 5.0 8.6 113 0.0 0.0 1024.0 7.9 10.1 10.3 0.0
01/10/19 01:39 10.3 93 9.2 5.0 8.6 120 0.0 0.0 1024.0 4.7 10.1 10.3 0.0
01/10/19 01:40 10.3 93 9.2 0.0 8.6 121 0.0 0.0 1024.0 1.8 10.3 10.3 0.0
01/10/19 01:41 10.3 93 9.2 3.6 8.6 137 0.0 0.0 1024.0 1.4 10.3 10.3 0.0
01/10/19 01:42 10.3 93 9.2 1.8 8.6 146 0.0 0.0 1024.0 0.0 10.3 10.3 0.0
01/10/19 01:43 10.3 93 9.2 0.0 8.6 141 0.0 0.0 1024.0 0.0 10.3 10.3 0.0
01/10/19 01:44 10.3 93 9.2 0.0 8.6 157 0.0 0.0 1024.0 0.0 10.3 10.3 0.0
01/10/19 01:45 10.3 93 9.2 2.2 11.5 159 0.0 0.0 1024.0 11.5 10.3 10.3 0.0
01/10/19 01:47 10.3 93 9.2 2.2 11.5 133 0.0 0.0 1024.0 0.0 10.3 10.3 0.0
01/10/19 01:48 10.3 93 9.2 0.0 11.5 135 0.0 0.0 1024.0 0.0 10.3 10.3 0.0
01/10/19 01:49 10.3 93 9.2 1.8 11.5 124 0.0 0.0 1024.0 4.0 10.3 10.3 0.0
01/10/19 01:50 10.3 93 9.2 2.2 11.5 126 0.0 0.0 1024.0 0.0 10.3 10.3 0.0
01/10/19 01:51 10.3 93 9.2 0.0 11.5 127 0.0 0.0 1024.0 2.2 10.3 10.3 0.0
01/10/19 01:52 10.3 93 9.2 2.2 11.5 129 0.0 0.0 1024.0 0.0 10.3 10.3 0.0
01/10/19 01:53 10.3 93 9.2 0.0 11.5 130 0.0 0.0 1024.0 6.8 10.3 10.3 0.0
01/10/19 01:54 10.3 93 9.2 4.7 11.5 129 0.0 0.0 1024.0 2.2 10.3 10.3 0.0
01/10/19 01:55 10.3 93 9.2 1.4 11.5 131 0.0 0.0 1024.0 2.2 10.3 10.3 0.0
01/10/19 01:56 10.3 93 9.2 3.2 6.8 137 0.0 0.0 1024.0 4.7 10.3 10.3 0.0
01/10/19 01:57 10.3 93 9.2 3.2 6.8 142 0.0 0.0 1024.0 2.2 10.3 10.3 0.0
01/10/19 01:58 10.3 93 9.2 4.7 6.8 131 0.0 0.0 1024.0 0.0 10.3 10.3 0.0
01/10/19 01:59 10.3 93 9.2 4.7 6.8 135 0.0 0.0 1024.0 5.0 10.3 10.3 0.0
01/10/19 02:00 10.3 93 9.2 5.8 9.4 137 0.0 0.0 1024.0 6.5 9.9 10.3 0.0
01/10/19 02:02 10.3 94 9.4 1.8 7.9 134 0.0 0.0 1024.0 7.9 10.3 10.3 0.0
01/10/19 02:03 10.3 94 9.4 4.0 7.9 143 0.0 0.0 1024.0 2.5 10.3 10.3 0.0
01/10/19 02:04 10.3 94 9.4 5.0 9.0 150 0.0 0.0 1024.0 5.0 10.1 10.3 0.0
01/10/19 02:05 10.3 94 9.4 4.3 9.0 147 0.0 0.0 1024.0 6.1 10.3 10.3 0.0
01/10/19 02:06 10.2 94 9.3 4.7 9.0 145 0.0 0.0 1024.0 0.0 10.2 10.2 0.0
01/10/19 02:07 10.2 94 9.3 2.5 9.0 149 0.0 0.0 1024.0 3.6 10.2 10.2 0.0
01/10/19 02:08 10.2 94 9.3 2.5 9.0 147 0.0 0.0 1024.0 6.1 10.2 10.2 0.0
01/10/19 02:09 10.3 94 9.4 4.7 9.0 146 0.0 0.0 1024.0 2.2 10.3 10.3 0.0
01/10/19 02:10 10.2 94 9.3 4.7 9.0 143 0.0 0.0 1024.0 5.0 10.2 10.2 0.0
01/10/19 02:11 10.2 94 9.3 2.2 9.0 140 0.0 0.0 1024.0 1.4 10.2 10.2 0.0
01/10/19 02:12 10.2 94 9.3 4.3 9.0 139 0.0 0.0 1024.0 4.0 10.2 10.2 0.0
01/10/19 02:13 10.2 94 9.3 4.3 9.0 139 0.0 0.0 1024.0 5.0 10.2 10.2 0.0
01/10/19 02:14 10.2 94 9.3 4.3 7.6 132 0.0 0.0 1024.0 4.7 10.2 10.2 0.0
01/10/19 02:15 10.2 94 9.3 3.2 7.6 126 0.0 0.0 1024.0 2.2 10.2 10.2 0.0
01/10/19 02:17 10.2 95 9.4 1.4 6.1 140 0.0 0.0 1024.0 0.0 10.2 10.2 0.0
01/10/19 02:18 10.2 95 9.4 2.5 6.5 137 0.0 0.0 1024.0 5.4 10.2 10.2 0.0
01/10/19 02:19 10.2 95 9.4 2.5 6.5 120 0.0 0.0 1024.0 4.0 10.2 10.2 0.0
01/10/19 02:20 10.2 95 9.4 1.8 6.5 115 0.0 0.0 1024.0 0.0 10.2 10.2 0.0
01/10/19 02:21 10.2 94 9.3 1.8 6.5 111 0.0 0.0 1024.0 5.4 10.2 10.2 0.0
01/10/19 02:22 10.2 94 9.3 1.8 6.5 111 0.0 0.0 1024.0 0.0 10.2 10.2 0.0
01/10/19 02:23 10.2 94 9.3 5.4 6.5 111 0.0 0.0 1024.0 1.4 9.9 10.2 0.0
01/10/19 02:24 10.2 94 9.3 3.6 11.9 118 0.0 0.0 1024.0 7.9 10.2 10.2 0.0
01/10/19 02:25 10.2 95 9.4 2.2 11.9 122 0.0 0.0 1024.0 3.6 10.2 10.2 0.0
01/10/19 02:26 10.1 95 9.3 3.6 11.9 124 0.0 0.0 1024.0 1.8 10.1 10.1 0.0
01/10/19 02:27 10.1 95 9.3 1.8 11.9 124 0.0 0.0 1024.0 0.0 10.1 10.1 0.0
01/10/19 02:28 10.1 95 9.3 0.0 11.9 123 0.0 0.0 1024.0 0.0 10.1 10.1 0.0
01/10/19 02:29 10.1 95 9.3 2.2 11.9 133 0.0 0.0 1024.0 0.0 10.1 10.1 0.0
01/10/19 02:30 10.1 95 9.3 0.0 11.9 135 0.0 0.0 1024.0 0.0 10.1 10.1 0.0
01/10/19 02:32 10.2 95 9.4 4.7 7.9 135 0.0 0.0 1024.0 3.2 10.2 10.2 0.0
01/10/19 02:33 10.1 95 9.3 1.4 7.9 142 0.0 0.0 1024.0 1.4 10.1 10.1 0.0
01/10/19 02:34 10.1 95 9.3 2.2 7.9 156 0.0 0.0 1024.0 0.0 10.1 10.1 0.0
01/10/19 02:35 10.1 95 9.3 0.0 5.8 170 0.0 0.0 1024.0 1.4 10.1 10.1 0.0
01/10/19 02:36 10.1 95 9.3 0.0 5.8 170 0.0 0.0 1024.0 5.0 10.1 10.1 0.0
01/10/19 02:37 10.1 95 9.3 1.8 9.0 160 0.0 0.0 1024.0 9.0 10.1 10.1 0.0
01/10/19 02:38 10.1 95 9.3 4.0 9.0 157 0.0 0.0 1024.0 0.0 10.1 10.1 0.0
01/10/19 02:39 10.1 95 9.3 0.0 9.0 157 0.0 0.0 1024.0 0.0 10.1 10.1 0.0
01/10/19 02:40 10.1 95 9.3 0.0 9.0 157 0.0 0.0 1024.0 0.0 10.1 10.1 0.0
01/10/19 02:41 10.1 95 9.3 0.0 9.0 156 0.0 0.0 1024.0 0.0 10.1 10.1 0.0
01/10/19 02:42 10.1 95 9.3 0.0 9.0 164 0.0 0.0 1024.0 0.0 10.1 10.1 0.0
01/10/19 02:43 10.1 95 9.3 2.2 9.0 155 0.0 0.0 1024.0 3.2 10.1 10.1 0.0
01/10/19 02:44 10.1 95 9.3 3.6 9.0 139 0.0 0.0 1024.0 4.3 10.1 10.1 0.0
01/10/19 02:45 10.1 95 9.3 3.6 9.0 133 0.0 0.0 1024.0 0.0 10.1 10.1 0.0
01/10/19 02:47 10.0 95 9.2 1.4 9.0 169 0.0 0.0 1024.0 0.0 10.0 10.0 0.0
01/10/19 02:48 10.0 95 9.2 3.2 6.5 155 0.0 0.0 1024.0 2.5 10.0 10.0 0.0
01/10/19 02:49 10.0 95 9.2 3.2 6.5 146 0.0 0.0 1024.0 5.4 10.0 10.0 0.0
01/10/19 02:50 10.0 95 9.2 1.4 6.5 146 0.0 0.0 1024.0 0.0 10.0 10.0 0.0
01/10/19 02:51 10.0 95 9.2 1.4 6.5 146 0.0 0.0 1024.0 0.0 10.0 10.0 0.0
01/10/19 02:52 9.9 96 9.3 0.0 6.5 146 0.0 0.0 1024.0 0.0 9.9 9.9 0.0
01/10/19 02:53 10.0 95 9.2 4.0 9.4 142 0.0 0.0 1024.0 2.2 10.0 10.0 0.0
01/10/19 02:54 9.9 96 9.3 1.8 9.4 135 0.0 0.0 1024.0 6.5 9.9 9.9 0.0
01/10/19 02:55 10.0 96 9.4 4.0 9.4 132 0.0 0.0 1024.0 1.4 10.0 10.0 0.0
01/10/19 02:56 9.9 96 9.3 1.8 9.4 134 0.0 0.0 1024.0 4.3 9.9 9.9 0.0
01/10/19 02:57 9.9 96 9.3 3.6 9.4 129 0.0 0.0 1024.0 1.8 9.9 9.9 0.0
01/10/19 02:58 9.9 97 9.4 4.3 9.4 132 0.0 0.0 1024.0 5.0 9.9 9.9 0.0
01/10/19 02:59 9.8 97 9.3 2.5 9.4 132 0.0 0.0 1024.0 0.0 9.8 9.8 0.0
01/10/19 03:00 9.8 97 9.3 1.8 9.4 132 0.0 0.0 1024.0 2.5 9.8 9.8 0.0
01/10/19 03:02 9.8 97 9.3 0.0 6.5 133 0.0 0.0 1024.0 0.0 9.8 9.8 0.0
01/10/19 03:03 9.8 97 9.3 3.2 6.8 141 0.0 0.0 1024.0 6.8 9.8 9.8 0.0
01/10/19 03:04 9.8 98 9.5 5.8 9.7 146 0.0 0.0 1024.0 2.5 9.3 9.8 0.0
01/10/19 03:05 9.8 98 9.5 0.0 9.7 148 0.0 0.0 1024.0 0.0 9.8 9.8 0.0
01/10/19 03:06 9.8 98 9.5 0.0 9.7 149 0.0 0.0 1024.0 1.8 9.8 9.8 0.0
01/10/19 03:07 9.8 98 9.5 3.6 9.7 146 0.0 0.0 1024.0 3.2 9.8 9.8 0.0
01/10/19 03:08 9.7 98 9.4 3.2 9.7 144 0.0 0.0 1024.0 8.6 9.7 9.7 0.0
01/10/19 03:09 9.8 98 9.5 4.3 11.9 143 0.0 0.0 1024.0 2.5 9.8 9.8 0.0
01/10/19 03:10 9.8 98 9.5 3.2 11.9 144 0.0 0.0 1024.0 2.2 9.8 9.8 0.0
01/10/19 03:11 9.7 98 9.4 3.6 11.9 143 0.0 0.0 1024.0 0.0 9.8 9.7 0.0
01/10/19 03:12 9.7 98 9.4 1.8 11.9 145 0.0 0.0 1024.0 2.5 9.7 9.7 0.0
01/10/19 03:13 9.7 98 9.4 2.2 11.9 143 0.0 0.0 1024.0 4.3 9.7 9.7 0.0
01/10/19 03:14 9.7 98 9.4 1.4 11.9 140 0.0 0.0 1024.0 0.0 9.7 9.7 0.0
01/10/19 03:15 9.7 98 9.4 2.2 11.9 140 0.0 0.0 1024.0 1.8 9.7 9.7 0.0
01/10/19 03:17 9.7 98 9.4 3.6 10.1 140 0.0 0.0 1024.0 0.0 9.7 9.7 0.0
01/10/19 03:18 9.7 98 9.4 3.2 10.1 138 0.0 0.0 1024.0 2.2 9.7 9.7 0.0
01/10/19 03:19 9.6 98 9.3 4.7 10.1 136 0.0 0.0 1024.0 1.8 9.7 9.6 0.0
01/10/19 03:20 9.7 98 9.4 5.4 10.1 124 0.0 0.0 1024.0 4.0 9.3 9.7 0.0
01/10/19 03:21 9.6 98 9.3 4.0 10.1 125 0.0 0.0 1024.0 0.0 9.6 9.6 0.0
01/10/19 03:22 9.6 98 9.3 0.0 10.1 125 0.0 0.0 1024.0 0.0 9.6 9.6 0.0
01/10/19 03:23 9.6 98 9.3 0.0 10.1 125 0.0 0.0 1024.0 0.0 9.6 9.6 0.0
01/10/19 03:24 9.6 98 9.3 0.0 10.1 124 0.0 0.0 1024.0 0.0 9.6 9.6 0.0
01/10/19 03:25 9.6 98 9.3 2.5 10.1 124 0.0 0.0 1024.0 2.2 9.6 9.6 0.0
01/10/19 03:26 9.6 98 9.3 2.2 10.1 122 0.0 0.0 1024.0 0.0 9.6 9.6 0.0
01/10/19 03:27 9.6 98 9.3 1.4 8.6 121 0.0 0.0 1024.0 0.0 9.6 9.6 0.0
01/10/19 03:28 9.6 98 9.3 1.4 8.6 110 0.0 0.0 1024.0 3.2 9.6 9.6 0.0
01/10/19 03:29 9.6 98 9.3 1.8 8.6 106 0.0 0.0 1024.0 1.8 9.6 9.6 0.0
01/10/19 03:32 9.6 98 9.3 3.2 4.3 137 0.0 0.0 1024.0 0.0 9.6 9.6 0.0
01/10/19 03:33 9.6 98 9.3 0.0 9.4 83 0.0 0.0 1024.0 9.4 9.6 9.6 0.0
01/10/19 03:34 9.6 98 9.3 4.0 9.4 100 0.0 0.0 1024.0 0.0 9.6 9.6 0.0
01/10/19 03:35 9.6 98 9.3 3.2 9.4 109 0.0 0.0 1024.0 0.0 9.6 9.6 0.0
01/10/19 03:36 9.6 98 9.3 0.0 9.4 114 0.0 0.0 1024.0 0.0 9.6 9.6 0.0
01/10/19 03:37 9.6 98 9.3 1.4 9.4 139 0.0 0.0 1024.0 3.6 9.6 9.6 0.0
01/10/19 03:38 9.6 98 9.3 3.2 9.4 137 0.0 0.0 1024.0 6.5 9.6 9.6 0.0
01/10/19 03:39 9.6 98 9.3 2.5 9.4 146 0.0 0.0 1024.0 0.0 9.6 9.6 0.0
01/10/19 03:40 9.6 98 9.3 0.0 9.4 148 0.0 0.0 1024.0 0.0 9.6 9.6 0.0
01/10/19 03:41 9.6 98 9.3 1.4 9.4 146 0.0 0.0 1024.0 2.5 9.6 9.6 0.0
01/10/19 03:42 9.6 98 9.3 0.0 9.4 143 0.0 0.0 1024.0 0.0 9.6 9.6 0.0
01/10/19 03:43 9.6 98 9.3 0.0 9.4 148 0.0 0.0 1024.0 0.0 9.6 9.6 0.0
01/10/19 03:46 9.6 98 9.3 0.0 6.5 139 34.8 0.0 1024.0 0.0 9.6 9.6 0.0
01/10/19 03:47 9.6 98 9.3 0.0 6.5 139 34.8 0.0 1024.0 0.0 9.6 9.6 0.0
01/10/19 03:46 9.6 98 9.3 0.0 6.5 151 34.8 0.0 1024.0 5.4 9.6 9.6 0.0
01/10/19 03:47 9.6 98 9.3 2.2 6.5 154 34.8 0.0 1024.0 5.4 9.6 9.6 0.0
01/10/19 03:48 9.6 98 9.3 2.5 6.8 150 34.8 0.0 1024.0 6.8 9.6 9.6 0.0
01/10/19 03:49 9.6 98 9.3 1.8 6.8 150 34.8 0.0 1024.0 0.0 9.6 9.6 0.0
01/10/19 03:50 9.6 98 9.3 2.2 6.8 146 34.8 0.0 1024.0 2.5 9.6 9.6 0.0
01/10/19 03:51 9.6 98 9.3 2.2 6.8 144 34.8 0.0 1024.0 4.7 9.6 9.6 0.0
01/10/19 03:52 9.6 98 9.3 4.3 6.8 140 34.8 0.0 1024.0 2.2 9.6 9.6 0.0
01/10/19 03:53 9.6 98 9.3 1.4 6.8 140 34.8 0.0 1024.0 0.0 9.6 9.6 0.0
01/10/19 03:54 9.6 98 9.3 0.0 6.8 140 34.8 0.0 1024.0 0.0 9.6 9.6 0.0
01/10/19 03:55 9.6 98 9.3 1.4 6.8 142 34.8 0.0 1024.0 1.4 9.6 9.6 0.0
01/10/19 03:56 9.6 98 9.3 3.2 6.8 139 34.8 0.0 1024.0 3.2 9.6 9.6 0.0
01/10/19 03:57 9.5 98 9.2 2.2 6.8 136 34.8 0.0 1024.0 1.4 9.5 9.5 0.0
01/10/19 03:58 9.5 98 9.2 1.4 5.8 136 34.8 0.0 1024.0 2.2 9.5 9.5 0.0
01/10/19 03:59 9.6 98 9.3 2.5 6.1 136 34.8 0.0 1024.0 2.2 9.6 9.6 0.0
01/10/19 04:02 9.6 98 9.3 3.6 6.1 136 0.0 0.0 1024.0 0.0 9.6 9.6 0.0
01/10/19 04:03 9.5 98 9.2 1.8 6.8 121 0.0 0.0 1024.0 4.0 9.5 9.5 0.0
01/10/19 04:04 9.6 98 9.3 4.0 6.8 132 0.0 0.0 1024.0 5.8 9.6 9.6 0.0
01/10/19 04:05 9.5 98 9.2 3.2 6.8 146 0.0 0.0 1024.0 1.8 9.5 9.5 0.0
01/10/19 04:06 9.5 98 9.2 2.5 6.8 161 0.0 0.0 1024.0 4.0 9.5 9.5 0.0
01/10/19 04:07 9.5 98 9.2 1.8 6.8 162 0.0 0.0 1024.0 2.5 9.5 9.5 0.0
01/10/19 04:08 9.5 98 9.2 2.5 6.8 158 0.0 0.0 1024.0 4.3 9.5 9.5 0.0
01/10/19 04:09 9.5 98 9.2 1.8 6.8 157 0.0 0.0 1024.0 2.2 9.5 9.5 0.0
01/10/19 04:10 9.5 98 9.2 2.2 6.8 156 0.0 0.0 1024.0 0.0 9.5 9.5 0.0
01/10/19 04:11 9.5 98 9.2 0.0 6.8 155 0.0 0.0 1024.0 4.3 9.5 9.5 0.0
01/10/19 04:12 9.5 98 9.2 4.0 6.8 151 0.0 0.0 1024.0 0.0 9.5 9.5 0.0
01/10/19 04:13 9.5 98 9.2 1.8 5.8 154 0.0 0.0 1024.0 5.0 9.5 9.5 0.0
01/10/19 04:14 9.5 98 9.2 3.6 5.8 150 0.0 0.0 1024.0 3.2 9.5 9.5 0.0
01/10/19 04:15 9.5 98 9.2 2.5 5.4 136 0.0 0.0 1024.0 2.5 9.5 9.5 0.0
01/10/19 04:17 9.5 98 9.2 1.8 5.0 147 0.0 0.0 1024.0 2.5 9.5 9.5 0.0
01/10/19 04:18 9.5 98 9.2 4.0 5.0 150 0.0 0.0 1024.0 0.0 9.5 9.5 0.0
01/10/19 04:19 9.5 98 9.2 1.8 6.5 143 0.0 0.0 1024.0 4.3 9.5 9.5 0.0
01/10/19 04:20 9.5 98 9.2 3.6 6.5 132 0.0 0.0 1024.0 5.0 9.5 9.5 0.0
01/10/19 04:21 9.5 98 9.2 1.8 6.5 127 0.0 0.0 1024.0 0.0 9.5 9.5 0.0
01/10/19 04:22 9.5 98 9.2 0.0 6.5 121 0.0 0.0 1024.0 0.0 9.5 9.5 0.0
01/10/19 04:23 9.5 98 9.2 0.0 6.5 119 0.0 0.0 1024.0 2.2 9.5 9.5 0.0
01/10/19 04:24 9.5 98 9.2 0.0 6.5 113 0.0 0.0 1024.0 2.2 9.5 9.5 0.0
01/10/19 04:25 9.5 98 9.2 1.8 6.5 112 0.0 0.0 1024.0 0.0 9.5 9.5 0.0
01/10/19 04:26 9.5 98 9.2 0.0 6.5 109 0.0 0.0 1024.0 0.0 9.5 9.5 0.0
01/10/19 04:27 9.5 98 9.2 0.0 6.5 112 0.0 0.0 1024.0 4.3 9.5 9.5 0.0
01/10/19 04:28 9.5 98 9.2 2.2 6.5 109 0.0 0.0 1024.0 0.0 9.5 9.5 0.0
01/10/19 04:29 9.5 98 9.2 0.0 5.8 103 0.0 0.0 1024.0 2.5 9.5 9.5 0.0
01/10/19 04:32 9.5 98 9.2 1.8 5.4 144 0.0 0.0 1024.0 1.4 9.5 9.5 0.0
01/10/19 04:33 9.5 98 9.2 0.0 5.4 157 0.0 0.0 1024.0 0.0 9.5 9.5 0.0
01/10/19 04:34 9.5 98 9.2 0.0 5.4 163 0.0 0.0 1024.0 0.0 9.5 9.5 0.0
01/10/19 04:35 9.5 98 9.2 1.8 5.4 160 0.0 0.0 1024.0 0.0 9.5 9.5 0.0
01/10/19 04:36 9.5 98 9.2 1.4 5.4 148 0.0 0.0 1024.0 5.0 9.5 9.5 0.0
01/10/19 04:37 9.5 98 9.2 2.5 5.4 145 0.0 0.0 1024.0 0.0 9.5 9.5 0.0
01/10/19 04:38 9.5 98 9.2 1.8 5.4 145 0.0 0.0 1024.0 2.2 9.5 9.5 0.0
01/10/19 04:39 9.5 98 9.2 2.2 5.4 148 0.0 0.0 1024.0 2.2 9.5 9.5 0.0
01/10/19 04:40 9.5 98 9.2 2.2 5.4 155 0.0 0.0 1024.0 0.0 9.5 9.5 0.0
01/10/19 04:41 9.5 98 9.2 0.0 5.4 155 0.0 0.0 1024.0 0.0 9.5 9.5 0.0
01/10/19 04:42 9.5 98 9.2 1.8 7.9 147 0.0 0.0 1024.0 7.9 9.5 9.5 0.0
01/10/19 04:43 9.5 98 9.2 4.7 7.9 142 0.0 0.0 1024.0 5.4 9.5 9.5 0.0
01/10/19 04:44 9.5 98 9.2 2.5 7.9 147 0.0 0.0 1024.0 0.0 9.5 9.5 0.0
01/10/19 04:45 9.5 98 9.2 3.2 7.9 145 0.0 0.0 1024.0 6.1 9.5 9.5 0.0
01/10/19 04:47 9.5 98 9.2 3.2 7.9 140 0.0 0.0 1024.0 4.0 9.5 9.5 0.0
01/10/19 04:48 9.5 98 9.2 3.2 7.9 139 0.0 0.0 1024.0 2.2 9.5 9.5 0.0
01/10/19 04:49 9.5 98 9.2 1.4 7.9 138 0.0 0.0 1024.0 6.1 9.5 9.5 0.0
01/10/19 04:50 9.5 98 9.2 3.2 7.9 139 0.0 0.0 1024.0 2.5 9.5 9.5 0.0
01/10/19 04:51 9.5 98 9.2 2.5 7.9 138 0.0 0.0 1024.0 4.3 9.5 9.5 0.0
01/10/19 04:52 9.5 98 9.2 3.6 7.9 138 0.0 0.0 1024.0 0.0 9.5 9.5 0.0
01/10/19 04:53 9.5 98 9.2 0.0 6.5 137 0.0 0.0 1025.0 0.0 9.5 9.5 0.0
01/10/19 04:54 9.5 98 9.2 0.0 6.5 137 0.0 0.0 1025.0 0.0 9.5 9.5 0.0
01/10/19 04:55 9.5 98 9.2 1.4 6.5 130 0.0 0.0 1025.0 0.0 9.5 9.5 0.0
01/10/19 04:56 9.5 98 9.2 0.0 6.5 128 0.0 0.0 1025.0 0.0 9.5 9.5 0.0
01/10/19 04:57 9.5 98 9.2 0.0 6.5 126 0.0 0.0 1025.0 0.0 9.5 9.5 0.0
01/10/19 04:58 9.5 98 9.2 0.0 6.1 123 0.0 0.0 1025.0 0.0 9.5 9.5 0.0
01/10/19 04:59 9.5 98 9.2 3.2 6.8 126 0.0 0.0 1025.0 4.0 9.5 9.5 0.0
01/10/19 05:00 9.5 98 9.2 3.2 6.8 128 0.0 0.0 1025.0 0.0 9.5 9.5 0.0
01/10/19 05:02 9.5 98 9.2 0.0 4.0 125 0.0 0.0 1025.0 0.0 9.5 9.5 0.0
01/10/19 05:03 9.5 98 9.2 0.0 4.0 178 0.0 0.0 1025.0 2.2 9.5 9.5 0.0
01/10/19 05:04 9.5 98 9.2 1.4 4.0 218 0.0 0.0 1025.0 2.5 9.5 9.5 0.0
01/10/19 05:05 9.5 98 9.2 2.2 4.0 236 0.0 0.0 1025.0 0.0 9.5 9.5 0.0
01/10/19 05:06 9.5 98 9.2 0.0 4.0 236 0.0 0.0 1025.0 0.0 9.5 9.5 0.0
01/10/19 05:07 9.5 98 9.2 1.8 4.0 216 0.0 0.0 1025.0 0.0 9.5 9.5 0.0
01/10/19 05:08 9.5 98 9.2 0.0 7.2 196 0.0 0.0 1025.0 4.7 9.5 9.5 0.0
01/10/19 05:09 9.5 98 9.2 4.7 7.2 162 0.0 0.0 1025.0 2.2 9.5 9.5 0.0
01/10/19 05:10 9.5 98 9.2 3.2 7.2 146 0.0 0.0 1025.0 2.5 9.5 9.5 0.0
01/10/19 05:11 9.5 98 9.2 0.0 7.2 146 0.0 0.0 1025.0 0.0 9.5 9.5 0.0
01/10/19 05:12 9.5 98 9.2 1.8 7.2 143 0.0 0.0 1025.0 5.4 9.5 9.5 0.0
01/10/19 05:13 9.5 98 9.2 4.7 7.2 136 0.0 0.0 1025.0 1.4 9.5 9.5 0.0
01/10/19 05:14 9.5 98 9.2 1.4 7.2 131 0.0 0.0 1025.0 3.6 9.5 9.5 0.0
01/10/19 05:15 9.5 98 9.2 2.5 7.2 129 0.0 0.0 1025.0 0.0 9.5 9.5 0.0
01/10/19 05:17 9.5 98 9.2 0.0 5.4 154 0.0 0.0 1025.0 0.0 9.5 9.5 0.0
01/10/19 05:18 9.5 98 9.2 0.0 5.4 154 0.0 0.0 1025.0 0.0 9.5 9.5 0.0
01/10/19 05:19 9.5 98 9.2 1.8 7.9 138 0.0 0.0 1025.0 7.9 9.5 9.5 0.0
01/10/19 05:20 9.5 98 9.2 5.4 7.9 136 0.0 0.0 1025.0 2.5 9.1 9.5 0.0
01/10/19 05:21 9.5 98 9.2 1.8 7.9 130 0.0 0.0 1025.0 5.0 9.5 9.5 0.0
01/10/19 05:22 9.5 98 9.2 1.8 7.9 126 0.0 0.0 1025.0 0.0 9.5 9.5 0.0
01/10/19 05:23 9.5 98 9.2 2.2 7.9 127 0.0 0.0 1025.0 2.5 9.5 9.5 0.0
01/10/19 05:24 9.5 98 9.2 0.0 7.9 128 0.0 0.0 1025.0 6.5 9.5 9.5 0.0
01/10/19 05:25 9.5 98 9.2 3.2 7.9 129 0.0 0.0 1025.0 6.1 9.5 9.5 0.0
01/10/19 05:26 9.5 98 9.2 3.2 7.9 130 0.0 0.0 1025.0 3.6 9.5 9.5 0.0
01/10/19 05:27 9.5 98 9.2 1.8 7.9 130 0.0 0.0 1025.0 0.0 9.5 9.5 0.0
01/10/19 05:28 9.5 98 9.2 1.8 7.9 131 0.0 0.0 1025.0 3.6 9.5 9.5 0.0
01/10/19 05:29 9.5 98 9.2 2.5 7.9 131 0.0 0.0 1025.0 4.0 9.5 9.5 0.0
01/10/19 05:30 9.5 98 9.2 2.5 6.8 131 0.0 0.0 1025.0 0.0 9.5 9.5 0.0
01/10/19 05:32 9.5 98 9.2 3.2 6.5 93 0.0 0.0 1025.0 1.4 9.5 9.5 0.0
01/10/19 05:33 9.5 98 9.2 1.4 6.5 94 0.0 0.0 1025.0 5.4 9.5 9.5 0.0
01/10/19 05:34 9.5 98 9.2 4.0 6.5 108 0.0 0.0 1025.0 4.0 9.5 9.5 0.0
01/10/19 05:35 9.5 98 9.2 1.8 6.1 109 0.0 0.0 1025.0 1.4 9.5 9.5 0.0
01/10/19 05:36 9.5 98 9.2 1.4 5.8 112 0.0 0.0 1025.0 2.2 9.5 9.5 0.0
01/10/19 05:37 9.5 98 9.2 1.4 5.8 112 0.0 0.0 1025.0 2.2 9.5 9.5 0.0
01/10/19 05:38 9.5 98 9.2 3.6 6.5 118 0.0 0.0 1025.0 0.0 9.5 9.5 0.0
01/10/19 05:39 9.5 98 9.2 2.2 6.5 120 0.0 0.0 1025.0 6.5 9.5 9.5 0.0
01/10/19 05:40 9.5 98 9.2 3.2 6.5 123 0.0 0.0 1025.0 2.5 9.5 9.5 0.0
01/10/19 05:41 9.5 98 9.2 0.0 6.5 121 0.0 0.0 1025.0 4.7 9.5 9.5 0.0
01/10/19 05:42 9.5 98 9.2 2.2 6.5 125 0.0 0.0 1025.0 1.4 9.5 9.5 0.0
01/10/19 05:43 9.5 98 9.2 0.0 6.5 127 0.0 0.0 1025.0 0.0 9.5 9.5 0.0
01/10/19 05:44 9.5 98 9.2 2.2 6.5 109 0.0 0.0 1025.0 6.1 9.5 9.5 0.0
01/10/19 05:45 9.5 98 9.2 3.6 6.5 110 0.0 0.0 1025.0 0.0 9.5 9.5 0.0
01/10/19 05:48 9.5 98 9.2 0.0 6.5 109 0.0 0.0 1025.0 3.2 9.5 9.5 0.0
01/10/19 05:49 9.5 98 9.2 3.6 6.5 107 0.0 0.0 1025.0 0.0 9.5 9.5 0.0
01/10/19 05:50 9.5 98 9.2 2.5 6.8 118 0.0 0.0 1025.0 4.0 9.5 9.5 0.0
01/10/19 05:51 9.5 98 9.2 2.2 6.8 120 0.0 0.0 1025.0 0.0 9.5 9.5 0.0
01/10/19 05:52 9.5 98 9.2 1.4 6.8 124 0.0 0.0 1025.0 4.3 9.5 9.5 0.0
01/10/19 05:53 9.5 98 9.2 2.5 6.8 127 0.0 0.0 1025.0 0.0 9.5 9.5 0.0
01/10/19 05:54 9.5 98 9.2 1.8 6.8 115 0.0 0.0 1025.0 2.5 9.5 9.5 0.0
01/10/19 05:55 9.5 98 9.2 1.8 6.8 114 0.0 0.0 1025.0 5.4 9.5 9.5 0.0
01/10/19 05:56 9.5 98 9.2 3.6 6.8 118 0.0 0.0 1025.0 5.4 9.5 9.5 0.0
01/10/19 05:57 9.5 98 9.2 2.2 6.8 119 0.0 0.0 1025.0 0.0 9.5 9.5 0.0
01/10/19 05:58 9.5 98 9.2 1.4 6.8 124 0.0 0.0 1025.0 2.5 9.5 9.5 0.0
01/10/19 05:59 9.5 98 9.2 4.3 6.8 132 0.0 0.0 1025.0 0.0 9.5 9.5 0.0
01/10/19 06:00 9.5 98 9.2 0.0 6.1 131 0.0 0.0 1025.0 0.0 9.5 9.5 0.0
01/10/19 06:02 9.5 98 9.2 0.0 5.4 93 0.0 0.0 1025.0 3.2 9.5 9.5 0.0
01/10/19 06:03 9.5 98 9.2 1.8 5.4 72 0.0 0.0 1025.0 0.0 9.5 9.5 0.0
01/10/19 06:04 9.5 98 9.2 0.0 5.4 72 0.0 0.0 1025.0 0.0 9.5 9.5 0.0
01/10/19 06:05 9.5 98 9.2 3.2 7.9 129 0.0 0.0 1025.0 5.4 9.5 9.5 0.0
01/10/19 06:06 9.5 98 9.2 4.7 7.9 148 0.0 0.0 1025.0 4.3 9.5 9.5 0.0
01/10/19 06:07 9.5 98 9.2 4.0 7.9 170 0.0 0.0 1025.0 0.0 9.5 9.5 0.0
01/10/19 06:08 9.5 98 9.2 0.0 7.9 170 0.0 0.0 1024.0 0.0 9.5 9.5 0.0
01/10/19 06:09 9.5 98 9.2 0.0 7.9 174 0.0 0.0 1024.0 5.0 9.5 9.5 0.0
01/10/19 06:10 9.5 98 9.2 4.3 7.9 162 0.0 0.0 1024.0 1.4 9.5 9.5 0.0
01/10/19 06:11 9.5 98 9.2 3.2 7.9 162 0.0 0.0 1024.0 7.2 9.5 9.5 0.0
01/10/19 06:12 9.5 98 9.2 4.0 9.7 161 0.0 0.0 1024.0 9.7 9.5 9.5 0.0
01/10/19 06:13 9.5 98 9.2 5.0 9.7 153 0.0 0.0 1024.0 4.3 9.2 9.5 0.0
01/10/19 06:14 9.5 98 9.2 2.5 9.7 152 0.0 0.0 1024.0 0.0 9.5 9.5 0.0
01/10/19 06:17 9.5 98 9.2 4.3 9.7 148 0.0 0.0 1024.0 2.2 9.5 9.5 0.0
01/10/19 06:18 9.5 98 9.2 2.5 9.7 149 0.0 0.0 1024.0 7.6 9.5 9.5 0.0
01/10/19 06:21 9.5 98 9.2 5.8 9.7 155 34.8 0.0 1024.0 1.4 9.0 9.5 0.0
01/10/19 06:22 9.5 98 9.2 3.2 7.6 147 34.8 0.0 1024.0 1.8 9.5 9.5 0.0
01/10/19 06:23 9.5 98 9.2 5.0 7.6 142 34.8 0.0 1024.0 4.7 9.2 9.5 0.0
01/10/19 06:24 9.5 98 9.2 1.4 7.6 142 34.8 0.0 1024.0 0.0 9.5 9.5 0.0
01/10/19 06:25 9.5 98 9.2 3.2 7.6 142 34.8 0.0 1025.0 0.0 9.5 9.5 0.0
01/10/19 06:26 9.5 98 9.2 0.0 7.6 142 34.8 0.0 1025.0 0.0 9.5 9.5 0.0
01/10/19 06:27 9.5 98 9.2 0.0 7.6 125 34.8 0.0 1025.0 5.4 9.5 9.5 0.0
01/10/19 06:28 9.5 98 9.2 5.8 6.5 115 34.8 0.0 1025.0 6.5 9.0 9.5 0.0
01/10/19 06:29 9.5 98 9.2 2.5 6.5 115 34.8 0.0 1025.0 0.0 9.5 9.5 0.0
01/10/19 06:30 9.5 98 9.2 4.0 6.5 120 34.8 0.0 1025.0 4.0 9.5 9.5 0.0
01/10/19 06:31 9.6 98 9.3 2.5 6.5 120 34.8 0.0 1025.0 2.2 9.6 9.6 0.0
01/10/19 06:32 9.6 98 9.3 2.5 6.5 119 34.8 0.0 1025.0 0.0 9.6 9.6 0.0
01/10/19 06:31 9.6 98 9.3 2.5 6.5 125 34.8 0.0 1025.0 5.8 9.6 9.6 0.0
01/10/19 06:32 9.6 98 9.3 4.0 6.5 128 34.8 0.0 1025.0 0.0 9.6 9.6 0.0
01/10/19 06:33 9.6 98 9.3 1.8 6.5 128 34.8 0.0 1025.0 3.6 9.6 9.6 0.0
01/10/19 06:34 9.6 98 9.3 3.6 7.6 131 34.8 0.0 1025.0 4.3 9.6 9.6 0.0
01/10/19 06:35 9.6 98 9.3 4.3 7.6 132 34.8 0.0 1025.0 4.7 9.6 9.6 0.0
01/10/19 06:36 9.6 98 9.3 4.7 7.6 132 34.8 0.0 1025.0 1.8 9.7 9.6 0.0
01/10/19 06:37 9.6 98 9.3 2.5 7.6 133 34.8 0.0 1025.0 3.2 9.6 9.6 0.0
01/10/19 06:38 9.6 98 9.3 4.3 9.4 138 34.8 0.0 1025.0 3.2 9.6 9.6 0.0
01/10/19 06:39 9.6 98 9.3 1.8 9.4 138 34.8 0.0 1025.0 0.0 9.6 9.6 0.0
01/10/19 06:40 9.6 98 9.3 2.2 9.4 138 34.8 0.0 1025.0 3.2 9.6 9.6 0.0
01/10/19 06:41 9.7 98 9.4 6.1 9.7 137 34.8 0.0 1025.0 3.2 9.1 9.7 0.0
01/10/19 06:42 9.7 98 9.4 4.0 9.7 137 34.8 0.0 1025.0 2.2 9.7 9.7 0.0
01/10/19 06:43 9.7 98 9.4 2.2 9.7 137 34.8 0.0 1025.0 2.5 9.7 9.7 0.0
01/10/19 06:44 9.7 98 9.4 3.2 9.7 139 34.8 0.0 1025.0 0.0 9.7 9.7 0.0
01/10/19 06:45 9.7 98 9.4 1.8 9.7 139 34.8 0.0 1025.0 5.8 9.7 9.7 0.0
01/10/19 06:47 9.7 98 9.4 5.8 10.1 135 0.0 0.0 1025.0 4.7 9.2 9.7 0.0
01/10/19 06:48 9.7 98 9.4 2.5 10.1 135 0.0 0.0 1025.0 5.0 9.7 9.7 0.0
01/10/19 06:49 9.7 98 9.4 4.3 10.1 135 0.0 0.0 1025.0 0.0 9.7 9.7 0.0
01/10/19 06:50 9.8 98 9.5 2.2 10.1 129 0.0 0.0 1025.0 4.3 9.8 9.8 0.0
01/10/19 06:51 9.8 98 9.5 2.5 10.1 130 0.0 0.0 1025.0 5.4 9.8 9.8 0.0
01/10/19 06:52 9.8 98 9.5 5.4 10.1 131 0.0 0.0 1025.0 4.7 9.4 9.8 0.0
01/10/19 06:53 9.8 98 9.5 4.7 10.1 133 0.0 0.0 1025.0 4.3 9.8 9.8 0.0
01/10/19 06:54 9.8 98 9.5 4.7 10.1 133 0.0 0.0 1025.0 1.4 9.8 9.8 0.0
01/10/19 06:55 9.8 98 9.5 2.2 10.1 131 0.0 0.0 1025.0 2.2 9.8 9.8 0.0
01/10/19 06:56 9.8 98 9.5 1.8 10.1 131 0.0 0.0 1025.0 5.0 9.8 9.8 0.0
01/10/19 06:57 9.9 98 9.6 2.2 8.6 131 0.0 0.0 1025.0 3.2 9.9 9.9 0.0
01/10/19 06:58 9.9 98 9.6 1.8 8.6 128 0.0 0.0 1025.0 4.3 9.9 9.9 0.0
01/10/19 06:59 9.9 98 9.6 3.6 9.0 126 0.0 0.0 1025.0 9.0 9.9 9.9 0.0
01/10/19 07:02 9.9 98 9.6 5.0 11.5 139 0.0 0.0 1025.0 11.5 9.6 9.9 0.0
01/10/19 07:03 9.9 98 9.6 6.8 11.5 145 0.0 0.0 1025.0 10.1 9.1 9.9 0.0
01/10/19 07:04 9.8 98 9.5 9.4 13.7 144 0.0 0.0 1025.0 5.4 8.5 9.8 0.0
01/10/19 07:05 9.8 98 9.5 4.7 13.7 143 0.0 0.0 1025.0 2.2 9.8 9.8 0.0
01/10/19 07:06 9.9 98 9.6 4.0 13.7 135 0.0 0.0 1025.0 4.7 9.8 9.9 0.0
01/10/19 07:07 9.9 98 9.6 4.7 13.7 129 0.0 0.0 1025.0 4.3 9.9 9.9 0.0
01/10/19 07:08 9.9 98 9.6 2.2 13.7 129 0.0 0.0 1026.0 0.0 9.9 9.9 0.0
01/10/19 07:09 9.9 98 9.6 1.4 13.7 124 0.0 0.0 1026.0 6.5 9.9 9.9 0.0
01/10/19 07:10 9.9 98 9.6 5.4 13.7 126 0.0 0.0 1026.0 7.6 9.5 9.9 0.0
01/10/19 07:11 9.9 98 9.6 4.7 13.7 127 0.0 0.0 1026.0 4.3 9.9 9.9 0.0
01/10/19 07:12 9.9 98 9.6 5.8 13.7 124 0.0 0.0 1026.0 5.0 9.4 9.9 0.0
01/10/19 07:13 10.0 98 9.7 3.6 13.7 120 0.0 0.0 1026.0 0.0 9.9 10.0 0.0
01/10/19 07:14 10.0 98 9.7 5.4 12.2 119 0.0 0.0 1026.0 9.7 9.6 10.0 0.0
01/10/19 07:15 10.0 98 9.7 5.0 12.2 122 0.0 0.0 1026.0 4.0 9.7 10.0 0.0
01/10/19 07:17 10.0 98 9.7 6.1 9.7 128 0.0 0.0 1026.0 5.0 9.4 10.0 0.0
01/10/19 07:18 10.0 98 9.7 5.0 9.7 129 0.0 0.0 1026.0 0.0 9.7 10.0 0.0
01/10/19 07:19 10.1 98 9.8 1.8 9.7 125 0.0 0.0 1026.0 0.0 10.1 10.1 0.0
01/10/19 07:20 10.1 98 9.8 3.2 9.7 126 0.0 0.0 1026.0 3.2 10.1 10.1 0.0
01/10/19 07:21 10.1 98 9.8 2.5 9.7 133 0.0 0.0 1026.0 2.5 10.1 10.1 0.0
01/10/19 07:22 10.1 98 9.8 3.6 9.7 138 0.0 0.0 1026.0 0.0 10.1 10.1 0.0
01/10/19 07:23 10.1 98 9.8 1.8 9.7 142 0.0 0.0 1026.0 6.8 10.1 10.1 0.0
01/10/19 07:24 10.2 98 9.9 3.6 9.7 143 0.0 0.0 1026.0 7.9 10.2 10.2 0.0
01/10/19 07:25 10.2 98 9.9 6.1 9.4 143 0.0 0.0 1026.0 6.8 9.7 10.2 0.0
01/10/19 07:26 10.1 98 9.8 5.8 9.4 139 0.0 0.0 1026.0 5.8 9.7 10.1 0.0
01/10/19 07:27 10.2 98 9.9 3.6 9.0 139 0.0 0.0 1026.0 0.0 10.2 10.2 0.0
01/10/19 07:28 10.3 98 10.0 3.2 9.0 139 0.0 0.0 1026.0 0.0 10.3 10.3 0.0
01/10/19 07:29 10.4 98 10.1 1.4 9.0 142 0.0 0.0 1026.0 2.5 10.4 10.4 0.0
01/10/19 07:30 10.4 98 10.1 6.5 16.9 140 0.0 0.0 1026.0 5.8 9.8 10.4 0.0
01/10/19 07:32 10.4 98 10.1 2.2 7.9 137 0.0 0.0 1026.0 1.8 10.4 10.4 0.0
01/10/19 07:33 10.4 98 10.1 4.0 9.0 132 0.0 0.0 1026.0 9.0 10.4 10.4 0.0
01/10/19 07:34 10.4 98 10.1 3.2 9.0 131 0.0 0.0 1026.0 5.4 10.4 10.4 0.0
01/10/19 07:35 10.4 98 10.1 5.4 9.7 136 0.0 0.0 1026.0 9.7 10.1 10.4 0.0
01/10/19 07:36 10.4 98 10.1 5.0 9.7 136 0.0 0.0 1026.0 1.4 10.2 10.4 0.0
01/10/19 07:37 10.4 98 10.1 3.2 9.7 135 0.0 0.0 1026.0 6.1 10.4 10.4 0.0
01/10/19 07:38 10.5 98 10.2 2.5 9.7 135 0.0 0.0 1026.0 0.0 10.5 10.5 0.0
01/10/19 07:39 10.5 98 10.2 0.0 9.7 135 0.0 0.0 1026.0 0.0 10.5 10.5 0.0
01/10/19 07:40 10.5 98 10.2 1.8 9.7 135 0.0 0.0 1026.0 1.4 10.5 10.5 0.0
01/10/19 07:41 10.5 98 10.2 0.0 9.7 135 0.0 0.0 1026.0 0.0 10.5 10.5 0.0
01/10/19 07:42 10.5 98 10.2 1.4 9.7 136 0.0 0.0 1026.0 0.0 10.5 10.5 0.0
01/10/19 07:43 10.5 98 10.2 0.0 9.7 139 0.0 0.0 1026.0 3.6 10.5 10.5 0.0
01/10/19 07:44 10.5 98 10.2 1.8 9.7 140 0.0 0.0 1026.0 0.0 10.5 10.5 0.0
01/10/19 07:45 10.5 98 10.2 1.4 9.7 135 0.0 0.0 1026.0 3.2 10.5 10.5 0.0
01/10/19 07:47 10.4 98 10.1 4.0 6.1 135 0.0 0.0 1026.0 1.8 10.4 10.4 0.0
01/10/19 07:48 10.4 98 10.1 4.0 5.4 135 0.0 0.0 1026.0 0.0 10.4 10.4 0.0
01/10/19 07:49 10.3 98 10.0 5.8 6.1 131 0.0 0.0 1026.0 4.3 9.9 10.3 0.0
01/10/19 07:50 10.3 98 10.0 2.5 6.1 121 0.0 0.0 1026.0 2.2 10.3 10.3 0.0
01/10/19 07:51 10.2 98 9.9 2.2 6.1 111 0.0 0.0 1026.0 2.5 10.2 10.2 0.0
01/10/19 07:52 10.2 98 9.9 3.6 6.5 117 0.0 0.0 1026.0 5.0 10.2 10.2 0.0
01/10/19 07:56 10.2 98 9.9 1.4 5.0 124 34.8 0.0 1026.0 2.5 10.2 10.2 0.0
01/10/19 07:57 10.2 98 9.9 2.5 5.0 123 34.8 0.0 1026.0 0.0 10.2 10.2 0.0
01/10/19 07:58 10.3 98 10.0 6.8 5.0 129 34.8 0.0 1026.0 2.5 9.6 10.3 0.0
01/10/19 07:59 10.3 98 10.0 2.2 5.0 138 34.8 0.0 1026.0 3.2 10.3 10.3 0.0
01/10/19 08:00 10.4 98 10.1 1.8 5.0 135 34.8 0.0 1026.0 1.4 10.4 10.4 0.0
01/10/19 08:01 10.5 98 10.2 1.8 5.0 140 34.8 0.0 1026.0 0.0 10.5 10.5 0.0
01/10/19 08:02 10.5 98 10.2 1.4 3.2 156 34.8 0.0 1026.0 0.0 10.5 10.5 0.0
01/10/19 08:01 10.5 98 10.2 2.5 7.6 135 34.8 0.0 1026.0 7.6 10.5 10.5 0.0
01/10/19 08:02 10.5 98 10.2 5.8 7.6 136 34.8 0.0 1026.0 0.0 10.1 10.5 0.0
01/10/19 08:03 10.5 98 10.2 4.3 9.0 140 34.8 0.0 1026.0 4.7 10.5 10.5 0.0
01/10/19 08:04 10.4 98 10.1 6.5 9.0 140 34.8 0.0 1026.0 8.6 9.8 10.4 0.0
01/10/19 08:05 10.4 98 10.1 4.0 9.0 139 34.8 0.0 1026.0 3.2 10.4 10.4 0.0
01/10/19 08:06 10.4 98 10.1 6.5 10.1 140 34.8 0.0 1026.0 5.0 9.8 10.4 0.0
01/10/19 08:07 10.4 98 10.1 5.8 10.1 135 34.8 0.0 1026.0 2.5 10.0 10.4 0.0
01/10/19 08:08 10.4 98 10.1 4.0 10.1 130 34.8 0.0 1026.0 5.4 10.4 10.4 0.0
01/10/19 08:09 10.4 98 10.1 5.8 10.1 121 34.8 0.0 1026.0 3.2 10.0 10.4 0.0
01/10/19 08:10 10.5 98 10.2 5.0 10.1 112 34.8 0.0 1026.0 4.7 10.3 10.5 0.0
01/10/19 08:11 10.5 98 10.2 3.2 10.1 111 34.8 0.0 1026.0 4.7 10.5 10.5 0.0
01/10/19 08:12 10.6 98 10.3 2.2 10.1 106 34.8 0.0 1026.0 5.0 10.6 10.6 0.0
01/10/19 08:13 10.6 98 10.3 4.0 10.1 101 34.8 0.0 1026.0 2.5 10.6 10.6 0.0
01/10/19 08:14 10.6 98 10.3 4.7 10.1 111 34.8 0.0 1026.0 6.1 10.6 10.6 0.0
01/10/19 08:15 10.7 97 10.2 3.2 10.1 103 34.8 0.0 1026.0 2.5 10.7 10.7 0.0
01/10/19 08:17 10.7 97 10.2 4.3 6.1 117 0.0 0.0 1026.0 1.8 10.7 10.7 0.0
01/10/19 08:18 10.7 97 10.2 2.5 6.1 104 0.0 0.0 1026.0 5.8 10.7 10.7 0.0
01/10/19 08:19 10.6 97 10.1 5.8 10.1 116 0.0 0.0 1026.0 4.0 10.2 10.6 0.0
01/10/19 08:20 10.6 97 10.1 3.2 10.1 106 0.0 0.0 1026.0 4.7 10.6 10.6 0.0
01/10/19 08:21 10.6 97 10.1 5.8 10.1 113 0.0 0.0 1026.0 1.8 10.2 10.6 0.0
01/10/19 08:22 10.7 96 10.1 2.2 10.1 115 0.0 0.0 1026.0 3.2 10.7 10.7 0.0
01/10/19 08:23 10.7 96 10.1 5.0 10.1 117 0.0 0.0 1026.0 4.7 10.5 10.7 0.0
01/10/19 08:24 10.7 96 10.1 3.2 10.1 115 0.0 0.0 1026.0 5.8 10.7 10.7 0.0
01/10/19 08:25 10.7 96 10.1 4.3 10.1 119 0.0 0.0 1026.0 3.6 10.7 10.7 0.0
01/10/19 08:26 10.7 96 10.1 6.8 13.7 123 0.0 0.0 1026.0 10.4 10.1 10.7 0.0
01/10/19 08:27 10.8 95 10.0 3.2 13.7 123 0.0 0.0 1026.0 1.8 10.8 10.8 0.0
01/10/19 08:28 10.8 95 10.0 1.8 13.7 131 0.0 0.0 1026.0 3.2 10.8 10.8 0.0
01/10/19 08:29 10.8 95 10.0 4.3 13.7 135 0.0 0.0 1026.0 4.3 10.8 10.8 0.0
01/10/19 08:32 11.0 95 10.2 3.2 10.4 120 0.0 0.0 1026.0 4.3 11.0 11.0 0.0
01/10/19 08:33 11.0 94 10.1 5.8 10.4 126 0.0 0.0 1026.0 4.7 10.7 11.0 0.0
01/10/19 08:34 11.0 94 10.1 6.1 10.4 114 0.0 0.0 1026.0 5.8 10.6 11.0 0.0
01/10/19 08:35 11.0 94 10.1 4.7 11.9 119 0.0 0.0 1026.0 5.8 11.0 11.0 0.0
01/10/19 08:36 11.0 94 10.1 3.2 11.9 119 0.0 0.0 1026.0 5.0 11.0 11.0 0.0
01/10/19 08:37 11.2 94 10.3 4.0 11.9 107 0.0 0.0 1026.0 1.8 11.2 11.2 0.0
01/10/19 08:38 11.2 94 10.3 1.4 11.9 106 0.0 0.0 1026.0 3.2 11.2 11.2 0.0
01/10/19 08:39 11.2 93 10.1 4.7 11.9 100 0.0 0.0 1026.0 9.4 11.2 11.2 0.0
01/10/19 08:40 11.3 93 10.2 5.0 11.9 104 0.0 0.0 1026.0 4.3 11.2 11.3 0.0
01/10/19 08:41 11.3 93 10.2 4.0 11.9 104 0.0 0.0 1026.0 5.0 11.3 11.3 0.0
01/10/19 08:42 11.3 92 10.0 6.5 11.9 104 0.0 0.0 1026.0 5.4 10.9 11.3 0.0
01/10/19 08:43 11.3 92 10.0 6.8 11.9 96 0.0 0.0 1026.0 5.0 10.8 11.3 0.0
01/10/19 08:44 11.5 91 10.1 2.5 11.9 101 0.0 0.0 1026.0 2.2 11.4 11.5 0.0
01/10/19 08:47 11.7 91 10.3 6.5 9.4 128 0.0 0.0 1026.0 0.0 11.3 11.7 0.0
01/10/19 08:48 11.7 91 10.3 2.2 9.4 135 0.0 0.0 1026.0 6.5 11.7 11.7 0.0
01/10/19 08:49 11.7 91 10.3 4.0 9.4 122 0.0 0.0 1026.0 1.8 11.7 11.7 0.0
01/10/19 08:50 11.7 91 10.3 4.3 9.0 147 0.0 0.0 1026.0 1.8 11.7 11.7 0.0
01/10/19 08:51 11.7 90 10.1 3.6 10.1 151 0.0 0.0 1026.0 6.8 11.7 11.7 0.0
01/10/19 08:52 11.7 89 9.9 5.0 10.1 151 0.0 0.0 1026.0 1.8 11.7 11.7 0.0
01/10/19 08:53 11.8 89 10.0 3.6 10.1 157 0.0 0.0 1027.0 10.1 11.7 11.8 0.0
01/10/19 08:54 11.8 89 10.0 5.4 11.5 153 0.0 0.0 1027.0 11.5 11.7 11.8 0.0
01/10/19 08:55 11.9 88 10.0 8.6 13.0 157 0.0 0.0 1027.0 4.3 11.1 11.9 0.0
01/10/19 08:56 12.1 87 10.0 2.5 13.0 154 0.0 0.0 1027.0 7.9 12.1 12.1 0.0
01/10/19 08:57 12.3 87 10.2 5.4 13.0 145 0.0 0.0 1027.0 6.8 12.3 12.3 0.0
01/10/19 08:58 12.4 87 10.3 4.3 13.0 143 0.0 0.0 1027.0 7.6 12.4 12.4 0.0
01/10/19 08:59 12.4 85 9.9 6.1 13.0 152 0.0 0.0 1027.0 5.4 12.2 12.4 0.0
01/10/19 09:00 12.4 85 9.9 5.4 13.0 143 0.0 0.0 1027.0 6.8 12.4 12.4 0.0
01/10/19 09:02 12.3 83 9.5 5.4 11.5 147 0.0 0.0 1027.0 4.3 12.3 12.3 0.0
01/10/19 09:03 12.4 84 9.8 2.2 11.5 143 0.0 0.0 1027.0 1.8 12.4 12.4 0.0
01/10/19 09:04 12.5 84 9.9 3.2 11.5 145 0.0 0.0 1027.0 3.6 12.5 12.5 0.0
01/10/19 09:05 12.5 84 9.9 4.7 9.0 151 0.0 0.0 1027.0 6.1 12.5 12.5 0.0
01/10/19 09:06 12.4 84 9.8 5.4 9.7 153 0.0 0.0 1027.0 1.4 12.4 12.4 0.0
01/10/19 09:07 12.4 83 9.6 2.5 9.7 152 0.0 0.0 1027.0 6.8 12.4 12.4 0.0
01/10/19 09:08 12.4 82 9.4 7.6 15.1 144 0.0 0.0 1027.0 15.1 11.9 12.4 0.0
01/10/19 09:09 12.4 82 9.4 6.8 15.1 143 0.0 0.0 1027.0 7.6 12.0 12.4 0.0
01/10/19 09:13 12.5 81 9.3 5.8 15.1 146 34.8 0.0 1027.0 2.2 12.4 12.5 0.0
01/10/19 09:14 12.6 82 9.6 4.0 15.1 145 34.8 0.0 1027.0 4.0 12.6 12.6 0.0
01/10/19 09:15 12.7 81 9.5 2.5 15.1 143 34.8 0.0 1027.0 2.2 12.7 12.7 0.0
01/10/19 09:16 12.8 82 9.8 0.0 15.1 142 34.8 0.0 1027.0 5.4 12.8 12.8 0.0
01/10/19 09:17 12.9 82 9.9 4.3 15.1 139 34.8 0.0 1027.0 4.0 12.9 12.9 0.0
01/10/19 09:17 12.7 80 9.3 5.0 15.1 156 34.8 0.0 1027.0 3.6 12.9 12.7 0.0
01/10/19 09:18 12.7 80 9.3 5.4 15.1 151 34.8 0.0 1027.0 6.1 12.7 12.7 0.0
01/10/19 09:19 12.6 80 9.2 4.7 7.9 150 34.8 0.0 1027.0 1.4 12.6 12.6 0.0
01/10/19 09:20 12.6 80 9.2 5.0 7.9 140 34.8 0.0 1027.0 4.7 12.6 12.6 0.0
01/10/19 09:21 12.7 80 9.3 5.8 7.9 141 34.8 0.0 1027.0 7.9 12.6 12.7 0.0
01/10/19 09:22 12.7 79 9.1 6.8 10.8 137 34.8 0.0 1027.0 3.2 12.4 12.7 0.0
01/10/19 09:23 12.7 80 9.3 4.3 10.8 137 34.8 0.0 1027.0 9.0 12.7 12.7 0.0
01/10/19 09:24 12.7 79 9.1 7.6 10.8 137 34.8 0.0 1027.0 9.0 12.3 12.7 0.0
01/10/19 09:25 12.7 79 9.1 6.8 12.2 137 34.8 0.0 1027.0 5.0 12.4 12.7 0.0
01/10/19 09:26 12.8 79 9.2 3.6 13.0 137 34.8 0.0 1027.0 13.0 12.8 12.8 0.0
01/10/19 09:27 12.8 79 9.2 9.0 13.0 132 34.8 0.0 1027.0 6.8 12.1 12.8 0.0
01/10/19 09:28 12.8 79 9.2 4.3 13.0 131 34.8 0.0 1027.0 1.8 12.8 12.8 0.0
01/10/19 09:29 13.0 79 9.4 0.0 13.0 130 34.8 0.0 1027.0 1.4 13.0 13.0 0.0
01/10/19 09:30 13.3 80 9.9 2.5 13.0 135 34.8 0.0 1027.0 0.0 13.2 13.3 0.0
01/10/19 09:32 13.4 80 10.0 3.2 13.0 128 0.0 0.0 1027.0 5.4 13.4 13.4 0.0
01/10/19 09:33 13.4 80 10.0 3.2 13.0 130 0.0 0.0 1027.0 1.8 13.4 13.4 0.0
01/10/19 09:34 13.3 80 9.9 4.7 13.0 121 0.0 0.0 1027.0 1.8 13.3 13.3 0.0
01/10/19 09:35 13.3 80 9.9 1.4 13.0 122 0.0 0.0 1027.0 3.6 13.3 13.3 0.0
01/10/19 09:36 13.3 80 9.9 4.0 13.0 142 0.0 0.0 1027.0 0.0 13.3 13.3 0.0
01/10/19 09:37 13.3 79 9.7 1.8 6.8 182 0.0 0.0 1027.0 6.8 13.3 13.3 0.0
01/10/19 09:38 13.3 79 9.7 4.7 8.6 197 0.0 0.0 1027.0 3.2 13.3 13.3 0.0
01/10/19 09:39 13.3 79 9.7 1.8 8.6 188 0.0 0.0 1027.0 4.0 13.3 13.3 0.0
01/10/19 09:40 13.3 79 9.7 1.8 8.6 189 0.0 0.0 1027.0 1.8 13.3 13.3 0.0
01/10/19 09:41 13.3 79 9.7 2.2 8.6 195 0.0 0.0 1027.0 5.0 13.3 13.3 0.0
01/10/19 09:42 13.3 79 9.7 2.2 8.6 194 0.0 0.0 1027.0 0.0 13.3 13.3 0.0
01/10/19 09:43 13.3 79 9.7 1.8 8.6 207 0.0 0.0 1027.0 5.0 13.3 13.3 0.0
01/10/19 09:44 13.3 79 9.7 4.0 8.6 191 0.0 0.0 1027.0 4.3 13.3 13.3 0.0
01/10/19 09:47 13.0 78 9.3 5.4 9.0 175 0.0 0.0 1027.0 0.0 13.0 13.0 0.0
01/10/19 09:48 13.0 78 9.3 0.0 9.0 171 0.0 0.0 1027.0 0.0 13.0 13.0 0.0
01/10/19 09:49 13.1 78 9.3 1.4 9.0 167 0.0 0.0 1027.0 0.0 13.1 13.1 0.0
01/10/19 09:50 13.1 78 9.3 3.6 9.0 152 0.0 0.0 1027.0 6.1 13.1 13.1 0.0
01/10/19 09:51 13.0 78 9.3 3.6 9.4 154 0.0 0.0 1027.0 9.4 13.0 13.0 0.0
01/10/19 09:52 12.9 78 9.2 3.6 9.4 130 0.0 0.0 1027.0 5.8 12.9 12.9 0.0
01/10/19 09:53 12.8 78 9.1 3.2 9.4 131 0.0 0.0 1027.0 1.8 12.9 12.8 0.0
01/10/19 09:54 12.9 78 9.2 2.5 9.4 127 0.0 0.0 1027.0 0.0 12.9 12.9 0.0
01/10/19 09:55 12.9 78 9.2 4.0 9.4 117 0.0 0.0 1027.0 3.2 12.9 12.9 0.0
01/10/19 09:56 13.0 78 9.3 1.8 9.4 112 0.0 0.0 1027.0 2.2 13.0 13.0 0.0
01/10/19 09:57 13.1 78 9.3 1.8 9.4 107 0.0 0.0 1027.0 9.0 13.1 13.1 0.0
01/10/19 09:58 13.1 78 9.3 5.4 10.1 109 0.0 0.0 1027.0 10.1 13.1 13.1 0.0
01/10/19 09:59 13.2 78 9.4 4.7 10.1 116 0.0 0.0 1027.0 5.8 13.2 13.2 0.0
01/10/19 10:00 13.1 77 9.2 6.1 10.1 137 0.0 0.0 1027.0 4.0 13.0 13.1 0.0
01/10/19 10:02 13.0 76 8.9 5.8 10.4 122 0.0 0.0 1027.0 2.5 0.0 13.0 0.0
01/10/19 10:03 13.0 76 8.9 6.1 10.4 126 0.0 0.0 1027.0 4.7 12.9 13.0 0.0
01/10/19 10:04 12.9 76 8.8 4.7 10.4 115 0.0 0.0 1027.0 2.5 12.9 12.9 0.0
01/10/19 10:05 12.9 76 8.8 6.5 10.8 121 0.0 0.0 1027.0 9.4 12.7 12.9 0.0
01/10/19 10:06 12.9 76 8.8 5.0 10.8 113 0.0 0.0 1027.0 5.4 12.9 12.9 0.0
01/10/19 10:07 13.0 76 8.9 1.8 10.8 110 0.0 0.0 1027.0 2.2 13.0 13.0 0.0
01/10/19 10:08 13.1 77 9.2 2.5 10.8 110 0.0 0.0 1027.0 4.7 13.1 13.1 0.0
01/10/19 10:09 13.2 76 9.1 4.3 10.8 118 0.0 0.0 1027.0 5.4 13.2 13.2 0.0
01/10/19 10:10 13.1 76 9.0 5.0 10.8 119 0.0 0.0 1027.0 5.8 13.1 13.1 0.0
01/10/19 10:11 13.1 76 9.0 4.3 10.8 121 0.0 0.0 1027.0 1.8 13.1 13.1 0.0
01/10/19 10:12 13.2 76 9.1 3.2 10.8 115 0.0 0.0 1027.0 0.0 13.2 13.2 0.0
01/10/19 10:13 13.2 76 9.1 2.5 10.8 112 0.0 0.0 1027.0 5.0 13.2 13.2 0.0
01/10/19 10:14 13.3 76 9.2 1.8 10.8 119 0.0 0.0 1027.0 4.7 13.3 13.3 0.0
01/10/19 10:15 13.4 76 9.3 3.2 5.8 120 0.0 0.0 1027.0 5.8 13.3 13.4 0.0
01/10/19 10:17 13.5 76 9.4 3.6 6.8 117 0.0 0.0 1027.0 4.7 13.5 13.5 0.0
01/10/19 10:18 13.5 75 9.2 5.0 10.1 134 0.0 0.0 1027.0 10.1 13.5 13.5 0.0
01/10/19 10:19 13.5 73 8.8 7.2 10.1 134 0.0 0.0 1027.0 2.2 13.3 13.5 0.0
01/10/19 10:20 13.5 73 8.8 3.6 10.1 135 0.0 0.0 1027.0 0.0 13.5 13.5 0.0
01/10/19 10:21 13.7 74 9.1 4.7 10.1 132 0.0 0.0 1027.0 2.2 13.7 13.7 0.0
01/10/19 10:22 13.8 73 9.0 4.3 10.1 132 0.0 0.0 1027.0 2.2 13.8 13.8 0.0
01/10/19 10:23 14.1 73 9.3 3.6 10.1 122 0.0 0.0 1027.0 1.4 13.9 14.1 0.0
01/10/19 10:24 14.4 73 9.6 2.5 10.1 130 0.0 0.0 1027.0 4.3 14.1 14.4 0.0
01/10/19 10:25 14.5 73 9.7 2.2 10.1 137 0.0 0.0 1027.0 6.8 14.5 14.5 0.0
01/10/19 10:26 14.7 72 9.7 4.7 10.1 147 0.0 0.0 1027.0 5.8 14.7 14.7 0.0
01/10/19 10:27 14.8 72 9.8 4.7 10.1 154 0.0 0.0 1027.0 2.5 14.8 14.8 0.0
01/10/19 10:28 14.8 70 9.4 6.5 8.6 144 0.0 0.0 1027.0 5.4 14.8 14.8 0.0
01/10/19 10:29 14.7 69 9.1 6.1 9.7 144 0.0 0.0 1027.0 6.1 14.7 14.7 0.0
01/10/19 10:30 14.6 69 9.0 5.0 9.7 143 0.0 0.0 1027.0 4.0 14.6 14.6 0.0
01/10/19 10:32 14.9 70 9.5 3.2 6.8 147 0.0 0.0 1027.0 2.5 14.9 14.9 0.0
01/10/19 10:33 14.9 69 9.3 4.7 9.4 101 0.0 0.0 1027.0 4.3 14.9 14.9 0.0
01/10/19 10:34 14.9 69 9.3 3.2 9.4 89 0.0 0.0 1027.0 1.8 14.9 14.9 0.0
01/10/19 10:35 15.1 68 9.2 3.2 9.4 101 0.0 0.0 1027.0 5.4 15.1 15.1 0.0
01/10/19 10:36 15.3 69 9.6 5.4 10.4 120 0.0 0.0 1027.0 6.8 15.3 15.3 0.0
01/10/19 10:37 15.2 66 8.9 6.5 10.4 124 0.0 0.0 1027.0 9.0 15.2 15.2 0.0
01/10/19 10:38 15.1 66 8.8 5.4 10.4 128 0.0 0.0 1027.0 1.8 15.1 15.1 0.0
01/10/19 10:39 15.0 66 8.7 5.0 10.4 114 0.0 0.0 1027.0 6.1 15.0 15.0 0.0
01/10/19 10:40 15.2 67 9.1 4.3 10.4 111 0.0 0.0 1027.0 3.2 15.2 15.2 0.0
01/10/19 10:41 15.4 67 9.3 5.4 10.4 114 0.0 0.0 1027.0 5.0 15.4 15.4 0.0
01/10/19 10:42 15.5 66 9.2 5.0 10.4 118 0.0 0.0 1027.0 7.9 15.5 15.5 0.0
01/10/19 10:43 15.5 66 9.2 5.0 10.4 128 0.0 0.0 1027.0 2.2 15.5 15.5 0.0
01/10/19 10:44 15.9 67 9.8 2.2 10.4 133 0.0 0.0 1027.0 0.0 15.9 15.9 0.0
01/10/19 10:47 17.1 65 10.5 2.2 9.0 102 0.0 0.0 1027.0 5.0 17.1 17.1 0.0
01/10/19 10:48 17.1 61 9.5 5.8 7.9 118 0.0 0.0 1027.0 4.0 17.1 17.1 0.0
01/10/19 10:49 17.0 59 8.9 7.6 9.4 126 0.0 0.0 1027.0 4.0 17.0 17.0 0.0
01/10/19 10:50 16.7 60 8.9 4.3 9.4 128 0.0 0.0 1027.0 1.8 16.7 16.7 0.0
01/10/19 10:51 16.8 62 9.5 2.2 9.4 129 0.0 0.0 1027.0 3.2 16.8 16.8 0.0
01/10/19 10:52 16.9 62 9.6 4.0 9.4 131 0.0 0.0 1027.0 4.0 16.9 16.9 0.0
01/10/19 10:53 16.9 59 8.8 5.0 9.4 135 0.0 0.0 1026.0 9.0 17.0 16.9 0.0
01/10/19 10:54 16.6 58 8.3 7.6 9.7 135 0.0 0.0 1026.0 5.8 16.6 16.6 0.0
01/10/19 10:55 16.5 58 8.2 6.5 9.7 135 0.0 0.0 1026.0 4.7 16.5 16.5 0.0
01/10/19 10:56 16.4 58 8.1 6.1 9.7 135 0.0 0.0 1026.0 5.8 16.4 16.4 0.0
01/10/19 10:57 16.5 58 8.2 5.4 13.7 136 0.0 0.0 1026.0 13.7 16.5 16.5 0.0
01/10/19 10:58 16.6 58 8.3 6.8 13.7 136 0.0 0.0 1026.0 5.4 16.6 16.6 0.0
01/10/19 10:59 16.7 58 8.4 5.8 13.7 135 0.0 0.0 1026.0 5.8 16.7 16.7 0.0
01/10/19 11:02 17.5 60 9.6 2.2 13.7 139 0.0 0.0 1026.0 3.2 17.5 17.5 0.0
01/10/19 11:03 17.6 58 9.2 5.0 13.7 138 0.0 0.0 1026.0 0.0 17.6 17.6 0.0
01/10/19 11:04 17.7 57 9.1 4.3 13.7 134 0.0 0.0 1026.0 1.4 17.7 17.7 0.0
01/10/19 11:05 17.9 57 9.3 3.6 13.7 134 0.0 0.0 1026.0 1.8 17.9 17.9 0.0
01/10/19 11:06 18.0 58 9.6 2.5 13.7 126 0.0 0.0 1026.0 1.8 18.0 18.0 0.0
01/10/19 11:07 18.4 58 10.0 2.5 13.7 102 0.0 0.0 1026.0 1.4 18.4 18.4 0.0
01/10/19 11:08 18.8 56 9.8 4.0 9.0 121 0.0 0.0 1026.0 3.6 18.5 18.8 0.0
01/10/19 11:09 19.1 56 10.1 4.0 9.0 133 0.0 0.0 1026.0 4.3 18.8 19.1 0.0
01/10/19 11:10 19.3 56 10.3 3.2 9.0 135 0.0 0.0 1026.0 9.0 19.3 19.3 0.0
01/10/19 11:11 19.2 55 9.9 4.7 9.0 139 0.0 0.0 1026.0 4.0 19.2 19.2 0.0
01/10/19 11:12 19.0 54 9.5 3.6 9.0 133 0.0 0.0 1026.0 4.0 19.0 19.0 0.0
01/10/19 11:13 18.9 53 9.1 5.8 9.0 162 0.0 0.0 1026.0 5.8 18.9 18.9 0.0
01/10/19 11:14 18.8 53 9.0 2.5 9.0 175 0.0 0.0 1026.0 3.2 18.8 18.8 0.0
01/10/19 11:15 18.7 54 9.2 2.2 9.0 162 0.0 0.0 1026.0 3.2 18.7 18.7 0.0
01/10/19 11:17 19.4 54 9.8 2.5 9.0 139 0.0 0.0 1026.0 6.1 19.4 19.4 0.0
01/10/19 11:18 19.3 52 9.2 5.0 9.0 139 0.0 0.0 1026.0 1.4 19.3 19.3 0.0
01/10/19 11:19 19.6 53 9.8 2.2 9.0 140 0.0 0.0 1026.0 4.3 19.6 19.6 0.0
01/10/19 11:20 19.7 53 9.8 4.3 9.0 139 0.0 0.0 1026.0 7.9 19.7 19.7 0.0
01/10/19 11:21 19.4 51 9.0 6.1 8.6 138 0.0 0.0 1026.0 8.6 19.4 19.4 0.0
01/10/19 11:22 18.9 50 8.2 6.8 10.1 137 0.0 0.0 1026.0 7.6 18.9 18.9 0.0
01/10/19 11:23 18.3 51 8.0 6.1 10.1 137 0.0 0.0 1026.0 4.7 18.7 18.3 0.0
01/10/19 11:24 18.3 51 8.0 3.2 10.1 136 0.0 0.0 1026.0 1.4 18.3 18.3 0.0
01/10/19 11:25 18.6 52 8.5 2.2 10.1 135 0.0 0.0 1026.0 1.8 18.6 18.6 0.0
01/10/19 11:26 18.8 52 8.7 3.2 10.1 135 0.0 0.0 1026.0 4.0 18.8 18.8 0.0
01/10/19 11:27 18.9 51 8.5 4.7 10.1 135 0.0 0.0 1026.0 4.7 18.9 18.9 0.0
01/10/19 11:28 19.1 52 9.0 2.5 10.1 135 0.0 0.0 1026.0 0.0 19.1 19.1 0.0
01/10/19 11:29 19.4 52 9.3 0.0 10.1 135 0.0 0.0 1026.0 0.0 19.4 19.4 0.0
01/10/19 11:30 19.4 52 9.3 0.0 10.1 135 0.0 0.0 1026.0 3.2 19.4 19.4 0.0
01/10/19 11:32 19.4 50 8.7 3.2 7.9 135 0.0 0.0 1026.0 7.9 19.4 19.4 0.0
01/10/19 11:33 19.1 49 8.1 5.4 9.4 135 0.0 0.0 1026.0 9.4 19.1 19.1 0.0
01/10/19 11:34 19.0 50 8.3 6.5 9.4 135 0.0 0.0 1026.0 4.3 19.0 19.0 0.0
01/10/19 11:35 18.8 50 8.2 5.0 9.4 132 0.0 0.0 1026.0 4.0 18.8 18.8 0.0
01/10/19 11:36 18.8 50 8.2 2.2 9.4 130 0.0 0.0 1026.0 1.4 18.8 18.8 0.0
01/10/19 11:37 19.2 51 8.8 0.0 9.4 129 0.0 0.0 1026.0 2.5 19.2 19.2 0.0
01/10/19 11:38 19.5 51 9.1 2.5 9.4 124 0.0 0.0 1026.0 0.0 19.5 19.5 0.0
01/10/19 11:39 20.2 51 9.7 1.4 9.4 124 0.0 0.0 1026.0 0.0 20.2 20.2 0.0
01/10/19 11:40 20.4 50 9.6 3.2 9.4 129 0.0 0.0 1026.0 1.8 20.4 20.4 0.0
01/10/19 11:41 20.6 49 9.5 4.0 9.4 127 0.0 0.0 1026.0 8.6 20.6 20.6 0.0
01/10/19 11:42 20.5 49 9.4 3.6 9.4 122 0.0 0.0 1026.0 6.8 20.5 20.5 0.0
01/10/19 11:43 20.2 48 8.8 3.6 9.0 119 0.0 0.0 1026.0 2.5 20.2 20.2 0.0
01/10/19 11:44 20.3 48 8.9 2.5 8.6 114 0.0 0.0 1026.0 6.8 20.3 20.3 0.0
01/10/19 11:47 19.3 48 8.0 4.0 8.6 127 0.0 0.0 1026.0 2.5 19.3 19.3 0.0
01/10/19 11:48 19.2 47 7.6 4.7 8.6 117 0.0 0.0 1026.0 8.6 19.2 19.2 0.0
01/10/19 11:49 18.9 48 7.6 10.4 14.0 127 0.0 0.0 1026.0 9.7 18.9 18.9 0.0
01/10/19 11:50 18.6 48 7.4 7.2 14.0 129 0.0 0.0 1026.0 8.6 18.6 18.6 0.0
01/10/19 11:51 18.4 48 7.2 5.4 14.0 129 0.0 0.0 1026.0 2.5 18.4 18.4 0.0
01/10/19 11:52 18.5 49 7.6 3.6 14.0 130 0.0 0.0 1026.0 2.5 18.5 18.5 0.0
01/10/19 11:53 18.9 49 7.9 2.5 14.0 131 0.0 0.0 1026.0 1.4 18.9 18.9 0.0
01/10/19 11:54 19.7 49 8.7 2.5 14.0 131 0.0 0.0 1026.0 1.4 19.3 19.7 0.0
01/10/19 11:55 19.9 49 8.9 0.0 14.0 132 0.0 0.0 1026.0 0.0 19.7 19.9 0.0
01/10/19 11:56 20.1 48 8.7 4.7 14.0 132 0.0 0.0 1026.0 3.6 20.1 20.1 0.0
01/10/19 11:57 20.2 48 8.8 3.2 14.0 132 0.0 0.0 1026.0 4.7 20.2 20.2 0.0
01/10/19 11:58 20.4 48 9.0 1.8 14.0 135 0.0 0.0 1026.0 0.0 20.4 20.4 0.0
01/10/19 11:59 20.7 49 9.6 1.4 9.0 135 0.0 0.0 1026.0 6.1 20.7 20.7 0.0
01/10/19 12:00 20.7 47 9.0 5.8 6.8 138 0.0 0.0 1026.0 3.2 20.7 20.7 0.0
01/10/19 12:02 20.4 46 8.4 4.3 9.0 134 0.0 0.0 1026.0 9.0 20.5 20.4 0.0
01/10/19 12:03 20.3 46 8.3 4.7 9.0 140 0.0 0.0 1026.0 6.8 20.3 20.3 0.0
01/10/19 12:04 20.1 46 8.1 5.8 13.0 133 0.0 0.0 1026.0 13.0 20.1 20.1 0.0
01/10/19 12:05 19.9 46 7.9 5.8 13.0 134 0.0 0.0 1026.0 5.8 20.1 19.9 0.0
01/10/19 12:06 19.9 47 8.2 2.2 13.0 135 0.0 0.0 1026.0 3.6 19.9 19.9 0.0
01/10/19 12:07 20.2 47 8.5 2.5 13.0 138 0.0 0.0 1026.0 3.6 20.2 20.2 0.0
01/10/19 12:08 20.2 47 8.5 4.0 13.0 136 0.0 0.0 1026.0 4.0 20.2 20.2 0.0
01/10/19 12:09 20.7 47 9.0 3.2 13.0 136 0.0 0.0 1026.0 2.5 20.6 20.7 0.0
01/10/19 12:10 20.7 47 9.0 2.2 13.0 136 0.0 0.0 1026.0 2.5 20.7 20.7 0.0
01/10/19 12:11 20.5 46 8.5 2.2 13.0 134 0.0 0.0 1026.0 4.0 20.5 20.5 0.0
01/10/19 12:12 20.2 46 8.2 3.2 13.0 132 0.0 0.0 1026.0 1.4 20.2 20.2 0.0
01/10/19 12:13 20.0 46 8.0 2.2 13.0 127 0.0 0.0 1026.0 3.2 20.0 20.0 0.0
01/10/19 12:14 19.8 47 8.2 4.0 9.4 121 0.0 0.0 1026.0 4.7 19.8 19.8 0.0
01/10/19 12:17 20.1 47 8.4 4.7 6.1 139 0.0 0.0 1026.0 1.8 20.1 20.1 0.0
01/10/19 12:18 20.5 47 8.8 1.4 6.1 139 0.0 0.0 1026.0 3.2 20.5 20.5 0.0
01/10/19 12:19 20.8 47 9.1 3.2 6.1 147 0.0 0.0 1026.0 3.2 20.8 20.8 0.0
01/10/19 12:20 21.0 46 8.9 4.3 6.8 168 0.0 0.0 1026.0 5.4 21.0 21.0 0.0
01/10/19 12:21 21.2 46 9.1 2.2 6.8 163 0.0 0.0 1026.0 2.5 21.2 21.2 0.0
01/10/19 12:22 21.4 46 9.3 3.2 6.8 155 0.0 0.0 1026.0 6.8 21.4 21.4 0.0
01/10/19 12:23 21.2 45 8.8 5.4 6.8 149 0.0 0.0 1026.0 5.8 21.2 21.2 0.0
01/10/19 12:24 20.8 45 8.4 6.1 8.6 145 0.0 0.0 1026.0 1.8 20.8 20.8 0.0
01/10/19 12:25 21.0 45 8.6 2.2 10.1 145 0.0 0.0 1026.0 10.1 21.0 21.0 0.0
01/10/19 12:26 20.8 45 8.4 5.8 10.1 143 0.0 0.0 1026.0 4.7 20.8 20.8 0.0
01/10/19 12:27 20.6 45 8.2 3.6 10.1 144 0.0 0.0 1026.0 4.3 20.6 20.6 0.0
01/10/19 12:28 20.5 45 8.2 2.5 10.1 143 0.0 0.0 1026.0 1.4 20.5 20.5 0.0
01/10/19 12:29 20.4 45 8.1 3.2 10.1 141 0.0 0.0 1026.0 2.2 20.4 20.4 0.0
01/10/19 12:30 20.1 45 7.8 3.2 10.1 137 0.0 0.0 1026.0 5.4 20.1 20.1 0.0
01/10/19 12:32 19.8 46 7.8 2.2 10.1 150 0.0 0.0 1026.0 4.0 19.8 19.8 0.0
01/10/19 12:33 20.0 45 7.7 1.8 10.1 145 0.0 0.0 1026.0 5.0 20.0 20.0 0.0
01/10/19 12:34 20.2 46 8.2 3.2 10.1 140 0.0 0.0 1026.0 1.8 20.2 20.2 0.0
01/10/19 12:35 20.6 46 8.6 1.8 10.1 145 0.0 0.0 1026.0 6.1 20.6 20.6 0.0
01/10/19 12:36 20.4 45 8.1 4.3 6.5 139 0.0 0.0 1026.0 4.0 20.4 20.4 0.0
01/10/19 12:37 20.2 45 7.9 3.2 6.5 137 0.0 0.0 1026.0 2.5 20.2 20.2 0.0
01/10/19 12:38 20.3 45 8.0 5.0 9.0 135 0.0 0.0 1026.0 9.0 20.3 20.3 0.0
01/10/19 12:39 20.1 45 7.8 6.1 12.6 147 0.0 0.0 1026.0 12.6 20.1 20.1 0.0
01/10/19 12:40 20.1 45 7.8 6.5 12.6 147 0.0 0.0 1026.0 7.9 20.1 20.1 0.0
01/10/19 12:41 19.9 45 7.6 10.1 15.8 143 0.0 0.0 1026.0 6.1 19.9 19.9 0.0
01/10/19 12:42 19.7 45 7.4 6.8 15.8 141 0.0 0.0 1026.0 9.0 19.7 19.7 0.0
01/10/19 12:43 19.7 46 7.7 6.5 15.8 141 0.0 0.0 1026.0 5.4 19.7 19.7 0.0
01/10/19 12:44 19.8 46 7.8 5.4 15.8 142 0.0 0.0 1026.0 5.0 19.8 19.8 0.0
01/10/19 12:45 19.8 46 7.8 5.0 15.8 141 0.0 0.0 1026.0 2.5 19.8 19.8 0.0
01/10/19 12:47 20.6 46 8.6 3.2 12.6 140 0.0 0.0 1026.0 0.0 20.3 20.6 0.0
01/10/19 12:48 20.7 46 8.7 4.0 12.6 133 0.0 0.0 1026.0 1.8 20.7 20.7 0.0
01/10/19 12:49 20.9 46 8.8 2.5 12.6 133 0.0 0.0 1026.0 5.8 20.9 20.9 0.0
01/10/19 12:50 21.0 45 8.6 4.3 9.0 132 0.0 0.0 1026.0 6.1 21.0 21.0 0.0
01/10/19 12:51 20.9 45 8.5 5.8 9.0 133 0.0 0.0 1026.0 4.3 20.9 20.9 0.0
01/10/19 12:52 20.7 44 8.0 5.4 11.2 133 0.0 0.0 1026.0 2.5 20.7 20.7 0.0
01/10/19 12:53 20.6 45 8.2 4.7 11.2 133 0.0 0.0 1026.0 8.6 20.6 20.6 0.0
01/10/19 12:54 20.3 44 7.6 6.1 11.2 133 0.0 0.0 1026.0 6.8 20.4 20.3 0.0
01/10/19 12:55 20.3 44 7.6 5.4 11.9 133 0.0 0.0 1026.0 3.2 20.3 20.3 0.0
01/10/19 12:56 20.2 44 7.6 6.1 11.9 133 0.0 0.0 1026.0 6.8 20.2 20.2 0.0
01/10/19 12:57 20.2 44 7.6 5.8 11.9 133 0.0 0.0 1026.0 6.8 20.2 20.2 0.0
01/10/19 12:58 20.6 45 8.2 4.3 11.9 137 0.0 0.0 1026.0 1.8 20.6 20.6 0.0
01/10/19 12:59 20.9 45 8.5 3.6 11.9 139 0.0 0.0 1026.0 3.2 20.9 20.9 0.0
01/10/19 13:00 20.9 45 8.5 2.5 11.9 140 0.0 0.0 1026.0 2.5 20.9 20.9 0.0
01/10/19 13:02 21.4 44 8.6 2.2 8.6 133 0.0 0.0 1026.0 4.7 21.4 21.4 0.0
01/10/19 13:03 21.2 44 8.5 4.7 8.6 319 0.0 0.0 1026.0 3.2 21.2 21.2 0.0
01/10/19 13:04 21.2 44 8.5 2.5 8.6 306 0.0 0.0 1026.0 4.3 21.2 21.2 0.0
01/10/19 13:05 21.2 44 8.5 2.2 8.6 306 0.0 0.0 1026.0 2.5 21.2 21.2 0.0
01/10/19 13:06 21.1 44 8.4 1.8 8.6 323 0.0 0.0 1026.0 2.2 21.1 21.1 0.0
01/10/19 13:07 21.2 44 8.5 2.5 8.6 328 0.0 0.0 1026.0 1.4 21.2 21.2 0.0
01/10/19 13:08 21.5 44 8.7 1.4 8.6 327 0.0 0.0 1026.0 1.8 21.5 21.5 0.0
01/10/19 13:09 21.7 44 8.9 4.0 8.6 329 0.0 0.0 1026.0 2.5 21.7 21.7 0.0
01/10/19 13:10 21.7 43 8.6 2.5 8.6 338 0.0 0.0 1026.0 6.5 21.7 21.7 0.0
01/10/19 13:11 21.6 43 8.5 6.5 8.6 346 0.0 0.0 1026.0 4.0 21.7 21.6 0.0
01/10/19 13:12 21.4 43 8.3 5.0 9.4 18 0.0 0.0 1026.0 9.4 21.4 21.4 0.0
01/10/19 13:13 21.4 43 8.3 7.2 9.4 80 0.0 0.0 1026.0 6.8 21.4 21.4 0.0
01/10/19 13:14 21.0 43 7.9 7.2 10.1 113 0.0 0.0 1026.0 6.5 21.0 21.0 0.0
01/10/19 13:15 21.0 43 7.9 2.2 10.1 117 0.0 0.0 1026.0 4.7 21.0 21.0 0.0
01/10/19 13:17 21.9 43 8.7 1.4 9.4 80 0.0 0.0 1026.0 3.2 21.6 21.9 0.0
01/10/19 13:18 22.0 43 8.8 2.5 9.4 131 0.0 0.0 1026.0 5.4 22.0 22.0 0.0
01/10/19 13:19 21.8 43 8.7 5.4 9.4 134 0.0 0.0 1026.0 4.3 21.8 21.8 0.0
01/10/19 13:20 21.6 43 8.5 5.0 9.4 139 0.0 0.0 1026.0 5.4 21.6 21.6 0.0
01/10/19 13:21 21.7 42 8.2 7.2 12.6 144 0.0 0.0 1026.0 8.6 21.7 21.7 0.0
01/10/19 13:22 21.5 42 8.0 9.4 12.6 142 0.0 0.0 1026.0 4.0 21.5 21.5 0.0
01/10/19 13:23 21.4 42 8.0 3.6 12.6 144 0.0 0.0 1025.0 4.3 21.4 21.4 0.0
01/10/19 13:24 21.6 43 8.5 2.5 12.6 146 0.0 0.0 1025.0 4.7 21.5 21.6 0.0
01/10/19 13:25 21.6 42 8.1 4.7 12.6 145 0.0 0.0 1025.0 4.7 21.6 21.6 0.0
01/10/19 13:26 21.9 43 8.7 4.0 12.6 145 0.0 0.0 1025.0 4.3 21.9 21.9 0.0
01/10/19 13:27 22.0 42 8.5 5.4 12.6 140 0.0 0.0 1025.0 5.4 22.0 22.0 0.0
01/10/19 13:28 22.3 42 8.8 4.0 12.6 139 0.0 0.0 1025.0 3.6 22.3 22.3 0.0
01/10/19 13:29 22.3 42 8.8 4.7 12.6 142 0.0 0.0 1025.0 6.8 22.3 22.3 0.0
01/10/19 13:30 22.0 41 8.1 7.9 12.6 139 0.0 0.0 1025.0 4.7 22.0 22.0 0.0
01/10/19 13:32 21.7 42 8.2 5.4 6.8 176 0.0 0.0 1025.0 2.5 21.7 21.7 0.0
01/10/19 13:33 21.9 42 8.4 0.0 6.8 184 0.0 0.0 1025.0 3.2 21.7 21.9 0.0
01/10/19 13:34 21.9 42 8.4 3.6 6.8 195 0.0 0.0 1025.0 3.2 21.9 21.9 0.0
01/10/19 13:35 22.2 42 8.7 2.2 6.8 201 0.0 0.0 1025.0 0.0 22.2 22.2 0.0
01/10/19 13:36 22.5 42 8.9 2.5 6.8 209 0.0 0.0 1025.0 2.2 22.5 22.5 0.0
01/10/19 13:37 22.5 41 8.6 4.0 6.8 191 0.0 0.0 1025.0 6.5 22.5 22.5 0.0
01/10/19 13:38 22.1 41 8.2 6.8 10.1 177 0.0 0.0 1024.0 5.4 22.1 22.1 0.0
01/10/19 13:39 22.1 41 8.2 5.0 10.1 167 0.0 0.0 1024.0 6.8 22.1 22.1 0.0
01/10/19 13:40 21.8 42 8.3 4.3 10.1 160 0.0 0.0 1024.0 6.8 22.1 21.8 0.0
01/10/19 13:41 21.8 42 8.3 2.2 10.1 156 0.0 0.0 1024.0 3.6 21.8 21.8 0.0
01/10/19 13:42 22.0 41 8.1 6.5 11.5 137 0.0 0.0 1024.0 11.5 22.0 22.0 0.0
01/10/19 13:43 21.7 41 7.9 7.2 11.5 135 0.0 0.0 1024.0 8.6 21.7 21.7 0.0
01/10/19 13:44 21.6 41 7.8 4.3 11.5 129 0.0 0.0 1024.0 6.8 21.6 21.6 0.0
01/10/19 13:45 21.5 41 7.7 6.8 11.5 130 0.0 0.0 1024.0 7.6 21.5 21.5 0.0
01/10/19 13:47 21.7 41 7.9 3.2 11.5 132 0.0 0.0 1024.0 6.1 21.5 21.7 0.0
01/10/19 13:48 21.7 41 7.9 6.1 11.5 133 0.0 0.0 1024.0 6.1 21.7 21.7 0.0
01/10/19 13:49 21.7 41 7.9 6.8 11.5 130 0.0 0.0 1024.0 2.5 21.7 21.7 0.0
01/10/19 13:50 21.8 42 8.3 2.5 11.5 118 0.0 0.0 1024.0 3.2 21.8 21.8 0.0
01/10/19 13:51 21.9 42 8.4 3.6 11.5 114 0.0 0.0 1024.0 4.7 21.9 21.9 0.0
01/10/19 13:52 22.0 41 8.1 4.7 11.5 117 0.0 0.0 1024.0 4.7 22.0 22.0 0.0
01/10/19 13:53 22.0 41 8.1 4.7 11.5 121 0.0 0.0 1025.0 4.3 22.0 22.0 0.0
01/10/19 13:54 22.1 41 8.2 4.7 11.5 123 0.0 0.0 1025.0 4.7 22.1 22.1 0.0
01/10/19 13:55 21.9 42 8.4 4.7 11.5 124 0.0 0.0 1025.0 2.5 21.9 21.9 0.0
01/10/19 13:56 21.9 41 8.0 3.6 11.5 125 0.0 0.0 1025.0 10.4 21.9 21.9 0.0
01/10/19 13:57 21.7 41 7.9 6.8 11.5 130 0.0 0.0 1025.0 9.4 21.9 21.7 0.0
01/10/19 13:58 21.7 41 7.9 4.7 10.4 135 0.0 0.0 1025.0 5.0 21.7 21.7 0.0
01/10/19 13:59 21.7 41 7.9 4.7 10.4 131 0.0 0.0 1025.0 6.1 21.7 21.7 0.0
01/10/19 14:02 22.2 41 8.3 4.3 10.4 132 0.0 0.0 1025.0 3.2 22.2 22.2 0.0
01/10/19 14:03 22.2 41 8.3 3.2 10.4 133 0.0 0.0 1025.0 1.4 22.2 22.2 0.0
01/10/19 14:04 22.3 41 8.4 1.8 10.4 142 0.0 0.0 1025.0 3.2 22.2 22.3 0.0
01/10/19 14:05 21.9 40 7.7 5.0 10.4 149 0.0 0.0 1025.0 2.2 21.9 21.9 0.0
01/10/19 14:06 21.8 40 7.6 3.6 10.4 146 0.0 0.0 1025.0 3.2 21.8 21.8 0.0
01/10/19 14:07 21.7 40 7.5 3.6 9.4 147 0.0 0.0 1025.0 3.6 21.7 21.7 0.0
01/10/19 14:08 21.8 40 7.6 4.0 6.1 146 0.0 0.0 1025.0 4.3 21.8 21.8 0.0
01/10/19 14:09 21.8 40 7.6 4.0 10.1 144 0.0 0.0 1025.0 10.1 21.8 21.8 0.0
01/10/19 14:10 21.8 41 8.0 5.4 10.1 142 0.0 0.0 1025.0 2.5 21.8 21.8 0.0
01/10/19 14:11 21.9 41 8.0 2.5 10.1 142 0.0 0.0 1025.0 4.0 21.8 21.9 0.0
01/10/19 14:12 21.9 41 8.0 5.8 10.1 140 0.0 0.0 1025.0 4.0 21.9 21.9 0.0
01/10/19 14:13 21.9 41 8.0 3.6 10.1 140 0.0 0.0 1025.0 1.4 21.9 21.9 0.0
01/10/19 14:14 22.1 41 8.2 1.4 10.1 138 0.0 0.0 1025.0 0.0 22.1 22.1 0.0
01/10/19 14:15 22.4 41 8.5 1.4 10.1 135 0.0 0.0 1025.0 4.7 22.4 22.4 0.0
01/10/19 14:17 22.2 40 8.0 4.7 10.1 139 0.0 0.0 1025.0 9.7 22.2 22.2 0.0
01/10/19 14:18 21.9 40 7.7 6.8 10.1 137 0.0 0.0 1025.0 5.4 22.2 21.9 0.0
01/10/19 14:19 21.8 40 7.6 5.4 10.1 139 0.0 0.0 1025.0 5.4 21.8 21.8 0.0
01/10/19 14:20 21.7 40 7.5 5.8 9.7 138 0.0 0.0 1025.0 4.0 21.7 21.7 0.0
01/10/19 14:21 21.5 40 7.3 6.1 9.7 137 0.0 0.0 1025.0 2.5 21.5 21.5 0.0
01/10/19 14:22 21.5 40 7.3 3.6 9.7 135 0.0 0.0 1025.0 1.4 21.5 21.5 0.0
01/10/19 14:23 21.6 40 7.4 3.2 9.7 133 0.0 0.0 1025.0 0.0 21.6 21.6 0.0
01/10/19 14:24 21.6 40 7.4 1.4 9.7 133 0.0 0.0 1025.0 1.4 21.6 21.6 0.0
01/10/19 14:25 22.3 40 8.0 4.0 9.7 133 0.0 0.0 1025.0 6.8 22.2 22.3 0.0
01/10/19 14:26 22.4 40 8.1 4.0 9.7 133 0.0 0.0 1025.0 5.8 22.3 22.4 0.0
01/10/19 14:27 22.5 40 8.2 4.0 9.7 133 0.0 0.0 1025.0 3.6 22.5 22.5 0.0
01/10/19 14:28 22.4 39 7.8 4.3 7.9 133 0.0 0.0 1025.0 5.0 22.4 22.4 0.0
01/10/19 14:29 22.2 39 7.6 4.7 7.9 132 0.0 0.0 1025.0 6.8 22.2 22.2 0.0
01/10/19 14:30 22.1 39 7.5 6.1 7.9 133 0.0 0.0 1025.0 4.3 22.1 22.1 0.0
01/10/19 14:32 22.1 39 7.5 1.8 6.8 133 0.0 0.0 1025.0 5.0 22.1 22.1 0.0
01/10/19 14:33 22.2 39 7.6 6.8 8.6 133 0.0 0.0 1025.0 4.0 22.2 22.2 0.0
01/10/19 14:34 22.1 39 7.5 4.0 8.6 134 0.0 0.0 1025.0 5.0 22.1 22.1 0.0
01/10/19 14:35 22.0 39 7.4 4.7 8.6 134 0.0 0.0 1025.0 6.8 22.0 22.0 0.0
01/10/19 14:36 21.9 40 7.7 3.2 8.6 134 0.0 0.0 1025.0 4.7 21.9 21.9 0.0
01/10/19 14:37 21.9 40 7.7 4.0 8.6 134 0.0 0.0 1025.0 2.5 21.9 21.9 0.0
01/10/19 14:38 21.8 39 7.2 5.0 8.6 134 0.0 0.0 1024.0 3.2 21.8 21.8 0.0
01/10/19 14:39 21.9 39 7.3 6.1 9.0 134 0.0 0.0 1024.0 4.7 21.9 21.9 0.0
01/10/19 14:40 22.2 39 7.6 4.3 9.0 139 0.0 0.0 1024.0 2.2 22.0 22.2 0.0
01/10/19 14:41 22.1 39 7.5 3.6 9.0 139 0.0 0.0 1024.0 6.5 22.1 22.1 0.0
01/10/19 14:42 22.1 39 7.5 4.7 9.0 138 0.0 0.0 1024.0 8.6 22.1 22.1 0.0
01/10/19 14:43 22.2 39 7.6 4.3 9.0 139 0.0 0.0 1024.0 1.8 22.2 22.2 0.0
01/10/19 14:44 22.5 39 7.8 0.0 9.0 139 0.0 0.0 1024.0 0.0 22.5 22.5 0.0
01/10/19 14:45 22.9 40 8.6 0.0 9.0 141 0.0 0.0 1024.0 4.0 22.9 22.9 0.0
01/10/19 14:47 23.0 39 8.3 4.0 8.6 159 0.0 0.0 1024.0 3.2 23.0 23.0 0.0
01/10/19 14:48 23.0 38 7.9 1.4 8.6 158 0.0 0.0 1024.0 6.1 23.0 23.0 0.0
01/10/19 14:49 23.0 38 7.9 4.3 8.6 152 0.0 0.0 1024.0 3.6 23.0 23.0 0.0
01/10/19 14:50 23.0 38 7.9 2.5 8.6 150 0.0 0.0 1024.0 0.0 23.0 23.0 0.0
01/10/19 14:51 23.2 39 8.5 1.8 8.6 148 0.0 0.0 1024.0 3.6 23.2 23.2 0.0
01/10/19 14:52 23.0 38 7.9 3.2 8.6 147 0.0 0.0 1024.0 4.0 23.0 23.0 0.0
01/10/19 14:53 22.8 38 7.7 3.2 6.1 142 0.0 0.0 1026.0 4.0 22.8 22.8 0.0
01/10/19 14:54 22.6 38 7.6 5.8 9.4 152 0.0 0.0 1026.0 5.8 22.6 22.6 0.0
01/10/19 14:55 22.6 38 7.6 4.0 9.4 148 0.0 0.0 1026.0 2.5 22.6 22.6 0.0
01/10/19 14:56 22.7 38 7.6 4.3 9.4 147 0.0 0.0 1026.0 1.8 22.6 22.7 0.0
01/10/19 14:57 23.0 38 7.9 2.5 9.4 141 0.0 0.0 1026.0 3.2 23.0 23.0 0.0
01/10/19 14:58 23.1 38 8.0 2.2 9.4 139 0.0 0.0 1026.0 5.0 23.1 23.1 0.0
01/10/19 14:59 23.3 38 8.2 2.5 9.4 139 0.0 0.0 1026.0 2.5 23.3 23.3 0.0
01/10/19 15:00 23.4 38 8.3 3.6 9.7 143 0.0 0.0 1026.0 9.7 23.4 23.4 0.0
01/10/19 15:02 23.1 38 8.0 2.5 9.7 144 0.0 0.0 1026.0 1.8 23.1 23.1 0.0
01/10/19 15:03 23.3 38 8.2 1.4 9.7 143 0.0 0.0 1026.0 1.8 23.1 23.3 0.0
01/10/19 15:04 23.4 38 8.3 3.2 9.7 141 0.0 0.0 1026.0 0.0 23.3 23.4 0.0
01/10/19 15:05 23.5 38 8.4 0.0 9.7 139 0.0 0.0 1026.0 0.0 23.5 23.5 0.0
01/10/19 15:06 23.6 38 8.4 1.4 9.7 136 0.0 0.0 1026.0 2.5 23.6 23.6 0.0
01/10/19 15:07 23.7 38 8.5 2.2 9.7 141 0.0 0.0 1026.0 6.1 23.7 23.7 0.0
01/10/19 15:08 23.4 38 8.3 4.3 9.7 151 0.0 0.0 1025.0 3.2 23.4 23.4 0.0
01/10/19 15:09 23.2 37 7.7 3.6 9.7 147 0.0 0.0 1025.0 4.0 23.2 23.2 0.0
01/10/19 15:10 22.9 38 7.8 3.6 6.5 145 0.0 0.0 1025.0 6.5 23.1 22.9 0.0
01/10/19 15:11 23.0 38 7.9 3.2 6.5 144 0.0 0.0 1025.0 0.0 22.9 23.0 0.0
01/10/19 15:12 23.2 38 8.1 2.2 6.5 146 0.0 0.0 1025.0 3.6 23.2 23.2 0.0
01/10/19 15:13 23.2 38 8.1 3.2 6.5 149 0.0 0.0 1025.0 5.0 23.2 23.2 0.0
01/10/19 15:14 23.1 37 7.6 4.3 6.5 149 0.0 0.0 1025.0 4.7 23.1 23.1 0.0
01/10/19 15:15 23.1 38 8.0 2.2 6.8 154 0.0 0.0 1025.0 6.1 23.1 23.1 0.0
01/10/19 15:17 22.8 37 7.3 6.5 9.4 141 0.0 0.0 1025.0 6.8 22.8 22.8 0.0
01/10/19 15:18 22.6 38 7.6 2.2 9.4 139 0.0 0.0 1025.0 6.8 22.5 22.6 0.0
01/10/19 15:19 22.8 38 7.7 3.6 9.4 142 0.0 0.0 1025.0 2.2 22.8 22.8 0.0
01/10/19 15:20 23.1 38 8.0 0.0 9.4 142 0.0 0.0 1025.0 0.0 23.1 23.1 0.0
01/10/19 15:21 23.2 38 8.1 1.8 9.4 140 0.0 0.0 1025.0 4.7 23.2 23.2 0.0
01/10/19 15:22 23.1 37 7.6 5.0 9.4 139 0.0 0.0 1025.0 2.2 23.1 23.1 0.0
01/10/19 15:23 23.0 37 7.5 2.5 9.4 140 0.0 0.0 1025.0 3.2 23.0 23.0 0.0
01/10/19 15:24 22.8 38 7.7 4.0 9.4 143 0.0 0.0 1025.0 5.4 22.8 22.8 0.0
01/10/19 15:25 22.5 38 7.5 1.8 9.4 142 0.0 0.0 1025.0 0.0 22.5 22.5 0.0
01/10/19 15:26 22.1 38 7.1 1.4 9.4 143 0.0 0.0 1025.0 2.2 22.1 22.1 0.0
01/10/19 15:27 21.8 38 6.8 1.4 7.9 145 0.0 0.0 1025.0 3.2 21.8 21.8 0.0
01/10/19 15:28 21.5 38 6.6 2.2 7.9 145 0.0 0.0 1025.0 4.3 21.5 21.5 0.0
01/10/19 15:29 21.3 38 6.4 2.2 7.9 144 0.0 0.0 1025.0 1.8 21.3 21.3 0.0
01/10/19 15:30 21.5 38 6.6 1.8 7.9 146 0.0 0.0 1025.0 1.4 21.5 21.5 0.0
01/10/19 15:32 21.8 38 6.8 3.6 6.1 162 0.0 0.0 1025.0 2.5 21.8 21.8 0.0
01/10/19 15:33 22.0 38 7.0 2.2 6.1 206 0.0 0.0 1025.0 1.4 21.9 22.0 0.0
01/10/19 15:34 22.2 38 7.2 2.2 6.1 190 0.0 0.0 1025.0 1.4 22.2 22.2 0.0
01/10/19 15:35 22.0 38 7.0 4.7 9.0 163 0.0 0.0 1025.0 3.2 22.0 22.0 0.0
01/10/19 15:36 22.0 38 7.0 3.6 9.0 153 0.0 0.0 1025.0 2.5 22.0 22.0 0.0
01/10/19 15:37 22.1 38 7.1 1.8 9.0 151 0.0 0.0 1025.0 1.4 22.1 22.1 0.0
01/10/19 15:38 22.3 38 7.3 0.0 9.0 154 0.0 0.0 1025.0 3.2 22.3 22.3 0.0
01/10/19 15:39 22.5 38 7.5 1.4 9.0 158 0.0 0.0 1025.0 0.0 22.5 22.5 0.0
01/10/19 15:40 22.7 38 7.6 0.0 9.0 160 0.0 0.0 1025.0 1.8 22.7 22.7 0.0
01/10/19 15:41 22.8 38 7.7 2.2 9.0 151 0.0 0.0 1025.0 5.4 22.8 22.8 0.0
01/10/19 15:42 22.8 38 7.7 4.3 9.0 147 0.0 0.0 1025.0 2.2 22.8 22.8 0.0
01/10/19 15:43 22.8 38 7.7 1.4 9.0 139 0.0 0.0 1025.0 2.5 22.8 22.8 0.0
01/10/19 15:44 22.8 38 7.7 2.2 9.0 133 0.0 0.0 1025.0 0.0 22.8 22.8 0.0
01/10/19 15:47 23.0 38 7.9 1.4 5.4 176 0.0 0.0 1025.0 3.2 23.0 23.0 0.0
01/10/19 15:48 22.9 38 7.8 2.2 5.4 186 0.0 0.0 1025.0 0.0 22.9 22.9 0.0
01/10/19 15:49 22.9 38 7.8 1.4 6.5 167 0.0 0.0 1025.0 6.5 22.9 22.9 0.0
01/10/19 15:50 22.9 38 7.8 4.7 6.5 160 0.0 0.0 1025.0 2.5 22.9 22.9 0.0
01/10/19 15:51 22.9 38 7.8 2.5 7.9 157 0.0 0.0 1025.0 7.9 22.9 22.9 0.0
01/10/19 15:52 22.8 38 7.7 5.0 7.9 150 0.0 0.0 1025.0 6.8 22.8 22.8 0.0
01/10/19 15:53 22.7 38 7.6 2.5 7.9 151 0.0 0.0 1025.0 3.2 22.7 22.7 0.0
01/10/19 15:54 22.7 38 7.6 3.6 7.9 148 0.0 0.0 1025.0 3.2 22.7 22.7 0.0
01/10/19 15:55 22.6 38 7.6 2.5 7.9 148 0.0 0.0 1025.0 0.0 22.6 22.6 0.0
01/10/19 15:56 22.8 38 7.7 0.0 7.9 147 0.0 0.0 1025.0 1.4 22.7 22.8 0.0
01/10/19 15:57 22.9 38 7.8 0.0 7.9 142 0.0 0.0 1025.0 2.2 22.9 22.9 0.0
01/10/19 15:58 22.9 38 7.8 0.0 7.9 138 0.0 0.0 1025.0 4.3 22.9 22.9 0.0
01/10/19 15:59 22.9 38 7.8 2.2 7.9 138 0.0 0.0 1025.0 1.8 22.9 22.9 0.0
01/10/19 16:02 22.8 37 7.3 2.2 6.8 142 0.0 0.0 1025.0 0.0 22.8 22.8 0.0
01/10/19 16:03 22.8 38 7.7 0.0 4.3 139 0.0 0.0 1025.0 2.5 22.8 22.8 0.0
01/10/19 16:04 22.9 38 7.8 2.2 4.3 137 0.0 0.0 1025.0 1.4 22.9 22.9 0.0
01/10/19 16:05 22.9 38 7.8 1.8 4.3 135 0.0 0.0 1025.0 3.6 22.9 22.9 0.0
01/10/19 16:06 22.8 38 7.7 1.4 4.3 135 0.0 0.0 1025.0 0.0 22.8 22.8 0.0
01/10/19 16:07 22.9 38 7.8 1.4 4.3 135 0.0 0.0 1025.0 2.5 22.9 22.9 0.0
01/10/19 16:08 22.9 38 7.8 4.0 6.5 135 0.0 0.0 1025.0 3.6 22.9 22.9 0.0
01/10/19 16:09 22.9 38 7.8 2.2 6.5 135 0.0 0.0 1025.0 2.5 22.9 22.9 0.0
01/10/19 16:10 22.9 38 7.8 3.6 6.5 135 0.0 0.0 1025.0 3.2 22.9 22.9 0.0
01/10/19 16:11 22.2 37 6.8 1.8 6.5 135 0.0 0.0 1025.0 0.0 22.2 22.2 0.0
01/10/19 16:12 22.2 37 6.8 0.0 6.5 135 0.0 0.0 1025.0 0.0 22.2 22.2 0.0
01/10/19 16:13 22.2 37 6.8 0.0 6.5 135 0.0 0.0 1025.0 0.0 22.2 22.2 0.0
01/10/19 16:14 22.3 37 6.9 0.0 6.5 137 0.0 0.0 1025.0 4.0 22.3 22.3 0.0
01/10/19 16:15 22.3 37 6.9 2.5 6.5 140 0.0 0.0 1025.0 4.3 22.3 22.3 0.0
01/10/19 16:17 21.9 38 6.9 2.5 4.3 138 0.0 0.0 1025.0 2.2 21.9 21.9 0.0
01/10/19 16:18 21.8 38 6.8 3.6 4.7 137 0.0 0.0 1025.0 4.3 21.8 21.8 0.0
01/10/19 16:19 21.5 38 6.6 4.0 9.0 139 0.0 0.0 1025.0 6.5 21.5 21.5 0.0
01/10/19 16:20 21.5 38 6.6 2.5 9.0 139 0.0 0.0 1025.0 0.0 21.5 21.5 0.0
01/10/19 16:21 21.6 38 6.7 1.8 9.0 143 0.0 0.0 1025.0 1.4 21.6 21.6 0.0
01/10/19 16:22 21.7 38 6.8 1.4 9.0 144 0.0 0.0 1025.0 4.3 21.7 21.7 0.0
01/10/19 16:23 21.6 38 6.7 2.5 9.0 143 0.0 0.0 1024.0 4.7 21.6 21.6 0.0
01/10/19 16:24 21.6 38 6.7 3.6 9.0 142 0.0 0.0 1024.0 4.3 21.6 21.6 0.0
01/10/19 16:25 21.5 38 6.6 1.8 9.0 141 0.0 0.0 1024.0 0.0 21.5 21.5 0.0
01/10/19 16:26 21.4 38 6.5 1.8 9.0 140 0.0 0.0 1024.0 2.2 21.5 21.4 0.0
01/10/19 16:27 21.3 38 6.4 3.6 9.0 141 0.0 0.0 1024.0 4.0 21.4 21.3 0.0
01/10/19 16:28 21.3 38 6.4 1.4 9.0 143 0.0 0.0 1024.0 4.3 21.3 21.3 0.0
01/10/19 16:29 21.3 38 6.4 2.2 5.0 140 0.0 0.0 1024.0 0.0 21.3 21.3 0.0
01/10/19 16:32 21.0 39 6.5 4.0 5.8 140 0.0 0.0 1024.0 2.5 21.0 21.0 0.0
01/10/19 16:33 20.9 39 6.4 3.6 6.5 146 0.0 0.0 1024.0 4.3 20.9 20.9 0.0
01/10/19 16:34 20.5 39 6.1 2.5 6.5 148 0.0 0.0 1024.0 0.0 20.6 20.5 0.0
01/10/19 16:35 20.4 39 6.0 0.0 6.5 149 0.0 0.0 1024.0 0.0 20.5 20.4 0.0
01/10/19 16:36 20.1 39 5.7 3.2 6.5 147 0.0 0.0 1024.0 2.5 20.1 20.1 0.0
01/10/19 16:37 20.0 39 5.6 0.0 6.5 148 0.0 0.0 1024.0 1.8 20.0 20.0 0.0
01/10/19 16:38 19.7 40 5.7 2.5 6.5 152 0.0 0.0 1025.0 0.0 19.7 19.7 0.0
01/10/19 16:39 19.6 40 5.6 0.0 6.5 154 0.0 0.0 1025.0 0.0 19.6 19.6 0.0
01/10/19 16:40 19.4 40 5.4 0.0 6.5 153 0.0 0.0 1025.0 0.0 19.4 19.4 0.0
01/10/19 16:41 19.1 40 5.2 1.4 6.5 157 0.0 0.0 1025.0 3.2 19.2 19.1 0.0
01/10/19 16:42 19.0 40 5.1 1.4 6.5 164 0.0 0.0 1025.0 0.0 19.1 19.0 0.0
01/10/19 16:43 18.8 41 5.3 1.4 5.0 164 0.0 0.0 1025.0 2.2 19.0 18.8 0.0
01/10/19 16:44 18.7 41 5.2 2.2 5.0 158 0.0 0.0 1025.0 0.0 18.7 18.7 0.0
01/10/19 16:45 18.6 41 5.1 1.8 5.0 158 0.0 0.0 1025.0 1.8 18.6 18.6 0.0
01/10/19 16:47 18.2 42 5.1 3.6 7.9 149 0.0 0.0 1025.0 2.5 18.2 18.2 0.0
01/10/19 16:48 18.0 42 4.9 1.4 7.9 151 0.0 0.0 1025.0 1.4 18.0 18.0 0.0
01/10/19 16:49 17.9 43 5.1 1.8 7.9 145 0.0 0.0 1025.0 4.7 18.0 17.9 0.0
01/10/19 16:50 17.7 43 5.0 2.2 7.9 153 0.0 0.0 1025.0 5.0 17.7 17.7 0.0
01/10/19 16:51 17.7 43 5.0 1.8 7.9 157 0.0 0.0 1025.0 4.0 17.7 17.7 0.0
01/10/19 16:52 17.6 43 4.9 1.8 7.9 161 0.0 0.0 1025.0 0.0 17.7 17.6 0.0
01/10/19 16:53 17.5 43 4.8 1.8 7.9 161 0.0 0.0 1025.0 0.0 17.6 17.5 0.0
01/10/19 16:54 17.4 43 4.7 0.0 7.9 147 0.0 0.0 1025.0 6.8 17.4 17.4 0.0
01/10/19 16:55 17.3 44 4.9 5.0 7.9 122 0.0 0.0 1025.0 4.3 17.3 17.3 0.0
01/10/19 16:56 17.0 44 4.6 3.2 7.9 125 0.0 0.0 1025.0 4.3 17.1 17.0 0.0
01/10/19 16:57 16.8 45 4.8 3.2 7.9 124 0.0 0.0 1025.0 2.5 17.0 16.8 0.0
01/10/19 16:58 16.8 45 4.8 3.2 7.9 120 0.0 0.0 1025.0 0.0 16.8 16.8 0.0
01/10/19 16:59 16.8 45 4.8 1.8 7.9 120 0.0 0.0 1025.0 0.0 16.8 16.8 0.0
01/10/19 17:00 16.7 45 4.7 0.0 7.9 109 0.0 0.0 1025.0 4.3 16.7 16.7 0.0
01/10/19 17:02 16.5 45 4.5 3.6 6.8 130 0.0 0.0 1025.0 6.5 16.5 16.5 0.0
01/10/19 17:03 16.5 46 4.8 2.5 6.8 131 0.0 0.0 1025.0 1.4 16.5 16.5 0.0
01/10/19 17:04 16.3 46 4.6 2.2 7.2 132 0.0 0.0 1025.0 0.0 16.4 16.3 0.0
01/10/19 17:05 16.3 46 4.6 3.2 7.2 130 0.0 0.0 1025.0 4.0 16.3 16.3 0.0
01/10/19 17:06 16.2 47 4.9 3.2 7.2 132 0.0 0.0 1025.0 0.0 16.2 16.2 0.0
01/10/19 17:07 16.1 47 4.8 1.4 7.2 132 0.0 0.0 1025.0 3.6 16.1 16.1 0.0
01/10/19 17:08 16.1 47 4.8 2.5 7.2 136 0.0 0.0 1025.0 0.0 16.1 16.1 0.0
01/10/19 17:09 16.0 47 4.7 0.0 7.2 137 0.0 0.0 1025.0 0.0 16.0 16.0 0.0
01/10/19 17:10 15.9 47 4.6 2.2 7.2 137 0.0 0.0 1025.0 6.8 15.9 15.9 0.0
01/10/19 17:11 15.9 48 4.9 3.2 7.2 138 0.0 0.0 1025.0 1.4 15.9 15.9 0.0
01/10/19 17:12 15.8 48 4.8 1.4 7.2 138 0.0 0.0 1025.0 0.0 15.8 15.8 0.0
01/10/19 17:13 15.8 48 4.8 0.0 7.2 139 0.0 0.0 1025.0 0.0 15.8 15.8 0.0
01/10/19 17:14 15.7 48 4.7 1.4 6.8 132 0.0 0.0 1025.0 4.3 15.7 15.7 0.0
01/10/19 17:17 15.5 49 4.8 0.0 6.8 134 0.0 0.0 1025.0 0.0 15.5 15.5 0.0
01/10/19 17:18 15.5 49 4.8 1.4 6.8 135 0.0 0.0 1025.0 0.0 15.5 15.5 0.0
01/10/19 17:19 15.4 50 5.0 1.4 6.8 142 0.0 0.0 1025.0 2.2 15.4 15.4 0.0
01/10/19 17:20 15.4 50 5.0 1.8 6.8 141 0.0 0.0 1025.0 0.0 15.4 15.4 0.0
01/10/19 17:21 15.3 50 4.9 0.0 4.3 142 0.0 0.0 1025.0 2.5 15.3 15.3 0.0
01/10/19 17:22 15.3 50 4.9 1.4 4.3 141 0.0 0.0 1025.0 1.4 15.3 15.3 0.0
01/10/19 17:23 15.2 50 4.8 2.2 4.3 141 0.0 0.0 1025.0 0.0 15.2 15.2 0.0
01/10/19 17:24 15.2 50 4.8 0.0 4.3 140 0.0 0.0 1025.0 2.5 15.2 15.2 0.0
01/10/19 17:25 15.2 50 4.8 2.2 4.3 128 0.0 0.0 1025.0 0.0 15.2 15.2 0.0
01/10/19 17:26 15.1 51 5.0 1.4 4.3 127 0.0 0.0 1025.0 0.0 15.1 15.1 0.0
01/10/19 17:27 15.1 51 5.0 1.4 4.3 128 0.0 0.0 1025.0 0.0 15.1 15.1 0.0
01/10/19 17:28 15.0 51 4.9 0.0 4.7 126 0.0 0.0 1025.0 4.7 15.0 15.0 0.0
01/10/19 17:29 15.0 52 5.2 3.2 4.7 126 0.0 0.0 1025.0 3.6 15.0 15.0 0.0
01/10/19 17:30 14.9 52 5.1 1.8 4.7 124 0.0 0.0 1025.0 2.2 14.9 14.9 0.0
01/10/19 17:32 14.9 53 5.4 1.8 4.7 130 0.0 0.0 1025.0 1.8 14.9 14.9 0.0
01/10/19 17:33 14.8 53 5.3 1.8 4.7 129 0.0 0.0 1025.0 0.0 14.8 14.8 0.0
01/10/19 17:34 14.7 53 5.2 0.0 4.7 130 0.0 0.0 1025.0 0.0 14.8 14.7 0.0
01/10/19 17:35 14.7 53 5.2 2.2 5.0 101 0.0 0.0 1025.0 1.8 14.7 14.7 0.0
01/10/19 17:36 14.6 53 5.1 1.8 5.0 101 0.0 0.0 1025.0 0.0 14.6 14.6 0.0
01/10/19 17:37 14.6 54 5.4 1.8 5.0 110 0.0 0.0 1025.0 1.4 14.6 14.6 0.0
01/10/19 17:38 14.5 53 5.0 0.0 5.0 110 0.0 0.0 1025.0 0.0 14.5 14.5 0.0
01/10/19 17:39 14.5 54 5.3 1.4 5.0 119 0.0 0.0 1025.0 0.0 14.5 14.5 0.0
01/10/19 17:40 14.5 54 5.3 0.0 5.0 117 0.0 0.0 1025.0 0.0 14.5 14.5 0.0
01/10/19 17:41 14.4 54 5.2 0.0 5.0 115 0.0 0.0 1025.0 0.0 14.4 14.4 0.0
01/10/19 17:42 14.4 54 5.2 1.4 5.0 131 0.0 0.0 1025.0 3.2 14.4 14.4 0.0
01/10/19 17:43 14.3 54 5.1 0.0 5.0 131 0.0 0.0 1025.0 0.0 14.3 14.3 0.0
01/10/19 17:44 14.3 54 5.1 1.8 5.0 135 0.0 0.0 1025.0 0.0 14.3 14.3 0.0
01/10/19 17:45 14.2 55 5.3 1.8 5.0 141 0.0 0.0 1025.0 3.6 14.2 14.2 0.0
01/10/19 17:47 14.2 55 5.3 0.0 7.9 155 0.0 0.0 1025.0 7.9 14.2 14.2 0.0
01/10/19 17:48 14.1 56 5.4 4.7 7.9 176 0.0 0.0 1025.0 1.4 14.1 14.1 0.0
01/10/19 17:49 14.0 56 5.4 0.0 7.9 169 0.0 0.0 1025.0 3.2 14.1 14.0 0.0
01/10/19 17:50 14.0 56 5.4 1.8 7.9 163 0.0 0.0 1025.0 0.0 14.0 14.0 0.0
01/10/19 17:51 14.0 56 5.4 1.8 7.9 157 0.0 0.0 1025.0 1.4 14.0 14.0 0.0
01/10/19 17:52 13.9 57 5.5 1.8 7.9 153 0.0 0.0 1025.0 1.4 13.9 13.9 0.0
01/10/19 17:53 13.9 57 5.5 0.0 7.9 152 0.0 0.0 1026.0 1.4 13.9 13.9 0.0
01/10/19 17:54 13.9 57 5.5 1.8 7.9 157 0.0 0.0 1026.0 3.6 13.9 13.9 0.0
01/10/19 17:55 13.8 58 5.7 0.0 7.9 158 0.0 0.0 1026.0 0.0 13.8 13.8 0.0
01/10/19 17:56 13.8 58 5.7 0.0 7.9 159 0.0 0.0 1026.0 1.8 13.8 13.8 0.0
01/10/19 17:57 13.7 58 5.6 1.4 6.8 160 0.0 0.0 1026.0 0.0 13.7 13.7 0.0
01/10/19 17:58 13.7 58 5.6 1.4 5.0 148 0.0 0.0 1026.0 2.5 13.7 13.7 0.0
01/10/19 17:59 13.6 60 6.0 3.6 7.9 144 0.0 0.0 1026.0 2.2 13.6 13.6 0.0
01/10/19 18:00 13.6 60 6.0 0.0 7.9 146 0.0 0.0 1026.0 0.0 13.6 13.6 0.0
01/10/19 18:02 13.5 59 5.6 0.0 3.6 146 0.0 0.0 1026.0 1.4 13.5 13.5 0.0
01/10/19 18:03 13.5 59 5.6 1.4 3.6 142 0.0 0.0 1026.0 0.0 13.5 13.5 0.0
01/10/19 18:04 13.4 59 5.5 0.0 3.6 141 0.0 0.0 1026.0 0.0 13.4 13.4 0.0
01/10/19 18:05 13.4 59 5.5 0.0 3.2 139 0.0 0.0 1026.0 0.0 13.4 13.4 0.0
01/10/19 18:06 13.3 61 5.9 1.8 5.0 132 0.0 0.0 1026.0 1.4 13.4 13.3 0.0
01/10/19 18:07 13.3 61 5.9 0.0 5.0 130 0.0 0.0 1026.0 0.0 13.3 13.3 0.0
01/10/19 18:08 13.3 61 5.9 0.0 5.0 130 0.0 0.0 1026.0 0.0 13.3 13.3 0.0
01/10/19 18:09 13.2 61 5.8 0.0 5.0 129 0.0 0.0 1026.0 0.0 13.2 13.2 0.0
01/10/19 18:10 13.2 61 5.8 0.0 5.0 127 0.0 0.0 1026.0 0.0 13.2 13.2 0.0
01/10/19 18:11 13.2 60 5.6 0.0 5.0 127 0.0 0.0 1026.0 0.0 13.2 13.2 0.0
01/10/19 18:12 13.1 61 5.7 0.0 5.0 130 0.0 0.0 1026.0 0.0 13.1 13.1 0.0
01/10/19 18:13 13.1 61 5.7 0.0 5.0 128 0.0 0.0 1026.0 0.0 13.1 13.1 0.0
01/10/19 18:14 13.0 61 5.6 0.0 5.0 127 0.0 0.0 1026.0 0.0 13.1 13.0 0.0
01/10/19 18:15 13.0 61 5.6 0.0 5.0 127 0.0 0.0 1026.0 0.0 13.0 13.0 0.0
01/10/19 18:17 12.9 62 5.8 0.0 2.5 135 0.0 0.0 1026.0 0.0 12.9 12.9 0.0
01/10/19 18:18 12.9 62 5.8 0.0 2.5 135 0.0 0.0 1026.0 0.0 12.9 12.9 0.0
01/10/19 18:19 12.8 62 5.7 0.0 2.5 135 0.0 0.0 1026.0 0.0 12.8 12.8 0.0
01/10/19 18:20 12.7 62 5.6 0.0 2.5 135 0.0 0.0 1026.0 0.0 12.8 12.7 0.0
01/10/19 18:21 12.7 62 5.6 0.0 2.5 135 0.0 0.0 1026.0 0.0 12.7 12.7 0.0
01/10/19 18:22 12.7 62 5.6 0.0 2.5 135 0.0 0.0 1026.0 1.4 12.7 12.7 0.0
01/10/19 18:23 12.6 62 5.5 0.0 2.5 135 0.0 0.0 1026.0 0.0 12.6 12.6 0.0
01/10/19 18:24 12.6 63 5.7 0.0 2.5 135 0.0 0.0 1026.0 0.0 12.6 12.6 0.0
01/10/19 18:25 12.6 63 5.7 1.4 4.7 135 0.0 0.0 1026.0 0.0 12.6 12.6 0.0
01/10/19 18:26 12.6 64 6.0 0.0 4.7 135 0.0 0.0 1026.0 0.0 12.6 12.6 0.0
01/10/19 18:27 12.5 64 5.9 1.4 4.7 150 0.0 0.0 1026.0 0.0 12.6 12.5 0.0
01/10/19 18:28 12.5 65 6.1 1.4 4.7 150 0.0 0.0 1026.0 0.0 12.5 12.5 0.0
01/10/19 18:29 12.5 65 6.1 0.0 4.7 153 0.0 0.0 1026.0 1.4 12.5 12.5 0.0
01/10/19 18:30 12.5 65 6.1 0.0 4.7 149 0.0 0.0 1026.0 1.8 12.5 12.5 0.0
01/10/19 18:32 12.5 65 6.1 2.2 4.0 58 0.0 0.0 1026.0 4.0 12.5 12.5 0.0
01/10/19 18:33 12.4 67 6.4 1.8 4.0 12 0.0 0.0 1026.0 0.0 12.4 12.4 0.0
01/10/19 18:34 12.4 66 6.2 0.0 4.0 12 0.0 0.0 1026.0 0.0 12.4 12.4 0.0
01/10/19 18:35 12.3 66 6.1 0.0 4.0 12 0.0 0.0 1026.0 0.0 12.4 12.3 0.0
01/10/19 18:36 12.3 66 6.1 0.0 4.0 12 0.0 0.0 1026.0 0.0 12.3 12.3 0.0
01/10/19 18:37 12.3 66 6.1 0.0 4.0 12 0.0 0.0 1026.0 0.0 12.3 12.3 0.0
01/10/19 18:38 12.3 66 6.1 1.8 4.0 12 0.0 0.0 1026.0 0.0 12.3 12.3 0.0
01/10/19 18:39 12.2 66 6.0 0.0 4.0 12 0.0 0.0 1026.0 0.0 12.2 12.2 0.0
01/10/19 18:40 12.2 66 6.0 1.4 4.0 78 0.0 0.0 1026.0 4.0 12.2 12.2 0.0
01/10/19 18:41 12.2 67 6.2 3.2 4.0 96 0.0 0.0 1026.0 2.5 12.2 12.2 0.0
01/10/19 18:42 12.2 68 6.5 0.0 4.0 119 0.0 0.0 1026.0 0.0 12.2 12.2 0.0
01/10/19 18:43 12.2 67 6.2 0.0 4.0 135 0.0 0.0 1026.0 0.0 12.2 12.2 0.0
01/10/19 18:44 12.1 68 6.4 0.0 4.0 135 0.0 0.0 1026.0 0.0 12.2 12.1 0.0
01/10/19 18:45 12.1 68 6.4 2.5 4.0 159 0.0 0.0 1026.0 2.2 12.1 12.1 0.0
01/10/19 18:47 12.1 69 6.6 3.2 5.8 126 0.0 0.0 1026.0 2.5 12.1 12.1 0.0
01/10/19 18:48 12.1 69 6.6 1.4 5.8 126 0.0 0.0 1026.0 0.0 12.1 12.1 0.0
01/10/19 18:49 12.1 69 6.6 2.2 6.8 129 0.0 0.0 1026.0 6.8 12.1 12.1 0.0
01/10/19 18:50 12.0 71 6.9 4.7 6.8 138 0.0 0.0 1026.0 4.0 12.1 12.0 0.0
01/10/19 18:51 12.0 71 6.9 0.0 6.8 144 0.0 0.0 1026.0 2.2 12.0 12.0 0.0
01/10/19 18:52 12.0 71 6.9 2.2 6.8 144 0.0 0.0 1026.0 3.6 12.0 12.0 0.0
01/10/19 18:53 12.0 71 6.9 2.5 6.8 144 0.0 0.0 1026.0 3.2 12.0 12.0 0.0
01/10/19 18:54 12.0 71 6.9 1.8 6.8 146 0.0 0.0 1026.0 0.0 12.0 12.0 0.0
01/10/19 18:55 12.0 71 6.9 1.4 6.8 148 0.0 0.0 1026.0 0.0 12.0 12.0 0.0
01/10/19 18:56 12.0 71 6.9 1.4 6.8 151 0.0 0.0 1026.0 6.8 12.0 12.0 0.0
01/10/19 18:57 12.0 72 7.1 1.8 6.8 155 0.0 0.0 1026.0 2.5 12.0 12.0 0.0
01/10/19 18:58 11.9 72 7.0 1.8 6.8 155 0.0 0.0 1026.0 0.0 12.0 11.9 0.0
01/10/19 18:59 11.9 72 7.0 1.4 6.8 157 0.0 0.0 1026.0 0.0 11.9 11.9 0.0
01/10/19 19:00 11.9 72 7.0 1.4 6.8 156 0.0 0.0 1026.0 1.8 11.9 11.9 0.0
01/10/19 19:02 11.8 72 6.9 1.4 6.8 146 0.0 0.0 1026.0 4.7 11.8 11.8 0.0
01/10/19 19:03 11.8 72 6.9 3.2 6.8 142 0.0 0.0 1026.0 1.8 11.8 11.8 0.0
01/10/19 19:04 11.8 73 7.1 1.8 6.8 141 0.0 0.0 1026.0 0.0 11.8 11.8 0.0
01/10/19 19:05 11.7 73 7.0 0.0 6.8 141 0.0 0.0 1026.0 0.0 11.8 11.7 0.0
01/10/19 19:06 11.7 73 7.0 3.6 6.8 128 0.0 0.0 1026.0 5.4 11.7 11.7 0.0
01/10/19 19:07 11.7 73 7.0 0.0 5.4 129 0.0 0.0 1026.0 0.0 11.7 11.7 0.0
01/10/19 19:08 11.7 74 7.2 4.3 9.0 147 0.0 0.0 1027.0 2.2 11.7 11.7 0.0
01/10/19 19:09 11.7 74 7.2 1.8 9.0 148 0.0 0.0 1027.0 3.2 11.7 11.7 0.0
01/10/19 19:10 11.7 74 7.2 2.5 9.0 145 0.0 0.0 1027.0 0.0 11.7 11.7 0.0
01/10/19 19:11 11.6 74 7.1 1.4 9.0 143 0.0 0.0 1027.0 3.6 11.6 11.6 0.0
01/10/19 19:12 11.6 74 7.1 2.5 9.0 142 0.0 0.0 1027.0 7.6 11.6 11.6 0.0
01/10/19 19:13 11.6 74 7.1 2.5 9.0 142 0.0 0.0 1027.0 2.2 11.6 11.6 0.0
01/10/19 19:14 11.6 74 7.1 1.8 9.0 141 0.0 0.0 1027.0 0.0 11.6 11.6 0.0
01/10/19 19:15 11.6 75 7.3 2.2 9.0 141 0.0 0.0 1027.0 3.2 11.6 11.6 0.0
01/10/19 19:18 11.4 74 6.9 2.5 7.6 138 0.0 0.0 1027.0 3.6 11.4 11.4 0.0
01/10/19 19:19 11.4 75 7.1 3.2 7.6 137 0.0 0.0 1027.0 5.8 11.4 11.4 0.0
01/10/19 19:20 11.4 75 7.1 1.4 7.6 136 0.0 0.0 1027.0 0.0 11.4 11.4 0.0
01/10/19 19:21 11.3 75 7.0 1.8 7.6 136 0.0 0.0 1027.0 4.0 11.3 11.3 0.0
01/10/19 19:22 11.4 75 7.1 2.2 7.6 135 0.0 0.0 1027.0 0.0 11.4 11.4 0.0
01/10/19 19:23 11.3 75 7.0 1.4 5.8 137 0.0 0.0 1027.0 0.0 11.3 11.3 0.0
01/10/19 19:24 11.3 75 7.0 1.4 5.8 137 0.0 0.0 1027.0 0.0 11.3 11.3 0.0
01/10/19 19:25 11.3 75 7.0 0.0 5.8 137 0.0 0.0 1027.0 0.0 11.3 11.3 0.0
01/10/19 19:26 11.3 75 7.0 0.0 5.8 136 0.0 0.0 1027.0 0.0 11.3 11.3 0.0
01/10/19 19:27 11.3 75 7.0 0.0 5.8 137 0.0 0.0 1027.0 2.2 11.3 11.3 0.0
01/10/19 19:28 11.2 74 6.7 1.8 5.8 140 0.0 0.0 1027.0 0.0 11.2 11.2 0.0
01/10/19 19:29 11.2 74 6.7 2.2 4.7 141 0.0 0.0 1027.0 0.0 11.2 11.2 0.0
01/10/19 19:30 11.2 75 6.9 2.2 4.7 140 0.0 0.0 1027.0 2.5 11.2 11.2 0.0
01/10/19 19:32 11.2 75 6.9 3.6 3.2 136 0.0 0.0 1027.0 3.2 0.0 11.2 0.0
01/10/19 19:33 11.1 75 6.8 0.0 3.2 149 0.0 0.0 1027.0 0.0 11.1 11.1 0.0
01/10/19 19:34 11.1 75 6.8 0.0 3.2 146 0.0 0.0 1027.0 2.5 11.1 11.1 0.0
01/10/19 19:35 11.1 75 6.8 1.4 3.2 141 0.0 0.0 1027.0 2.5 11.1 11.1 0.0
01/10/19 19:36 11.1 75 6.8 1.4 3.2 141 0.0 0.0 1027.0 0.0 11.1 11.1 0.0
01/10/19 19:37 11.1 75 6.8 0.0 3.2 140 0.0 0.0 1027.0 0.0 11.1 11.1 0.0
01/10/19 19:38 11.0 75 6.7 1.8 4.0 138 0.0 0.0 1027.0 1.4 11.0 11.0 0.0
01/10/19 19:39 11.1 76 7.0 3.2 4.7 132 0.0 0.0 1027.0 4.3 11.1 11.1 0.0
01/10/19 19:40 11.0 76 6.9 3.2 4.7 119 0.0 0.0 1027.0 0.0 11.0 11.0 0.0
01/10/19 19:41 11.0 77 7.1 1.4 4.7 110 0.0 0.0 1027.0 0.0 11.0 11.0 0.0
01/10/19 19:42 10.9 77 7.0 0.0 4.7 106 0.0 0.0 1027.0 0.0 10.9 10.9 0.0
01/10/19 19:43 10.9 77 7.0 0.0 4.7 102 0.0 0.0 1027.0 0.0 11.0 10.9 0.0
01/10/19 19:44 10.9 77 7.0 1.4 4.7 90 0.0 0.0 1027.0 3.2 10.9 10.9 0.0
01/10/19 19:47 10.9 77 7.0 2.5 5.0 129 0.0 0.0 1027.0 3.6 10.9 10.9 0.0
01/10/19 19:48 10.9 78 7.2 2.2 5.0 137 0.0 0.0 1027.0 0.0 10.9 10.9 0.0
01/10/19 19:49 10.9 78 7.2 1.8 5.0 141 0.0 0.0 1027.0 0.0 10.9 10.9 0.0
01/10/19 19:50 10.9 79 7.4 0.0 5.0 145 0.0 0.0 1027.0 1.4 10.9 10.9 0.0
01/10/19 19:51 10.8 79 7.3 1.8 5.0 144 0.0 0.0 1027.0 2.5 10.8 10.8 0.0
01/10/19 19:52 10.8 79 7.3 0.0 5.0 144 0.0 0.0 1027.0 0.0 10.8 10.8 0.0
01/10/19 19:53 10.8 79 7.3 0.0 5.0 128 0.0 0.0 1027.0 2.5 10.8 10.8 0.0
01/10/19 19:54 10.7 79 7.2 1.4 5.0 119 0.0 0.0 1027.0 5.0 10.7 10.7 0.0
01/10/19 19:55 10.7 79 7.2 0.0 5.0 124 0.0 0.0 1027.0 2.2 10.7 10.7 0.0
01/10/19 19:56 10.7 79 7.2 2.2 5.0 123 0.0 0.0 1027.0 0.0 10.7 10.7 0.0
01/10/19 19:57 10.7 79 7.2 1.4 5.0 116 0.0 0.0 1027.0 0.0 10.7 10.7 0.0
01/10/19 19:58 10.7 79 7.2 1.4 5.0 121 0.0 0.0 1027.0 2.5 10.7 10.7 0.0
01/10/19 19:59 10.6 79 7.1 2.2 5.0 139 0.0 0.0 1027.0 4.3 10.7 10.6 0.0
01/10/19 20:02 10.6 80 7.3 3.2 6.8 131 0.0 0.0 1027.0 3.2 10.6 10.6 0.0
01/10/19 20:03 10.6 80 7.3 2.5 6.8 132 0.0 0.0 1027.0 0.0 10.6 10.6 0.0
01/10/19 20:04 10.6 81 7.5 1.8 6.8 132 0.0 0.0 1027.0 0.0 10.6 10.6 0.0
01/10/19 20:05 10.5 81 7.4 1.4 6.8 137 0.0 0.0 1027.0 0.0 10.5 10.5 0.0
01/10/19 20:06 10.5 81 7.4 1.8 6.8 140 0.0 0.0 1027.0 2.5 10.5 10.5 0.0
01/10/19 20:07 10.5 81 7.4 1.8 6.8 139 0.0 0.0 1027.0 2.2 10.5 10.5 0.0
01/10/19 20:08 10.5 82 7.6 2.5 6.8 143 0.0 0.0 1027.0 1.4 10.5 10.5 0.0
01/10/19 20:09 10.5 82 7.6 1.8 6.8 142 0.0 0.0 1027.0 4.0 10.5 10.5 0.0
01/10/19 20:10 10.5 82 7.6 2.2 6.8 147 0.0 0.0 1027.0 3.6 10.5 10.5 0.0
01/10/19 20:11 10.4 82 7.5 2.2 6.8 138 0.0 0.0 1027.0 5.4 10.4 10.4 0.0
01/10/19 20:12 10.5 83 7.7 2.2 6.8 132 0.0 0.0 1027.0 3.6 10.4 10.5 0.0
01/10/19 20:15 10.4 83 7.6 3.2 5.4 139 34.8 0.0 1027.0 2.2 10.4 10.4 0.0
01/10/19 20:16 10.4 84 7.8 2.5 5.4 138 34.8 0.0 1027.0 3.2 10.4 10.4 0.0
01/10/19 20:17 10.4 84 7.8 3.2 5.4 138 34.8 0.0 1027.0 0.0 10.4 10.4 0.0
01/10/19 20:16 10.4 84 7.8 1.8 5.4 138 34.8 0.0 1027.0 4.7 10.4 10.4 0.0
01/10/19 20:17 10.4 84 7.8 3.6 5.4 136 34.8 0.0 1027.0 4.7 10.4 10.4 0.0
01/10/19 20:18 10.4 84 7.8 3.6 5.4 136 34.8 0.0 1027.0 4.0 10.4 10.4 0.0
01/10/19 20:19 10.3 84 7.7 2.5 5.4 136 34.8 0.0 1027.0 0.0 10.3 10.3 0.0
01/10/19 20:20 10.3 84 7.7 2.5 5.4 135 34.8 0.0 1027.0 4.3 10.3 10.3 0.0
01/10/19 20:21 10.3 84 7.7 1.8 5.4 135 34.8 0.0 1027.0 2.5 10.3 10.3 0.0
01/10/19 20:22 10.3 84 7.7 1.8 4.7 134 34.8 0.0 1027.0 1.8 10.3 10.3 0.0
01/10/19 20:23 10.2 84 7.6 2.2 5.8 135 34.8 0.0 1027.0 0.0 10.2 10.2 0.0
01/10/19 20:24 10.2 84 7.6 1.8 5.8 135 34.8 0.0 1027.0 3.6 10.2 10.2 0.0
01/10/19 20:25 10.2 84 7.6 2.5 5.8 135 34.8 0.0 1027.0 2.2 10.2 10.2 0.0
01/10/19 20:26 10.2 84 7.6 2.2 5.8 135 34.8 0.0 1027.0 4.0 10.2 10.2 0.0
01/10/19 20:27 10.2 84 7.6 2.2 5.8 135 34.8 0.0 1027.0 0.0 10.2 10.2 0.0
01/10/19 20:28 10.2 84 7.6 2.2 5.8 135 34.8 0.0 1027.0 0.0 10.2 10.2 0.0
01/10/19 20:29 10.2 84 7.6 1.4 5.8 130 34.8 0.0 1027.0 2.5 10.2 10.2 0.0
01/10/19 20:30 10.2 84 7.6 2.5 5.8 127 34.8 0.0 1027.0 2.2 10.2 10.2 0.0
01/10/19 20:32 10.1 84 7.5 1.4 4.7 140 0.0 0.0 1027.0 4.7 10.1 10.1 0.0
01/10/19 20:33 10.1 84 7.5 2.5 4.7 139 0.0 0.0 1027.0 1.4 10.1 10.1 0.0
01/10/19 20:34 10.1 84 7.5 2.2 4.7 142 0.0 0.0 1027.0 4.7 10.1 10.1 0.0
01/10/19 20:35 10.1 84 7.5 4.0 4.7 145 0.0 0.0 1027.0 4.3 10.1 10.1 0.0
01/10/19 20:36 10.1 85 7.7 4.0 4.7 143 0.0 0.0 1027.0 3.2 10.1 10.1 0.0
01/10/19 20:37 10.0 85 7.6 3.2 5.4 142 0.0 0.0 1027.0 0.0 10.0 10.0 0.0
01/10/19 20:38 10.0 85 7.6 0.0 5.4 148 0.0 0.0 1027.0 0.0 10.0 10.0 0.0
01/10/19 20:39 10.0 85 7.6 0.0 5.4 150 0.0 0.0 1027.0 3.6 10.0 10.0 0.0
01/10/19 20:40 10.0 85 7.6 1.4 5.4 151 0.0 0.0 1027.0 0.0 10.0 10.0 0.0
01/10/19 20:41 9.9 85 7.5 2.2 5.4 141 0.0 0.0 1027.0 0.0 9.9 9.9 0.0
01/10/19 20:42 9.9 85 7.5 2.2 5.4 141 0.0 0.0 1027.0 0.0 9.9 9.9 0.0
01/10/19 20:43 9.9 85 7.5 1.4 5.4 146 0.0 0.0 1027.0 1.8 9.9 9.9 0.0
01/10/19 20:44 9.9 85 7.5 0.0 5.4 148 0.0 0.0 1027.0 0.0 9.9 9.9 0.0
01/10/19 20:45 9.9 85 7.5 3.2 5.4 140 0.0 0.0 1027.0 3.6 9.9 9.9 0.0
01/10/19 20:47 9.8 85 7.4 1.4 4.3 138 0.0 0.0 1027.0 4.3 9.8 9.8 0.0
01/10/19 20:48 9.8 85 7.4 2.2 4.3 137 0.0 0.0 1027.0 0.0 9.8 9.8 0.0
01/10/19 20:49 9.8 85 7.4 0.0 4.3 137 0.0 0.0 1027.0 0.0 9.8 9.8 0.0
01/10/19 20:50 9.8 85 7.4 0.0 4.3 136 0.0 0.0 1027.0 2.2 9.8 9.8 0.0
01/10/19 20:51 9.8 85 7.4 0.0 4.3 136 0.0 0.0 1027.0 0.0 9.8 9.8 0.0
01/10/19 20:55 9.8 85 7.4 1.8 5.0 136 34.8 0.0 1027.0 5.0 9.8 9.8 0.0
01/10/19 20:56 9.8 85 7.4 2.5 5.0 135 34.8 0.0 1027.0 5.0 9.8 9.8 0.0
01/10/19 20:57 9.8 85 7.4 2.5 5.0 135 34.8 0.0 1027.0 3.2 9.8 9.8 0.0
01/10/19 20:58 9.8 85 7.4 4.7 5.0 135 34.8 0.0 1027.0 0.0 9.8 9.8 0.0
01/10/19 20:59 9.8 85 7.4 0.0 5.0 135 34.8 0.0 1027.0 0.0 9.8 9.8 0.0
01/10/19 21:00 9.7 85 7.3 0.0 5.0 135 34.8 0.0 1027.0 0.0 9.7 9.7 0.0
01/10/19 21:01 9.7 85 7.3 0.0 5.0 135 34.8 0.0 1027.0 0.0 9.7 9.7 0.0
01/10/19 21:02 9.7 85 7.3 0.0 5.0 135 34.8 0.0 1027.0 1.8 9.7 9.7 0.0
01/10/19 21:02 9.7 85 7.3 0.0 5.0 135 34.8 0.0 1027.0 4.0 9.7 9.7 0.0
01/10/19 21:03 9.7 85 7.3 4.3 6.5 135 34.8 0.0 1027.0 6.5 9.7 9.7 0.0
01/10/19 21:04 9.7 85 7.3 1.8 6.5 135 34.8 0.0 1027.0 4.3 9.7 9.7 0.0
01/10/19 21:05 9.7 85 7.3 0.0 6.5 135 34.8 0.0 1027.0 0.0 9.7 9.7 0.0
01/10/19 21:06 9.7 85 7.3 2.5 6.5 139 34.8 0.0 1027.0 1.8 9.6 9.7 0.0
01/10/19 21:07 9.6 85 7.2 3.2 6.5 149 34.8 0.0 1027.0 6.1 9.7 9.6 0.0
01/10/19 21:08 9.6 85 7.2 0.0 6.5 149 34.8 0.0 1026.0 0.0 9.6 9.6 0.0
01/10/19 21:09 9.6 85 7.2 0.0 6.5 148 34.8 0.0 1026.0 0.0 9.6 9.6 0.0
01/10/19 21:10 9.6 85 7.2 2.2 6.8 145 34.8 0.0 1026.0 6.8 9.6 9.6 0.0
01/10/19 21:11 9.6 85 7.2 2.2 6.8 145 34.8 0.0 1026.0 4.3 9.6 9.6 0.0
01/10/19 21:12 9.6 85 7.2 2.5 6.8 144 34.8 0.0 1026.0 5.8 9.6 9.6 0.0
01/10/19 21:13 9.6 86 7.4 2.2 6.8 145 34.8 0.0 1026.0 0.0 9.6 9.6 0.0
01/10/19 21:14 9.6 86 7.4 1.8 6.8 150 34.8 0.0 1026.0 3.2 9.6 9.6 0.0
01/10/19 21:15 9.6 86 7.4 2.2 6.8 150 34.8 0.0 1026.0 1.4 9.6 9.6 0.0
01/10/19 21:17 9.6 85 7.2 0.0 6.8 146 0.0 0.0 1026.0 0.0 9.6 9.6 0.0
01/10/19 21:18 9.5 85 7.1 1.8 6.8 151 0.0 0.0 1026.0 2.5 9.5 9.5 0.0
01/10/19 21:19 9.5 85 7.1 1.4 6.8 150 0.0 0.0 1026.0 0.0 9.5 9.5 0.0
01/10/19 21:20 9.5 85 7.1 0.0 6.8 155 0.0 0.0 1026.0 3.2 9.5 9.5 0.0
01/10/19 21:21 9.5 85 7.1 1.8 5.8 160 0.0 0.0 1026.0 0.0 9.5 9.5 0.0
01/10/19 21:22 9.4 85 7.0 0.0 5.8 160 0.0 0.0 1026.0 0.0 9.5 9.4 0.0
01/10/19 21:23 9.4 85 7.0 0.0 4.0 164 0.0 0.0 1027.0 0.0 9.4 9.4 0.0
01/10/19 21:24 9.4 85 7.0 1.4 4.0 157 0.0 0.0 1027.0 2.2 9.4 9.4 0.0
01/10/19 21:25 9.4 85 7.0 1.4 4.0 156 0.0 0.0 1027.0 0.0 9.4 9.4 0.0
01/10/19 21:26 9.4 85 7.0 0.0 4.0 151 0.0 0.0 1027.0 2.5 9.4 9.4 0.0
01/10/19 21:27 9.4 85 7.0 1.4 4.0 150 0.0 0.0 1027.0 1.8 9.4 9.4 0.0
01/10/19 21:28 9.4 85 7.0 2.5 5.4 141 0.0 0.0 1027.0 5.0 9.4 9.4 0.0
01/10/19 21:29 9.3 85 6.9 4.3 5.4 140 0.0 0.0 1027.0 3.2 9.4 9.3 0.0
01/10/19 21:30 9.3 85 6.9 0.0 5.4 138 0.0 0.0 1027.0 0.0 9.3 9.3 0.0
01/10/19 21:32 9.3 85 6.9 2.5 5.0 142 0.0 0.0 1027.0 0.0 9.3 9.3 0.0
01/10/19 21:33 9.3 85 6.9 0.0 5.0 142 0.0 0.0 1027.0 0.0 9.3 9.3 0.0
01/10/19 21:34 9.3 85 6.9 0.0 5.0 142 0.0 0.0 1027.0 0.0 9.3 9.3 0.0
01/10/19 21:35 9.3 85 6.9 0.0 5.0 140 0.0 0.0 1027.0 0.0 9.3 9.3 0.0
01/10/19 21:36 9.2 85 6.8 1.8 5.0 138 0.0 0.0 1027.0 1.4 9.2 9.2 0.0
01/10/19 21:37 9.2 85 6.8 1.4 5.0 136 0.0 0.0 1027.0 3.2 9.2 9.2 0.0
01/10/19 21:38 9.2 85 6.8 2.5 5.0 136 0.0 0.0 1026.0 0.0 9.2 9.2 0.0
01/10/19 21:39 9.2 85 6.8 0.0 4.0 135 0.0 0.0 1026.0 1.4 9.2 9.2 0.0
01/10/19 21:40 9.2 85 6.8 0.0 4.0 135 0.0 0.0 1026.0 0.0 9.2 9.2 0.0
01/10/19 21:41 9.2 85 6.8 0.0 4.0 135 0.0 0.0 1026.0 0.0 9.2 9.2 0.0
01/10/19 21:42 9.2 85 6.8 0.0 4.0 135 0.0 0.0 1026.0 0.0 9.2 9.2 0.0
01/10/19 21:43 9.1 85 6.7 0.0 4.0 135 0.0 0.0 1026.0 0.0 9.1 9.1 0.0
01/10/19 21:44 9.1 85 6.7 0.0 4.0 135 0.0 0.0 1026.0 0.0 9.1 9.1 0.0
01/10/19 21:45 9.1 85 6.7 0.0 4.0 135 0.0 0.0 1026.0 0.0 9.1 9.1 0.0
01/10/19 21:47 9.1 85 6.7 2.2 3.2 140 0.0 0.0 1026.0 0.0 9.1 9.1 0.0
01/10/19 21:48 9.1 85 6.7 1.4 2.5 140 0.0 0.0 1026.0 0.0 9.1 9.1 0.0
01/10/19 21:49 9.1 85 6.7 0.0 2.5 139 0.0 0.0 1026.0 0.0 9.1 9.1 0.0
01/10/19 21:50 9.0 85 6.6 0.0 2.5 140 0.0 0.0 1026.0 0.0 9.0 9.0 0.0
01/10/19 21:51 9.0 85 6.6 0.0 2.5 152 0.0 0.0 1026.0 0.0 9.0 9.0 0.0
01/10/19 21:52 9.0 85 6.6 1.4 4.0 159 0.0 0.0 1026.0 4.0 9.0 9.0 0.0
01/10/19 21:53 8.9 86 6.7 1.4 4.0 161 0.0 0.0 1026.0 0.0 8.9 8.9 0.0
01/10/19 21:54 8.9 86 6.7 0.0 4.0 161 0.0 0.0 1026.0 0.0 8.9 8.9 0.0
01/10/19 21:55 8.9 86 6.7 0.0 4.0 161 0.0 0.0 1026.0 0.0 8.9 8.9 0.0
01/10/19 21:56 8.9 86 6.7 0.0 4.0 161 0.0 0.0 1026.0 0.0 8.9 8.9 0.0
01/10/19 21:57 8.8 86 6.6 0.0 4.0 164 0.0 0.0 1026.0 0.0 8.9 8.8 0.0
01/10/19 21:58 8.8 86 6.6 0.0 4.0 174 0.0 0.0 1026.0 0.0 8.8 8.8 0.0
01/10/19 21:59 8.7 86 6.5 0.0 4.0 178 0.0 0.0 1026.0 0.0 8.8 8.7 0.0
01/10/19 22:02 8.7 86 6.5 0.0 4.0 159 0.0 0.0 1026.0 0.0 8.7 8.7 0.0
01/10/19 22:03 8.6 86 6.4 0.0 1.8 135 0.0 0.0 1026.0 0.0 8.6 8.6 0.0
01/10/19 22:04 8.6 86 6.4 0.0 1.8 135 0.0 0.0 1026.0 0.0 8.6 8.6 0.0
01/10/19 22:05 8.6 86 6.4 0.0 1.8 135 0.0 0.0 1026.0 0.0 8.6 8.6 0.0
01/10/19 22:06 8.5 86 6.3 0.0 1.8 135 0.0 0.0 1026.0 0.0 8.5 8.5 0.0
01/10/19 22:07 8.5 86 6.3 0.0 1.8 149 0.0 0.0 1026.0 0.0 8.5 8.5 0.0
01/10/19 22:08 8.5 86 6.3 0.0 1.8 149 0.0 0.0 1026.0 0.0 8.5 8.5 0.0
01/10/19 22:09 8.5 86 6.3 0.0 1.8 149 0.0 0.0 1026.0 0.0 8.5 8.5 0.0
01/10/19 22:10 8.5 86 6.3 0.0 1.8 149 0.0 0.0 1026.0 0.0 8.5 8.5 0.0
01/10/19 22:11 8.5 86 6.3 0.0 1.8 149 0.0 0.0 1026.0 0.0 8.5 8.5 0.0
01/10/19 22:12 8.4 86 6.2 0.0 1.8 149 0.0 0.0 1026.0 0.0 8.4 8.4 0.0
01/10/19 22:13 8.4 86 6.2 0.0 1.8 157 0.0 0.0 1026.0 0.0 8.4 8.4 0.0
01/10/19 22:14 8.3 86 6.1 0.0 1.8 181 0.0 0.0 1026.0 0.0 8.4 8.3 0.0
01/10/19 22:17 8.3 86 6.1 0.0 0.0 0 0.0 0.0 1026.0 0.0 8.3 8.3 0.0
01/10/19 22:18 8.3 86 6.1 0.0 2.2 135 0.0 0.0 1026.0 0.0 8.3 8.3 0.0
01/10/19 22:19 8.3 86 6.1 0.0 2.2 135 0.0 0.0 1026.0 0.0 8.3 8.3 0.0
01/10/19 22:20 8.3 86 6.1 0.0 2.2 135 0.0 0.0 1026.0 0.0 8.3 8.3 0.0
01/10/19 22:21 8.2 86 6.0 0.0 2.2 135 0.0 0.0 1026.0 0.0 8.2 8.2 0.0
01/10/19 22:22 8.2 86 6.0 0.0 2.2 135 0.0 0.0 1026.0 0.0 8.2 8.2 0.0
01/10/19 22:23 8.2 86 6.0 0.0 2.2 135 0.0 0.0 1026.0 0.0 8.2 8.2 0.0
01/10/19 22:24 8.2 86 6.0 0.0 2.2 135 0.0 0.0 1026.0 0.0 8.2 8.2 0.0
01/10/19 22:25 8.2 86 6.0 0.0 2.2 135 0.0 0.0 1026.0 0.0 8.2 8.2 0.0
01/10/19 22:26 8.2 87 6.2 0.0 2.2 135 0.0 0.0 1026.0 0.0 8.2 8.2 0.0
01/10/19 22:27 8.2 87 6.2 0.0 2.2 135 0.0 0.0 1026.0 0.0 8.2 8.2 0.0
01/10/19 22:28 8.1 87 6.1 1.4 3.6 135 0.0 0.0 1026.0 3.6 8.1 8.1 0.0
01/10/19 22:29 8.1 87 6.1 1.4 3.6 135 0.0 0.0 1026.0 0.0 8.1 8.1 0.0
01/10/19 22:30 8.1 87 6.1 0.0 3.6 135 0.0 0.0 1026.0 0.0 8.1 8.1 0.0
01/10/19 22:32 8.1 87 6.1 0.0 3.6 135 0.0 0.0 1026.0 1.8 8.1 8.1 0.0
01/10/19 22:33 8.1 87 6.1 0.0 3.6 135 0.0 0.0 1026.0 0.0 8.1 8.1 0.0
01/10/19 22:34 8.1 87 6.1 0.0 3.6 179 0.0 0.0 1026.0 0.0 8.1 8.1 0.0
01/10/19 22:35 8.1 87 6.1 0.0 3.6 179 0.0 0.0 1026.0 0.0 8.1 8.1 0.0
01/10/19 22:36 8.1 87 6.1 0.0 3.6 179 0.0 0.0 1026.0 0.0 8.1 8.1 0.0
01/10/19 22:37 8.1 87 6.1 0.0 5.0 152 0.0 0.0 1026.0 5.0 8.1 8.1 0.0
01/10/19 22:38 8.1 88 6.2 1.8 5.0 148 0.0 0.0 1026.0 0.0 8.1 8.1 0.0
01/10/19 22:39 8.1 88 6.2 0.0 5.0 151 0.0 0.0 1026.0 0.0 8.1 8.1 0.0
01/10/19 22:40 8.1 88 6.2 0.0 5.0 151 0.0 0.0 1026.0 0.0 8.1 8.1 0.0
01/10/19 22:41 8.1 88 6.2 0.0 5.0 155 0.0 0.0 1026.0 0.0 8.1 8.1 0.0
01/10/19 22:42 8.1 88 6.2 1.4 5.0 136 0.0 0.0 1026.0 4.7 8.1 8.1 0.0
01/10/19 22:43 8.1 88 6.2 1.4 5.0 136 0.0 0.0 1026.0 0.0 8.1 8.1 0.0
01/10/19 22:44 8.1 88 6.2 0.0 5.0 124 0.0 0.0 1026.0 4.0 8.1 8.1 0.0
01/10/19 22:45 8.2 89 6.5 2.2 5.0 126 0.0 0.0 1026.0 0.0 8.1 8.2 0.0
01/10/19 22:47 8.2 89 6.5 2.2 5.0 137 0.0 0.0 1026.0 4.3 8.2 8.2 0.0
01/10/19 22:48 8.2 89 6.5 1.8 4.7 133 0.0 0.0 1026.0 1.4 8.2 8.2 0.0
01/10/19 22:49 8.2 90 6.7 1.8 4.7 133 0.0 0.0 1026.0 1.4 8.2 8.2 0.0
01/10/19 22:50 8.2 90 6.7 0.0 4.7 133 0.0 0.0 1026.0 0.0 8.2 8.2 0.0
01/10/19 22:51 8.2 90 6.7 1.4 4.7 134 0.0 0.0 1026.0 2.2 8.2 8.2 0.0
01/10/19 22:52 8.1 91 6.7 2.2 4.7 134 0.0 0.0 1026.0 2.2 8.1 8.1 0.0
01/10/19 22:53 8.1 91 6.7 1.4 4.3 134 0.0 0.0 1026.0 0.0 8.1 8.1 0.0
01/10/19 22:54 8.1 91 6.7 1.4 4.7 140 0.0 0.0 1026.0 4.7 8.1 8.1 0.0
01/10/19 22:55 8.1 91 6.7 0.0 4.7 141 0.0 0.0 1026.0 0.0 8.1 8.1 0.0
01/10/19 22:56 8.1 91 6.7 1.4 4.7 141 0.0 0.0 1026.0 0.0 8.1 8.1 0.0
01/10/19 22:57 8.1 91 6.7 1.4 5.0 142 0.0 0.0 1026.0 0.0 8.1 8.1 0.0
01/10/19 22:58 8.0 91 6.6 1.4 5.0 144 0.0 0.0 1026.0 0.0 8.0 8.0 0.0
01/10/19 22:59 8.0 91 6.6 2.5 9.4 142 0.0 0.0 1026.0 4.7 8.0 8.0 0.0
01/10/19 23:02 8.0 92 6.8 1.8 4.7 138 0.0 0.0 1026.0 1.4 0.0 8.0 0.0
01/10/19 23:03 8.0 92 6.8 0.0 4.7 138 0.0 0.0 1026.0 0.0 8.0 8.0 0.0
01/10/19 23:04 8.0 92 6.8 0.0 4.7 138 0.0 0.0 1026.0 1.4 8.0 8.0 0.0
01/10/19 23:05 8.0 92 6.8 0.0 4.7 137 0.0 0.0 1026.0 2.2 8.0 8.0 0.0
01/10/19 23:06 8.0 92 6.8 2.2 4.7 136 0.0 0.0 1026.0 0.0 8.0 8.0 0.0
01/10/19 23:07 8.0 92 6.8 0.0 4.7 136 0.0 0.0 1026.0 2.5 8.0 8.0 0.0
01/10/19 23:08 8.0 92 6.8 1.8 4.7 135 0.0 0.0 1026.0 4.3 8.0 8.0 0.0
01/10/19 23:09 7.9 92 6.7 1.4 4.7 135 0.0 0.0 1026.0 0.0 7.9 7.9 0.0
01/10/19 23:10 7.9 92 6.7 2.2 4.7 135 0.0 0.0 1026.0 0.0 7.9 7.9 0.0
01/10/19 23:11 7.9 93 6.8 0.0 4.7 135 0.0 0.0 1026.0 4.0 7.9 7.9 0.0
01/10/19 23:12 7.9 93 6.8 1.8 4.7 135 0.0 0.0 1026.0 4.3 7.9 7.9 0.0
01/10/19 23:13 7.9 93 6.8 2.2 4.7 135 0.0 0.0 1026.0 0.0 7.9 7.9 0.0
01/10/19 23:14 7.9 93 6.8 2.2 6.1 135 0.0 0.0 1026.0 6.1 7.9 7.9 0.0
01/10/19 23:15 7.9 93 6.8 1.8 6.1 135 0.0 0.0 1026.0 2.2 7.9 7.9 0.0
01/10/19 23:17 7.8 93 6.7 0.0 6.1 135 0.0 0.0 1026.0 0.0 7.8 7.8 0.0
01/10/19 23:18 7.8 93 6.7 0.0 6.1 135 0.0 0.0 1026.0 0.0 7.8 7.8 0.0
01/10/19 23:19 7.8 93 6.7 1.8 6.1 135 0.0 0.0 1026.0 0.0 7.8 7.8 0.0
01/10/19 23:20 7.8 93 6.7 1.4 6.1 135 0.0 0.0 1026.0 0.0 7.8 7.8 0.0
01/10/19 23:21 7.8 93 6.7 0.0 6.1 135 0.0 0.0 1026.0 0.0 7.8 7.8 0.0
01/10/19 23:22 7.7 93 6.6 0.0 6.1 140 0.0 0.0 1026.0 0.0 7.7 7.7 0.0
01/10/19 23:23 7.7 93 6.6 0.0 6.1 141 0.0 0.0 1026.0 0.0 7.7 7.7 0.0
01/10/19 23:24 7.7 93 6.6 0.0 6.1 139 0.0 0.0 1026.0 2.5 7.7 7.7 0.0
01/10/19 23:25 7.7 93 6.6 2.2 5.4 138 0.0 0.0 1026.0 1.4 7.7 7.7 0.0
01/10/19 23:26 7.7 93 6.6 0.0 5.4 139 0.0 0.0 1026.0 0.0 7.7 7.7 0.0
01/10/19 23:27 7.6 93 6.5 0.0 5.4 139 0.0 0.0 1026.0 0.0 7.6 7.6 0.0
01/10/19 23:28 7.6 93 6.5 0.0 5.4 139 0.0 0.0 1026.0 0.0 7.6 7.6 0.0
01/10/19 23:29 7.6 93 6.5 0.0 3.6 140 0.0 0.0 1026.0 0.0 7.6 7.6 0.0
01/10/19 23:30 7.6 93 6.5 2.2 5.0 138 0.0 0.0 1026.0 4.0 7.6 7.6 0.0
01/10/19 23:32 7.6 93 6.5 1.8 4.0 136 0.0 0.0 1026.0 3.6 7.6 7.6 0.0
01/10/19 23:33 7.6 93 6.5 1.4 4.0 136 0.0 0.0 1026.0 0.0 7.6 7.6 0.0
01/10/19 23:34 7.6 93 6.5 1.4 4.3 136 0.0 0.0 1026.0 0.0 7.6 7.6 0.0
01/10/19 23:35 7.6 93 6.5 0.0 4.3 135 0.0 0.0 1026.0 0.0 7.6 7.6 0.0
01/10/19 23:36 7.6 93 6.5 1.8 4.3 135 0.0 0.0 1026.0 0.0 7.6 7.6 0.0
01/10/19 23:37 7.6 93 6.5 1.8 4.3 135 0.0 0.0 1026.0 3.6 7.6 7.6 0.0
01/10/19 23:38 7.6 93 6.5 1.8 4.3 135 0.0 0.0 1026.0 4.0 7.6 7.6 0.0
01/10/19 23:39 7.6 93 6.5 3.6 4.3 135 0.0 0.0 1026.0 2.2 7.6 7.6 0.0
01/10/19 23:40 7.6 93 6.5 0.0 4.3 135 0.0 0.0 1026.0 0.0 7.6 7.6 0.0
01/10/19 23:41 7.6 93 6.5 0.0 4.3 135 0.0 0.0 1026.0 3.2 7.6 7.6 0.0
01/10/19 23:42 7.6 94 6.7 1.8 4.3 135 0.0 0.0 1026.0 0.0 7.6 7.6 0.0
01/10/19 23:43 7.6 94 6.7 1.4 5.4 135 0.0 0.0 1026.0 5.4 7.6 7.6 0.0
01/10/19 23:44 7.6 94 6.7 3.6 5.4 135 0.0 0.0 1026.0 1.8 7.6 7.6 0.0
01/10/19 23:47 7.6 94 6.7 1.4 5.4 146 0.0 0.0 1026.0 1.8 7.6 7.6 0.0
01/10/19 23:48 7.6 94 6.7 0.0 5.4 148 0.0 0.0 1026.0 0.0 7.6 7.6 0.0
01/10/19 23:49 7.6 94 6.7 0.0 5.4 148 0.0 0.0 1026.0 0.0 7.6 7.6 0.0
01/10/19 23:50 7.5 94 6.6 3.2 5.4 146 0.0 0.0 1026.0 0.0 7.5 7.5 0.0
01/10/19 23:51 7.5 94 6.6 0.0 5.4 146 0.0 0.0 1026.0 0.0 7.5 7.5 0.0
01/10/19 23:52 7.5 94 6.6 0.0 5.4 147 0.0 0.0 1026.0 0.0 7.5 7.5 0.0
01/10/19 23:53 7.5 94 6.6 0.0 5.4 146 0.0 0.0 1027.0 1.8 7.5 7.5 0.0
01/10/19 23:54 7.5 94 6.6 0.0 4.3 145 0.0 0.0 1027.0 3.2 7.5 7.5 0.0
01/10/19 23:55 7.5 94 6.6 0.0 4.3 144 0.0 0.0 1027.0 3.2 7.5 7.5 0.0
01/10/19 23:56 7.5 94 6.6 3.2 4.3 144 0.0 0.0 1027.0 0.0 7.5 7.5 0.0
01/10/19 23:57 7.5 94 6.6 3.2 4.3 144 0.0 0.0 1027.0 0.0 7.5 7.5 0.0
01/10/19 23:58 7.5 94 6.6 4.3 4.3 135 0.0 0.0 1027.0 1.4 7.5 7.5 0.0
01/10/19 23:59 7.5 94 6.6 1.4 4.3 135 0.0 0.0 1027.0 3.2 7.5 7.5 0.0
 
  Back to Top
Date Time Temperature Humidity Dewpoint Wind Speed High Gust Wind Bearing Rainfall Rate Total Rainfall Pressure Gust Wind Chill Heat Index UV Index
02/10/19 00:02 7.5 95 6.8 0.0 3.2 140 0.0 0.0 1027.0 0.0 0.0 7.5 0.0
02/10/19 00:03 7.5 95 6.8 2.5 4.7 137 0.0 0.0 1027.0 3.2 7.5 7.5 0.0
02/10/19 00:04 7.4 95 6.7 2.2 4.7 136 0.0 0.0 1027.0 0.0 7.4 7.4 0.0
02/10/19 00:05 7.4 95 6.7 2.2 4.7 135 0.0 0.0 1027.0 0.0 7.4 7.4 0.0
02/10/19 00:06 7.4 95 6.7 1.4 4.7 135 0.0 0.0 1027.0 2.2 7.4 7.4 0.0
02/10/19 00:07 7.4 95 6.7 1.4 4.7 135 0.0 0.0 1027.0 3.6 7.4 7.4 0.0
02/10/19 00:08 7.3 95 6.6 1.4 4.7 135 0.0 0.0 1026.0 0.0 7.4 7.3 0.0
02/10/19 00:09 7.3 95 6.6 0.0 4.7 135 0.0 0.0 1026.0 0.0 7.3 7.3 0.0
02/10/19 00:10 7.3 95 6.6 0.0 4.7 135 0.0 0.0 1026.0 0.0 7.3 7.3 0.0
02/10/19 00:11 7.3 94 6.4 2.5 4.7 135 0.0 0.0 1026.0 2.2 7.3 7.3 0.0
02/10/19 00:12 7.3 94 6.4 2.5 4.7 135 0.0 0.0 1026.0 2.2 7.3 7.3 0.0
02/10/19 00:13 7.3 94 6.4 0.0 3.6 136 0.0 0.0 1026.0 0.0 7.3 7.3 0.0
02/10/19 00:14 7.2 94 6.3 1.8 4.3 136 0.0 0.0 1026.0 0.0 7.2 7.2 0.0
02/10/19 00:15 7.2 94 6.3 0.0 4.3 136 0.0 0.0 1026.0 0.0 7.2 7.2 0.0
02/10/19 00:17 7.2 94 6.3 1.4 3.6 135 0.0 0.0 1026.0 0.0 0.0 7.2 0.0
02/10/19 00:18 7.2 94 6.3 0.0 2.2 135 0.0 0.0 1026.0 0.0 7.2 7.2 0.0
02/10/19 00:19 7.2 94 6.3 1.4 2.2 135 0.0 0.0 1026.0 1.8 7.2 7.2 0.0
02/10/19 00:20 7.1 94 6.2 0.0 2.2 135 0.0 0.0 1026.0 0.0 7.1 7.1 0.0
02/10/19 00:21 7.1 94 6.2 0.0 2.2 135 0.0 0.0 1026.0 0.0 7.1 7.1 0.0
02/10/19 00:22 7.1 94 6.2 0.0 2.2 135 0.0 0.0 1026.0 0.0 7.1 7.1 0.0
02/10/19 00:23 7.1 94 6.2 0.0 1.8 135 0.0 0.0 1027.0 0.0 7.1 7.1 0.0
02/10/19 00:24 7.1 94 6.2 2.5 4.7 135 0.0 0.0 1027.0 0.0 7.1 7.1 0.0
02/10/19 00:25 7.1 94 6.2 0.0 4.7 135 0.0 0.0 1027.0 0.0 7.1 7.1 0.0
02/10/19 00:26 7.1 94 6.2 0.0 4.7 135 0.0 0.0 1027.0 0.0 7.1 7.1 0.0
02/10/19 00:27 7.0 94 6.1 1.4 4.7 135 0.0 0.0 1027.0 3.6 7.0 7.0 0.0
02/10/19 00:28 7.0 94 6.1 1.8 4.7 135 0.0 0.0 1027.0 0.0 7.0 7.0 0.0
02/10/19 00:29 7.0 94 6.1 1.8 4.7 135 0.0 0.0 1027.0 0.0 7.0 7.0 0.0
02/10/19 00:30 7.0 94 6.1 0.0 4.7 135 0.0 0.0 1027.0 0.0 7.0 7.0 0.0
02/10/19 00:32 7.0 94 6.1 0.0 3.6 135 0.0 0.0 1027.0 0.0 7.0 7.0 0.0
02/10/19 00:33 7.0 94 6.1 0.0 3.6 135 0.0 0.0 1027.0 0.0 7.0 7.0 0.0
02/10/19 00:34 7.0 94 6.1 0.0 3.6 135 0.0 0.0 1027.0 0.0 7.0 7.0 0.0
02/10/19 00:35 7.0 94 6.1 0.0 3.6 135 0.0 0.0 1027.0 0.0 7.0 7.0 0.0
02/10/19 00:36 7.0 94 6.1 0.0 3.6 135 0.0 0.0 1027.0 0.0 7.0 7.0 0.0
02/10/19 00:37 7.0 94 6.1 0.0 3.6 135 0.0 0.0 1027.0 0.0 7.0 7.0 0.0
02/10/19 00:38 6.9 95 6.2 0.0 0.0 0 0.0 0.0 1027.0 0.0 6.9 6.9 0.0
02/10/19 00:39 6.9 95 6.2 0.0 0.0 0 0.0 0.0 1027.0 0.0 6.9 6.9 0.0
02/10/19 00:40 6.9 95 6.2 0.0 0.0 0 0.0 0.0 1027.0 0.0 6.9 6.9 0.0
02/10/19 00:41 6.9 95 6.2 1.4 4.3 135 0.0 0.0 1027.0 4.3 6.9 6.9 0.0
02/10/19 00:42 6.9 95 6.2 1.4 4.3 135 0.0 0.0 1027.0 1.8 6.9 6.9 0.0
02/10/19 00:43 6.9 95 6.2 1.4 4.3 135 0.0 0.0 1027.0 2.2 6.9 6.9 0.0
02/10/19 00:44 6.8 95 6.1 0.0 4.3 135 0.0 0.0 1027.0 0.0 6.8 6.8 0.0
02/10/19 00:45 6.8 95 6.1 0.0 4.3 135 0.0 0.0 1027.0 0.0 6.8 6.8 0.0
02/10/19 00:47 6.8 94 5.9 0.0 4.3 135 0.0 0.0 1027.0 0.0 6.8 6.8 0.0
02/10/19 00:48 6.8 94 5.9 0.0 4.3 135 0.0 0.0 1027.0 0.0 6.8 6.8 0.0
02/10/19 00:49 6.8 94 5.9 1.4 4.3 135 0.0 0.0 1027.0 0.0 6.8 6.8 0.0
02/10/19 00:50 6.8 94 5.9 0.0 4.3 135 0.0 0.0 1027.0 0.0 6.8 6.8 0.0
02/10/19 00:51 6.7 94 5.8 0.0 4.3 135 0.0 0.0 1027.0 0.0 6.7 6.7 0.0
02/10/19 00:52 6.7 94 5.8 0.0 2.2 135 0.0 0.0 1027.0 0.0 6.7 6.7 0.0
02/10/19 00:53 6.7 94 5.8 1.8 3.6 135 0.0 0.0 1027.0 3.6 6.7 6.7 0.0
02/10/19 00:54 6.7 94 5.8 1.4 3.6 135 0.0 0.0 1027.0 0.0 6.7 6.7 0.0
02/10/19 00:55 6.7 94 5.8 1.4 3.6 135 0.0 0.0 1027.0 0.0 6.7 6.7 0.0
02/10/19 00:56 6.8 94 5.9 2.2 3.6 135 0.0 0.0 1027.0 1.8 6.8 6.8 0.0
02/10/19 00:57 6.8 95 6.1 1.8 3.6 135 0.0 0.0 1027.0 0.0 6.8 6.8 0.0
02/10/19 00:58 6.8 95 6.1 1.8 3.6 135 0.0 0.0 1027.0 0.0 6.8 6.8 0.0
02/10/19 00:59 6.8 95 6.1 2.2 6.1 135 0.0 0.0 1027.0 6.1 6.8 6.8 0.0
02/10/19 01:00 6.8 95 6.1 3.2 6.1 135 0.0 0.0 1027.0 2.5 6.8 6.8 0.0
02/10/19 01:02 6.9 95 6.2 3.2 6.1 135 0.0 0.0 1027.0 3.2 0.0 6.9 0.0
02/10/19 01:03 6.9 95 6.2 0.0 6.1 135 0.0 0.0 1027.0 0.0 6.9 6.9 0.0
02/10/19 01:04 7.0 95 6.3 0.0 6.1 135 0.0 0.0 1027.0 0.0 7.0 7.0 0.0
02/10/19 01:05 7.0 95 6.3 0.0 6.1 135 0.0 0.0 1027.0 0.0 7.0 7.0 0.0
02/10/19 01:06 7.0 95 6.3 0.0 6.1 135 0.0 0.0 1027.0 0.0 7.0 7.0 0.0
02/10/19 01:07 7.0 95 6.3 0.0 6.1 135 0.0 0.0 1027.0 2.2 7.0 7.0 0.0
02/10/19 01:08 7.0 95 6.3 1.4 6.1 135 0.0 0.0 1027.0 0.0 7.0 7.0 0.0
02/10/19 01:09 7.0 95 6.3 0.0 6.1 135 0.0 0.0 1027.0 0.0 7.0 7.0 0.0
02/10/19 01:10 7.0 95 6.3 0.0 4.0 135 0.0 0.0 1027.0 0.0 7.0 7.0 0.0
02/10/19 01:11 7.0 95 6.3 0.0 4.0 135 0.0 0.0 1027.0 0.0 7.0 7.0 0.0
02/10/19 01:12 7.0 95 6.3 0.0 3.2 135 0.0 0.0 1027.0 1.4 7.0 7.0 0.0
02/10/19 01:13 7.0 95 6.3 1.4 2.2 135 0.0 0.0 1027.0 1.8 7.0 7.0 0.0
02/10/19 01:14 7.0 95 6.3 2.2 5.8 135 0.0 0.0 1027.0 3.2 7.0 7.0 0.0
02/10/19 01:17 7.0 95 6.3 2.2 3.2 135 0.0 0.0 1027.0 3.2 0.0 7.0 0.0
02/10/19 01:18 7.0 95 6.3 2.2 3.2 135 0.0 0.0 1027.0 3.2 7.0 7.0 0.0
02/10/19 01:19 7.0 95 6.3 0.0 3.2 135 0.0 0.0 1027.0 0.0 7.0 7.0 0.0
02/10/19 01:20 6.9 96 6.3 0.0 3.2 135 0.0 0.0 1027.0 0.0 7.0 6.9 0.0
02/10/19 01:21 6.9 96 6.3 0.0 3.2 135 0.0 0.0 1027.0 0.0 6.9 6.9 0.0
02/10/19 01:22 6.9 96 6.3 0.0 3.2 135 0.0 0.0 1027.0 0.0 6.9 6.9 0.0
02/10/19 01:23 6.9 96 6.3 0.0 3.2 135 0.0 0.0 1026.0 0.0 6.9 6.9 0.0
02/10/19 01:24 6.8 96 6.2 0.0 3.2 135 0.0 0.0 1026.0 0.0 6.9 6.8 0.0
02/10/19 01:25 6.8 96 6.2 0.0 3.2 135 0.0 0.0 1026.0 0.0 6.8 6.8 0.0
02/10/19 01:26 6.8 95 6.1 0.0 3.2 135 0.0 0.0 1026.0 0.0 6.8 6.8 0.0
02/10/19 01:27 6.8 95 6.1 0.0 3.2 135 0.0 0.0 1026.0 2.2 6.8 6.8 0.0
02/10/19 01:28 6.8 95 6.1 0.0 2.2 135 0.0 0.0 1026.0 0.0 6.8 6.8 0.0
02/10/19 01:29 6.8 95 6.1 0.0 2.2 135 0.0 0.0 1026.0 0.0 6.8 6.8 0.0
02/10/19 01:30 6.8 95 6.1 0.0 2.2 135 0.0 0.0 1026.0 0.0 6.8 6.8 0.0
02/10/19 01:32 6.8 95 6.1 1.8 3.2 165 0.0 0.0 1026.0 0.0 6.8 6.8 0.0
02/10/19 01:33 6.8 95 6.1 0.0 3.2 165 0.0 0.0 1026.0 0.0 6.8 6.8 0.0
02/10/19 01:34 6.8 95 6.1 0.0 3.2 165 0.0 0.0 1026.0 0.0 6.8 6.8 0.0
02/10/19 01:35 6.7 95 6.0 0.0 3.2 159 0.0 0.0 1026.0 1.8 6.7 6.7 0.0
02/10/19 01:36 6.7 95 6.0 0.0 3.2 159 0.0 0.0 1026.0 0.0 6.7 6.7 0.0
02/10/19 01:37 6.7 95 6.0 0.0 3.2 159 0.0 0.0 1026.0 0.0 6.7 6.7 0.0
02/10/19 01:38 6.7 95 6.0 0.0 3.2 167 0.0 0.0 1026.0 0.0 6.7 6.7 0.0
02/10/19 01:39 6.7 95 6.0 0.0 3.2 167 0.0 0.0 1026.0 0.0 6.7 6.7 0.0
02/10/19 01:40 6.7 95 6.0 0.0 3.2 167 0.0 0.0 1026.0 0.0 6.7 6.7 0.0
02/10/19 01:41 6.7 95 6.0 0.0 3.2 167 0.0 0.0 1026.0 0.0 6.7 6.7 0.0
02/10/19 01:42 6.6 95 5.9 1.4 1.8 135 0.0 0.0 1026.0 1.4 6.6 6.6 0.0
02/10/19 01:43 6.6 95 5.9 0.0 1.8 135 0.0 0.0 1026.0 0.0 6.6 6.6 0.0
02/10/19 01:44 6.6 95 5.9 0.0 1.8 135 0.0 0.0 1026.0 0.0 6.6 6.6 0.0
02/10/19 01:45 6.6 95 5.9 0.0 1.8 135 0.0 0.0 1026.0 0.0 6.6 6.6 0.0
02/10/19 01:50 6.4 95 5.7 1.8 3.2 135 0.0 0.0 1026.0 0.0 6.4 6.4 0.0
02/10/19 01:51 6.4 95 5.7 0.0 3.2 135 0.0 0.0 1026.0 0.0 6.4 6.4 0.0
02/10/19 01:52 6.4 95 5.7 0.0 3.2 135 0.0 0.0 1026.0 0.0 6.4 6.4 0.0
02/10/19 01:53 6.3 95 5.6 0.0 3.2 135 0.0 0.0 1026.0 2.2 6.3 6.3 0.0
02/10/19 01:54 6.4 95 5.7 0.0 3.2 135 0.0 0.0 1026.0 1.8 6.3 6.4 0.0
02/10/19 01:55 6.4 95 5.7 2.2 3.6 135 0.0 0.0 1026.0 0.0 6.4 6.4 0.0
02/10/19 01:56 6.4 95 5.7 2.5 5.8 135 0.0 0.0 1026.0 1.8 6.4 6.4 0.0
02/10/19 01:57 6.5 95 5.8 0.0 5.8 135 0.0 0.0 1026.0 0.0 6.5 6.5 0.0
02/10/19 01:58 6.5 95 5.8 0.0 5.8 135 0.0 0.0 1026.0 0.0 6.5 6.5 0.0
02/10/19 01:59 6.4 95 5.7 0.0 5.8 135 0.0 0.0 1026.0 0.0 6.4 6.4 0.0
02/10/19 02:00 6.4 95 5.7 0.0 5.8 135 0.0 0.0 1026.0 0.0 6.4 6.4 0.0
02/10/19 02:02 6.4 95 5.7 0.0 2.2 135 0.0 0.0 1026.0 0.0 6.4 6.4 0.0
02/10/19 02:03 6.4 95 5.7 0.0 2.2 135 0.0 0.0 1026.0 0.0 6.4 6.4 0.0
02/10/19 02:04 6.4 95 5.7 0.0 1.8 135 0.0 0.0 1026.0 0.0 6.4 6.4 0.0
02/10/19 02:05 6.4 95 5.7 0.0 1.8 135 0.0 0.0 1026.0 0.0 6.4 6.4 0.0
02/10/19 02:06 6.4 95 5.7 0.0 1.8 135 0.0 0.0 1026.0 0.0 6.4 6.4 0.0
02/10/19 02:07 6.4 95 5.7 0.0 0.0 0 0.0 0.0 1026.0 0.0 6.4 6.4 0.0
02/10/19 02:08 6.4 95 5.7 0.0 0.0 0 0.0 0.0 1026.0 0.0 6.4 6.4 0.0
02/10/19 02:09 6.3 95 5.6 0.0 0.0 0 0.0 0.0 1026.0 0.0 6.4 6.3 0.0
02/10/19 02:10 6.3 95 5.6 0.0 0.0 0 0.0 0.0 1026.0 0.0 6.3 6.3 0.0
02/10/19 02:11 6.3 95 5.6 0.0 0.0 0 0.0 0.0 1026.0 0.0 6.3 6.3 0.0
02/10/19 02:14 6.3 95 5.6 0.0 0.0 0 34.8 0.0 1027.0 0.0 6.3 6.3 0.0
02/10/19 02:15 6.2 95 5.5 0.0 0.0 0 34.8 0.0 1026.0 0.0 6.2 6.2 0.0
02/10/19 02:16 6.2 95 5.5 0.0 0.0 0 34.8 0.0 1026.0 0.0 6.2 6.2 0.0
02/10/19 02:17 6.1 95 5.4 0.0 0.0 0 34.8 0.0 1026.0 0.0 6.1 6.1 0.0
02/10/19 02:17 6.1 95 5.4 0.0 0.0 0 34.8 0.0 1026.0 0.0 6.1 6.1 0.0
02/10/19 02:18 6.0 95 5.3 0.0 0.0 0 34.8 0.0 1026.0 0.0 6.0 6.0 0.0
02/10/19 02:19 6.0 95 5.3 0.0 0.0 0 34.8 0.0 1026.0 0.0 6.0 6.0 0.0
02/10/19 02:20 6.0 95 5.3 0.0 0.0 0 34.8 0.0 1026.0 0.0 6.0 6.0 0.0
02/10/19 02:21 6.0 95 5.3 0.0 0.0 0 34.8 0.0 1026.0 0.0 6.0 6.0 0.0
02/10/19 02:22 6.0 95 5.3 0.0 0.0 0 34.8 0.0 1026.0 0.0 6.0 6.0 0.0
02/10/19 02:23 6.0 95 5.3 0.0 0.0 0 34.8 0.0 1026.0 0.0 6.0 6.0 0.0
02/10/19 02:24 6.0 95 5.3 0.0 0.0 0 34.8 0.0 1026.0 0.0 6.0 6.0 0.0
02/10/19 02:25 6.0 95 5.3 0.0 0.0 0 34.8 0.0 1026.0 0.0 6.0 6.0 0.0
02/10/19 02:26 5.9 95 5.2 0.0 0.0 0 34.8 0.0 1026.0 0.0 5.9 5.9 0.0
02/10/19 02:27 5.9 95 5.2 0.0 0.0 0 34.8 0.0 1026.0 0.0 5.9 5.9 0.0
02/10/19 02:28 5.9 95 5.2 0.0 0.0 0 34.8 0.0 1026.0 0.0 5.9 5.9 0.0
02/10/19 02:29 5.9 95 5.2 0.0 0.0 0 34.8 0.0 1026.0 0.0 5.9 5.9 0.0
02/10/19 02:30 5.9 95 5.2 0.0 0.0 0 34.8 0.0 1026.0 0.0 5.9 5.9 0.0
02/10/19 02:32 5.8 95 5.1 0.0 0.0 0 0.0 0.0 1026.0 0.0 5.8 5.8 0.0
02/10/19 02:33 5.8 95 5.1 0.0 0.0 0 0.0 0.0 1026.0 0.0 5.8 5.8 0.0
02/10/19 02:34 5.8 95 5.1 0.0 0.0 0 0.0 0.0 1026.0 0.0 5.8 5.8 0.0
02/10/19 02:35 5.8 95 5.1 0.0 0.0 0 0.0 0.0 1026.0 0.0 5.8 5.8 0.0
02/10/19 02:36 5.8 95 5.1 0.0 0.0 0 0.0 0.0 1026.0 0.0 5.8 5.8 0.0
02/10/19 02:37 5.8 95 5.1 0.0 0.0 0 0.0 0.0 1026.0 0.0 5.8 5.8 0.0
02/10/19 02:38 5.8 95 5.1 0.0 0.0 0 0.0 0.0 1026.0 0.0 5.8 5.8 0.0
02/10/19 02:39 5.8 96 5.2 0.0 0.0 0 0.0 0.0 1026.0 0.0 5.8 5.8 0.0
02/10/19 02:40 5.8 95 5.1 0.0 0.0 0 0.0 0.0 1026.0 0.0 5.8 5.8 0.0
02/10/19 02:41 5.8 95 5.1 0.0 0.0 0 0.0 0.0 1026.0 0.0 5.8 5.8 0.0
02/10/19 02:42 5.8 96 5.2 0.0 0.0 0 0.0 0.0 1026.0 0.0 5.8 5.8 0.0
02/10/19 02:43 5.8 96 5.2 0.0 0.0 0 0.0 0.0 1026.0 0.0 5.8 5.8 0.0
02/10/19 02:44 5.8 96 5.2 0.0 0.0 0 0.0 0.0 1026.0 0.0 5.8 5.8 0.0
02/10/19 02:45 5.8 96 5.2 0.0 0.0 0 0.0 0.0 1026.0 0.0 5.8 5.8 0.0
02/10/19 02:47 5.8 96 5.2 0.0 0.0 0 0.0 0.0 1026.0 0.0 5.8 5.8 0.0
02/10/19 02:48 5.8 96 5.2 0.0 0.0 0 0.0 0.0 1026.0 0.0 5.8 5.8 0.0
02/10/19 02:49 5.9 96 5.3 0.0 0.0 0 0.0 0.0 1026.0 0.0 5.9 5.9 0.0
02/10/19 02:50 5.9 96 5.3 0.0 0.0 0 0.0 0.0 1026.0 0.0 5.9 5.9 0.0
02/10/19 02:51 5.9 96 5.3 0.0 0.0 0 0.0 0.0 1026.0 0.0 5.9 5.9 0.0
02/10/19 02:52 5.8 96 5.2 0.0 0.0 0 0.0 0.0 1026.0 0.0 5.8 5.8 0.0
02/10/19 02:53 5.8 96 5.2 0.0 0.0 0 0.0 0.0 1025.0 0.0 5.8 5.8 0.0
02/10/19 02:54 5.8 96 5.2 0.0 0.0 0 0.0 0.0 1025.0 0.0 5.8 5.8 0.0
02/10/19 02:55 5.8 96 5.2 0.0 0.0 0 0.0 0.0 1025.0 0.0 5.8 5.8 0.0
02/10/19 02:56 5.8 96 5.2 0.0 0.0 0 0.0 0.0 1025.0 0.0 5.8 5.8 0.0
02/10/19 02:57 5.8 96 5.2 0.0 0.0 0 0.0 0.0 1025.0 0.0 5.8 5.8 0.0
02/10/19 02:58 5.8 96 5.2 0.0 0.0 0 0.0 0.0 1025.0 0.0 5.8 5.8 0.0
02/10/19 02:59 5.8 96 5.2 0.0 0.0 0 0.0 0.0 1025.0 0.0 5.8 5.8 0.0
02/10/19 03:00 5.8 96 5.2 0.0 0.0 0 0.0 0.0 1025.0 0.0 5.8 5.8 0.0
02/10/19 03:02 5.8 96 5.2 0.0 0.0 0 0.0 0.0 1025.0 0.0 5.8 5.8 0.0
02/10/19 03:03 5.8 96 5.2 0.0 0.0 0 0.0 0.0 1025.0 0.0 5.8 5.8 0.0
02/10/19 03:04 5.8 96 5.2 0.0 0.0 0 0.0 0.0 1025.0 0.0 5.8 5.8 0.0
02/10/19 03:07 5.8 96 5.2 0.0 0.0 0 34.8 0.0 1026.0 0.0 5.8 5.8 0.0
02/10/19 03:08 5.8 96 5.2 0.0 0.0 0 34.8 0.0 1025.0 0.0 5.8 5.8 0.0
02/10/19 03:09 5.8 96 5.2 0.0 0.0 0 34.8 0.0 1025.0 0.0 5.8 5.8 0.0
02/10/19 03:10 5.8 96 5.2 0.0 0.0 0 34.8 0.0 1025.0 0.0 5.8 5.8 0.0
02/10/19 03:11 5.8 96 5.2 0.0 0.0 0 34.8 0.0 1025.0 0.0 5.8 5.8 0.0
02/10/19 03:12 5.8 96 5.2 0.0 0.0 0 34.8 0.0 1025.0 0.0 5.8 5.8 0.0
02/10/19 03:13 5.8 96 5.2 0.0 0.0 0 34.8 0.0 1025.0 0.0 5.8 5.8 0.0
02/10/19 03:14 5.8 96 5.2 0.0 0.0 0 34.8 0.0 1025.0 0.0 5.8 5.8 0.0
02/10/19 03:15 5.8 96 5.2 0.0 0.0 0 34.8 0.0 1025.0 0.0 5.8 5.8 0.0
02/10/19 03:16 5.8 96 5.2 0.0 0.0 0 34.8 0.0 1025.0 0.0 5.8 5.8 0.0
02/10/19 03:17 5.8 96 5.2 0.0 0.0 0 34.8 0.0 1025.0 0.0 5.8 5.8 0.0
02/10/19 03:16 5.8 96 5.2 0.0 0.0 0 34.8 0.0 1025.0 0.0 5.8 5.8 0.0
02/10/19 03:17 5.8 96 5.2 0.0 0.0 0 34.8 0.0 1025.0 0.0 5.8 5.8 0.0
02/10/19 03:18 5.8 96 5.2 0.0 0.0 0 34.8 0.0 1025.0 0.0 5.8 5.8 0.0
02/10/19 03:19 5.8 96 5.2 0.0 0.0 0 34.8 0.0 1025.0 0.0 5.8 5.8 0.0
02/10/19 03:20 5.8 96 5.2 0.0 0.0 0 34.8 0.0 1025.0 0.0 5.8 5.8 0.0
02/10/19 03:21 5.8 96 5.2 0.0 0.0 0 34.8 0.0 1025.0 0.0 5.8 5.8 0.0
02/10/19 03:25 5.8 96 5.2 0.0 0.0 0 34.8 0.0 1025.0 0.0 5.8 5.8 0.0
02/10/19 03:26 5.8 96 5.2 0.0 0.0 0 34.8 0.0 1025.0 0.0 5.8 5.8 0.0
02/10/19 03:27 5.8 96 5.2 0.0 0.0 0 34.8 0.0 1025.0 0.0 5.8 5.8 0.0
02/10/19 03:28 5.7 96 5.1 0.0 0.0 0 34.8 0.0 1025.0 0.0 5.7 5.7 0.0
02/10/19 03:29 5.7 96 5.1 0.0 0.0 0 34.8 0.0 1025.0 0.0 5.7 5.7 0.0
02/10/19 03:30 5.7 96 5.1 0.0 0.0 0 34.8 0.0 1025.0 0.0 5.7 5.7 0.0
02/10/19 03:31 5.7 96 5.1 0.0 0.0 0 34.8 0.0 1025.0 0.0 5.7 5.7 0.0
02/10/19 03:32 5.7 96 5.1 0.0 0.0 0 34.8 0.0 1025.0 0.0 5.7 5.7 0.0
02/10/19 03:31 5.7 96 5.1 0.0 0.0 0 34.8 0.0 1025.0 0.0 5.7 5.7 0.0
02/10/19 03:32 5.8 96 5.2 0.0 0.0 0 34.8 0.0 1025.0 0.0 5.8 5.8 0.0
02/10/19 03:33 5.8 96 5.2 0.0 0.0 0 34.8 0.0 1025.0 0.0 5.8 5.8 0.0
02/10/19 03:34 5.8 96 5.2 0.0 0.0 0 34.8 0.0 1025.0 0.0 5.8 5.8 0.0
02/10/19 03:35 5.8 96 5.2 0.0 0.0 0 34.8 0.0 1025.0 0.0 5.8 5.8 0.0
02/10/19 03:36 5.8 96 5.2 0.0 0.0 0 34.8 0.0 1025.0 0.0 5.8 5.8 0.0
02/10/19 03:37 5.8 96 5.2 0.0 0.0 0 34.8 0.0 1025.0 0.0 5.8 5.8 0.0
02/10/19 03:38 5.8 96 5.2 0.0 0.0 0 34.8 0.0 1025.0 0.0 5.8 5.8 0.0
02/10/19 03:39 5.8 96 5.2 0.0 0.0 0 34.8 0.0 1025.0 0.0 5.8 5.8 0.0
02/10/19 03:40 5.8 96 5.2 0.0 0.0 0 34.8 0.0 1025.0 0.0 5.8 5.8 0.0
02/10/19 03:41 5.8 96 5.2 0.0 0.0 0 34.8 0.0 1025.0 0.0 5.8 5.8 0.0
02/10/19 03:42 5.8 96 5.2 0.0 4.7 135 34.8 0.0 1025.0 4.0 5.8 5.8 0.0
02/10/19 03:43 5.8 96 5.2 2.2 4.7 135 34.8 0.0 1025.0 0.0 5.8 5.8 0.0
02/10/19 03:44 5.9 96 5.3 0.0 4.7 135 34.8 0.0 1025.0 0.0 5.9 5.9 0.0
02/10/19 03:45 5.9 96 5.3 0.0 4.7 135 34.8 0.0 1025.0 0.0 5.9 5.9 0.0
02/10/19 03:48 5.9 96 5.3 0.0 4.0 135 34.8 0.0 1025.0 0.0 5.9 5.9 0.0
02/10/19 03:49 5.9 96 5.3 0.0 4.0 135 34.8 0.0 1025.0 0.0 5.9 5.9 0.0
02/10/19 03:50 5.9 96 5.3 0.0 4.0 135 34.8 0.0 1025.0 0.0 5.9 5.9 0.0
02/10/19 03:51 5.9 96 5.3 0.0 4.0 135 34.8 0.0 1025.0 0.0 5.9 5.9 0.0
02/10/19 03:52 5.9 96 5.3 0.0 0.0 0 34.8 0.0 1025.0 0.0 5.9 5.9 0.0
02/10/19 03:53 5.9 96 5.3 0.0 0.0 0 34.8 0.0 1025.0 0.0 5.9 5.9 0.0
02/10/19 03:54 5.9 96 5.3 0.0 0.0 0 34.8 0.0 1025.0 0.0 5.9 5.9 0.0
02/10/19 03:55 5.9 96 5.3 0.0 0.0 0 34.8 0.0 1025.0 0.0 5.9 5.9 0.0
02/10/19 03:56 5.8 96 5.2 0.0 0.0 0 34.8 0.0 1025.0 0.0 5.8 5.8 0.0
02/10/19 03:57 5.8 96 5.2 0.0 0.0 0 34.8 0.0 1025.0 0.0 5.8 5.8 0.0
02/10/19 03:58 5.8 96 5.2 0.0 0.0 0 34.8 0.0 1025.0 0.0 5.8 5.8 0.0
02/10/19 03:59 5.8 96 5.2 0.0 0.0 0 34.8 0.0 1025.0 0.0 5.8 5.8 0.0
02/10/19 04:00 5.8 96 5.2 0.0 0.0 0 34.8 0.0 1025.0 0.0 5.8 5.8 0.0
02/10/19 04:01 5.8 96 5.2 0.0 0.0 0 34.8 0.0 1025.0 0.0 5.8 5.8 0.0
02/10/19 04:02 5.8 96 5.2 0.0 0.0 0 34.8 0.0 1025.0 0.0 5.8 5.8 0.0
02/10/19 04:01 5.8 96 5.2 0.0 0.0 0 34.8 0.0 1025.0 0.0 5.8 5.8 0.0
02/10/19 04:02 5.8 96 5.2 0.0 0.0 0 34.8 0.0 1025.0 0.0 5.8 5.8 0.0
02/10/19 04:03 5.8 96 5.2 0.0 4.0 135 34.8 0.0 1025.0 1.8 5.8 5.8 0.0
02/10/19 04:04 5.8 96 5.2 1.8 4.0 135 34.8 0.0 1025.0 2.5 5.8 5.8 0.0
02/10/19 04:08 5.8 96 5.2 0.0 2.5 135 34.8 0.0 1025.0 0.0 5.8 5.8 0.0
02/10/19 04:09 5.8 96 5.2 0.0 2.5 135 34.8 0.0 1025.0 0.0 5.8 5.8 0.0
02/10/19 04:10 5.8 96 5.2 0.0 2.5 135 34.8 0.0 1025.0 0.0 5.8 5.8 0.0
02/10/19 04:11 5.8 96 5.2 0.0 2.5 135 34.8 0.0 1025.0 0.0 5.8 5.8 0.0
02/10/19 04:12 5.8 96 5.2 0.0 2.5 135 34.8 0.0 1025.0 0.0 5.8 5.8 0.0
02/10/19 04:13 5.8 96 5.2 0.0 2.5 135 34.8 0.0 1025.0 0.0 5.8 5.8 0.0
02/10/19 04:14 5.8 96 5.2 0.0 0.0 0 34.8 0.0 1025.0 0.0 5.8 5.8 0.0
02/10/19 04:15 5.8 96 5.2 0.0 0.0 0 34.8 0.0 1025.0 0.0 5.8 5.8 0.0
02/10/19 04:16 5.8 96 5.2 0.0 0.0 0 34.8 0.0 1025.0 0.0 5.8 5.8 0.0
02/10/19 04:17 5.8 96 5.2 0.0 0.0 0 34.8 0.0 1025.0 0.0 5.8 5.8 0.0
02/10/19 04:16 5.8 96 5.2 0.0 0.0 0 34.8 0.0 1025.0 0.0 5.8 5.8 0.0
02/10/19 04:17 5.8 96 5.2 0.0 0.0 0 34.8 0.0 1025.0 0.0 5.8 5.8 0.0
02/10/19 04:18 5.8 96 5.2 0.0 0.0 0 34.8 0.0 1025.0 0.0 5.8 5.8 0.0
02/10/19 04:19 5.8 96 5.2 0.0 0.0 0 34.8 0.0 1025.0 0.0 5.8 5.8 0.0
02/10/19 04:20 5.8 96 5.2 1.4 1.8 135 34.8 0.0 1025.0 0.0 5.8 5.8 0.0
02/10/19 04:21 5.8 96 5.2 0.0 1.8 135 34.8 0.0 1025.0 0.0 5.8 5.8 0.0
02/10/19 04:22 5.8 96 5.2 0.0 1.8 135 34.8 0.0 1025.0 0.0 5.8 5.8 0.0
02/10/19 04:23 5.8 96 5.2 0.0 1.8 135 34.8 0.0 1025.0 0.0 5.8 5.8 0.0
02/10/19 04:24 5.8 96 5.2 0.0 1.8 135 34.8 0.0 1025.0 0.0 5.8 5.8 0.0
02/10/19 04:25 5.8 96 5.2 0.0 1.8 135 34.8 0.0 1025.0 0.0 5.8 5.8 0.0
02/10/19 04:26 5.7 96 5.1 0.0 1.8 135 34.8 0.0 1025.0 0.0 5.7 5.7 0.0
02/10/19 04:27 5.7 96 5.1 0.0 1.8 135 34.8 0.0 1025.0 0.0 5.7 5.7 0.0
02/10/19 04:28 5.7 96 5.1 0.0 1.8 135 34.8 0.0 1025.0 0.0 5.7 5.7 0.0
02/10/19 04:29 5.7 96 5.1 0.0 1.8 135 34.8 0.0 1025.0 0.0 5.7 5.7 0.0
02/10/19 04:30 5.7 96 5.1 0.0 1.4 135 34.8 0.0 1025.0 0.0 5.7 5.7 0.0
02/10/19 04:32 5.7 96 5.1 0.0 0.0 0 0.0 0.0 1025.0 0.0 5.7 5.7 0.0
02/10/19 04:33 5.7 96 5.1 0.0 0.0 0 0.0 0.0 1025.0 0.0 5.7 5.7 0.0
02/10/19 04:34 5.7 96 5.1 0.0 0.0 0 0.0 0.0 1025.0 0.0 5.7 5.7 0.0
02/10/19 04:35 5.7 96 5.1 0.0 0.0 0 0.0 0.0 1025.0 0.0 5.7 5.7 0.0
02/10/19 04:36 5.7 96 5.1 0.0 0.0 0 0.0 0.0 1025.0 0.0 5.7 5.7 0.0
02/10/19 04:37 5.7 96 5.1 0.0 0.0 0 0.0 0.0 1025.0 0.0 5.7 5.7 0.0
02/10/19 04:38 5.6 96 5.0 0.0 0.0 0 0.0 0.0 1025.0 0.0 5.7 5.6 0.0
02/10/19 04:39 5.6 96 5.0 0.0 0.0 0 0.0 0.0 1025.0 0.0 5.6 5.6 0.0
02/10/19 04:40 5.6 96 5.0 0.0 0.0 0 0.0 0.0 1025.0 0.0 5.6 5.6 0.0
02/10/19 04:41 5.6 96 5.0 0.0 0.0 0 0.0 0.0 1025.0 0.0 5.6 5.6 0.0
02/10/19 04:42 5.6 96 5.0 0.0 0.0 0 0.0 0.0 1025.0 0.0 5.6 5.6 0.0
02/10/19 04:43 5.6 96 5.0 0.0 0.0 0 0.0 0.0 1025.0 0.0 5.6 5.6 0.0
02/10/19 04:44 5.6 96 5.0 0.0 0.0 0 0.0 0.0 1025.0 0.0 5.6 5.6 0.0
02/10/19 04:45 5.6 96 5.0 0.0 0.0 0 0.0 0.0 1025.0 0.0 5.6 5.6 0.0
02/10/19 04:47 5.6 96 5.0 0.0 0.0 0 0.0 0.0 1025.0 0.0 0.0 5.6 0.0
02/10/19 04:48 5.5 96 4.9 0.0 0.0 0 0.0 0.0 1025.0 0.0 5.6 5.5 0.0
02/10/19 04:49 5.5 96 4.9 0.0 0.0 0 0.0 0.0 1025.0 0.0 5.5 5.5 0.0
02/10/19 04:50 5.5 96 4.9 0.0 0.0 0 0.0 0.0 1025.0 0.0 5.5 5.5 0.0
02/10/19 04:51 5.5 96 4.9 0.0 0.0 0 0.0 0.0 1025.0 0.0 5.5 5.5 0.0
02/10/19 04:52 5.5 96 4.9 0.0 0.0 0 0.0 0.0 1025.0 0.0 5.5 5.5 0.0
02/10/19 04:53 5.5 96 4.9 0.0 0.0 0 0.0 0.0 1025.0 0.0 5.5 5.5 0.0
02/10/19 04:54 5.5 96 4.9 0.0 0.0 0 0.0 0.0 1025.0 0.0 5.5 5.5 0.0
02/10/19 04:55 5.5 96 4.9 0.0 0.0 0 0.0 0.0 1025.0 0.0 5.5 5.5 0.0
02/10/19 04:56 5.4 96 4.8 0.0 0.0 0 0.0 0.0 1025.0 0.0 5.4 5.4 0.0
02/10/19 04:57 5.4 96 4.8 0.0 0.0 0 0.0 0.0 1025.0 0.0 5.4 5.4 0.0
02/10/19 04:58 5.4 96 4.8 0.0 0.0 0 0.0 0.0 1025.0 0.0 5.4 5.4 0.0
02/10/19 04:59 5.4 96 4.8 0.0 0.0 0 0.0 0.0 1025.0 0.0 5.4 5.4 0.0
02/10/19 05:00 5.4 96 4.8 0.0 0.0 0 0.0 0.0 1025.0 0.0 5.4 5.4 0.0
02/10/19 05:02 5.4 96 4.8 0.0 0.0 0 0.0 0.0 1025.0 0.0 0.0 5.4 0.0
02/10/19 05:03 5.4 96 4.8 0.0 0.0 0 0.0 0.0 1025.0 0.0 5.4 5.4 0.0
02/10/19 05:04 5.4 96 4.8 0.0 0.0 0 0.0 0.0 1025.0 0.0 5.4 5.4 0.0
02/10/19 05:05 5.4 96 4.8 0.0 0.0 0 0.0 0.0 1025.0 0.0 5.4 5.4 0.0
02/10/19 05:06 5.5 96 4.9 0.0 0.0 0 0.0 0.0 1025.0 0.0 5.4 5.5 0.0
02/10/19 05:07 5.5 96 4.9 0.0 0.0 0 0.0 0.0 1025.0 0.0 5.5 5.5 0.0
02/10/19 05:08 5.5 96 4.9 0.0 0.0 0 0.0 0.0 1025.0 0.0 5.5 5.5 0.0
02/10/19 05:09 5.6 96 5.0 0.0 0.0 0 0.0 0.0 1025.0 0.0 5.5 5.6 0.0
02/10/19 05:10 5.6 96 5.0 0.0 0.0 0 0.0 0.0 1025.0 0.0 5.6 5.6 0.0
02/10/19 05:11 5.5 96 4.9 0.0 0.0 0 0.0 0.0 1025.0 0.0 5.5 5.5 0.0
02/10/19 05:12 5.4 96 4.8 0.0 0.0 0 0.0 0.0 1025.0 0.0 5.4 5.4 0.0
02/10/19 05:13 5.4 96 4.8 0.0 0.0 0 0.0 0.0 1025.0 0.0 5.4 5.4 0.0
02/10/19 05:14 5.4 96 4.8 0.0 0.0 0 0.0 0.0 1025.0 0.0 5.4 5.4 0.0
02/10/19 05:15 5.4 96 4.8 0.0 0.0 0 0.0 0.0 1025.0 0.0 5.4 5.4 0.0
02/10/19 05:17 5.4 96 4.8 0.0 0.0 0 0.0 0.0 1025.0 0.0 0.0 5.4 0.0
02/10/19 05:18 5.4 96 4.8 0.0 0.0 0 0.0 0.0 1025.0 0.0 5.4 5.4 0.0
02/10/19 05:19 5.4 96 4.8 0.0 0.0 0 0.0 0.0 1025.0 0.0 5.4 5.4 0.0
02/10/19 05:20 5.5 96 4.9 0.0 0.0 0 0.0 0.0 1025.0 0.0 5.4 5.5 0.0
02/10/19 05:21 5.5 96 4.9 0.0 0.0 0 0.0 0.0 1025.0 0.0 5.4 5.5 0.0
02/10/19 05:22 5.5 96 4.9 0.0 0.0 0 0.0 0.0 1025.0 0.0 5.5 5.5 0.0
02/10/19 05:23 5.5 96 4.9 0.0 0.0 0 0.0 0.0 1026.0 0.0 5.5 5.5 0.0
02/10/19 05:24 5.4 96 4.8 0.0 0.0 0 0.0 0.0 1026.0 0.0 5.5 5.4 0.0
02/10/19 05:25 5.4 96 4.8 0.0 0.0 0 0.0 0.0 1026.0 0.0 5.4 5.4 0.0
02/10/19 05:26 5.4 96 4.8 0.0 0.0 0 0.0 0.0 1026.0 0.0 5.4 5.4 0.0
02/10/19 05:27 5.3 96 4.7 0.0 0.0 0 0.0 0.0 1026.0 0.0 5.4 5.3 0.0
02/10/19 05:28 5.3 96 4.7 0.0 0.0 0 0.0 0.0 1026.0 0.0 5.3 5.3 0.0
02/10/19 05:29 5.2 96 4.6 0.0 0.0 0 0.0 0.0 1026.0 0.0 5.3 5.2 0.0
02/10/19 05:30 5.2 96 4.6 0.0 0.0 0 0.0 0.0 1026.0 0.0 5.2 5.2 0.0
02/10/19 05:32 5.1 96 4.5 0.0 0.0 0 0.0 0.0 1026.0 0.0 0.0 5.1 0.0
02/10/19 05:33 5.1 96 4.5 0.0 0.0 0 0.0 0.0 1026.0 0.0 5.1 5.1 0.0
02/10/19 05:34 5.1 96 4.5 0.0 0.0 0 0.0 0.0 1026.0 0.0 5.1 5.1 0.0
02/10/19 05:35 5.1 96 4.5 0.0 0.0 0 0.0 0.0 1026.0 0.0 5.1 5.1 0.0
02/10/19 05:36 5.1 96 4.5 0.0 0.0 0 0.0 0.0 1026.0 0.0 5.1 5.1 0.0
02/10/19 05:37 5.1 96 4.5 0.0 0.0 0 0.0 0.0 1026.0 0.0 5.1 5.1 0.0
02/10/19 05:38 5.1 96 4.5 0.0 0.0 0 0.0 0.0 1026.0 0.0 5.1 5.1 0.0
02/10/19 05:39 5.1 96 4.5 0.0 0.0 0 0.0 0.0 1026.0 0.0 5.1 5.1 0.0
02/10/19 05:40 5.1 96 4.5 0.0 0.0 0 0.0 0.0 1026.0 0.0 5.1 5.1 0.0
02/10/19 05:41 5.1 96 4.5 0.0 0.0 0 0.0 0.0 1026.0 0.0 5.1 5.1 0.0
02/10/19 05:42 5.0 96 4.4 0.0 0.0 0 0.0 0.0 1026.0 0.0 5.1 5.0 0.0
02/10/19 05:43 5.0 96 4.4 0.0 0.0 0 0.0 0.0 1026.0 0.0 5.0 5.0 0.0
02/10/19 05:44 5.0 96 4.4 0.0 0.0 0 0.0 0.0 1026.0 0.0 5.0 5.0 0.0
02/10/19 05:45 5.0 96 4.4 0.0 0.0 0 0.0 0.0 1026.0 0.0 5.0 5.0 0.0
02/10/19 05:47 4.9 97 4.5 0.0 0.0 0 0.0 0.0 1026.0 0.0 0.0 4.9 0.0
02/10/19 05:48 4.9 97 4.5 0.0 0.0 0 0.0 0.0 1026.0 0.0 4.9 4.9 0.0
02/10/19 05:49 4.9 97 4.5 0.0 0.0 0 0.0 0.0 1026.0 0.0 4.9 4.9 0.0
02/10/19 05:50 5.0 96 4.4 0.0 0.0 0 0.0 0.0 1026.0 0.0 4.9 5.0 0.0
02/10/19 05:51 5.0 96 4.4 0.0 0.0 0 0.0 0.0 1026.0 0.0 5.0 5.0 0.0
02/10/19 05:52 5.0 96 4.4 0.0 0.0 0 0.0 0.0 1026.0 0.0 5.0 5.0 0.0
02/10/19 05:53 5.0 96 4.4 0.0 0.0 0 0.0 0.0 1026.0 0.0 5.0 5.0 0.0
02/10/19 05:54 5.0 96 4.4 0.0 0.0 0 0.0 0.0 1026.0 0.0 5.0 5.0 0.0
02/10/19 05:55 5.0 96 4.4 0.0 0.0 0 0.0 0.0 1026.0 0.0 5.0 5.0 0.0
02/10/19 05:56 5.0 97 4.6 0.0 0.0 0 0.0 0.0 1026.0 0.0 5.0 5.0 0.0
02/10/19 05:57 5.0 97 4.6 0.0 0.0 0 0.0 0.0 1026.0 0.0 5.0 5.0 0.0
02/10/19 05:58 5.0 97 4.6 0.0 0.0 0 0.0 0.0 1026.0 0.0 5.0 5.0 0.0
02/10/19 05:59 4.9 97 4.5 0.0 0.0 0 0.0 0.0 1026.0 0.0 5.0 4.9 0.0
02/10/19 06:00 4.9 97 4.5 0.0 0.0 0 0.0 0.0 1026.0 0.0 5.0 4.9 0.0
02/10/19 06:03 5.0 97 4.6 0.0 0.0 0 0.0 0.0 1026.0 0.0 0.0 5.0 0.0
02/10/19 06:04 5.1 97 4.7 0.0 0.0 0 0.0 0.0 1026.0 0.0 0.0 5.1 0.0
02/10/19 06:05 5.2 97 4.8 0.0 0.0 0 0.0 0.0 1026.0 0.0 0.0 5.2 0.0
02/10/19 06:06 5.2 97 4.8 0.0 0.0 0 0.0 0.0 1026.0 0.0 0.0 5.2 0.0
02/10/19 06:07 5.3 97 4.9 0.0 0.0 0 0.0 0.0 1026.0 0.0 0.0 5.3 0.0
02/10/19 06:08 5.3 97 4.9 0.0 0.0 0 0.0 0.0 1026.0 0.0 0.0 5.3 0.0
02/10/19 06:09 5.5 97 5.1 0.0 0.0 0 0.0 0.0 1026.0 0.0 0.0 5.5 0.0
02/10/19 06:10 5.5 97 5.1 0.0 0.0 0 0.0 0.0 1026.0 0.0 0.0 5.5 0.0
02/10/19 06:11 5.5 97 5.1 0.0 0.0 0 0.0 0.0 1026.0 0.0 0.0 5.5 0.0
02/10/19 06:12 5.6 97 5.2 0.0 0.0 0 0.0 0.0 1026.0 0.0 0.0 5.6 0.0
02/10/19 06:13 5.7 97 5.3 0.0 0.0 0 0.0 0.0 1026.0 0.0 0.0 5.7 0.0
02/10/19 06:14 5.9 97 5.5 0.0 0.0 0 0.0 0.0 1026.0 0.0 0.0 5.9 0.0
02/10/19 06:15 6.0 97 5.6 0.0 0.0 0 0.0 0.0 1026.0 0.0 0.0 6.0 0.0
02/10/19 06:18 6.2 97 5.8 0.0 0.0 0 0.0 0.0 1026.0 0.0 0.0 6.2 0.0
02/10/19 06:19 6.3 97 5.9 0.0 0.0 0 0.0 0.0 1026.0 0.0 0.0 6.3 0.0
02/10/19 06:20 6.4 97 6.0 0.0 0.0 0 0.0 0.0 1026.0 0.0 0.0 6.4 0.0
02/10/19 06:21 6.4 97 6.0 0.0 0.0 0 0.0 0.0 1026.0 0.0 0.0 6.4 0.0
02/10/19 06:22 6.5 96 5.9 0.0 0.0 0 0.0 0.0 1026.0 0.0 0.0 6.5 0.0
02/10/19 06:23 6.7 96 6.1 0.0 0.0 0 0.0 0.0 1026.0 0.0 0.0 6.7 0.0
02/10/19 06:24 7.0 96 6.4 0.0 0.0 0 0.0 0.0 1026.0 0.0 0.0 7.0 0.0
02/10/19 06:25 7.0 96 6.4 0.0 0.0 0 0.0 0.0 1026.0 0.0 0.0 7.0 0.0
02/10/19 06:26 7.0 96 6.4 0.0 0.0 0 0.0 0.0 1026.0 0.0 7.0 7.0 0.0
02/10/19 06:27 7.0 95 6.3 0.0 0.0 0 0.0 0.0 1026.0 0.0 7.0 7.0 0.0
02/10/19 06:28 7.0 95 6.3 0.0 0.0 0 0.0 0.0 1026.0 0.0 7.0 7.0 0.0
02/10/19 06:29 7.1 95 6.4 0.0 0.0 0 0.0 0.0 1026.0 0.0 7.0 7.1 0.0
02/10/19 06:30 7.1 95 6.4 0.0 0.0 0 0.0 0.0 1026.0 0.0 7.1 7.1 0.0
02/10/19 06:32 7.2 95 6.5 0.0 0.0 0 0.0 0.0 1026.0 0.0 0.0 7.2 0.0
02/10/19 06:33 7.2 94 6.3 0.0 0.0 0 0.0 0.0 1026.0 0.0 7.2 7.2 0.0
02/10/19 06:36 7.1 94 6.2 0.0 0.0 0 34.8 0.0 1025.0 0.0 7.1 7.1 0.0
02/10/19 06:37 7.1 94 6.2 0.0 0.0 0 34.8 0.0 1026.0 0.0 7.1 7.1 0.0
02/10/19 06:38 7.1 94 6.2 0.0 0.0 0 34.8 0.0 1026.0 0.0 7.1 7.1 0.0
02/10/19 06:39 7.1 94 6.2 0.0 0.0 0 34.8 0.0 1026.0 0.0 7.1 7.1 0.0
02/10/19 06:40 7.1 94 6.2 0.0 0.0 0 34.8 0.0 1026.0 0.0 7.1 7.1 0.0
02/10/19 06:41 7.0 94 6.1 0.0 0.0 0 34.8 0.0 1026.0 0.0 7.0 7.0 0.0
02/10/19 06:42 7.0 94 6.1 0.0 0.0 0 34.8 0.0 1026.0 0.0 7.0 7.0 0.0
02/10/19 06:43 7.1 94 6.2 0.0 0.0 0 34.8 0.0 1026.0 0.0 7.1 7.1 0.0
02/10/19 06:44 7.3 94 6.4 0.0 0.0 0 34.8 0.0 1026.0 0.0 7.3 7.3 0.0
02/10/19 06:45 7.4 94 6.5 0.0 0.0 0 34.8 0.0 1026.0 0.0 7.4 7.4 0.0
02/10/19 06:46 7.5 94 6.6 0.0 0.0 0 34.8 0.0 1026.0 0.0 7.5 7.5 0.0
02/10/19 06:47 7.5 94 6.6 0.0 0.0 0 34.8 0.0 1026.0 0.0 7.5 7.5 0.0
02/10/19 06:47 7.7 94 6.8 0.0 0.0 0 34.8 0.0 1026.0 0.0 7.7 7.7 0.0
02/10/19 06:48 7.8 94 6.9 0.0 0.0 0 34.8 0.0 1026.0 0.0 7.7 7.8 0.0
02/10/19 06:49 7.8 94 6.9 0.0 0.0 0 34.8 0.0 1026.0 0.0 7.8 7.8 0.0
02/10/19 06:50 7.9 94 7.0 0.0 0.0 0 34.8 0.0 1026.0 0.0 7.8 7.9 0.0
02/10/19 06:51 8.0 93 6.9 0.0 0.0 0 34.8 0.0 1026.0 0.0 8.0 8.0 0.0
02/10/19 06:52 8.0 93 6.9 0.0 0.0 0 34.8 0.0 1026.0 0.0 8.0 8.0 0.0
02/10/19 06:53 8.0 93 6.9 0.0 0.0 0 34.8 0.0 1026.0 0.0 8.0 8.0 0.0
02/10/19 06:54 8.0 93 6.9 0.0 0.0 0 34.8 0.0 1026.0 0.0 8.0 8.0 0.0
02/10/19 06:55 8.1 93 7.0 0.0 0.0 0 34.8 0.0 1026.0 0.0 8.0 8.1 0.0
02/10/19 06:56 8.1 93 7.0 0.0 0.0 0 34.8 0.0 1026.0 0.0 8.1 8.1 0.0
02/10/19 06:57 8.3 93 7.2 0.0 0.0 0 34.8 0.0 1026.0 0.0 8.2 8.3 0.0
02/10/19 06:58 8.4 93 7.3 0.0 0.0 0 34.8 0.0 1026.0 0.0 8.4 8.4 0.0
02/10/19 06:59 8.4 93 7.3 0.0 0.0 0 34.8 0.0 1026.0 0.0 8.4 8.4 0.0
02/10/19 07:00 8.5 93 7.4 0.0 0.0 0 34.8 0.0 1026.0 0.0 8.4 8.5 0.0
02/10/19 07:02 8.6 93 7.5 0.0 0.0 0 0.0 0.0 1026.0 0.0 0.0 8.6 0.0
02/10/19 07:03 8.7 93 7.6 0.0 0.0 0 0.0 0.0 1026.0 0.0 8.6 8.7 0.0
02/10/19 07:04 8.8 92 7.6 0.0 0.0 0 0.0 0.0 1026.0 0.0 8.7 8.8 0.0
02/10/19 07:05 9.0 92 7.8 0.0 0.0 0 0.0 0.0 1026.0 0.0 8.9 9.0 0.0
02/10/19 07:06 9.1 92 7.9 0.0 0.0 0 0.0 0.0 1026.0 0.0 9.1 9.1 0.0
02/10/19 07:07 9.2 92 8.0 0.0 0.0 0 0.0 0.0 1026.0 0.0 9.2 9.2 0.0
02/10/19 07:08 9.4 92 8.2 0.0 0.0 0 0.0 0.0 1026.0 0.0 9.2 9.4 0.0
02/10/19 07:09 9.4 92 8.2 0.0 0.0 0 0.0 0.0 1026.0 0.0 9.4 9.4 0.0
02/10/19 07:10 9.4 92 8.2 1.4 0.0 0 0.0 0.0 1026.0 0.0 9.4 9.4 0.0
02/10/19 07:11 9.5 91 8.1 0.0 0.0 0 0.0 0.0 1026.0 0.0 9.5 9.5 0.0
02/10/19 07:12 9.7 91 8.3 0.0 0.0 0 0.0 0.0 1026.0 0.0 9.6 9.7 0.0
02/10/19 07:13 9.7 91 8.3 0.0 1.4 45 0.0 0.0 1026.0 1.4 9.7 9.7 0.0
02/10/19 07:14 9.7 91 8.3 0.0 1.4 45 0.0 0.0 1026.0 0.0 9.7 9.7 0.0
02/10/19 07:15 10.0 90 8.4 0.0 1.4 45 0.0 0.0 1026.0 1.4 10.0 10.0 0.0
02/10/19 07:17 10.1 89 8.4 0.0 1.4 46 0.0 0.0 1026.0 1.4 10.1 10.1 0.0
02/10/19 07:18 10.2 89 8.5 0.0 1.4 46 0.0 0.0 1026.0 0.0 10.2 10.2 0.0
02/10/19 07:19 10.3 89 8.6 0.0 1.4 46 0.0 0.0 1026.0 0.0 10.3 10.3 0.0
02/10/19 07:20 10.6 88 8.7 0.0 1.4 46 0.0 0.0 1026.0 0.0 10.3 10.6 0.0
02/10/19 07:21 10.8 88 8.9 0.0 1.4 46 0.0 0.0 1026.0 0.0 10.8 10.8 0.0
02/10/19 07:22 10.9 88 9.0 0.0 1.4 46 0.0 0.0 1026.0 0.0 10.9 10.9 0.0
02/10/19 07:23 11.0 88 9.1 0.0 1.4 46 0.0 0.0 1026.0 0.0 11.0 11.0 0.0
02/10/19 07:24 11.1 87 9.0 0.0 1.4 45 0.0 0.0 1026.0 0.0 11.0 11.1 0.0
02/10/19 07:25 11.2 87 9.1 0.0 1.4 45 0.0 0.0 1026.0 0.0 11.1 11.2 0.0
02/10/19 07:26 11.2 86 8.9 0.0 1.4 45 0.0 0.0 1026.0 0.0 11.2 11.2 0.0
02/10/19 07:27 11.5 85 9.1 0.0 0.0 0 0.0 0.0 1026.0 0.0 11.3 11.5 0.0
02/10/19 07:28 11.6 84 9.0 0.0 0.0 0 0.0 0.0 1026.0 0.0 11.5 11.6 0.0
02/10/19 07:29 11.7 84 9.1 0.0 0.0 0 0.0 0.0 1026.0 0.0 11.6 11.7 0.0
02/10/19 07:32 12.2 83 9.4 0.0 0.0 0 0.0 0.0 1026.0 0.0 12.2 12.2 0.0
02/10/19 07:33 12.3 83 9.5 0.0 0.0 0 0.0 0.0 1026.0 0.0 12.3 12.3 0.0
02/10/19 07:34 12.3 83 9.5 0.0 0.0 0 0.0 0.0 1026.0 0.0 12.3 12.3 0.0
02/10/19 07:35 12.7 82 9.7 0.0 0.0 0 0.0 0.0 1026.0 0.0 12.7 12.7 0.0
02/10/19 07:36 12.9 81 9.7 1.4 3.2 1 0.0 0.0 1026.0 0.0 12.9 12.9 0.0
02/10/19 07:37 13.0 80 9.6 0.0 3.2 1 0.0 0.0 1026.0 0.0 13.0 13.0 0.0
02/10/19 07:38 13.0 80 9.6 0.0 3.2 1 0.0 0.0 1027.0 0.0 13.0 13.0 0.0
02/10/19 07:39 13.3 79 9.7 0.0 3.2 1 0.0 0.0 1027.0 0.0 13.3 13.3 0.0
02/10/19 07:40 13.5 79 9.9 0.0 3.2 1 0.0 0.0 1027.0 0.0 13.5 13.5 0.0
02/10/19 07:41 13.6 79 10.0 0.0 3.2 1 0.0 0.0 1027.0 0.0 13.6 13.6 0.0
02/10/19 07:42 13.8 78 10.0 0.0 3.2 1 0.0 0.0 1027.0 1.4 13.8 13.8 0.0
02/10/19 07:43 14.1 77 10.1 0.0 3.2 1 0.0 0.0 1027.0 0.0 14.1 14.1 0.0
02/10/19 07:44 14.2 76 10.0 0.0 3.2 1 0.0 0.0 1027.0 0.0 14.2 14.2 0.0
02/10/19 07:47 14.6 73 9.8 0.0 3.6 1 0.0 0.0 1027.0 3.6 14.6 14.6 0.0
02/10/19 07:48 14.7 72 9.7 1.4 3.6 1 0.0 0.0 1027.0 1.8 14.7 14.7 0.0
02/10/19 07:49 14.8 72 9.8 0.0 3.6 1 0.0 0.0 1027.0 0.0 14.8 14.8 0.0
02/10/19 07:50 15.0 70 9.6 0.0 3.6 1 0.0 0.0 1027.0 0.0 14.9 15.0 0.0
02/10/19 07:51 15.1 70 9.7 0.0 3.6 1 0.0 0.0 1027.0 0.0 15.1 15.1 0.0
02/10/19 07:52 15.1 69 9.5 0.0 3.6 1 0.0 0.0 1027.0 0.0 15.1 15.1 0.0
02/10/19 07:53 15.3 69 9.6 0.0 3.6 1 0.0 0.0 1027.0 0.0 15.3 15.3 0.0
02/10/19 07:57 15.6 70 10.1 0.0 1.8 1 34.8 0.0 1027.0 0.0 15.6 15.6 0.0
02/10/19 07:58 15.8 70 10.3 0.0 0.0 0 34.8 0.0 1027.0 0.0 15.8 15.8 0.0
02/10/19 07:59 16.0 69 10.3 0.0 0.0 0 34.8 0.0 1027.0 0.0 16.0 16.0 0.0
02/10/19 08:00 16.3 68 10.4 0.0 0.0 0 34.8 0.0 1027.0 0.0 16.3 16.3 0.0
02/10/19 08:01 16.4 67 10.3 0.0 0.0 0 34.8 0.0 1027.0 0.0 16.4 16.4 0.0
02/10/19 08:02 16.5 66 10.1 0.0 0.0 0 34.8 0.0 1027.0 0.0 16.5 16.5 0.0
02/10/19 08:01 16.5 66 10.1 0.0 2.2 1 34.8 0.0 1027.0 2.2 16.5 16.5 0.0
02/10/19 08:02 16.8 66 10.4 0.0 2.2 1 34.8 0.0 1027.0 0.0 16.8 16.8 0.0
02/10/19 08:03 16.9 65 10.3 0.0 2.2 1 34.8 0.0 1027.0 0.0 16.9 16.9 0.0
02/10/19 08:04 17.0 62 9.7 0.0 2.2 1 34.8 0.0 1027.0 0.0 17.0 17.0 0.0
02/10/19 08:05 17.1 61 9.5 0.0 2.2 1 34.8 0.0 1027.0 0.0 17.2 17.1 0.0
02/10/19 08:06 17.1 60 9.3 0.0 2.2 1 34.8 0.0 1027.0 0.0 17.1 17.1 0.0
02/10/19 08:07 17.2 61 9.6 0.0 2.2 1 34.8 0.0 1027.0 0.0 17.2 17.2 0.0
02/10/19 08:08 17.3 62 9.9 0.0 3.2 1 34.8 0.0 1027.0 3.2 17.3 17.3 0.0
02/10/19 08:09 17.3 59 9.2 3.2 5.0 1 34.8 0.0 1027.0 4.3 17.3 17.3 0.0
02/10/19 08:10 17.1 56 8.2 3.2 5.0 1 34.8 0.0 1027.0 3.6 17.1 17.1 0.0
02/10/19 08:11 17.0 56 8.2 2.2 5.0 1 34.8 0.0 1027.0 0.0 17.0 17.0 0.0
02/10/19 08:12 16.9 56 8.1 0.0 5.0 1 34.8 0.0 1027.0 0.0 16.9 16.9 0.0
02/10/19 08:13 17.2 56 8.3 0.0 5.0 1 34.8 0.0 1027.0 0.0 17.0 17.2 0.0
02/10/19 08:14 17.3 56 8.4 1.4 5.0 1 34.8 0.0 1027.0 0.0 17.3 17.3 0.0
02/10/19 08:15 17.4 55 8.3 2.2 5.4 1 34.8 0.0 1027.0 2.5 17.4 17.4 0.0
02/10/19 08:17 17.5 54 8.1 2.5 5.0 1 0.0 0.0 1027.0 2.5 17.5 17.5 0.0
02/10/19 08:18 17.4 53 7.7 2.2 5.0 1 0.0 0.0 1027.0 0.0 17.4 17.4 0.0
02/10/19 08:19 17.5 53 7.8 0.0 5.0 1 0.0 0.0 1027.0 0.0 17.5 17.5 0.0
02/10/19 08:20 17.5 50 7.0 1.8 6.5 1 0.0 0.0 1027.0 6.5 17.5 17.5 0.0
02/10/19 08:21 17.4 51 7.2 4.0 6.5 1 0.0 0.0 1027.0 0.0 17.4 17.4 0.0
02/10/19 08:22 17.5 51 7.2 0.0 6.5 1 0.0 0.0 1027.0 0.0 17.5 17.5 0.0
02/10/19 08:23 17.5 51 7.2 2.2 6.5 1 0.0 0.0 1027.0 2.2 17.5 17.5 0.0
02/10/19 08:24 17.5 51 7.2 3.2 6.5 1 0.0 0.0 1027.0 1.8 17.5 17.5 0.0
02/10/19 08:25 17.5 50 7.0 2.5 6.5 1 0.0 0.0 1027.0 4.3 17.5 17.5 0.0
02/10/19 08:26 17.5 49 6.7 3.2 6.5 1 0.0 0.0 1027.0 1.8 17.5 17.5 0.0
02/10/19 08:27 17.5 49 6.7 2.5 6.5 1 0.0 0.0 1027.0 4.7 17.5 17.5 0.0
02/10/19 08:28 17.3 48 6.2 3.6 6.5 1 0.0 0.0 1027.0 1.4 17.3 17.3 0.0
02/10/19 08:29 17.4 49 6.6 1.4 6.5 1 0.0 0.0 1027.0 0.0 17.4 17.4 0.0
02/10/19 08:30 17.5 49 6.7 0.0 6.5 1 0.0 0.0 1027.0 0.0 17.5 17.5 0.0
02/10/19 08:33 17.7 50 7.1 0.0 4.7 2 34.8 0.0 1027.0 0.0 17.7 17.7 0.0
02/10/19 08:34 18.0 50 7.4 0.0 4.7 1 34.8 0.0 1027.0 0.0 18.0 18.0 0.0
02/10/19 08:35 18.2 49 7.3 1.8 4.7 1 34.8 0.0 1027.0 2.2 18.2 18.2 0.0
02/10/19 08:36 18.2 49 7.3 1.8 4.7 1 34.8 0.0 1027.0 0.0 18.2 18.2 0.0
02/10/19 08:37 18.0 49 7.1 0.0 2.2 1 34.8 0.0 1027.0 0.0 18.0 18.0 0.0
02/10/19 08:38 18.3 49 7.4 0.0 2.2 1 34.8 0.0 1027.0 0.0 18.3 18.3 0.0
02/10/19 08:39 18.6 49 7.7 0.0 2.2 1 34.8 0.0 1027.0 0.0 18.6 18.6 0.0
02/10/19 08:40 18.7 48 7.5 1.4 4.0 1 34.8 0.0 1027.0 4.0 18.7 18.7 0.0
02/10/19 08:41 18.8 48 7.6 3.2 4.0 1 34.8 0.0 1027.0 1.4 18.8 18.8 0.0
02/10/19 08:42 18.8 48 7.6 0.0 4.0 1 34.8 0.0 1027.0 0.0 18.8 18.8 0.0
02/10/19 08:43 18.9 48 7.6 0.0 4.0 1 34.8 0.0 1027.0 1.4 18.9 18.9 0.0
02/10/19 08:44 19.0 47 7.4 0.0 4.0 1 34.8 0.0 1027.0 0.0 19.0 19.0 0.0
02/10/19 08:45 19.4 47 7.8 0.0 4.0 1 34.8 0.0 1027.0 0.0 19.4 19.4 0.0
02/10/19 08:46 19.6 47 8.0 0.0 4.0 1 34.8 0.0 1027.0 0.0 19.6 19.6 0.0
02/10/19 08:47 19.8 47 8.2 0.0 4.0 1 34.8 0.0 1027.0 0.0 19.8 19.8 0.0
02/10/19 08:46 19.8 47 8.2 0.0 4.0 1 34.8 0.0 1027.0 0.0 19.8 19.8 0.0
02/10/19 08:47 19.9 46 7.9 0.0 4.0 1 34.8 0.0 1027.0 0.0 19.9 19.9 0.0
02/10/19 08:48 20.0 46 8.0 0.0 4.0 1 34.8 0.0 1027.0 0.0 20.0 20.0 0.0
02/10/19 08:49 20.2 46 8.2 0.0 4.0 1 34.8 0.0 1027.0 0.0 20.2 20.2 0.0
02/10/19 08:50 20.3 45 8.0 0.0 4.0 1 34.8 0.0 1027.0 0.0 20.3 20.3 0.0
02/10/19 08:51 20.5 45 8.2 0.0 1.4 1 34.8 0.0 1027.0 0.0 20.4 20.5 0.0
02/10/19 08:52 20.5 44 7.8 0.0 1.4 1 34.8 0.0 1027.0 0.0 20.5 20.5 0.0
02/10/19 08:53 20.7 44 8.0 0.0 1.4 1 34.8 0.0 1027.0 0.0 20.7 20.7 0.0
02/10/19 08:54 20.8 45 8.4 0.0 0.0 0 34.8 0.0 1027.0 0.0 20.8 20.8 0.0
02/10/19 08:55 20.9 44 8.2 0.0 0.0 0 34.8 0.0 1027.0 0.0 20.9 20.9 0.0
02/10/19 08:56 21.0 44 8.3 0.0 1.4 1 34.8 0.0 1027.0 0.0 21.0 21.0 0.0
02/10/19 08:57 21.1 44 8.4 0.0 1.4 1 34.8 0.0 1027.0 0.0 21.1 21.1 0.0
02/10/19 08:58 21.3 44 8.5 0.0 1.8 1 34.8 0.0 1027.0 1.8 21.2 21.3 0.0
02/10/19 08:59 21.4 43 8.3 0.0 1.8 1 34.8 0.0 1027.0 0.0 21.4 21.4 0.0
02/10/19 09:00 21.4 42 8.0 0.0 1.8 1 34.8 0.0 1027.0 0.0 21.4 21.4 0.0
02/10/19 09:02 21.5 42 8.0 0.0 1.8 1 0.0 0.0 1027.0 0.0 21.5 21.5 0.0
02/10/19 09:03 21.6 42 8.1 0.0 1.8 54 0.0 0.0 1027.0 0.0 21.6 21.6 0.0
02/10/19 09:04 21.6 41 7.8 1.4 3.2 323 0.0 0.0 1027.0 0.0 21.6 21.6 0.0
02/10/19 09:05 21.6 40 7.4 0.0 3.2 323 0.0 0.0 1027.0 0.0 21.6 21.6 0.0
02/10/19 09:06 21.7 40 7.5 1.4 3.6 331 0.0 0.0 1027.0 1.4 21.7 21.7 0.0
02/10/19 09:07 21.8 40 7.6 1.4 3.6 319 0.0 0.0 1027.0 3.2 21.8 21.8 0.0
02/10/19 09:08 21.8 38 6.8 0.0 3.6 319 0.0 0.0 1027.0 1.8 21.8 21.8 0.0
02/10/19 09:09 21.9 39 7.3 0.0 3.6 314 0.0 0.0 1027.0 0.0 21.9 21.9 0.0
02/10/19 09:10 22.0 39 7.4 0.0 3.6 314 0.0 0.0 1027.0 1.4 22.0 22.0 0.0
02/10/19 09:11 22.1 39 7.5 0.0 3.6 314 0.0 0.0 1027.0 0.0 22.1 22.1 0.0
02/10/19 09:12 22.2 39 7.6 0.0 3.6 314 0.0 0.0 1027.0 0.0 22.2 22.2 0.0
02/10/19 09:13 22.2 37 6.8 0.0 3.6 314 0.0 0.0 1027.0 0.0 22.2 22.2 0.0
02/10/19 09:14 22.3 37 6.9 0.0 3.6 314 0.0 0.0 1027.0 1.8 22.3 22.3 0.0
02/10/19 09:15 22.4 38 7.4 0.0 3.6 314 0.0 0.0 1027.0 0.0 22.4 22.4 0.0
02/10/19 09:17 22.4 38 7.4 0.0 3.2 316 0.0 0.0 1027.0 0.0 22.4 22.4 0.0
02/10/19 09:18 22.5 37 7.1 0.0 2.2 315 0.0 0.0 1027.0 0.0 22.5 22.5 0.0
02/10/19 09:19 22.5 37 7.1 0.0 2.2 314 0.0 0.0 1027.0 0.0 22.5 22.5 0.0
02/10/19 09:20 22.6 38 7.6 0.0 2.2 314 0.0 0.0 1027.0 1.8 22.6 22.6 0.0
02/10/19 09:21 22.5 37 7.1 0.0 2.2 314 0.0 0.0 1027.0 0.0 22.6 22.5 0.0
02/10/19 09:22 22.5 37 7.1 0.0 2.2 314 0.0 0.0 1027.0 0.0 22.5 22.5 0.0
02/10/19 09:23 22.6 37 7.2 0.0 2.2 314 0.0 0.0 1027.0 0.0 22.6 22.6 0.0
02/10/19 09:24 22.7 37 7.3 0.0 2.2 314 0.0 0.0 1027.0 0.0 22.7 22.7 0.0
02/10/19 09:25 22.7 37 7.3 0.0 2.2 314 0.0 0.0 1027.0 0.0 22.7 22.7 0.0
02/10/19 09:26 22.8 37 7.3 0.0 2.2 314 0.0 0.0 1027.0 0.0 22.8 22.8 0.0
02/10/19 09:27 23.0 37 7.5 0.0 2.2 314 0.0 0.0 1027.0 0.0 23.0 23.0 0.0
02/10/19 09:28 22.9 36 7.0 0.0 2.2 314 0.0 0.0 1027.0 1.8 23.0 22.9 0.0
02/10/19 09:29 22.9 36 7.0 0.0 2.2 319 0.0 0.0 1027.0 0.0 22.9 22.9 0.0
02/10/19 09:32 23.0 36 7.1 0.0 1.8 337 0.0 0.0 1027.0 0.0 23.0 23.0 0.0
02/10/19 09:33 23.1 36 7.2 0.0 1.8 337 0.0 0.0 1027.0 0.0 23.1 23.1 0.0
02/10/19 09:34 23.2 36 7.3 0.0 1.8 337 0.0 0.0 1027.0 0.0 23.2 23.2 0.0
02/10/19 09:35 23.1 35 6.8 0.0 1.8 337 0.0 0.0 1027.0 0.0 23.1 23.1 0.0
02/10/19 09:36 23.2 35 6.9 0.0 2.5 346 0.0 0.0 1027.0 0.0 23.2 23.2 0.0
02/10/19 09:37 23.2 35 6.9 0.0 2.5 346 0.0 0.0 1027.0 0.0 23.2 23.2 0.0
02/10/19 09:38 23.3 35 7.0 0.0 2.5 325 0.0 0.0 1027.0 2.2 23.3 23.3 0.0
02/10/19 09:39 23.3 34 6.5 1.4 2.5 323 0.0 0.0 1027.0 1.4 23.3 23.3 0.0
02/10/19 09:40 23.4 34 6.6 0.0 2.5 322 0.0 0.0 1027.0 0.0 23.4 23.4 0.0
02/10/19 09:41 23.4 34 6.6 0.0 2.5 321 0.0 0.0 1027.0 0.0 23.4 23.4 0.0
02/10/19 09:42 23.4 34 6.6 0.0 2.5 317 0.0 0.0 1027.0 0.0 23.4 23.4 0.0
02/10/19 09:43 23.5 34 6.7 1.4 2.5 317 0.0 0.0 1027.0 0.0 23.5 23.5 0.0
02/10/19 09:44 23.7 34 6.9 0.0 2.5 316 0.0 0.0 1027.0 0.0 23.5 23.7 0.0
02/10/19 09:45 23.7 34 6.9 0.0 2.5 316 0.0 0.0 1027.0 0.0 23.7 23.7 0.0
02/10/19 09:47 23.8 34 7.0 0.0 2.2 319 0.0 0.0 1027.0 1.4 23.8 23.8 0.0
02/10/19 09:48 23.9 33 6.6 0.0 2.2 317 0.0 0.0 1027.0 2.2 23.9 23.9 0.0
02/10/19 09:49 23.9 33 6.6 1.8 3.6 315 0.0 0.0 1027.0 2.2 23.9 23.9 0.0
02/10/19 09:50 23.9 33 6.6 1.4 3.6 314 0.0 0.0 1027.0 0.0 23.9 23.9 0.0
02/10/19 09:51 23.9 32 6.2 0.0 3.6 314 0.0 0.0 1027.0 0.0 23.9 23.9 0.0
02/10/19 09:52 24.0 33 6.7 0.0 3.6 314 0.0 0.0 1027.0 0.0 24.0 24.0 0.0
02/10/19 09:53 24.1 32 6.4 0.0 3.6 314 0.0 0.0 1027.0 0.0 24.1 24.1 0.0
02/10/19 09:54 24.1 32 6.4 0.0 3.6 314 0.0 0.0 1027.0 0.0 24.1 24.1 0.0
02/10/19 09:55 24.1 32 6.4 0.0 3.6 314 0.0 0.0 1027.0 0.0 24.1 24.1 0.0
02/10/19 09:56 24.1 32 6.4 0.0 3.6 314 0.0 0.0 1027.0 0.0 24.1 24.1 0.0
02/10/19 09:57 24.2 32 6.5 0.0 3.6 314 0.0 0.0 1027.0 0.0 24.2 24.2 0.0
02/10/19 09:58 24.2 32 6.5 0.0 3.6 314 0.0 0.0 1027.0 0.0 24.2 24.2 0.0
02/10/19 09:59 24.3 32 6.5 1.4 4.0 308 0.0 0.0 1027.0 0.0 24.3 24.3 0.0
02/10/19 10:00 24.4 32 6.6 0.0 4.0 308 0.0 0.0 1027.0 0.0 24.4 24.4 0.0
02/10/19 10:02 24.5 32 6.7 1.4 3.6 306 0.0 0.0 1027.0 2.5 24.5 24.5 0.0
02/10/19 10:03 24.4 32 6.6 1.4 3.6 310 0.0 0.0 1027.0 1.8 24.4 24.4 0.0
02/10/19 10:04 24.4 32 6.6 1.4 3.6 311 0.0 0.0 1027.0 1.8 24.4 24.4 0.0
02/10/19 10:05 24.5 32 6.7 0.0 3.6 311 0.0 0.0 1027.0 1.8 24.5 24.5 0.0
02/10/19 10:06 24.7 32 6.9 0.0 3.6 312 0.0 0.0 1027.0 2.5 24.6 24.7 0.0
02/10/19 10:07 24.7 32 6.9 1.4 3.6 312 0.0 0.0 1027.0 1.4 24.7 24.7 0.0
02/10/19 10:08 24.7 32 6.9 0.0 3.6 312 0.0 0.0 1026.0 0.0 24.7 24.7 0.0
02/10/19 10:09 24.6 31 6.3 1.8 3.6 309 0.0 0.0 1026.0 2.5 24.6 24.6 0.0
02/10/19 10:10 24.7 31 6.4 1.4 3.6 310 0.0 0.0 1026.0 0.0 24.7 24.7 0.0
02/10/19 10:11 24.7 31 6.4 1.8 3.6 297 0.0 0.0 1026.0 1.4 24.7 24.7 0.0
02/10/19 10:12 24.6 31 6.3 0.0 3.6 291 0.0 0.0 1026.0 0.0 24.6 24.6 0.0
02/10/19 10:13 24.7 31 6.4 0.0 3.6 282 0.0 0.0 1026.0 0.0 24.7 24.7 0.0
02/10/19 10:14 24.9 31 6.6 0.0 3.6 274 0.0 0.0 1026.0 0.0 24.8 24.9 0.0
02/10/19 10:15 25.0 31 6.7 0.0 3.6 265 0.0 0.0 1026.0 1.4 24.9 25.0 0.0
02/10/19 10:17 25.1 31 6.8 1.4 3.6 329 0.0 0.0 1026.0 1.8 25.1 25.1 0.0
02/10/19 10:18 25.1 31 6.8 1.4 3.6 326 0.0 0.0 1026.0 0.0 25.1 25.1 0.0
02/10/19 10:19 25.1 31 6.8 0.0 3.6 323 0.0 0.0 1026.0 0.0 25.1 25.1 0.0
02/10/19 10:20 25.2 31 6.9 0.0 3.6 323 0.0 0.0 1026.0 1.8 25.2 25.2 0.0
02/10/19 10:21 25.4 31 7.0 1.4 3.6 315 0.0 0.0 1026.0 0.0 25.3 25.4 0.0
02/10/19 10:22 25.3 30 6.5 1.4 3.6 313 0.0 0.0 1026.0 2.2 25.4 25.3 0.0
02/10/19 10:23 25.3 30 6.5 0.0 3.6 313 0.0 0.0 1026.0 0.0 25.3 25.3 0.0
02/10/19 10:24 25.3 30 6.5 1.4 3.6 302 0.0 0.0 1026.0 2.5 25.3 25.3 0.0
02/10/19 10:25 25.4 30 6.6 2.2 3.6 309 0.0 0.0 1026.0 1.4 25.4 25.4 0.0
02/10/19 10:26 25.4 30 6.6 1.4 3.6 304 0.0 0.0 1026.0 2.2 25.4 25.4 0.0
02/10/19 10:27 25.4 30 6.6 0.0 2.5 284 0.0 0.0 1026.0 2.2 25.4 25.4 0.0
02/10/19 10:28 25.4 30 6.6 1.8 3.2 267 0.0 0.0 1026.0 0.0 25.4 25.4 0.0
02/10/19 10:29 25.4 30 6.6 0.0 3.2 249 0.0 0.0 1026.0 0.0 25.3 25.4 0.0
02/10/19 10:30 25.5 30 6.6 0.0 3.2 237 0.0 0.0 1026.0 0.0 25.5 25.5 0.0
02/10/19 10:32 25.6 29 6.2 0.0 2.5 294 0.0 0.0 1026.0 0.0 25.6 25.6 0.0
02/10/19 10:33 25.7 30 6.8 0.0 2.5 272 0.0 0.0 1026.0 2.2 25.7 25.7 0.0
02/10/19 10:34 25.8 30 6.9 0.0 2.5 246 0.0 0.0 1026.0 2.2 25.8 25.8 0.0
02/10/19 10:35 25.9 29 6.5 1.4 2.2 210 0.0 0.0 1026.0 0.0 25.9 25.9 0.0
02/10/19 10:36 26.0 29 6.6 0.0 2.2 199 0.0 0.0 1026.0 1.8 26.0 26.0 0.0
02/10/19 10:37 26.2 29 6.8 1.4 2.2 187 0.0 0.0 1026.0 0.0 26.2 26.2 0.0
02/10/19 10:38 26.2 29 6.8 1.4 2.2 181 0.0 0.0 1026.0 0.0 26.2 26.2 0.0
02/10/19 10:39 26.2 28 6.2 0.0 2.2 181 0.0 0.0 1026.0 0.0 26.2 26.2 0.0
02/10/19 10:40 26.2 27 5.7 1.4 2.5 181 0.0 0.0 1026.0 0.0 26.2 26.2 0.0
02/10/19 10:43 26.3 27 5.8 0.0 2.2 225 34.8 0.0 1027.0 0.0 26.3 26.3 0.0
02/10/19 10:44 26.3 27 5.8 0.0 1.8 200 34.8 0.0 1026.0 0.0 26.3 26.3 0.0
02/10/19 10:45 26.3 28 6.3 0.0 1.8 200 34.8 0.0 1026.0 0.0 26.3 26.3 0.0
02/10/19 10:46 26.4 27 5.9 0.0 1.4 181 34.8 0.0 1026.0 1.4 26.4 26.4 0.0
02/10/19 10:47 26.4 26 5.3 1.4 1.4 181 34.8 0.0 1026.0 0.0 26.4 26.4 0.0
02/10/19 10:47 26.5 25 4.9 0.0 1.4 181 34.8 0.0 1026.0 0.0 26.5 26.5 0.0
02/10/19 10:48 26.6 26 5.5 0.0 1.4 157 34.8 0.0 1026.0 1.4 26.6 26.6 0.0
02/10/19 10:49 26.6 26 5.5 2.2 3.2 164 34.8 0.0 1026.0 2.5 26.6 26.6 0.0
02/10/19 10:50 26.6 26 5.5 0.0 3.2 181 34.8 0.0 1026.0 0.0 26.6 26.6 0.0
02/10/19 10:51 26.7 25 5.0 0.0 3.2 192 34.8 0.0 1026.0 2.2 26.7 26.1 0.0
02/10/19 10:52 26.9 26 5.8 1.4 3.6 162 34.8 0.0 1026.0 3.6 26.8 26.2 0.0
02/10/19 10:53 26.8 25 5.1 1.4 3.6 156 34.8 0.0 1026.0 1.4 26.8 26.1 0.0
02/10/19 10:54 26.8 25 5.1 1.4 3.6 153 34.8 0.0 1026.0 1.4 26.8 26.1 0.0
02/10/19 10:55 26.8 25 5.1 0.0 3.6 152 34.8 0.0 1026.0 0.0 26.8 26.1 0.0
02/10/19 10:56 26.9 25 5.2 0.0 4.0 156 34.8 0.0 1026.0 4.0 26.9 26.2 0.0
02/10/19 10:57 27.0 25 5.3 1.8 4.0 163 34.8 0.0 1026.0 2.2 27.0 26.2 0.0
02/10/19 10:58 27.0 25 5.3 0.0 4.0 169 34.8 0.0 1026.0 1.8 27.0 26.2 0.0
02/10/19 10:59 27.3 25 5.5 0.0 4.0 187 34.8 0.0 1026.0 0.0 27.2 26.4 0.0
02/10/19 11:00 27.2 24 4.9 1.4 4.0 28 34.8 0.0 1026.0 1.4 27.3 26.3 0.0
02/10/19 11:02 27.0 22 3.5 1.8 4.0 146 0.0 0.0 1026.0 1.8 27.0 26.1 0.0
02/10/19 11:03 26.9 21 2.7 1.4 4.0 142 0.0 0.0 1026.0 1.8 26.9 26.1 0.0
02/10/19 11:04 26.9 22 3.4 1.4 4.0 141 0.0 0.0 1026.0 0.0 26.9 26.1 0.0
02/10/19 11:05 27.0 21 2.8 0.0 4.0 139 0.0 0.0 1026.0 1.8 27.0 26.1 0.0
02/10/19 11:06 27.0 21 2.8 1.8 4.0 138 0.0 0.0 1026.0 1.8 27.0 26.1 0.0
02/10/19 11:07 26.5 20 1.7 2.5 5.0 135 0.0 0.0 1026.0 3.2 26.7 26.5 0.0
02/10/19 11:08 26.4 17 -0.6 2.2 5.0 134 0.0 0.0 1025.0 1.4 26.5 26.4 0.0
02/10/19 11:09 26.5 20 1.7 0.0 5.0 133 0.0 0.0 1025.0 0.0 26.5 26.5 0.0
02/10/19 11:10 26.7 20 1.9 0.0 5.0 133 0.0 0.0 1025.0 0.0 26.7 25.9 0.0
02/10/19 11:11 26.8 21 2.6 0.0 5.0 135 0.0 0.0 1025.0 0.0 26.8 26.0 0.0
02/10/19 11:12 26.9 21 2.7 1.4 5.0 135 0.0 0.0 1025.0 5.0 26.9 26.1 0.0
02/10/19 11:13 26.8 21 2.6 4.0 6.1 135 0.0 0.0 1025.0 1.8 26.8 26.0 0.0
02/10/19 11:14 26.7 21 2.6 1.4 6.1 135 0.0 0.0 1025.0 4.7 26.7 25.9 0.0
02/10/19 11:15 26.6 20 1.8 3.6 9.4 135 0.0 0.0 1025.0 9.4 26.8 26.6 0.0
02/10/19 11:17 26.7 21 2.6 0.0 9.4 138 0.0 0.0 1025.0 3.2 26.7 25.9 0.0
02/10/19 11:18 26.9 21 2.7 1.4 9.4 140 0.0 0.0 1025.0 1.8 26.9 26.1 0.0
02/10/19 11:19 27.0 20 2.1 0.0 9.4 169 0.0 0.0 1025.0 2.2 27.0 26.1 0.0
02/10/19 11:20 27.0 20 2.1 1.4 9.4 169 0.0 0.0 1025.0 0.0 27.0 26.1 0.0
02/10/19 11:21 27.1 21 2.9 0.0 9.4 169 0.0 0.0 1025.0 0.0 27.1 26.2 0.0
02/10/19 11:22 27.2 20 2.3 0.0 9.4 173 0.0 0.0 1025.0 0.0 27.2 26.2 0.0
02/10/19 11:23 27.2 20 2.3 0.0 9.4 199 0.0 0.0 1025.0 0.0 27.2 26.2 0.0
02/10/19 11:24 27.3 20 2.4 0.0 9.4 228 0.0 0.0 1025.0 0.0 27.3 26.3 0.0
02/10/19 11:25 27.4 20 2.4 0.0 9.4 269 0.0 0.0 1025.0 1.4 27.4 26.3 0.0
02/10/19 11:26 27.4 17 0.2 0.0 4.3 292 0.0 0.0 1025.0 0.0 27.4 26.3 0.0
02/10/19 11:27 27.5 19 1.8 0.0 4.3 291 0.0 0.0 1025.0 3.6 27.5 26.4 0.0
02/10/19 11:28 27.4 14 -2.5 4.0 5.4 303 0.0 0.0 1025.0 5.4 27.4 26.2 0.0
02/10/19 11:29 27.3 9 -8.4 2.5 5.4 314 0.0 0.0 1025.0 0.0 27.3 25.8 0.0
02/10/19 11:30 27.1 14 -2.7 0.0 5.4 314 0.0 0.0 1025.0 3.6 27.1 26.0 0.0
02/10/19 11:32 27.3 19 1.6 0.0 5.4 299 0.0 0.0 1025.0 0.0 27.3 26.3 0.0
02/10/19 11:33 27.4 9 -8.3 2.5 5.4 307 0.0 0.0 1025.0 0.0 27.4 25.9 0.0
02/10/19 11:34 27.4 12 -4.5 0.0 5.4 308 0.0 0.0 1025.0 1.4 27.4 26.1 0.0
02/10/19 11:35 27.3 9 -8.4 2.5 5.4 310 0.0 0.0 1025.0 1.4 27.3 25.8 0.0
02/10/19 11:36 27.0 2 -26.4 2.5 5.4 312 0.0 0.0 1025.0 0.0 27.0 25.2 0.0
02/10/19 11:37 27.0 9 -8.6 1.4 5.4 312 0.0 0.0 1025.0 1.4 26.8 25.6 0.0
02/10/19 11:38 27.2 7 -11.6 0.0 5.4 314 0.0 0.0 1025.0 1.8 27.2 25.6 0.0
02/10/19 11:39 27.4 4 -18.3 2.2 4.7 314 0.0 0.0 1025.0 1.4 27.4 25.6 0.0
02/10/19 11:40 27.5 4 -18.2 0.0 4.7 314 0.0 0.0 1025.0 0.0 27.5 25.6 0.0
02/10/19 11:41 27.7 4 -18.1 0.0 4.7 314 0.0 0.0 1025.0 0.0 27.7 25.8 0.0
02/10/19 11:42 27.9 4 -18.0 0.0 4.7 314 0.0 0.0 1025.0 2.2 27.9 25.9 0.0
02/10/19 11:43 27.8 2 -25.9 4.7 6.5 314 0.0 0.0 1025.0 2.5 27.8 25.7 0.0
02/10/19 11:44 27.7 2 -26.0 2.2 6.5 311 0.0 0.0 1025.0 2.2 27.7 25.7 0.0
02/10/19 11:45 27.5 4 -18.2 3.6 6.5 310 0.0 0.0 1025.0 1.4 27.6 25.6 0.0
02/10/19 11:47 27.5 4 -18.2 1.8 4.0 298 0.0 0.0 1025.0 0.0 27.5 25.6 0.0
02/10/19 11:48 27.4 4 -18.3 2.5 4.7 285 0.0 0.0 1025.0 3.6 27.4 25.6 0.0
02/10/19 11:49 27.3 7 -11.6 1.8 4.7 281 0.0 0.0 1025.0 2.5 27.3 25.7 0.0
02/10/19 11:50 27.3 7 -11.6 2.2 4.7 272 0.0 0.0 1025.0 0.0 27.3 25.7 0.0
02/10/19 11:51 27.4 9 -8.3 0.0 4.7 268 0.0 0.0 1025.0 2.5 27.4 25.9 0.0
02/10/19 11:52 27.4 9 -8.3 3.2 5.0 274 0.0 0.0 1025.0 1.8 27.4 25.9 0.0
02/10/19 11:53 27.4 12 -4.5 0.0 5.0 274 0.0 0.0 1024.0 0.0 27.4 26.1 0.0
02/10/19 11:54 27.5 14 -2.4 0.0 5.0 277 0.0 0.0 1024.0 2.5 27.5 26.3 0.0
02/10/19 11:55 27.5 12 -4.5 2.5 5.0 269 0.0 0.0 1024.0 3.6 27.5 26.2 0.0
02/10/19 11:56 27.2 7 -11.6 3.6 5.0 251 0.0 0.0 1024.0 3.6 27.2 25.6 0.0
02/10/19 11:57 26.7 10 -7.5 1.4 5.0 242 0.0 0.0 1024.0 0.0 26.7 25.5 0.0
02/10/19 11:58 26.5 12 -5.2 0.0 5.0 209 0.0 0.0 1024.0 0.0 26.5 26.5 0.0
02/10/19 11:59 26.7 15 -2.1 0.0 5.0 190 0.0 0.0 1024.0 0.0 26.7 25.8 0.0
02/10/19 12:00 27.2 9 -8.5 0.0 5.0 163 0.0 0.0 1024.0 0.0 27.0 25.8 0.0
02/10/19 12:02 27.6 12 -4.4 1.4 3.6 239 0.0 0.0 1024.0 2.2 27.6 26.3 0.0
02/10/19 12:03 27.8 7 -11.2 1.8 3.6 175 0.0 0.0 1024.0 1.4 27.8 26.0 0.0
02/10/19 12:07 28.0 6 -13.0 0.0 2.2 215 34.8 0.0 1024.0 0.0 28.0 26.1 0.0
02/10/19 12:08 28.2 9 -7.7 0.0 2.2 215 34.8 0.0 1024.0 0.0 28.2 26.5 0.0
02/10/19 12:09 28.2 9 -7.7 0.0 2.2 192 34.8 0.0 1024.0 1.4 28.2 26.5 0.0
02/10/19 12:10 28.4 9 -7.6 1.4 2.2 215 34.8 0.0 1026.0 1.4 28.4 26.6 0.0
02/10/19 12:11 28.4 6 -12.7 1.4 2.2 215 34.8 0.0 1026.0 0.0 28.4 26.4 0.0
02/10/19 12:12 28.4 6 -12.7 0.0 3.6 295 34.8 0.0 1026.0 3.6 28.4 26.4 0.0
02/10/19 12:13 28.4 6 -12.7 1.8 3.6 314 34.8 0.0 1026.0 0.0 28.4 26.4 0.0
02/10/19 12:14 28.4 9 -7.6 0.0 3.6 314 34.8 0.0 1026.0 0.0 28.4 26.6 0.0
02/10/19 12:15 28.4 9 -7.6 0.0 3.6 302 34.8 0.0 1026.0 1.4 28.4 26.6 0.0
02/10/19 12:16 28.4 9 -7.6 1.8 3.6 305 34.8 0.0 1026.0 1.8 28.4 26.6 0.0
02/10/19 12:17 28.3 4 -17.7 1.4 3.6 309 34.8 0.0 1026.0 3.6 28.3 26.2 0.0
02/10/19 12:16 28.3 4 -17.7 1.4 3.6 309 34.8 0.0 1026.0 3.6 28.3 26.2 0.0
02/10/19 12:17 28.3 2 -25.6 1.4 3.6 310 34.8 0.0 1026.0 0.0 28.3 26.1 0.0
02/10/19 12:18 28.3 2 -25.6 0.0 3.6 311 34.8 0.0 1026.0 1.8 28.3 26.1 0.0
02/10/19 12:19 28.3 2 -25.6 1.4 3.6 311 34.8 0.0 1026.0 0.0 28.3 26.1 0.0
02/10/19 12:20 28.5 2 -25.5 0.0 3.6 311 34.8 0.0 1026.0 1.8 28.5 26.2 0.0
02/10/19 12:21 28.6 4 -17.5 0.0 3.6 310 34.8 0.0 1026.0 2.2 28.6 26.4 0.0
02/10/19 12:22 28.7 4 -17.4 2.5 5.0 188 34.8 0.0 1026.0 2.5 28.7 26.5 0.0
02/10/19 12:23 28.5 4 -17.5 2.2 5.0 179 34.8 0.0 1025.0 2.5 28.5 26.3 0.0
02/10/19 12:24 28.6 4 -17.5 1.8 5.0 156 34.8 0.0 1025.0 1.4 28.6 26.4 0.0
02/10/19 12:25 28.6 4 -17.5 0.0 5.0 153 34.8 0.0 1025.0 0.0 28.6 26.4 0.0
02/10/19 12:26 28.6 4 -17.5 0.0 5.0 152 34.8 0.0 1025.0 0.0 28.6 26.4 0.0
02/10/19 12:27 29.0 3 -20.6 1.4 5.0 156 34.8 0.0 1025.0 4.0 29.0 26.7 0.0
02/10/19 12:28 29.0 3 -20.6 4.3 5.8 148 34.8 0.0 1025.0 1.4 29.0 26.7 0.0
02/10/19 12:29 28.6 2 -25.4 0.0 5.8 147 34.8 0.0 1025.0 3.2 28.6 26.3 0.0
02/10/19 12:30 28.6 2 -25.4 2.2 5.8 147 34.8 0.0 1025.0 5.0 28.7 26.3 0.0
02/10/19 12:32 28.3 2 -25.6 2.5 5.0 151 0.0 0.0 1025.0 2.2 28.3 26.1 0.0
02/10/19 12:33 28.3 2 -25.6 2.2 5.0 143 0.0 0.0 1025.0 1.4 28.3 26.1 0.0
02/10/19 12:34 28.4 2 -25.5 2.2 5.0 139 0.0 0.0 1025.0 3.6 28.4 26.2 0.0
02/10/19 12:35 28.5 2 -25.5 3.2 5.0 152 0.0 0.0 1025.0 3.2 28.5 26.2 0.0
02/10/19 12:36 28.6 2 -25.4 1.8 5.0 148 0.0 0.0 1025.0 5.0 28.6 26.3 0.0
02/10/19 12:37 28.4 2 -25.5 3.2 5.0 146 0.0 0.0 1025.0 0.0 28.4 26.2 0.0
02/10/19 12:38 28.5 2 -25.5 0.0 5.0 146 0.0 0.0 1025.0 0.0 28.4 26.2 0.0
02/10/19 12:39 28.8 2 -25.3 0.0 5.0 146 0.0 0.0 1025.0 0.0 28.5 26.5 0.0
02/10/19 12:40 28.7 2 -25.4 2.2 5.0 144 0.0 0.0 1025.0 1.4 28.7 26.4 0.0
02/10/19 12:41 28.8 2 -25.3 2.2 5.0 144 0.0 0.0 1025.0 2.2 28.8 26.5 0.0
02/10/19 12:42 28.9 2 -25.2 2.2 5.0 143 0.0 0.0 1025.0 0.0 28.8 26.5 0.0
02/10/19 12:43 29.0 2 -25.2 1.8 5.0 144 0.0 0.0 1025.0 2.2 29.0 26.6 0.0
02/10/19 12:44 29.1 2 -25.1 1.4 5.0 145 0.0 0.0 1025.0 4.7 29.1 26.7 0.0
02/10/19 12:47 28.9 2 -25.2 2.2 4.7 138 0.0 0.0 1025.0 4.3 0.0 26.5 0.0
02/10/19 12:48 28.8 2 -25.3 2.5 4.7 137 0.0 0.0 1025.0 4.7 28.8 26.5 0.0
02/10/19 12:49 28.6 2 -25.4 2.5 4.7 136 0.0 0.0 1025.0 4.0 28.6 26.3 0.0
02/10/19 12:53 28.2 2 -25.7 1.8 4.7 142 34.8 0.0 1025.0 1.8 28.2 26.0 0.0
02/10/19 12:54 28.4 2 -25.5 0.0 4.7 141 34.8 0.0 1025.0 0.0 28.4 26.2 0.0
02/10/19 12:55 29.1 2 -25.1 0.0 4.7 141 34.8 0.0 1025.0 1.4 29.1 26.7 0.0
02/10/19 12:56 29.3 2 -25.0 0.0 4.7 141 34.8 0.0 1025.0 0.0 29.3 26.8 0.0
02/10/19 12:57 29.6 2 -24.8 0.0 4.7 142 34.8 0.0 1025.0 0.0 29.6 27.0 0.0
02/10/19 12:58 29.7 2 -24.7 0.0 4.0 174 34.8 0.0 1025.0 3.2 29.7 27.1 0.0
02/10/19 12:59 29.9 2 -24.6 0.0 3.2 233 34.8 0.0 1025.0 1.4 29.9 27.3 0.0
02/10/19 13:00 30.0 2 -24.5 0.0 3.2 233 34.8 0.0 1025.0 0.0 30.0 27.3 0.0
02/10/19 13:01 30.1 2 -24.5 0.0 3.2 249 34.8 0.0 1025.0 1.4 30.1 27.4 0.0
02/10/19 13:02 30.2 2 -24.4 0.0 3.2 249 34.8 0.0 1025.0 0.0 30.2 27.5 0.0
02/10/19 13:01 30.2 2 -24.4 0.0 3.2 249 34.8 0.0 1025.0 0.0 30.2 27.5 0.0
02/10/19 13:02 30.1 2 -24.5 0.0 3.2 263 34.8 0.0 1025.0 0.0 30.1 27.4 0.0
02/10/19 13:03 30.2 2 -24.4 0.0 3.2 263 34.8 0.0 1025.0 0.0 30.2 27.5 0.0
02/10/19 13:04 30.2 2 -24.4 1.8 3.2 298 34.8 0.0 1025.0 0.0 30.2 27.5 0.0
02/10/19 13:05 30.2 2 -24.4 0.0 3.2 303 34.8 0.0 1025.0 1.8 30.2 27.5 0.0
02/10/19 13:06 30.3 2 -24.3 1.4 3.2 301 34.8 0.0 1025.0 1.8 30.3 27.6 0.0
02/10/19 13:07 30.5 2 -24.2 0.0 3.2 298 34.8 0.0 1025.0 0.0 30.5 27.7 0.0
02/10/19 13:08 30.6 2 -24.1 0.0 3.2 296 34.8 0.0 1024.0 0.0 30.6 27.8 0.0
02/10/19 13:09 30.5 2 -24.2 0.0 2.5 302 34.8 0.0 1024.0 0.0 30.5 27.7 0.0
02/10/19 13:10 30.6 2 -24.1 0.0 2.5 294 34.8 0.0 1024.0 0.0 30.6 27.8 0.0
02/10/19 13:11 30.6 2 -24.1 0.0 2.5 284 34.8 0.0 1024.0 2.5 30.6 27.8 0.0
02/10/19 13:12 30.6 2 -24.1 1.4 2.5 298 34.8 0.0 1024.0 2.5 30.6 27.8 0.0
02/10/19 13:13 30.6 2 -24.1 1.8 4.0 288 34.8 0.0 1024.0 0.0 30.6 27.8 0.0
02/10/19 13:14 30.5 2 -24.2 0.0 4.0 270 34.8 0.0 1024.0 0.0 30.5 27.7 0.0
02/10/19 13:15 30.5 2 -24.2 1.4 4.0 211 34.8 0.0 1024.0 0.0 30.5 27.7 0.0
02/10/19 13:17 30.4 2 -24.3 3.6 3.6 303 0.0 0.0 1024.0 2.5 30.4 27.6 0.0
02/10/19 13:18 30.4 2 -24.3 1.4 3.6 298 0.0 0.0 1024.0 0.0 30.4 27.6 0.0
02/10/19 13:19 30.5 2 -24.2 0.0 3.6 294 0.0 0.0 1024.0 0.0 30.5 27.7 0.0
02/10/19 13:20 30.6 2 -24.1 0.0 3.6 287 0.0 0.0 1024.0 0.0 30.6 27.8 0.0
02/10/19 13:21 30.6 2 -24.1 0.0 3.6 277 0.0 0.0 1024.0 1.8 30.6 27.8 0.0
02/10/19 13:22 30.6 2 -24.1 0.0 3.6 267 0.0 0.0 1024.0 1.4 30.6 27.8 0.0
02/10/19 13:23 30.8 2 -24.0 0.0 3.6 232 0.0 0.0 1024.0 0.0 30.7 27.9 0.0
02/10/19 13:24 30.9 2 -23.9 1.4 3.6 170 0.0 0.0 1024.0 0.0 30.8 28.0 0.0
02/10/19 13:25 30.8 2 -24.0 0.0 3.6 162 0.0 0.0 1024.0 0.0 30.8 27.9 0.0
02/10/19 13:26 30.7 2 -24.1 0.0 4.3 149 0.0 0.0 1024.0 4.3 30.7 27.8 0.0
02/10/19 13:27 30.3 2 -24.3 2.5 4.3 138 0.0 0.0 1024.0 2.2 30.3 27.6 0.0
02/10/19 13:28 30.2 2 -24.4 1.8 4.7 124 0.0 0.0 1024.0 4.7 30.2 27.5 0.0
02/10/19 13:29 30.3 2 -24.3 1.8 4.7 115 0.0 0.0 1024.0 0.0 30.3 27.6 0.0
02/10/19 13:32 30.4 2 -24.3 3.2 6.5 137 0.0 0.0 1024.0 4.0 30.4 27.6 0.0
02/10/19 13:33 30.4 2 -24.3 3.2 6.5 135 0.0 0.0 1024.0 0.0 30.4 27.6 0.0
02/10/19 13:34 30.5 2 -24.2 0.0 6.5 135 0.0 0.0 1024.0 0.0 30.5 27.7 0.0
02/10/19 13:35 30.6 2 -24.1 1.4 6.5 135 0.0 0.0 1024.0 4.0 30.6 27.8 0.0
02/10/19 13:36 30.2 2 -24.4 3.2 6.5 136 0.0 0.0 1024.0 0.0 30.2 27.5 0.0
02/10/19 13:37 30.1 2 -24.5 0.0 6.5 125 0.0 0.0 1024.0 0.0 30.1 27.4 0.0
02/10/19 13:38 30.5 2 -24.2 0.0 6.5 346 0.0 0.0 1024.0 3.2 30.3 27.7 0.0
02/10/19 13:39 30.6 2 -24.1 0.0 6.5 327 0.0 0.0 1024.0 0.0 30.6 27.8 0.0
02/10/19 13:40 30.7 2 -24.1 1.8 6.5 331 0.0 0.0 1024.0 5.8 30.7 27.8 0.0
02/10/19 13:41 30.4 2 -24.3 4.0 6.5 340 0.0 0.0 1024.0 2.2 30.4 27.6 0.0
02/10/19 13:42 30.3 2 -24.3 0.0 6.5 334 0.0 0.0 1024.0 2.2 30.3 27.6 0.0
02/10/19 13:43 30.4 2 -24.3 1.4 5.8 331 0.0 0.0 1024.0 0.0 30.4 27.6 0.0
02/10/19 13:44 30.5 2 -24.2 0.0 5.8 333 0.0 0.0 1024.0 0.0 30.5 27.7 0.0
02/10/19 13:45 30.6 2 -24.1 1.8 5.8 339 0.0 0.0 1024.0 1.8 30.6 27.8 0.0
02/10/19 13:47 30.7 2 -24.1 1.4 5.8 331 0.0 0.0 1024.0 0.0 30.7 27.8 0.0
02/10/19 13:48 30.8 2 -24.0 1.4 5.8 331 0.0 0.0 1024.0 0.0 30.7 27.9 0.0
02/10/19 13:49 31.0 2 -23.9 1.8 5.8 324 0.0 0.0 1024.0 1.8 30.8 28.1 0.0
02/10/19 13:50 31.0 2 -23.9 0.0 5.8 324 0.0 0.0 1024.0 0.0 31.0 28.1 0.0
02/10/19 13:51 31.2 2 -23.8 0.0 3.6 327 0.0 0.0 1024.0 2.2 31.2 28.2 0.0
02/10/19 13:52 31.1 2 -23.8 1.4 3.6 15 0.0 0.0 1024.0 1.8 31.1 28.1 0.0
02/10/19 13:53 31.2 2 -23.8 1.8 3.6 129 0.0 0.0 1023.0 0.0 31.1 28.2 0.0
02/10/19 13:54 31.2 2 -23.8 0.0 3.6 129 0.0 0.0 1023.0 0.0 31.2 28.2 0.0
02/10/19 13:55 31.3 2 -23.7 0.0 3.6 129 0.0 0.0 1023.0 0.0 31.2 28.3 0.0
02/10/19 13:56 31.3 2 -23.7 0.0 3.6 135 0.0 0.0 1023.0 0.0 31.3 28.3 0.0
02/10/19 13:57 31.4 2 -23.6 0.0 3.6 156 0.0 0.0 1023.0 1.4 31.3 28.3 0.0
02/10/19 13:58 31.4 2 -23.6 0.0 3.6 151 0.0 0.0 1023.0 0.0 31.4 28.3 0.0
02/10/19 13:59 31.5 2 -23.6 0.0 3.6 149 0.0 0.0 1023.0 0.0 31.4 28.4 0.0
02/10/19 14:00 31.5 2 -23.6 0.0 3.6 162 0.0 0.0 1023.0 3.6 31.5 28.4 0.0
02/10/19 14:02 31.4 2 -23.6 0.0 3.6 232 0.0 0.0 1023.0 1.8 31.4 28.3 0.0
02/10/19 14:03 31.2 2 -23.8 0.0 3.6 232 0.0 0.0 1023.0 1.8 31.4 28.2 0.0
02/10/19 14:04 31.2 2 -23.8 1.4 3.6 244 0.0 0.0 1023.0 0.0 31.2 28.2 0.0
02/10/19 14:05 31.2 2 -23.8 1.4 3.6 244 0.0 0.0 1023.0 0.0 31.2 28.2 0.0
02/10/19 14:06 31.1 2 -23.8 1.8 3.6 244 0.0 0.0 1023.0 0.0 31.1 28.1 0.0
02/10/19 14:07 31.2 2 -23.8 1.8 3.6 244 0.0 0.0 1023.0 0.0 31.1 28.2 0.0
02/10/19 14:08 31.3 2 -23.7 0.0 3.6 248 0.0 0.0 1023.0 1.4 31.3 28.3 0.0
02/10/19 14:09 31.3 2 -23.7 2.2 3.6 265 0.0 0.0 1023.0 3.2 31.4 28.3 0.0
02/10/19 14:10 31.3 2 -23.7 1.8 3.6 266 0.0 0.0 1023.0 1.4 31.3 28.3 0.0
02/10/19 14:11 31.3 2 -23.7 1.4 3.2 273 0.0 0.0 1023.0 0.0 31.3 28.3 0.0
02/10/19 14:12 31.2 2 -23.8 1.4 3.2 275 0.0 0.0 1023.0 0.0 31.3 28.2 0.0
02/10/19 14:13 31.2 2 -23.8 1.4 3.2 277 0.0 0.0 1023.0 0.0 31.2 28.2 0.0
02/10/19 14:14 31.1 2 -23.8 1.4 3.2 279 0.0 0.0 1023.0 0.0 31.2 28.1 0.0
02/10/19 14:15 30.9 2 -23.9 1.4 3.2 281 0.0 0.0 1023.0 0.0 31.1 28.0 0.0
02/10/19 14:17 29.9 2 -24.6 1.4 3.2 262 0.0 0.0 1023.0 0.0 0.0 27.3 0.0
02/10/19 14:18 30.0 2 -24.5 1.4 3.2 262 0.0 0.0 1023.0 0.0 29.9 27.3 0.0
02/10/19 14:19 30.1 2 -24.5 1.4 3.2 286 0.0 0.0 1023.0 1.8 30.0 27.4 0.0
02/10/19 14:20 30.3 2 -24.3 1.8 1.8 305 0.0 0.0 1023.0 0.0 30.3 27.6 0.0
02/10/19 14:21 30.3 2 -24.3 2.5 2.2 314 0.0 0.0 1023.0 2.2 30.3 27.6 0.0
02/10/19 14:22 30.3 2 -24.3 2.5 2.2 314 0.0 0.0 1023.0 2.2 30.3 27.6 0.0
02/10/19 14:23 30.2 2 -24.4 2.5 2.2 314 0.0 0.0 1023.0 2.2 30.3 27.5 0.0
02/10/19 14:24 29.7 2 -24.7 2.5 2.2 314 0.0 0.0 1023.0 2.2 30.2 27.1 0.0
02/10/19 14:25 29.6 2 -24.8 5.8 3.6 329 0.0 0.0 1023.0 3.6 29.7 27.0 0.0
02/10/19 14:26 29.5 2 -24.8 1.4 3.6 335 0.0 0.0 1023.0 1.4 29.6 27.0 0.0
02/10/19 14:27 29.5 2 -24.8 1.4 3.6 335 0.0 0.0 1023.0 0.0 29.5 27.0 0.0
02/10/19 14:28 29.5 2 -24.8 0.0 6.8 343 0.0 0.0 1023.0 6.8 29.5 27.0 0.0
02/10/19 14:29 29.5 2 -24.8 0.0 6.8 345 0.0 0.0 1023.0 6.8 29.5 27.0 0.0
02/10/19 14:30 29.6 2 -24.8 0.0 6.8 350 0.0 0.0 1023.0 6.8 29.5 27.0 0.0
02/10/19 14:34 30.2 2 -24.4 0.0 6.8 331 0.0 0.0 1023.0 0.0 30.2 27.5 0.0
02/10/19 14:35 30.2 2 -24.4 0.0 6.8 332 0.0 0.0 1023.0 0.0 30.2 27.5 0.0
02/10/19 14:36 30.2 2 -24.4 0.0 6.8 333 0.0 0.0 1023.0 0.0 30.2 27.5 0.0
02/10/19 14:37 30.6 2 -24.1 0.0 6.8 330 0.0 0.0 1023.0 1.4 30.6 27.8 0.0
02/10/19 14:38 30.5 2 -24.2 0.0 6.8 330 0.0 0.0 1022.0 0.0 30.5 27.7 0.0
02/10/19 14:39 30.6 2 -24.1 0.0 6.8 326 0.0 0.0 1022.0 0.0 30.6 27.8 0.0
02/10/19 14:40 30.7 2 -24.1 1.4 6.8 324 0.0 0.0 1022.0 0.0 30.7 27.8 0.0
02/10/19 14:41 30.8 2 -24.0 0.0 2.5 308 0.0 0.0 1022.0 0.0 30.7 27.9 0.0
02/10/19 14:42 30.9 2 -23.9 0.0 2.5 321 0.0 0.0 1022.0 0.0 30.9 28.0 0.0
02/10/19 14:43 31.0 2 -23.9 0.0 2.5 333 0.0 0.0 1022.0 0.0 31.0 28.1 0.0
02/10/19 14:44 31.1 2 -23.8 0.0 2.5 344 0.0 0.0 1022.0 1.4 31.1 28.1 0.0
02/10/19 14:45 31.2 2 -23.8 0.0 2.5 348 0.0 0.0 1022.0 0.0 31.2 28.2 0.0
02/10/19 14:47 31.2 2 -23.8 1.8 3.2 274 0.0 0.0 1022.0 0.0 31.2 28.2 0.0
02/10/19 14:48 31.2 2 -23.8 0.0 3.2 260 0.0 0.0 1022.0 2.5 31.2 28.2 0.0
02/10/19 14:49 31.2 2 -23.8 1.8 3.2 294 0.0 0.0 1022.0 1.8 31.2 28.2 0.0
02/10/19 14:50 31.2 2 -23.8 0.0 3.2 294 0.0 0.0 1022.0 0.0 31.2 28.2 0.0
02/10/19 14:51 31.2 2 -23.8 0.0 3.2 294 0.0 0.0 1022.0 0.0 31.2 28.2 0.0
02/10/19 14:52 31.3 2 -23.7 0.0 3.2 294 0.0 0.0 1022.0 0.0 31.3 28.3 0.0
02/10/19 14:53 31.4 2 -23.6 1.4 3.2 298 0.0 0.0 1023.0 0.0 31.4 28.3 0.0
02/10/19 14:54 31.5 2 -23.6 0.0 3.2 301 0.0 0.0 1023.0 1.4 31.5 28.4 0.0
02/10/19 14:55 31.4 2 -23.6 0.0 3.2 298 0.0 0.0 1023.0 0.0 31.5 28.3 0.0
02/10/19 14:56 31.4 2 -23.6 0.0 3.2 298 0.0 0.0 1023.0 0.0 31.4 28.3 0.0
02/10/19 14:57 31.4 2 -23.6 0.0 2.5 308 0.0 0.0 1023.0 0.0 31.4 28.3 0.0
02/10/19 14:58 31.5 2 -23.6 0.0 2.5 314 0.0 0.0 1023.0 0.0 31.5 28.4 0.0
02/10/19 14:59 31.6 2 -23.5 0.0 2.5 314 0.0 0.0 1023.0 1.4 31.5 28.5 0.0
02/10/19 15:00 31.6 2 -23.5 1.4 3.2 135 0.0 0.0 1023.0 2.2 31.6 28.5 0.0
02/10/19 15:02 30.8 2 -24.0 1.4 4.3 137 0.0 0.0 1023.0 2.2 31.0 27.9 0.0
02/10/19 15:03 30.8 2 -24.0 1.8 4.3 136 0.0 0.0 1023.0 1.4 30.8 27.9 0.0
02/10/19 15:04 30.8 2 -24.0 0.0 4.3 136 0.0 0.0 1023.0 0.0 30.8 27.9 0.0
02/10/19 15:05 30.8 2 -24.0 0.0 4.3 115 0.0 0.0 1023.0 4.0 30.8 27.9 0.0
02/10/19 15:06 30.8 2 -24.0 1.8 4.3 115 0.0 0.0 1023.0 0.0 30.8 27.9 0.0
02/10/19 15:07 30.8 2 -24.0 2.2 5.0 73 0.0 0.0 1023.0 2.2 30.8 27.9 0.0
02/10/19 15:08 30.8 2 -24.0 0.0 5.0 73 0.0 0.0 1022.0 0.0 30.8 27.9 0.0
02/10/19 15:09 30.9 2 -23.9 0.0 5.0 83 0.0 0.0 1022.0 1.8 30.9 28.0 0.0
02/10/19 15:10 30.9 2 -23.9 0.0 5.0 94 0.0 0.0 1022.0 0.0 30.9 28.0 0.0
02/10/19 15:11 30.9 2 -23.9 1.8 5.0 97 0.0 0.0 1022.0 0.0 30.9 28.0 0.0
02/10/19 15:12 30.9 2 -23.9 0.0 5.0 62 0.0 0.0 1022.0 0.0 30.9 28.0 0.0
02/10/19 15:13 30.9 2 -23.9 2.5 5.0 346 0.0 0.0 1022.0 5.0 30.9 28.0 0.0
02/10/19 15:14 30.7 2 -24.1 3.6 5.8 336 0.0 0.0 1022.0 5.4 30.7 27.8 0.0
02/10/19 15:15 30.4 2 -24.3 5.4 6.5 341 0.0 0.0 1022.0 5.0 30.4 27.6 0.0
02/10/19 15:17 29.7 2 -24.7 2.5 5.4 2 0.0 0.0 1022.0 2.2 29.7 27.1 0.0
02/10/19 15:18 29.6 2 -24.8 1.4 5.4 357 0.0 0.0 1022.0 2.2 29.7 27.0 0.0
02/10/19 15:19 29.6 2 -24.8 1.8 5.4 357 0.0 0.0 1022.0 0.0 29.6 27.0 0.0
02/10/19 15:20 29.6 2 -24.8 1.8 5.4 351 0.0 0.0 1022.0 1.4 29.6 27.0 0.0
02/10/19 15:21 29.7 2 -24.7 1.8 5.4 333 0.0 0.0 1022.0 5.0 29.7 27.1 0.0
02/10/19 15:22 29.7 2 -24.7 3.6 5.4 327 0.0 0.0 1022.0 2.2 29.7 27.1 0.0
02/10/19 15:23 29.6 2 -24.8 3.6 6.1 336 0.0 0.0 1023.0 6.1 29.6 27.0 0.0
02/10/19 15:24 29.3 2 -25.0 2.5 6.1 338 0.0 0.0 1023.0 1.4 29.4 26.8 0.0
02/10/19 15:25 29.3 2 -25.0 2.2 6.1 343 0.0 0.0 1023.0 6.1 29.3 26.8 0.0
02/10/19 15:26 29.2 2 -25.0 3.6 6.1 339 0.0 0.0 1023.0 4.3 29.2 26.7 0.0
02/10/19 15:27 29.1 2 -25.1 4.0 6.5 333 0.0 0.0 1023.0 2.5 29.1 26.7 0.0
02/10/19 15:28 29.0 2 -25.2 2.5 6.5 330 0.0 0.0 1023.0 0.0 29.0 26.6 0.0
02/10/19 15:29 29.0 2 -25.2 1.8 6.5 328 0.0 0.0 1023.0 2.2 29.0 26.6 0.0
02/10/19 15:32 29.0 2 -25.2 4.0 6.1 347 0.0 0.0 1023.0 2.5 29.1 26.6 0.0
02/10/19 15:33 29.0 2 -25.2 1.4 6.1 349 0.0 0.0 1023.0 0.0 29.0 26.6 0.0
02/10/19 15:34 29.1 2 -25.1 0.0 6.1 351 0.0 0.0 1023.0 0.0 29.1 26.7 0.0
02/10/19 15:35 29.3 2 -25.0 0.0 6.1 352 0.0 0.0 1023.0 0.0 29.3 26.8 0.0
02/10/19 15:36 29.4 2 -24.9 0.0 6.1 353 0.0 0.0 1023.0 0.0 29.4 26.9 0.0
02/10/19 15:37 29.4 2 -24.9 0.0 6.1 355 0.0 0.0 1023.0 0.0 29.4 26.9 0.0
02/10/19 15:38 29.5 2 -24.8 0.0 6.1 357 0.0 0.0 1022.0 0.0 29.5 27.0 0.0
02/10/19 15:39 29.7 2 -24.7 0.0 6.1 357 0.0 0.0 1022.0 0.0 29.7 27.1 0.0
02/10/19 15:40 30.0 2 -24.5 0.0 6.1 1 0.0 0.0 1022.0 0.0 29.8 27.3 0.0
02/10/19 15:41 30.1 2 -24.5 0.0 6.1 1 0.0 0.0 1022.0 0.0 30.1 27.4 0.0
02/10/19 15:42 30.2 2 -24.4 0.0 2.2 1 0.0 0.0 1022.0 0.0 30.2 27.5 0.0
02/10/19 15:43 30.2 2 -24.4 0.0 1.4 1 0.0 0.0 1022.0 0.0 30.2 27.5 0.0
02/10/19 15:44 30.3 2 -24.3 0.0 0.0 0 0.0 0.0 1022.0 0.0 30.3 27.6 0.0
02/10/19 15:47 30.4 2 -24.3 0.0 0.0 0 0.0 0.0 1022.0 0.0 30.4 27.6 0.0
02/10/19 15:48 30.4 2 -24.3 0.0 1.8 181 0.0 0.0 1022.0 0.0 30.4 27.6 0.0
02/10/19 15:49 30.5 2 -24.2 0.0 1.8 181 0.0 0.0 1022.0 0.0 30.5 27.7 0.0
02/10/19 15:50 30.4 2 -24.3 0.0 1.8 181 0.0 0.0 1022.0 0.0 30.4 27.6 0.0
02/10/19 15:51 30.4 2 -24.3 0.0 1.8 181 0.0 0.0 1022.0 0.0 30.4 27.6 0.0
02/10/19 15:52 30.3 2 -24.3 0.0 1.8 181 0.0 0.0 1022.0 0.0 30.3 27.6 0.0
02/10/19 15:53 30.2 2 -24.4 0.0 1.8 213 0.0 0.0 1023.0 0.0 30.2 27.5 0.0
02/10/19 15:54 30.1 2 -24.5 0.0 1.8 255 0.0 0.0 1023.0 1.8 30.1 27.4 0.0
02/10/19 15:55 29.6 2 -24.8 3.2 4.0 308 0.0 0.0 1023.0 4.0 30.0 27.0 0.0
02/10/19 15:56 29.3 2 -25.0 1.8 4.0 309 0.0 0.0 1023.0 0.0 29.3 26.8 0.0
02/10/19 15:57 29.4 2 -24.9 0.0 4.0 309 0.0 0.0 1023.0 0.0 29.4 26.9 0.0
02/10/19 15:58 29.5 2 -24.8 0.0 4.0 312 0.0 0.0 1023.0 0.0 29.5 27.0 0.0
02/10/19 15:59 29.6 2 -24.8 0.0 4.0 314 0.0 0.0 1023.0 0.0 29.6 27.0 0.0
02/10/19 16:02 29.7 2 -24.7 0.0 4.0 292 0.0 0.0 1023.0 0.0 29.8 27.1 0.0
02/10/19 16:03 29.6 2 -24.8 0.0 4.0 304 0.0 0.0 1023.0 0.0 29.6 27.0 0.0
02/10/19 16:04 29.4 2 -24.9 0.0 4.0 307 0.0 0.0 1023.0 0.0 29.4 26.9 0.0
02/10/19 16:05 29.2 2 -25.0 0.0 4.0 306 0.0 0.0 1023.0 0.0 29.2 26.7 0.0
02/10/19 16:06 29.3 2 -25.0 0.0 2.2 307 0.0 0.0 1023.0 0.0 29.3 26.8 0.0
02/10/19 16:07 29.2 2 -25.0 0.0 2.2 307 0.0 0.0 1023.0 0.0 29.2 26.7 0.0
02/10/19 16:08 29.0 2 -25.2 0.0 2.2 307 0.0 0.0 1023.0 0.0 29.0 26.6 0.0
02/10/19 16:09 29.0 2 -25.2 0.0 2.2 307 0.0 0.0 1023.0 0.0 29.0 26.6 0.0
02/10/19 16:10 29.0 2 -25.2 0.0 2.2 307 0.0 0.0 1023.0 0.0 29.0 26.6 0.0
02/10/19 16:11 29.0 2 -25.2 0.0 2.2 307 0.0 0.0 1023.0 0.0 29.0 26.6 0.0
02/10/19 16:12 28.9 2 -25.2 0.0 2.2 307 0.0 0.0 1023.0 0.0 28.9 26.5 0.0
02/10/19 16:13 28.9 2 -25.2 0.0 1.8 307 0.0 0.0 1023.0 1.4 28.9 26.5 0.0
02/10/19 16:14 28.8 2 -25.3 0.0 1.8 303 0.0 0.0 1023.0 0.0 28.8 26.5 0.0
02/10/19 16:15 28.8 2 -25.3 0.0 1.8 314 0.0 0.0 1023.0 0.0 28.8 26.5 0.0
02/10/19 16:17 28.8 2 -25.3 0.0 1.4 307 0.0 0.0 1023.0 0.0 28.8 26.5 0.0
02/10/19 16:18 28.8 2 -25.3 0.0 1.4 307 0.0 0.0 1023.0 0.0 28.8 26.5 0.0
02/10/19 16:19 28.8 2 -25.3 0.0 1.4 307 0.0 0.0 1023.0 0.0 28.8 26.5 0.0
02/10/19 16:20 28.7 2 -25.4 0.0 1.4 307 0.0 0.0 1023.0 0.0 28.7 26.4 0.0
02/10/19 16:21 28.7 2 -25.4 0.0 1.4 307 0.0 0.0 1023.0 0.0 28.7 26.4 0.0
02/10/19 16:22 28.6 2 -25.4 0.0 1.4 307 0.0 0.0 1023.0 0.0 28.6 26.3 0.0
02/10/19 16:23 28.6 2 -25.4 0.0 1.4 307 0.0 0.0 1023.0 0.0 28.6 26.3 0.0
02/10/19 16:24 28.6 2 -25.4 0.0 0.0 0 0.0 0.0 1023.0 0.0 28.6 26.3 0.0
02/10/19 16:25 28.6 2 -25.4 0.0 0.0 0 0.0 0.0 1023.0 0.0 28.6 26.3 0.0
02/10/19 16:26 28.6 2 -25.4 0.0 0.0 0 0.0 0.0 1023.0 0.0 28.6 26.3 0.0
02/10/19 16:27 28.6 2 -25.4 2.5 4.0 135 0.0 0.0 1023.0 2.5 28.6 26.3 0.0
02/10/19 16:28 28.6 2 -25.4 2.2 4.0 135 0.0 0.0 1023.0 0.0 28.6 26.3 0.0
02/10/19 16:29 28.1 2 -25.7 0.0 4.0 135 0.0 0.0 1023.0 0.0 28.1 25.9 0.0
02/10/19 16:32 27.9 2 -25.9 0.0 2.5 135 0.0 0.0 1023.0 0.0 27.9 25.8 0.0
02/10/19 16:33 27.5 2 -26.1 0.0 2.5 135 0.0 0.0 1023.0 0.0 27.8 25.5 0.0
02/10/19 16:34 27.5 2 -26.1 0.0 2.5 135 0.0 0.0 1023.0 0.0 27.5 25.5 0.0
02/10/19 16:35 27.0 2 -26.4 0.0 2.5 135 0.0 0.0 1023.0 0.0 27.5 25.2 0.0
02/10/19 16:36 27.0 2 -26.4 0.0 2.5 135 0.0 0.0 1023.0 0.0 27.0 25.2 0.0
02/10/19 16:37 26.5 2 -26.8 0.0 2.5 135 0.0 0.0 1023.0 0.0 27.0 26.5 0.0
02/10/19 16:38 26.2 2 -27.0 0.0 0.0 0 0.0 0.0 1023.0 0.0 26.5 26.2 0.0
02/10/19 16:39 26.0 2 -27.1 0.0 0.0 0 0.0 0.0 1023.0 0.0 26.2 26.0 0.0
02/10/19 16:40 25.5 2 -27.4 0.0 0.0 0 0.0 0.0 1023.0 0.0 25.8 25.5 0.0
02/10/19 16:41 25.4 2 -27.5 0.0 0.0 0 0.0 0.0 1023.0 0.0 25.5 25.4 0.0
02/10/19 16:42 25.2 2 -27.6 0.0 0.0 0 0.0 0.0 1023.0 0.0 25.4 25.2 0.0
02/10/19 16:43 25.1 2 -27.7 0.0 0.0 0 0.0 0.0 1023.0 0.0 25.2 25.1 0.0
02/10/19 16:44 24.8 2 -27.9 0.0 0.0 0 0.0 0.0 1023.0 0.0 25.1 24.8 0.0
02/10/19 16:47 24.2 2 -28.3 0.0 0.0 0 0.0 0.0 1023.0 0.0 0.0 24.2 0.0
02/10/19 16:48 23.8 2 -28.5 0.0 2.2 337 0.0 0.0 1023.0 2.2 24.0 23.8 0.0
02/10/19 16:49 23.6 2 -28.6 0.0 2.2 337 0.0 0.0 1023.0 2.2 23.8 23.6 0.0
02/10/19 16:50 23.5 2 -28.7 0.0 2.2 337 0.0 0.0 1023.0 2.2 23.6 23.5 0.0
02/10/19 16:51 23.3 2 -28.8 0.0 2.2 337 0.0 0.0 1023.0 2.2 23.5 23.3 0.0
02/10/19 16:52 23.2 2 -28.9 0.0 2.2 337 0.0 0.0 1023.0 2.2 23.3 23.2 0.0
02/10/19 16:53 23.0 2 -29.0 0.0 2.2 337 0.0 0.0 1023.0 2.2 23.2 23.0 0.0
02/10/19 16:54 22.9 3 -24.7 0.0 2.2 337 0.0 0.0 1023.0 2.2 23.0 22.9 0.0
02/10/19 16:55 22.6 3 -24.9 0.0 2.2 338 0.0 0.0 1023.0 2.2 22.8 22.6 0.0
02/10/19 16:56 22.5 3 -24.9 0.0 2.2 338 0.0 0.0 1023.0 2.2 22.6 22.5 0.0
02/10/19 16:57 22.4 3 -25.0 0.0 2.2 338 0.0 0.0 1023.0 2.2 22.5 22.4 0.0
02/10/19 16:58 22.3 3 -25.1 0.0 2.2 338 0.0 0.0 1023.0 2.2 22.4 22.3 0.0
02/10/19 16:59 22.2 3 -25.1 0.0 2.2 338 0.0 0.0 1023.0 2.2 22.3 22.2 0.0
02/10/19 17:00 22.1 3 -25.2 0.0 2.2 338 0.0 0.0 1023.0 2.2 22.2 22.1 0.0
02/10/19 17:03 21.9 3 -25.3 0.0 2.2 325 0.0 0.0 1023.0 2.2 22.0 21.9 0.0
02/10/19 17:04 21.9 3 -25.3 0.0 2.2 314 0.0 0.0 1023.0 2.2 21.9 21.9 0.0
02/10/19 17:05 21.8 3 -25.4 0.0 2.2 286 0.0 0.0 1023.0 2.2 21.9 21.8 0.0
02/10/19 17:06 21.8 3 -25.4 0.0 2.2 237 0.0 0.0 1023.0 2.2 21.8 21.8 0.0
02/10/19 17:07 21.7 3 -25.5 0.0 2.2 206 0.0 0.0 1023.0 2.2 21.8 21.7 0.0
02/10/19 17:08 21.6 3 -25.5 0.0 2.2 193 0.0 0.0 1023.0 2.2 21.7 21.6 0.0
02/10/19 17:09 21.6 3 -25.5 0.0 2.2 187 0.0 0.0 1023.0 2.2 21.6 21.6 0.0
02/10/19 17:10 21.4 3 -25.7 0.0 2.2 183 0.0 0.0 1023.0 2.2 21.5 21.4 0.0
02/10/19 17:11 21.4 3 -25.7 0.0 2.2 181 0.0 0.0 1023.0 0.0 21.4 21.4 0.0
02/10/19 17:12 21.3 3 -25.7 0.0 2.2 181 0.0 0.0 1023.0 0.0 21.4 21.3 0.0
02/10/19 17:13 21.3 3 -25.7 0.0 2.2 181 0.0 0.0 1023.0 0.0 21.3 21.3 0.0
02/10/19 17:14 21.2 3 -25.8 0.0 2.2 181 0.0 0.0 1023.0 0.0 21.3 21.2 0.0
02/10/19 17:15 21.2 3 -25.8 0.0 2.2 181 0.0 0.0 1023.0 0.0 21.2 21.2 0.0
02/10/19 17:17 21.0 3 -26.0 0.0 2.2 193 0.0 0.0 1023.0 0.0 21.0 21.0 0.0
02/10/19 17:18 20.9 4 -22.8 0.0 2.2 188 0.0 0.0 1023.0 0.0 21.0 20.9 0.0
02/10/19 17:19 20.8 4 -22.9 0.0 2.2 186 0.0 0.0 1023.0 0.0 20.9 20.8 0.0
02/10/19 17:20 20.7 4 -22.9 0.0 2.2 184 0.0 0.0 1023.0 0.0 20.8 20.7 0.0
02/10/19 17:21 20.7 4 -22.9 0.0 0.0 0 0.0 0.0 1023.0 0.0 20.7 20.7 0.0
02/10/19 17:22 20.6 4 -23.0 0.0 0.0 0 0.0 0.0 1023.0 0.0 20.7 20.6 0.0
02/10/19 17:23 20.6 4 -23.0 0.0 0.0 0 0.0 0.0 1023.0 0.0 20.6 20.6 0.0
02/10/19 17:24 20.5 4 -23.1 0.0 0.0 0 0.0 0.0 1023.0 0.0 20.5 20.5 0.0
02/10/19 17:25 20.5 4 -23.1 0.0 0.0 0 0.0 0.0 1023.0 0.0 20.5 20.5 0.0
02/10/19 17:26 20.4 4 -23.2 0.0 0.0 0 0.0 0.0 1023.0 0.0 20.4 20.4 0.0
02/10/19 17:27 20.3 4 -23.2 0.0 0.0 0 0.0 0.0 1023.0 0.0 20.4 20.3 0.0
02/10/19 17:28 20.3 4 -23.2 0.0 0.0 0 0.0 0.0 1023.0 0.0 20.3 20.3 0.0
02/10/19 17:29 20.3 4 -23.2 0.0 0.0 0 0.0 0.0 1023.0 0.0 20.3 20.3 0.0
02/10/19 17:30 20.2 4 -23.3 0.0 0.0 0 0.0 0.0 1023.0 0.0 20.3 20.2 0.0
02/10/19 17:32 20.1 4 -23.4 0.0 0.0 0 0.0 0.0 1023.0 0.0 20.1 20.1 0.0
02/10/19 17:33 20.0 4 -23.4 0.0 0.0 0 0.0 0.0 1023.0 0.0 20.1 20.0 0.0
02/10/19 17:34 20.0 4 -23.4 0.0 0.0 0 0.0 0.0 1023.0 0.0 20.0 20.0 0.0
02/10/19 17:35 19.9 4 -23.5 0.0 0.0 0 0.0 0.0 1023.0 0.0 20.0 19.9 0.0
02/10/19 17:36 19.9 4 -23.5 0.0 0.0 0 0.0 0.0 1023.0 0.0 19.9 19.9 0.0
02/10/19 17:37 19.8 4 -23.6 0.0 0.0 0 0.0 0.0 1023.0 0.0 19.8 19.8 0.0
02/10/19 17:38 19.8 4 -23.6 0.0 0.0 0 0.0 0.0 1023.0 0.0 19.8 19.8 0.0
02/10/19 17:39 19.7 4 -23.6 0.0 0.0 0 0.0 0.0 1023.0 0.0 19.7 19.7 0.0
02/10/19 17:40 19.7 4 -23.6 0.0 0.0 0 0.0 0.0 1023.0 0.0 19.7 19.7 0.0
02/10/19 17:41 19.6 4 -23.7 0.0 0.0 0 0.0 0.0 1023.0 0.0 19.7 19.6 0.0
02/10/19 17:42 19.6 4 -23.7 0.0 0.0 0 0.0 0.0 1023.0 0.0 19.6 19.6 0.0
02/10/19 17:43 19.5 4 -23.8 0.0 0.0 0 0.0 0.0 1023.0 0.0 19.5 19.5 0.0
02/10/19 17:44 19.4 4 -23.9 0.0 0.0 0 0.0 0.0 1023.0 0.0 19.5 19.4 0.0
02/10/19 17:47 19.3 4 -23.9 0.0 0.0 0 0.0 0.0 1023.0 0.0 19.3 19.3 0.0
02/10/19 17:48 19.2 4 -24.0 0.0 0.0 0 0.0 0.0 1023.0 0.0 19.2 19.2 0.0
02/10/19 17:49 19.1 4 -24.1 0.0 0.0 0 0.0 0.0 1023.0 0.0 19.2 19.1 0.0
02/10/19 17:50 19.1 4 -24.1 0.0 0.0 0 0.0 0.0 1023.0 0.0 19.1 19.1 0.0
02/10/19 17:51 19.0 4 -24.1 0.0 0.0 0 0.0 0.0 1023.0 0.0 19.1 19.0 0.0
02/10/19 17:52 18.9 4 -24.2 0.0 0.0 0 0.0 0.0 1023.0 0.0 19.0 18.9 0.0
02/10/19 17:53 18.9 4 -24.2 0.0 0.0 0 0.0 0.0 1023.0 0.0 18.9 18.9 0.0
02/10/19 17:54 18.8 4 -24.3 0.0 0.0 0 0.0 0.0 1023.0 0.0 18.9 18.8 0.0
02/10/19 17:55 18.8 4 -24.3 0.0 0.0 0 0.0 0.0 1023.0 0.0 18.8 18.8 0.0
02/10/19 17:56 18.7 4 -24.3 0.0 0.0 0 0.0 0.0 1023.0 0.0 18.7 18.7 0.0
02/10/19 17:57 18.6 4 -24.4 0.0 0.0 0 0.0 0.0 1023.0 0.0 18.7 18.6 0.0
02/10/19 17:58 18.6 4 -24.4 0.0 0.0 0 0.0 0.0 1023.0 0.0 18.6 18.6 0.0
02/10/19 17:59 18.5 4 -24.5 0.0 0.0 0 0.0 0.0 1023.0 0.0 18.6 18.5 0.0
02/10/19 18:00 18.5 4 -24.5 0.0 0.0 0 0.0 0.0 1023.0 0.0 18.5 18.5 0.0
02/10/19 18:02 18.4 4 -24.6 0.0 0.0 0 0.0 0.0 1023.0 0.0 18.4 18.4 0.0
02/10/19 18:03 18.2 4 -24.7 0.0 0.0 0 0.0 0.0 1023.0 0.0 18.3 18.2 0.0
02/10/19 18:04 18.2 4 -24.7 0.0 0.0 0 0.0 0.0 1023.0 0.0 18.2 18.2 0.0
02/10/19 18:05 18.1 4 -24.8 0.0 0.0 0 0.0 0.0 1023.0 0.0 18.2 18.1 0.0
02/10/19 18:06 18.0 4 -24.8 0.0 0.0 0 0.0 0.0 1023.0 0.0 18.1 18.0 0.0
02/10/19 18:07 18.0 4 -24.8 0.0 0.0 0 0.0 0.0 1023.0 0.0 18.0 18.0 0.0
02/10/19 18:08 17.9 5 -22.4 0.0 0.0 0 0.0 0.0 1024.0 0.0 18.0 17.9 0.0
02/10/19 18:09 17.9 5 -22.4 0.0 0.0 0 0.0 0.0 1024.0 0.0 17.9 17.9 0.0
02/10/19 18:10 17.8 5 -22.5 0.0 0.0 0 0.0 0.0 1024.0 0.0 17.8 17.8 0.0
02/10/19 18:11 17.7 5 -22.5 0.0 0.0 0 0.0 0.0 1024.0 0.0 17.8 17.7 0.0
02/10/19 18:12 17.7 5 -22.5 0.0 0.0 0 0.0 0.0 1024.0 0.0 17.7 17.7 0.0
02/10/19 18:13 17.6 5 -22.6 0.0 0.0 0 0.0 0.0 1024.0 0.0 17.7 17.6 0.0
02/10/19 18:14 17.6 5 -22.6 0.0 0.0 0 0.0 0.0 1024.0 0.0 17.6 17.6 0.0
02/10/19 18:15 17.5 5 -22.7 0.0 0.0 0 0.0 0.0 1024.0 0.0 17.6 17.5 0.0
02/10/19 18:17 17.5 5 -22.7 0.0 0.0 0 0.0 0.0 1024.0 0.0 0.0 17.5 0.0
02/10/19 18:18 17.4 5 -22.7 0.0 0.0 0 0.0 0.0 1024.0 0.0 17.4 17.4 0.0
02/10/19 18:19 17.3 5 -22.8 0.0 0.0 0 0.0 0.0 1024.0 0.0 17.4 17.3 0.0
02/10/19 18:20 17.3 5 -22.8 0.0 0.0 0 0.0 0.0 1024.0 0.0 17.3 17.3 0.0
02/10/19 18:21 17.2 5 -22.9 0.0 0.0 0 0.0 0.0 1024.0 0.0 17.3 17.2 0.0
02/10/19 18:22 17.2 5 -22.9 0.0 0.0 0 0.0 0.0 1024.0 0.0 17.2 17.2 0.0
02/10/19 18:23 17.2 5 -22.9 0.0 0.0 0 0.0 0.0 1024.0 0.0 17.2 17.2 0.0
02/10/19 18:24 17.2 5 -22.9 0.0 0.0 0 0.0 0.0 1024.0 0.0 17.2 17.2 0.0
02/10/19 18:25 17.3 5 -22.8 2.2 0.0 0 0.0 0.0 1024.0 0.0 17.3 17.3 0.0
02/10/19 18:26 17.2 5 -22.9 2.2 1.8 135 0.0 0.0 1024.0 1.8 17.3 17.2 0.0
02/10/19 18:27 17.2 5 -22.9 1.4 1.8 135 0.0 0.0 1024.0 1.8 17.2 17.2 0.0
02/10/19 18:28 17.1 5 -23.0 0.0 1.8 135 0.0 0.0 1024.0 1.4 17.1 17.1 0.0
02/10/19 18:29 17.1 5 -23.0 0.0 1.8 135 0.0 0.0 1024.0 0.0 17.1 17.1 0.0
02/10/19 18:30 17.0 5 -23.0 0.0 1.8 135 0.0 0.0 1024.0 0.0 17.1 17.0 0.0
02/10/19 18:32 17.0 5 -23.0 0.0 1.8 135 0.0 0.0 1024.0 0.0 17.0 17.0 0.0
02/10/19 18:33 17.0 5 -23.0 0.0 1.8 135 0.0 0.0 1024.0 0.0 17.0 17.0 0.0
02/10/19 18:34 16.9 5 -23.1 0.0 1.8 135 0.0 0.0 1024.0 0.0 16.9 16.9 0.0
02/10/19 18:35 16.8 5 -23.2 0.0 1.8 135 0.0 0.0 1024.0 0.0 16.9 16.8 0.0
02/10/19 18:36 16.8 6 -21.1 0.0 1.8 135 0.0 0.0 1024.0 0.0 16.8 16.8 0.0
02/10/19 18:37 16.7 9 -16.4 0.0 1.8 135 0.0 0.0 1024.0 0.0 16.7 16.7 0.0
02/10/19 18:38 16.7 9 -16.4 0.0 1.8 135 0.0 0.0 1025.0 0.0 16.7 16.7 0.0
02/10/19 18:39 16.7 9 -16.4 0.0 1.8 135 0.0 0.0 1025.0 0.0 16.7 16.7 0.0
02/10/19 18:40 16.6 9 -16.5 0.0 1.8 135 0.0 0.0 1025.0 0.0 16.6 16.6 0.0
02/10/19 18:41 16.6 11 -14.1 0.0 1.8 135 0.0 0.0 1025.0 0.0 16.6 16.6 0.0
02/10/19 18:42 16.5 14 -11.1 0.0 0.0 0 0.0 0.0 1025.0 0.0 16.6 16.5 0.0
02/10/19 18:43 16.5 21 -5.9 1.8 2.2 135 0.0 0.0 1025.0 1.4 16.5 16.5 0.0
02/10/19 18:44 16.5 24 -4.2 1.8 3.6 135 0.0 0.0 1025.0 3.6 16.5 16.5 0.0
02/10/19 18:49 16.4 25 -3.7 0.0 3.6 135 0.0 0.0 1025.0 0.0 16.4 16.4 0.0
02/10/19 18:50 16.4 25 -3.7 0.0 3.6 135 0.0 0.0 1025.0 0.0 16.4 16.4 0.0
02/10/19 18:51 16.3 25 -3.8 0.0 3.6 135 0.0 0.0 1025.0 0.0 16.4 16.3 0.0
02/10/19 18:52 16.2 25 -3.9 0.0 3.6 135 0.0 0.0 1025.0 0.0 16.3 16.2 0.0
02/10/19 18:53 16.2 25 -3.9 0.0 3.6 135 0.0 0.0 1025.0 0.0 16.2 16.2 0.0
02/10/19 18:54 16.2 25 -3.9 0.0 3.6 135 0.0 0.0 1025.0 0.0 16.2 16.2 0.0
02/10/19 18:55 16.1 26 -3.4 0.0 2.2 135 0.0 0.0 1025.0 0.0 16.1 16.1 0.0
02/10/19 18:56 15.9 26 -3.6 0.0 2.2 135 0.0 0.0 1025.0 0.0 16.0 15.9 0.0
02/10/19 18:57 15.9 27 -3.1 0.0 2.2 135 0.0 0.0 1025.0 0.0 15.9 15.9 0.0
02/10/19 18:58 15.9 26 -3.6 0.0 2.2 135 0.0 0.0 1025.0 0.0 15.9 15.9 0.0
02/10/19 18:59 15.9 28 -2.6 3.6 0.0 0 0.0 0.0 1025.0 0.0 15.9 15.9 0.0
02/10/19 19:02 15.9 28 -2.6 0.0 0.0 0 0.0 0.0 1025.0 0.0 15.9 15.9 0.0
02/10/19 19:03 15.9 28 -2.6 1.4 1.4 135 0.0 0.0 1025.0 0.0 15.9 15.9 0.0
02/10/19 19:04 15.8 29 -2.2 0.0 1.4 135 0.0 0.0 1025.0 0.0 15.9 15.8 0.0
02/10/19 19:05 15.8 29 -2.2 0.0 1.4 135 0.0 0.0 1025.0 0.0 15.8 15.8 0.0
02/10/19 19:06 15.8 29 -2.2 0.0 1.4 135 0.0 0.0 1025.0 0.0 15.8 15.8 0.0
02/10/19 19:07 15.8 30 -1.8 0.0 1.4 135 0.0 0.0 1025.0 0.0 15.8 15.8 0.0
02/10/19 19:08 15.8 30 -1.8 0.0 1.4 135 0.0 0.0 1025.0 0.0 15.8 15.8 0.0
02/10/19 19:09 15.7 30 -1.9 0.0 1.4 135 0.0 0.0 1025.0 0.0 15.8 15.7 0.0
02/10/19 19:10 15.7 30 -1.9 0.0 1.4 135 0.0 0.0 1025.0 0.0 15.7 15.7 0.0
02/10/19 19:11 15.6 31 -1.5 0.0 1.4 135 0.0 0.0 1025.0 0.0 15.7 15.6 0.0
02/10/19 19:12 15.7 32 -1.0 0.0 1.4 135 0.0 0.0 1025.0 0.0 15.6 15.7 0.0
02/10/19 19:13 15.7 32 -1.0 0.0 0.0 0 0.0 0.0 1025.0 0.0 15.7 15.7 0.0
02/10/19 19:14 15.7 32 -1.0 0.0 2.2 135 0.0 0.0 1025.0 2.2 15.7 15.7 0.0
02/10/19 19:17 15.8 34 0.0 0.0 2.2 135 0.0 0.0 1025.0 2.2 0.0 15.8 0.0
02/10/19 19:18 15.8 34 0.0 0.0 2.2 135 0.0 0.0 1025.0 2.2 15.8 15.8 0.0
02/10/19 19:19 15.8 34 0.0 0.0 2.2 135 0.0 0.0 1025.0 1.4 15.8 15.8 0.0
02/10/19 19:20 15.8 34 0.0 0.0 2.2 135 0.0 0.0 1025.0 1.4 15.8 15.8 0.0
02/10/19 19:21 15.7 34 -0.1 2.2 2.2 135 0.0 0.0 1025.0 0.0 15.8 15.7 0.0
02/10/19 19:22 15.7 34 -0.1 0.0 2.2 135 0.0 0.0 1025.0 0.0 15.7 15.7 0.0
02/10/19 19:23 15.6 34 -0.2 0.0 2.2 135 0.0 0.0 1024.0 0.0 15.6 15.6 0.0
02/10/19 19:24 15.6 34 -0.2 0.0 2.2 135 0.0 0.0 1024.0 0.0 15.6 15.6 0.0
02/10/19 19:25 15.5 34 -0.3 0.0 2.2 135 0.0 0.0 1024.0 0.0 15.5 15.5 0.0
02/10/19 19:26 15.5 34 -0.3 0.0 2.2 135 0.0 0.0 1024.0 0.0 15.5 15.5 0.0
02/10/19 19:27 15.4 34 -0.4 0.0 2.2 135 0.0 0.0 1024.0 0.0 15.5 15.4 0.0
02/10/19 19:28 15.4 34 -0.4 0.0 2.2 135 0.0 0.0 1024.0 0.0 15.4 15.4 0.0
02/10/19 19:29 15.3 34 -0.5 0.0 1.4 135 0.0 0.0 1024.0 0.0 15.3 15.3 0.0
02/10/19 19:32 15.2 34 -0.6 0.0 0.0 0 0.0 0.0 1024.0 0.0 0.0 15.2 0.0
02/10/19 19:33 15.2 34 -0.6 0.0 0.0 0 0.0 0.0 1024.0 0.0 15.2 15.2 0.0
02/10/19 19:34 15.1 34 -0.7 0.0 0.0 0 0.0 0.0 1024.0 0.0 15.2 15.1 0.0
02/10/19 19:35 15.1 35 -0.3 0.0 0.0 0 0.0 0.0 1024.0 0.0 15.1 15.1 0.0
02/10/19 19:36 15.1 35 -0.3 0.0 0.0 0 0.0 0.0 1024.0 0.0 15.1 15.1 0.0
02/10/19 19:37 15.1 35 -0.3 0.0 0.0 0 0.0 0.0 1024.0 0.0 15.1 15.1 0.0
02/10/19 19:38 15.1 35 -0.3 0.0 0.0 0 0.0 0.0 1025.0 0.0 15.1 15.1 0.0
02/10/19 19:39 15.1 35 -0.3 0.0 0.0 0 0.0 0.0 1025.0 0.0 15.1 15.1 0.0
02/10/19 19:40 15.0 35 -0.4 0.0 0.0 0 0.0 0.0 1025.0 0.0 15.1 15.0 0.0
02/10/19 19:41 15.0 35 -0.4 0.0 0.0 0 0.0 0.0 1025.0 0.0 15.0 15.0 0.0
02/10/19 19:42 14.9 35 -0.4 0.0 0.0 0 0.0 0.0 1025.0 0.0 15.0 14.9 0.0
02/10/19 19:43 14.9 35 -0.4 0.0 0.0 0 0.0 0.0 1025.0 0.0 14.9 14.9 0.0
02/10/19 19:44 14.9 35 -0.4 0.0 0.0 0 0.0 0.0 1025.0 0.0 14.9 14.9 0.0
02/10/19 19:45 14.9 35 -0.4 0.0 0.0 0 0.0 0.0 1025.0 0.0 14.9 14.9 0.0
02/10/19 19:47 14.8 35 -0.5 0.0 0.0 0 0.0 0.0 1025.0 0.0 0.0 14.8 0.0
02/10/19 19:48 14.8 35 -0.5 0.0 0.0 0 0.0 0.0 1025.0 0.0 14.8 14.8 0.0
02/10/19 19:49 14.7 35 -0.6 0.0 0.0 0 0.0 0.0 1025.0 0.0 14.7 14.7 0.0
02/10/19 19:50 14.6 36 -0.3 0.0 0.0 0 0.0 0.0 1025.0 0.0 14.7 14.6 0.0
02/10/19 19:51 14.6 36 -0.3 0.0 0.0 0 0.0 0.0 1025.0 0.0 14.6 14.6 0.0
02/10/19 19:52 14.6 36 -0.3 0.0 0.0 0 0.0 0.0 1025.0 0.0 14.6 14.6 0.0
02/10/19 19:53 14.5 36 -0.4 0.0 0.0 0 0.0 0.0 1025.0 0.0 14.6 14.5 0.0
02/10/19 19:54 14.5 36 -0.4 0.0 0.0 0 0.0 0.0 1025.0 0.0 14.5 14.5 0.0
02/10/19 19:55 14.5 36 -0.4 0.0 0.0 0 0.0 0.0 1025.0 0.0 14.5 14.5 0.0
02/10/19 19:56 14.5 36 -0.4 0.0 0.0 0 0.0 0.0 1025.0 0.0 14.5 14.5 0.0
02/10/19 19:57 14.4 36 -0.5 0.0 0.0 0 0.0 0.0 1025.0 0.0 14.4 14.4 0.0
02/10/19 19:58 14.4 36 -0.5 0.0 0.0 0 0.0 0.0 1025.0 0.0 14.4 14.4 0.0
02/10/19 19:59 14.4 36 -0.5 0.0 0.0 0 0.0 0.0 1025.0 0.0 14.4 14.4 0.0
02/10/19 20:05 14.3 37 -0.2 0.0 0.0 0 34.8 0.0 1025.0 0.0 14.3 14.3 0.0
02/10/19 20:06 14.3 37 -0.2 0.0 0.0 0 34.8 0.0 1025.0 0.0 14.3 14.3 0.0
02/10/19 20:07 14.3 37 -0.2 0.0 0.0 0 34.8 0.0 1025.0 0.0 14.3 14.3 0.0
02/10/19 20:08 14.3 37 -0.2 0.0 0.0 0 34.8 0.0 1025.0 0.0 14.3 14.3 0.0
02/10/19 20:09 14.2 37 -0.3 0.0 0.0 0 34.8 0.0 1025.0 0.0 14.2 14.2 0.0
02/10/19 20:10 14.2 38 0.1 0.0 0.0 0 34.8 0.0 1025.0 0.0 14.2 14.2 0.0
02/10/19 20:11 14.2 38 0.1 0.0 0.0 0 34.8 0.0 1025.0 0.0 14.2 14.2 0.0
02/10/19 20:12 14.2 38 0.1 0.0 0.0 0 34.8 0.0 1025.0 0.0 14.2 14.2 0.0
02/10/19 20:13 14.1 38 0.0 0.0 0.0 0 34.8 0.0 1025.0 0.0 14.1 14.1 0.0
02/10/19 20:14 14.0 38 -0.1 0.0 0.0 0 34.8 0.0 1025.0 0.0 14.0 14.0 0.0
02/10/19 20:15 14.0 38 -0.1 0.0 0.0 0 34.8 0.0 1025.0 0.0 14.0 14.0 0.0
02/10/19 20:16 14.0 38 -0.1 0.0 0.0 0 34.8 0.0 1025.0 0.0 14.0 14.0 0.0
02/10/19 20:17 14.0 38 -0.1 0.0 0.0 0 34.8 0.0 1025.0 0.0 14.0 14.0 0.0
02/10/19 20:17 13.9 39 0.2 0.0 0.0 0 34.8 0.0 1025.0 0.0 13.9 13.9 0.0
02/10/19 20:18 13.9 39 0.2 0.0 0.0 0 34.8 0.0 1025.0 0.0 13.9 13.9 0.0
02/10/19 20:19 13.9 39 0.2 0.0 0.0 0 34.8 0.0 1025.0 0.0 13.9 13.9 0.0
02/10/19 20:20 13.8 39 0.1 0.0 0.0 0 34.8 0.0 1025.0 0.0 13.9 13.8 0.0
02/10/19 20:21 13.8 40 0.4 0.0 0.0 0 34.8 0.0 1025.0 0.0 13.8 13.8 0.0
02/10/19 20:22 13.8 40 0.4 0.0 0.0 0 34.8 0.0 1025.0 0.0 13.8 13.8 0.0
02/10/19 20:23 13.7 40 0.3 0.0 1.8 181 34.8 0.0 1025.0 0.0 13.7 13.7 0.0
02/10/19 20:24 13.7 40 0.3 0.0 1.8 181 34.8 0.0 1025.0 0.0 13.7 13.7 0.0
02/10/19 20:25 13.7 40 0.3 0.0 1.8 181 34.8 0.0 1025.0 0.0 13.7 13.7 0.0
02/10/19 20:26 13.7 40 0.3 0.0 1.8 181 34.8 0.0 1025.0 0.0 13.7 13.7 0.0
02/10/19 20:27 13.6 41 0.6 0.0 1.8 181 34.8 0.0 1025.0 0.0 13.7 13.6 0.0
02/10/19 20:28 13.6 41 0.6 0.0 1.8 181 34.8 0.0 1025.0 0.0 13.6 13.6 0.0
02/10/19 20:29 13.6 41 0.6 0.0 1.8 181 34.8 0.0 1025.0 0.0 13.6 13.6 0.0
02/10/19 20:30 13.6 42 0.9 0.0 1.8 181 34.8 0.0 1025.0 0.0 13.6 13.6 0.0
02/10/19 20:32 13.6 42 0.9 0.0 0.0 0 0.0 0.0 1025.0 0.0 13.6 13.6 0.0
02/10/19 20:33 13.6 43 1.2 0.0 0.0 0 0.0 0.0 1025.0 0.0 13.6 13.6 0.0
02/10/19 20:34 13.6 43 1.2 0.0 0.0 0 0.0 0.0 1025.0 0.0 13.6 13.6 0.0
02/10/19 20:35 13.5 43 1.2 0.0 0.0 0 0.0 0.0 1025.0 0.0 13.5 13.5 0.0
02/10/19 20:36 13.4 44 1.4 0.0 0.0 0 0.0 0.0 1025.0 0.0 13.5 13.4 0.0
02/10/19 20:37 13.4 44 1.4 0.0 0.0 0 0.0 0.0 1025.0 0.0 13.4 13.4 0.0
02/10/19 20:38 13.4 44 1.4 0.0 0.0 0 0.0 0.0 1026.0 0.0 13.4 13.4 0.0
02/10/19 20:39 13.4 44 1.4 0.0 0.0 0 0.0 0.0 1026.0 0.0 13.4 13.4 0.0
02/10/19 20:40 13.4 44 1.4 0.0 0.0 0 0.0 0.0 1026.0 0.0 13.4 13.4 0.0
02/10/19 20:41 13.3 45 1.6 0.0 0.0 0 0.0 0.0 1026.0 0.0 13.4 13.3 0.0
02/10/19 20:42 13.3 45 1.6 0.0 0.0 0 0.0 0.0 1026.0 0.0 13.3 13.3 0.0
02/10/19 20:43 13.3 45 1.6 0.0 0.0 0 0.0 0.0 1026.0 0.0 13.3 13.3 0.0
02/10/19 20:44 13.2 45 1.5 0.0 0.0 0 0.0 0.0 1026.0 0.0 13.3 13.2 0.0
02/10/19 20:45 13.2 45 1.5 0.0 0.0 0 0.0 0.0 1026.0 0.0 13.2 13.2 0.0
02/10/19 20:47 13.1 46 1.7 0.0 2.2 181 0.0 0.0 1026.0 0.0 13.1 13.1 0.0
02/10/19 20:48 13.1 46 1.7 0.0 2.2 181 0.0 0.0 1026.0 0.0 13.1 13.1 0.0
02/10/19 20:49 13.1 46 1.7 0.0 2.2 181 0.0 0.0 1026.0 0.0 13.1 13.1 0.0
02/10/19 20:50 13.1 46 1.7 0.0 2.2 181 0.0 0.0 1026.0 0.0 13.1 13.1 0.0
02/10/19 20:51 13.1 48 2.3 0.0 4.3 143 0.0 0.0 1026.0 4.3 13.1 13.1 0.0
02/10/19 20:52 13.2 48 2.4 2.2 4.3 140 0.0 0.0 1026.0 3.2 13.1 13.2 0.0
02/10/19 20:53 13.2 48 2.4 0.0 4.3 140 0.0 0.0 1026.0 0.0 13.2 13.2 0.0
02/10/19 20:54 13.2 48 2.4 0.0 4.3 140 0.0 0.0 1026.0 0.0 13.2 13.2 0.0
02/10/19 20:55 13.2 49 2.7 0.0 4.3 140 0.0 0.0 1026.0 0.0 13.2 13.2 0.0
02/10/19 20:56 13.2 49 2.7 0.0 4.3 140 0.0 0.0 1026.0 0.0 13.2 13.2 0.0
02/10/19 20:57 13.2 49 2.7 0.0 4.7 135 0.0 0.0 1026.0 4.7 13.2 13.2 0.0
02/10/19 20:58 13.2 51 3.3 0.0 4.7 135 0.0 0.0 1026.0 0.0 13.2 13.2 0.0
02/10/19 20:59 13.2 51 3.3 2.2 4.7 135 0.0 0.0 1026.0 2.2 13.2 13.2 0.0
02/10/19 21:00 13.2 51 3.3 0.0 4.7 135 0.0 0.0 1026.0 0.0 13.2 13.2 0.0
02/10/19 21:02 13.1 52 3.5 0.0 4.7 136 0.0 0.0 1026.0 0.0 13.1 13.1 0.0
02/10/19 21:03 13.1 52 3.5 0.0 4.7 135 0.0 0.0 1026.0 0.0 13.1 13.1 0.0
02/10/19 21:04 13.1 52 3.5 0.0 4.7 135 0.0 0.0 1026.0 0.0 13.1 13.1 0.0
02/10/19 21:05 13.0 52 3.4 0.0 4.7 135 0.0 0.0 1026.0 0.0 13.0 13.0 0.0
02/10/19 21:06 13.0 52 3.4 0.0 4.7 135 0.0 0.0 1026.0 0.0 13.0 13.0 0.0
02/10/19 21:07 12.9 53 3.5 0.0 4.7 135 0.0 0.0 1026.0 0.0 12.9 12.9 0.0
02/10/19 21:08 12.9 53 3.5 0.0 2.2 135 0.0 0.0 1026.0 0.0 12.9 12.9 0.0
02/10/19 21:09 12.9 53 3.5 0.0 2.2 152 0.0 0.0 1026.0 1.4 12.9 12.9 0.0
02/10/19 21:10 12.9 54 3.8 3.2 5.8 74 0.0 0.0 1026.0 5.8 12.9 12.9 0.0
02/10/19 21:11 12.9 55 4.1 0.0 5.8 74 0.0 0.0 1026.0 0.0 12.9 12.9 0.0
02/10/19 21:12 12.8 55 4.0 0.0 5.8 74 0.0 0.0 1026.0 0.0 12.8 12.8 0.0
02/10/19 21:13 12.8 55 4.0 0.0 5.8 74 0.0 0.0 1026.0 0.0 12.8 12.8 0.0
02/10/19 21:14 12.7 55 3.9 0.0 5.8 74 0.0 0.0 1026.0 0.0 12.7 12.7 0.0
02/10/19 21:15 12.7 55 3.9 0.0 5.8 74 0.0 0.0 1026.0 0.0 12.7 12.7 0.0
02/10/19 21:17 12.7 55 3.9 0.0 5.8 87 0.0 0.0 1026.0 0.0 0.0 12.7 0.0
02/10/19 21:18 12.6 55 3.8 0.0 5.8 87 0.0 0.0 1026.0 0.0 12.6 12.6 0.0
02/10/19 21:19 12.6 55 3.8 0.0 5.8 87 0.0 0.0 1026.0 0.0 12.6 12.6 0.0
02/10/19 21:20 12.6 56 4.0 0.0 5.8 74 0.0 0.0 1026.0 0.0 12.6 12.6 0.0
02/10/19 21:21 12.6 56 4.0 0.0 0.0 0 0.0 0.0 1026.0 0.0 12.6 12.6 0.0
02/10/19 21:22 12.5 56 4.0 0.0 0.0 0 0.0 0.0 1026.0 0.0 12.6 12.5 0.0
02/10/19 21:23 12.5 57 4.2 0.0 0.0 0 0.0 0.0 1026.0 0.0 12.5 12.5 0.0
02/10/19 21:24 12.5 57 4.2 0.0 0.0 0 0.0 0.0 1026.0 0.0 12.5 12.5 0.0
02/10/19 21:25 12.5 57 4.2 0.0 0.0 0 0.0 0.0 1026.0 0.0 12.5 12.5 0.0
02/10/19 21:26 12.5 57 4.2 0.0 1.8 135 0.0 0.0 1026.0 1.8 12.5 12.5 0.0
02/10/19 21:27 12.5 57 4.2 0.0 1.8 135 0.0 0.0 1026.0 1.8 12.5 12.5 0.0
02/10/19 21:28 12.5 57 4.2 0.0 1.8 135 0.0 0.0 1026.0 0.0 12.5 12.5 0.0
02/10/19 21:29 12.5 58 4.5 1.4 1.8 135 0.0 0.0 1026.0 0.0 12.5 12.5 0.0
02/10/19 21:30 12.5 59 4.7 0.0 1.8 135 0.0 0.0 1026.0 0.0 12.5 12.5 0.0
02/10/19 21:33 12.5 59 4.7 0.0 1.8 135 0.0 0.0 1026.0 0.0 0.0 12.5 0.0
02/10/19 21:34 12.4 60 4.8 0.0 1.8 135 0.0 0.0 1026.0 0.0 12.4 12.4 0.0
02/10/19 21:35 12.4 60 4.8 0.0 1.8 135 0.0 0.0 1026.0 0.0 12.4 12.4 0.0
02/10/19 21:36 12.4 59 4.6 0.0 1.8 135 0.0 0.0 1026.0 0.0 12.4 12.4 0.0
02/10/19 21:37 12.3 59 4.5 0.0 1.8 135 0.0 0.0 1026.0 0.0 12.4 12.3 0.0
02/10/19 21:38 12.3 60 4.8 0.0 0.0 0 0.0 0.0 1026.0 0.0 12.3 12.3 0.0
02/10/19 21:39 12.3 60 4.8 0.0 0.0 0 0.0 0.0 1026.0 0.0 12.3 12.3 0.0
02/10/19 21:40 12.3 60 4.8 0.0 0.0 0 0.0 0.0 1026.0 0.0 12.3 12.3 0.0
02/10/19 21:41 12.2 60 4.7 0.0 0.0 0 0.0 0.0 1026.0 0.0 12.3 12.2 0.0
02/10/19 21:42 12.2 60 4.7 0.0 0.0 0 0.0 0.0 1026.0 0.0 12.2 12.2 0.0
02/10/19 21:43 12.1 61 4.8 0.0 0.0 0 0.0 0.0 1026.0 0.0 12.2 12.1 0.0
02/10/19 21:44 12.1 61 4.8 0.0 0.0 0 0.0 0.0 1026.0 0.0 12.1 12.1 0.0
02/10/19 21:45 12.1 61 4.8 0.0 0.0 0 0.0 0.0 1026.0 0.0 12.1 12.1 0.0
02/10/19 21:47 12.1 62 5.0 0.0 0.0 0 0.0 0.0 1026.0 0.0 0.0 12.1 0.0
02/10/19 21:48 12.1 62 5.0 0.0 0.0 0 0.0 0.0 1026.0 0.0 12.1 12.1 0.0
02/10/19 21:49 12.1 62 5.0 0.0 2.5 135 0.0 0.0 1026.0 2.5 12.1 12.1 0.0
02/10/19 21:50 12.1 62 5.0 0.0 2.5 135 0.0 0.0 1026.0 0.0 12.1 12.1 0.0
02/10/19 21:51 12.1 63 5.3 0.0 2.5 135 0.0 0.0 1026.0 0.0 12.1 12.1 0.0
02/10/19 21:52 12.1 63 5.3 0.0 2.5 135 0.0 0.0 1026.0 0.0 12.1 12.1 0.0
02/10/19 21:53 12.0 63 5.2 0.0 2.5 135 0.0 0.0 1026.0 0.0 12.1 12.0 0.0
02/10/19 21:54 12.0 63 5.2 0.0 2.5 135 0.0 0.0 1026.0 0.0 12.0 12.0 0.0
02/10/19 21:55 12.0 63 5.2 0.0 2.5 135 0.0 0.0 1026.0 0.0 12.0 12.0 0.0
02/10/19 21:56 11.9 64 5.3 0.0 2.5 135 0.0 0.0 1026.0 0.0 12.0 11.9 0.0
02/10/19 21:57 11.9 64 5.3 0.0 2.5 153 0.0 0.0 1026.0 0.0 11.9 11.9 0.0
02/10/19 21:58 11.9 64 5.3 0.0 2.5 153 0.0 0.0 1026.0 0.0 11.9 11.9 0.0
02/10/19 21:59 11.9 64 5.3 0.0 1.8 181 0.0 0.0 1026.0 0.0 11.9 11.9 0.0
02/10/19 22:00 11.9 64 5.3 0.0 1.8 181 0.0 0.0 1026.0 0.0 11.9 11.9 0.0
02/10/19 22:02 11.9 65 5.5 0.0 0.0 0 0.0 0.0 1026.0 0.0 0.0 11.9 0.0
02/10/19 22:03 11.9 65 5.5 0.0 0.0 0 0.0 0.0 1026.0 0.0 11.9 11.9 0.0
02/10/19 22:04 11.9 65 5.5 0.0 0.0 0 0.0 0.0 1026.0 0.0 11.9 11.9 0.0
02/10/19 22:05 11.8 65 5.4 0.0 0.0 0 0.0 0.0 1026.0 0.0 11.8 11.8 0.0
02/10/19 22:06 11.8 65 5.4 0.0 0.0 0 0.0 0.0 1026.0 0.0 11.8 11.8 0.0
02/10/19 22:07 11.7 65 5.3 0.0 0.0 0 0.0 0.0 1026.0 0.0 11.8 11.7 0.0
02/10/19 22:08 11.7 65 5.3 0.0 0.0 0 0.0 0.0 1026.0 0.0 11.7 11.7 0.0
02/10/19 22:09 11.7 65 5.3 0.0 0.0 0 0.0 0.0 1026.0 0.0 11.7 11.7 0.0
02/10/19 22:10 11.7 66 5.6 1.4 2.5 181 0.0 0.0 1026.0 2.5 11.7 11.7 0.0
02/10/19 22:11 11.7 66 5.6 0.0 2.5 181 0.0 0.0 1026.0 0.0 11.7 11.7 0.0
02/10/19 22:12 11.7 66 5.6 0.0 2.5 181 0.0 0.0 1026.0 0.0 11.7 11.7 0.0
02/10/19 22:13 11.7 66 5.6 0.0 2.5 181 0.0 0.0 1026.0 0.0 11.7 11.7 0.0
02/10/19 22:14 11.7 66 5.6 0.0 2.5 181 0.0 0.0 1026.0 0.0 11.7 11.7 0.0
02/10/19 22:15 11.7 66 5.6 0.0 2.5 181 0.0 0.0 1026.0 0.0 11.7 11.7 0.0
02/10/19 22:17 11.7 66 5.6 0.0 2.5 181 0.0 0.0 1026.0 0.0 11.7 11.7 0.0
02/10/19 22:18 11.6 66 5.5 0.0 2.5 181 0.0 0.0 1026.0 0.0 11.6 11.6 0.0
02/10/19 22:19 11.7 66 5.6 0.0 2.5 181 0.0 0.0 1026.0 0.0 11.6 11.7 0.0
02/10/19 22:20 11.6 66 5.5 0.0 2.5 181 0.0 0.0 1026.0 0.0 11.7 11.6 0.0
02/10/19 22:21 11.6 67 5.7 0.0 0.0 0 0.0 0.0 1026.0 0.0 11.6 11.6 0.0
02/10/19 22:22 11.6 67 5.7 0.0 0.0 0 0.0 0.0 1026.0 0.0 11.6 11.6 0.0
02/10/19 22:23 11.5 67 5.6 0.0 0.0 0 0.0 0.0 1025.0 0.0 11.6 11.5 0.0
02/10/19 22:24 11.5 67 5.6 0.0 0.0 0 0.0 0.0 1025.0 0.0 11.5 11.5 0.0
02/10/19 22:25 11.5 67 5.6 0.0 0.0 0 0.0 0.0 1025.0 0.0 11.5 11.5 0.0
02/10/19 22:26 11.5 67 5.6 0.0 0.0 0 0.0 0.0 1025.0 0.0 11.5 11.5 0.0
02/10/19 22:27 11.5 66 5.4 0.0 0.0 0 0.0 0.0 1025.0 0.0 11.5 11.5 0.0
02/10/19 22:28 11.5 66 5.4 0.0 0.0 0 0.0 0.0 1025.0 0.0 11.5 11.5 0.0
02/10/19 22:29 11.4 66 5.3 0.0 0.0 0 0.0 0.0 1025.0 0.0 11.5 11.4 0.0
02/10/19 22:30 11.4 66 5.3 0.0 0.0 0 0.0 0.0 1025.0 0.0 11.4 11.4 0.0
02/10/19 22:32 11.4 66 5.3 0.0 0.0 0 0.0 0.0 1025.0 0.0 0.0 11.4 0.0
02/10/19 22:33 11.3 66 5.2 0.0 0.0 0 0.0 0.0 1025.0 0.0 11.4 11.3 0.0
02/10/19 22:34 11.3 67 5.4 0.0 0.0 0 0.0 0.0 1025.0 0.0 11.3 11.3 0.0
02/10/19 22:35 11.4 67 5.5 0.0 0.0 0 0.0 0.0 1025.0 0.0 11.4 11.4 0.0
02/10/19 22:36 11.4 67 5.5 0.0 0.0 0 0.0 0.0 1025.0 0.0 11.4 11.4 0.0
02/10/19 22:37 11.4 67 5.5 0.0 0.0 0 0.0 0.0 1025.0 0.0 11.4 11.4 0.0
02/10/19 22:38 11.3 66 5.2 0.0 0.0 0 0.0 0.0 1025.0 0.0 11.4 11.3 0.0
02/10/19 22:39 11.3 66 5.2 0.0 0.0 0 0.0 0.0 1025.0 0.0 11.3 11.3 0.0
02/10/19 22:40 11.3 66 5.2 0.0 1.4 135 0.0 0.0 1025.0 1.4 11.3 11.3 0.0
02/10/19 22:41 11.3 67 5.4 0.0 1.4 135 0.0 0.0 1025.0 0.0 11.3 11.3 0.0
02/10/19 22:42 11.3 66 5.2 0.0 2.2 135 0.0 0.0 1025.0 2.2 11.3 11.3 0.0
02/10/19 22:43 11.3 66 5.2 0.0 2.2 135 0.0 0.0 1025.0 0.0 11.3 11.3 0.0
02/10/19 22:44 11.3 66 5.2 0.0 2.2 135 0.0 0.0 1025.0 0.0 11.3 11.3 0.0
02/10/19 22:45 11.2 66 5.1 0.0 2.2 135 0.0 0.0 1025.0 0.0 11.2 11.2 0.0
02/10/19 22:49 11.2 67 5.3 0.0 2.2 135 34.8 0.0 1025.0 0.0 11.2 11.2 0.0
02/10/19 22:50 11.2 66 5.1 0.0 2.2 135 34.8 0.0 1025.0 1.8 11.2 11.2 0.0
02/10/19 22:51 11.1 67 5.2 0.0 2.2 135 34.8 0.0 1025.0 0.0 11.1 11.1 0.0
02/10/19 22:52 11.1 67 5.2 0.0 1.8 135 34.8 0.0 1025.0 0.0 11.1 11.1 0.0
02/10/19 22:53 11.1 67 5.2 0.0 1.8 135 34.8 0.0 1025.0 0.0 11.1 11.1 0.0
02/10/19 22:54 11.1 67 5.2 0.0 1.8 135 34.8 0.0 1025.0 0.0 11.1 11.1 0.0
02/10/19 22:55 11.0 67 5.1 0.0 1.8 135 34.8 0.0 1025.0 0.0 11.0 11.0 0.0
02/10/19 22:56 11.0 67 5.1 0.0 1.8 135 34.8 0.0 1025.0 0.0 11.0 11.0 0.0
02/10/19 22:57 11.0 67 5.1 0.0 1.8 135 34.8 0.0 1025.0 0.0 11.0 11.0 0.0
02/10/19 22:58 11.0 67 5.1 0.0 1.8 135 34.8 0.0 1025.0 0.0 11.0 11.0 0.0
02/10/19 22:59 11.0 67 5.1 0.0 1.8 135 34.8 0.0 1025.0 0.0 11.0 11.0 0.0
02/10/19 23:00 11.0 67 5.1 0.0 0.0 0 34.8 0.0 1025.0 0.0 11.0 11.0 0.0
02/10/19 23:01 10.9 67 5.0 0.0 0.0 0 34.8 0.0 1025.0 0.0 10.9 10.9 0.0
02/10/19 23:02 10.9 67 5.0 0.0 0.0 0 34.8 0.0 1025.0 0.0 10.9 10.9 0.0
02/10/19 23:02 10.9 67 5.0 0.0 0.0 0 34.8 0.0 1025.0 0.0 10.9 10.9 0.0
02/10/19 23:03 10.9 67 5.0 0.0 0.0 0 34.8 0.0 1025.0 0.0 10.9 10.9 0.0
02/10/19 23:04 10.9 67 5.0 0.0 0.0 0 34.8 0.0 1025.0 0.0 10.9 10.9 0.0
02/10/19 23:05 10.9 67 5.0 0.0 0.0 0 34.8 0.0 1025.0 0.0 10.9 10.9 0.0
02/10/19 23:06 10.8 67 4.9 0.0 0.0 0 34.8 0.0 1025.0 0.0 10.9 10.8 0.0
02/10/19 23:07 10.8 67 4.9 0.0 0.0 0 34.8 0.0 1025.0 0.0 10.8 10.8 0.0
02/10/19 23:08 10.8 67 4.9 0.0 0.0 0 34.8 0.0 1025.0 0.0 10.8 10.8 0.0
02/10/19 23:09 10.8 67 4.9 0.0 0.0 0 34.8 0.0 1025.0 0.0 10.8 10.8 0.0
02/10/19 23:10 10.8 67 4.9 0.0 0.0 0 34.8 0.0 1025.0 0.0 10.8 10.8 0.0
02/10/19 23:11 10.7 67 4.8 0.0 0.0 0 34.8 0.0 1025.0 0.0 10.7 10.7 0.0
02/10/19 23:12 10.7 67 4.8 0.0 0.0 0 34.8 0.0 1025.0 0.0 10.7 10.7 0.0
02/10/19 23:13 10.7 67 4.8 0.0 0.0 0 34.8 0.0 1025.0 0.0 10.7 10.7 0.0
02/10/19 23:14 10.6 67 4.7 0.0 0.0 0 34.8 0.0 1025.0 0.0 10.6 10.6 0.0
02/10/19 23:18 10.6 67 4.7 0.0 0.0 0 0.0 0.0 1025.0 0.0 10.6 10.6 0.0
02/10/19 23:19 10.6 67 4.7 0.0 0.0 0 0.0 0.0 1025.0 0.0 10.6 10.6 0.0
02/10/19 23:20 10.5 67 4.6 0.0 0.0 0 0.0 0.0 1025.0 0.0 10.5 10.5 0.0
02/10/19 23:21 10.4 67 4.5 0.0 0.0 0 0.0 0.0 1025.0 0.0 10.5 10.4 0.0
02/10/19 23:22 10.4 67 4.5 0.0 0.0 0 0.0 0.0 1025.0 0.0 10.4 10.4 0.0
02/10/19 23:23 10.4 68 4.7 0.0 0.0 0 0.0 0.0 1025.0 0.0 10.4 10.4 0.0
02/10/19 23:24 10.4 68 4.7 0.0 0.0 0 0.0 0.0 1025.0 0.0 10.4 10.4 0.0
02/10/19 23:25 10.3 68 4.6 0.0 0.0 0 0.0 0.0 1025.0 0.0 10.3 10.3 0.0
02/10/19 23:26 10.3 68 4.6 0.0 0.0 0 0.0 0.0 1025.0 0.0 10.3 10.3 0.0
02/10/19 23:27 10.3 68 4.6 0.0 0.0 0 0.0 0.0 1025.0 0.0 10.3 10.3 0.0
02/10/19 23:28 10.3 68 4.6 0.0 0.0 0 0.0 0.0 1025.0 0.0 10.3 10.3 0.0
02/10/19 23:29 10.3 68 4.6 0.0 0.0 0 0.0 0.0 1025.0 0.0 10.3 10.3 0.0
02/10/19 23:32 10.3 68 4.6 0.0 0.0 0 0.0 0.0 1025.0 0.0 0.0 10.3 0.0
02/10/19 23:33 10.3 68 4.6 0.0 0.0 0 0.0 0.0 1025.0 0.0 10.3 10.3 0.0
02/10/19 23:34 10.3 69 4.9 0.0 0.0 0 0.0 0.0 1025.0 0.0 10.3 10.3 0.0
02/10/19 23:35 10.2 69 4.8 0.0 0.0 0 0.0 0.0 1025.0 0.0 10.3 10.2 0.0
02/10/19 23:36 10.2 69 4.8 0.0 0.0 0 0.0 0.0 1025.0 0.0 10.2 10.2 0.0
02/10/19 23:37 10.2 69 4.8 0.0 0.0 0 0.0 0.0 1025.0 0.0 10.2 10.2 0.0
02/10/19 23:38 10.2 69 4.8 0.0 0.0 0 0.0 0.0 1025.0 0.0 10.2 10.2 0.0
02/10/19 23:39 10.2 69 4.8 0.0 0.0 0 0.0 0.0 1025.0 0.0 10.2 10.2 0.0
02/10/19 23:40 10.1 69 4.7 0.0 0.0 0 0.0 0.0 1025.0 0.0 10.2 10.1 0.0
02/10/19 23:41 10.1 69 4.7 0.0 0.0 0 0.0 0.0 1025.0 0.0 10.1 10.1 0.0
02/10/19 23:42 10.1 69 4.7 0.0 0.0 0 0.0 0.0 1025.0 0.0 10.1 10.1 0.0
02/10/19 23:43 10.1 69 4.7 0.0 0.0 0 0.0 0.0 1025.0 0.0 10.1 10.1 0.0
02/10/19 23:44 10.1 70 4.9 0.0 0.0 0 0.0 0.0 1025.0 0.0 10.1 10.1 0.0
02/10/19 23:47 10.1 70 4.9 0.0 0.0 0 0.0 0.0 1025.0 0.0 0.0 10.1 0.0
02/10/19 23:48 10.0 70 4.8 0.0 0.0 0 0.0 0.0 1025.0 0.0 10.1 10.0 0.0
02/10/19 23:49 10.1 70 4.9 0.0 0.0 0 0.0 0.0 1025.0 0.0 10.1 10.1 0.0
02/10/19 23:50 10.0 70 4.8 0.0 0.0 0 0.0 0.0 1025.0 0.0 10.1 10.0 0.0
02/10/19 23:51 10.0 70 4.8 0.0 0.0 0 0.0 0.0 1025.0 0.0 10.0 10.0 0.0
02/10/19 23:52 10.0 70 4.8 0.0 0.0 0 0.0 0.0 1025.0 0.0 10.0 10.0 0.0
02/10/19 23:53 10.0 70 4.8 0.0 0.0 0 0.0 0.0 1025.0 0.0 10.0 10.0 0.0
02/10/19 23:54 9.9 71 4.9 0.0 0.0 0 0.0 0.0 1025.0 0.0 9.9 9.9 0.0
02/10/19 23:55 9.9 71 4.9 0.0 0.0 0 0.0 0.0 1025.0 0.0 9.9 9.9 0.0
02/10/19 23:56 9.9 71 4.9 0.0 0.0 0 0.0 0.0 1025.0 0.0 9.9 9.9 0.0
02/10/19 23:57 9.9 71 4.9 0.0 0.0 0 0.0 0.0 1025.0 0.0 9.9 9.9 0.0
02/10/19 23:58 9.9 71 4.9 0.0 0.0 0 0.0 0.0 1025.0 0.0 9.9 9.9 0.0
02/10/19 23:59 9.9 71 4.9 0.0 0.0 0 0.0 0.0 1025.0 0.0 9.9 9.9 0.0
 
  Back to Top
Date Time Temperature Humidity Dewpoint Wind Speed High Gust Wind Bearing Rainfall Rate Total Rainfall Pressure Gust Wind Chill Heat Index UV Index
03/10/19 00:00 9.9 71 4.9 0.0 0.0 0 0.0 0.0 1025.0 0.0 9.9 9.9 0.0
03/10/19 00:04 9.9 71 4.9 0.0 0.0 0 34.8 0.0 1025.0 0.0 9.9 9.9 0.0
03/10/19 00:05 9.9 71 4.9 0.0 0.0 0 34.8 0.0 1025.0 0.0 9.9 9.9 0.0
03/10/19 00:06 9.9 71 4.9 0.0 0.0 0 34.8 0.0 1025.0 0.0 9.9 9.9 0.0
03/10/19 00:07 10.0 71 5.0 0.0 0.0 0 34.8 0.0 1025.0 0.0 10.0 10.0 0.0
03/10/19 00:08 10.0 71 5.0 0.0 0.0 0 34.8 0.0 1025.0 0.0 10.0 10.0 0.0
03/10/19 00:09 9.9 71 4.9 0.0 0.0 0 34.8 0.0 1025.0 0.0 9.9 9.9 0.0
03/10/19 00:10 9.9 71 4.9 0.0 0.0 0 34.8 0.0 1025.0 0.0 9.9 9.9 0.0
03/10/19 00:11 9.9 71 4.9 0.0 0.0 0 34.8 0.0 1025.0 0.0 9.9 9.9 0.0
03/10/19 00:12 9.9 71 4.9 0.0 0.0 0 34.8 0.0 1025.0 0.0 9.9 9.9 0.0
03/10/19 00:13 9.8 71 4.8 0.0 0.0 0 34.8 0.0 1025.0 0.0 9.8 9.8 0.0
03/10/19 00:14 9.8 72 5.0 0.0 0.0 0 34.8 0.0 1025.0 0.0 9.8 9.8 0.0
03/10/19 00:15 9.8 72 5.0 0.0 0.0 0 34.8 0.0 1025.0 0.0 9.8 9.8 0.0
03/10/19 00:16 9.8 72 5.0 0.0 0.0 0 34.8 0.0 1025.0 0.0 9.8 9.8 0.0
03/10/19 00:17 9.8 72 5.0 0.0 0.0 0 34.8 0.0 1025.0 0.0 9.8 9.8 0.0
03/10/19 00:17 9.7 72 4.9 0.0 0.0 0 34.8 0.0 1025.0 0.0 9.8 9.7 0.0
03/10/19 00:18 9.7 72 4.9 0.0 0.0 0 34.8 0.0 1025.0 0.0 9.7 9.7 0.0
03/10/19 00:19 9.7 72 4.9 0.0 0.0 0 34.8 0.0 1025.0 0.0 9.7 9.7 0.0
03/10/19 00:20 9.6 72 4.8 0.0 0.0 0 34.8 0.0 1025.0 0.0 9.6 9.6 0.0
03/10/19 00:21 9.6 72 4.8 0.0 0.0 0 34.8 0.0 1025.0 0.0 9.6 9.6 0.0
03/10/19 00:22 9.7 72 4.9 0.0 0.0 0 34.8 0.0 1025.0 0.0 9.6 9.7 0.0
03/10/19 00:23 9.7 72 4.9 0.0 0.0 0 34.8 0.0 1025.0 0.0 9.7 9.7 0.0
03/10/19 00:24 9.7 72 4.9 0.0 0.0 0 34.8 0.0 1025.0 0.0 9.7 9.7 0.0
03/10/19 00:25 9.7 72 4.9 0.0 0.0 0 34.8 0.0 1025.0 0.0 9.7 9.7 0.0
03/10/19 00:26 9.6 72 4.8 0.0 0.0 0 34.8 0.0 1025.0 0.0 9.7 9.6 0.0
03/10/19 00:27 9.6 72 4.8 0.0 0.0 0 34.8 0.0 1025.0 0.0 9.6 9.6 0.0
03/10/19 00:28 9.6 72 4.8 0.0 0.0 0 34.8 0.0 1025.0 0.0 9.6 9.6 0.0
03/10/19 00:29 9.6 72 4.8 0.0 0.0 0 34.8 0.0 1025.0 0.0 9.6 9.6 0.0
03/10/19 00:30 9.6 72 4.8 0.0 0.0 0 34.8 0.0 1025.0 0.0 9.6 9.6 0.0
03/10/19 00:32 9.4 72 4.6 0.0 0.0 0 0.0 0.0 1025.0 0.0 0.0 9.4 0.0
03/10/19 00:33 9.4 72 4.6 0.0 0.0 0 0.0 0.0 1025.0 0.0 9.4 9.4 0.0
03/10/19 00:34 9.4 72 4.6 0.0 0.0 0 0.0 0.0 1025.0 0.0 9.4 9.4 0.0
03/10/19 00:35 9.4 72 4.6 0.0 0.0 0 0.0 0.0 1025.0 0.0 9.4 9.4 0.0
03/10/19 00:36 9.4 73 4.8 0.0 0.0 0 0.0 0.0 1025.0 0.0 9.4 9.4 0.0
03/10/19 00:37 9.4 73 4.8 0.0 0.0 0 0.0 0.0 1025.0 0.0 9.4 9.4 0.0
03/10/19 00:38 9.5 73 4.9 0.0 0.0 0 0.0 0.0 1024.0 0.0 9.4 9.5 0.0
03/10/19 00:39 9.5 73 4.9 0.0 0.0 0 0.0 0.0 1024.0 0.0 9.5 9.5 0.0
03/10/19 00:40 9.4 72 4.6 0.0 0.0 0 0.0 0.0 1024.0 0.0 9.4 9.4 0.0
03/10/19 00:41 9.4 73 4.8 0.0 0.0 0 0.0 0.0 1024.0 0.0 9.4 9.4 0.0
03/10/19 00:42 9.4 73 4.8 0.0 0.0 0 0.0 0.0 1024.0 0.0 9.4 9.4 0.0
03/10/19 00:43 9.3 73 4.7 0.0 0.0 0 0.0 0.0 1024.0 0.0 9.4 9.3 0.0
03/10/19 00:44 9.3 73 4.7 0.0 0.0 0 0.0 0.0 1024.0 0.0 9.3 9.3 0.0
03/10/19 00:45 9.3 73 4.7 0.0 0.0 0 0.0 0.0 1024.0 0.0 9.3 9.3 0.0
03/10/19 00:47 9.3 73 4.7 0.0 0.0 0 0.0 0.0 1024.0 0.0 0.0 9.3 0.0
03/10/19 00:48 9.3 73 4.7 0.0 0.0 0 0.0 0.0 1024.0 0.0 9.3 9.3 0.0
03/10/19 00:49 9.3 73 4.7 0.0 0.0 0 0.0 0.0 1024.0 0.0 9.3 9.3 0.0
03/10/19 00:50 9.3 73 4.7 0.0 0.0 0 0.0 0.0 1024.0 0.0 9.3 9.3 0.0
03/10/19 00:51 9.3 73 4.7 0.0 0.0 0 0.0 0.0 1024.0 0.0 9.3 9.3 0.0
03/10/19 00:52 9.2 73 4.6 0.0 0.0 0 0.0 0.0 1024.0 0.0 9.2 9.2 0.0
03/10/19 00:53 9.2 73 4.6 0.0 0.0 0 0.0 0.0 1024.0 0.0 9.2 9.2 0.0
03/10/19 00:54 9.2 73 4.6 0.0 0.0 0 0.0 0.0 1024.0 0.0 9.2 9.2 0.0
03/10/19 00:55 9.2 73 4.6 0.0 0.0 0 0.0 0.0 1024.0 0.0 9.2 9.2 0.0
03/10/19 00:56 9.2 73 4.6 0.0 0.0 0 0.0 0.0 1024.0 0.0 9.2 9.2 0.0
03/10/19 00:57 9.2 73 4.6 0.0 0.0 0 0.0 0.0 1024.0 0.0 9.2 9.2 0.0
03/10/19 00:58 9.1 73 4.5 0.0 0.0 0 0.0 0.0 1024.0 0.0 9.2 9.1 0.0
03/10/19 00:59 9.1 73 4.5 0.0 0.0 0 0.0 0.0 1024.0 0.0 9.1 9.1 0.0
03/10/19 01:00 9.1 74 4.7 0.0 0.0 0 0.0 0.0 1024.0 0.0 9.1 9.1 0.0
03/10/19 01:02 9.1 74 4.7 0.0 0.0 0 0.0 0.0 1024.0 0.0 9.1 9.1 0.0
03/10/19 01:03 9.0 74 4.6 0.0 0.0 0 0.0 0.0 1024.0 0.0 9.1 9.0 0.0
03/10/19 01:04 9.0 74 4.6 0.0 0.0 0 0.0 0.0 1024.0 0.0 9.0 9.0 0.0
03/10/19 01:05 9.0 74 4.6 0.0 0.0 0 0.0 0.0 1024.0 0.0 9.0 9.0 0.0
03/10/19 01:06 9.0 74 4.6 0.0 0.0 0 0.0 0.0 1024.0 0.0 9.0 9.0 0.0
03/10/19 01:07 8.9 74 4.5 0.0 0.0 0 0.0 0.0 1024.0 0.0 9.0 8.9 0.0
03/10/19 01:08 8.9 74 4.5 0.0 0.0 0 0.0 0.0 1026.0 0.0 8.9 8.9 0.0
03/10/19 01:09 8.9 74 4.5 0.0 0.0 0 0.0 0.0 1026.0 0.0 8.9 8.9 0.0
03/10/19 01:10 8.9 74 4.5 0.0 0.0 0 0.0 0.0 1026.0 0.0 8.9 8.9 0.0
03/10/19 01:11 8.8 74 4.4 0.0 0.0 0 0.0 0.0 1026.0 0.0 8.9 8.8 0.0
03/10/19 01:12 8.8 74 4.4 0.0 0.0 0 0.0 0.0 1026.0 0.0 8.8 8.8 0.0
03/10/19 01:13 8.8 75 4.6 0.0 0.0 0 0.0 0.0 1026.0 0.0 8.8 8.8 0.0
03/10/19 01:16 8.8 75 4.6 0.0 0.0 0 34.8 0.0 1025.0 0.0 8.8 8.8 0.0
03/10/19 01:17 8.8 75 4.6 0.0 0.0 0 34.8 0.0 1026.0 0.0 8.8 8.8 0.0
03/10/19 01:17 8.8 75 4.6 0.0 0.0 0 34.8 0.0 1026.0 0.0 8.8 8.8 0.0
03/10/19 01:18 8.8 75 4.6 0.0 0.0 0 34.8 0.0 1026.0 0.0 8.8 8.8 0.0
03/10/19 01:19 8.8 75 4.6 0.0 0.0 0 34.8 0.0 1026.0 0.0 8.8 8.8 0.0
03/10/19 01:20 8.8 75 4.6 0.0 0.0 0 34.8 0.0 1026.0 0.0 8.8 8.8 0.0
03/10/19 01:21 8.8 75 4.6 0.0 0.0 0 34.8 0.0 1026.0 0.0 8.8 8.8 0.0
03/10/19 01:22 8.8 75 4.6 0.0 0.0 0 34.8 0.0 1026.0 0.0 8.8 8.8 0.0
03/10/19 01:23 8.8 75 4.6 0.0 0.0 0 34.8 0.0 1025.0 0.0 8.8 8.8 0.0
03/10/19 01:24 8.8 75 4.6 0.0 0.0 0 34.8 0.0 1025.0 0.0 8.8 8.8 0.0
03/10/19 01:25 8.7 75 4.5 0.0 0.0 0 34.8 0.0 1025.0 0.0 8.8 8.7 0.0
03/10/19 01:26 8.7 75 4.5 0.0 0.0 0 34.8 0.0 1025.0 0.0 8.7 8.7 0.0
03/10/19 01:27 8.7 75 4.5 0.0 0.0 0 34.8 0.0 1025.0 0.0 8.7 8.7 0.0
03/10/19 01:28 8.7 75 4.5 0.0 0.0 0 34.8 0.0 1025.0 0.0 8.7 8.7 0.0
03/10/19 01:29 8.7 75 4.5 0.0 0.0 0 34.8 0.0 1025.0 0.0 8.7 8.7 0.0
03/10/19 01:30 8.7 75 4.5 0.0 0.0 0 34.8 0.0 1025.0 0.0 8.7 8.7 0.0
03/10/19 01:32 8.7 75 4.5 0.0 0.0 0 0.0 0.0 1025.0 0.0 0.0 8.7 0.0
03/10/19 01:33 8.6 75 4.4 0.0 0.0 0 0.0 0.0 1025.0 0.0 8.7 8.6 0.0
03/10/19 01:34 8.6 75 4.4 0.0 0.0 0 0.0 0.0 1025.0 0.0 8.6 8.6 0.0
03/10/19 01:35 8.6 75 4.4 0.0 0.0 0 0.0 0.0 1025.0 0.0 8.6 8.6 0.0
03/10/19 01:36 8.5 75 4.3 0.0 0.0 0 0.0 0.0 1025.0 0.0 8.5 8.5 0.0
03/10/19 01:37 8.5 75 4.3 0.0 0.0 0 0.0 0.0 1025.0 0.0 8.5 8.5 0.0
03/10/19 01:38 8.5 76 4.5 0.0 0.0 0 0.0 0.0 1025.0 0.0 8.5 8.5 0.0
03/10/19 01:39 8.4 76 4.4 0.0 0.0 0 0.0 0.0 1025.0 0.0 8.5 8.4 0.0
03/10/19 01:40 8.4 76 4.4 0.0 0.0 0 0.0 0.0 1025.0 0.0 8.4 8.4 0.0
03/10/19 01:41 8.4 76 4.4 0.0 0.0 0 0.0 0.0 1025.0 0.0 8.4 8.4 0.0
03/10/19 01:42 8.4 76 4.4 0.0 0.0 0 0.0 0.0 1025.0 0.0 8.4 8.4 0.0
03/10/19 01:43 8.3 76 4.3 0.0 0.0 0 0.0 0.0 1025.0 0.0 8.4 8.3 0.0
03/10/19 01:44 8.3 76 4.3 0.0 0.0 0 0.0 0.0 1025.0 0.0 8.3 8.3 0.0
03/10/19 01:47 8.2 76 4.2 0.0 0.0 0 0.0 0.0 1025.0 0.0 8.2 8.2 0.0
03/10/19 01:48 8.2 76 4.2 0.0 0.0 0 0.0 0.0 1025.0 0.0 8.2 8.2 0.0
03/10/19 01:49 8.1 76 4.1 0.0 0.0 0 0.0 0.0 1025.0 0.0 8.2 8.1 0.0
03/10/19 01:50 8.1 76 4.1 0.0 0.0 0 0.0 0.0 1025.0 0.0 8.1 8.1 0.0
03/10/19 01:51 8.1 76 4.1 0.0 0.0 0 0.0 0.0 1025.0 0.0 8.1 8.1 0.0
03/10/19 01:52 8.1 76 4.1 0.0 0.0 0 0.0 0.0 1025.0 0.0 8.1 8.1 0.0
03/10/19 01:53 8.1 76 4.1 0.0 0.0 0 0.0 0.0 1025.0 0.0 8.1 8.1 0.0
03/10/19 01:54 8.1 76 4.1 0.0 0.0 0 0.0 0.0 1025.0 0.0 8.1 8.1 0.0
03/10/19 01:55 8.1 76 4.1 0.0 0.0 0 0.0 0.0 1025.0 0.0 8.1 8.1 0.0
03/10/19 01:56 8.1 76 4.1 0.0 0.0 0 0.0 0.0 1025.0 0.0 8.1 8.1 0.0
03/10/19 01:57 8.1 77 4.3 0.0 0.0 0 0.0 0.0 1025.0 0.0 8.1 8.1 0.0
03/10/19 01:58 8.2 77 4.4 0.0 0.0 0 0.0 0.0 1025.0 0.0 8.1 8.2 0.0
03/10/19 01:59 8.2 77 4.4 0.0 0.0 0 0.0 0.0 1025.0 0.0 8.2 8.2 0.0
03/10/19 02:00 8.2 77 4.4 0.0 0.0 0 0.0 0.0 1025.0 0.0 8.2 8.2 0.0
03/10/19 02:02 8.3 77 4.5 0.0 0.0 0 0.0 0.0 1025.0 0.0 0.0 8.3 0.0
03/10/19 02:03 8.3 77 4.5 0.0 0.0 0 0.0 0.0 1025.0 0.0 8.3 8.3 0.0
03/10/19 02:04 8.3 77 4.5 0.0 0.0 0 0.0 0.0 1025.0 0.0 8.3 8.3 0.0
03/10/19 02:05 8.3 77 4.5 0.0 0.0 0 0.0 0.0 1025.0 0.0 8.3 8.3 0.0
03/10/19 02:06 8.3 77 4.5 0.0 0.0 0 0.0 0.0 1025.0 0.0 8.3 8.3 0.0
03/10/19 02:07 8.3 77 4.5 0.0 0.0 0 0.0 0.0 1025.0 0.0 8.3 8.3 0.0
03/10/19 02:08 8.3 77 4.5 0.0 0.0 0 0.0 0.0 1024.0 0.0 8.3 8.3 0.0
03/10/19 02:09 8.3 77 4.5 0.0 0.0 0 0.0 0.0 1024.0 0.0 8.3 8.3 0.0
03/10/19 02:10 8.2 77 4.4 0.0 0.0 0 0.0 0.0 1024.0 0.0 8.3 8.2 0.0
03/10/19 02:11 8.2 77 4.4 0.0 0.0 0 0.0 0.0 1024.0 0.0 8.2 8.2 0.0
03/10/19 02:12 8.3 77 4.5 0.0 0.0 0 0.0 0.0 1024.0 0.0 8.2 8.3 0.0
03/10/19 02:13 8.3 77 4.5 0.0 0.0 0 0.0 0.0 1024.0 0.0 8.3 8.3 0.0
03/10/19 02:14 8.3 77 4.5 0.0 0.0 0 0.0 0.0 1024.0 0.0 8.3 8.3 0.0
03/10/19 02:17 8.1 77 4.3 0.0 0.0 0 0.0 0.0 1024.0 0.0 0.0 8.1 0.0
03/10/19 02:18 8.1 77 4.3 0.0 0.0 0 0.0 0.0 1024.0 0.0 8.1 8.1 0.0
03/10/19 02:19 8.1 77 4.3 0.0 0.0 0 0.0 0.0 1024.0 0.0 8.1 8.1 0.0
03/10/19 02:20 8.0 77 4.2 0.0 0.0 0 0.0 0.0 1024.0 0.0 8.1 8.0 0.0
03/10/19 02:21 8.0 77 4.2 0.0 0.0 0 0.0 0.0 1024.0 0.0 8.0 8.0 0.0
03/10/19 02:22 8.0 77 4.2 0.0 0.0 0 0.0 0.0 1024.0 0.0 8.0 8.0 0.0
03/10/19 02:23 7.9 78 4.3 0.0 0.0 0 0.0 0.0 1024.0 0.0 8.0 7.9 0.0
03/10/19 02:24 7.9 78 4.3 0.0 0.0 0 0.0 0.0 1024.0 0.0 7.9 7.9 0.0
03/10/19 02:25 7.9 78 4.3 0.0 0.0 0 0.0 0.0 1024.0 0.0 7.9 7.9 0.0
03/10/19 02:26 7.9 78 4.3 0.0 0.0 0 0.0 0.0 1024.0 0.0 7.9 7.9 0.0
03/10/19 02:27 7.9 78 4.3 0.0 0.0 0 0.0 0.0 1024.0 0.0 7.9 7.9 0.0
03/10/19 02:28 7.9 78 4.3 0.0 0.0 0 0.0 0.0 1024.0 0.0 7.9 7.9 0.0
03/10/19 02:32 7.8 78 4.2 0.0 0.0 0 34.8 0.0 1024.0 0.0 7.8 7.8 0.0
03/10/19 02:32 7.8 78 4.2 0.0 0.0 0 34.8 0.0 1024.0 0.0 7.8 7.8 0.0
03/10/19 02:33 7.8 78 4.2 0.0 0.0 0 34.8 0.0 1024.0 0.0 7.8 7.8 0.0
03/10/19 02:34 7.8 78 4.2 0.0 0.0 0 34.8 0.0 1024.0 0.0 7.8 7.8 0.0
03/10/19 02:35 7.8 78 4.2 0.0 0.0 0 34.8 0.0 1024.0 0.0 7.8 7.8 0.0
03/10/19 02:36 7.7 78 4.1 0.0 0.0 0 34.8 0.0 1024.0 0.0 7.7 7.7 0.0
03/10/19 02:37 7.7 78 4.1 0.0 0.0 0 34.8 0.0 1024.0 0.0 7.7 7.7 0.0
03/10/19 02:38 7.7 78 4.1 0.0 0.0 0 34.8 0.0 1025.0 0.0 7.7 7.7 0.0
03/10/19 02:39 7.7 79 4.3 0.0 0.0 0 34.8 0.0 1025.0 0.0 7.7 7.7 0.0
03/10/19 02:40 7.7 79 4.3 0.0 0.0 0 34.8 0.0 1025.0 0.0 7.7 7.7 0.0
03/10/19 02:41 7.6 79 4.2 0.0 0.0 0 34.8 0.0 1025.0 0.0 7.6 7.6 0.0
03/10/19 02:42 7.6 79 4.2 0.0 0.0 0 34.8 0.0 1025.0 0.0 7.6 7.6 0.0
03/10/19 02:43 7.6 79 4.2 0.0 0.0 0 34.8 0.0 1025.0 0.0 7.6 7.6 0.0
03/10/19 02:44 7.6 79 4.2 0.0 0.0 0 34.8 0.0 1025.0 0.0 7.6 7.6 0.0
03/10/19 02:45 7.5 79 4.1 0.0 0.0 0 34.8 0.0 1025.0 0.0 7.5 7.5 0.0
03/10/19 02:47 7.5 78 3.9 0.0 0.0 0 0.0 0.0 1025.0 0.0 0.0 7.5 0.0
03/10/19 02:48 7.5 78 3.9 0.0 0.0 0 0.0 0.0 1025.0 0.0 7.5 7.5 0.0
03/10/19 02:49 7.4 78 3.8 0.0 0.0 0 0.0 0.0 1025.0 0.0 7.5 7.4 0.0
03/10/19 02:50 7.4 78 3.8 0.0 0.0 0 0.0 0.0 1025.0 0.0 7.4 7.4 0.0
03/10/19 02:51 7.4 79 4.0 0.0 0.0 0 0.0 0.0 1025.0 0.0 7.4 7.4 0.0
03/10/19 02:52 7.4 79 4.0 0.0 0.0 0 0.0 0.0 1025.0 0.0 7.4 7.4 0.0
03/10/19 02:53 7.4 79 4.0 0.0 0.0 0 0.0 0.0 1024.0 0.0 7.4 7.4 0.0
03/10/19 02:54 7.4 79 4.0 0.0 0.0 0 0.0 0.0 1024.0 0.0 7.4 7.4 0.0
03/10/19 02:55 7.4 79 4.0 0.0 0.0 0 0.0 0.0 1024.0 0.0 7.4 7.4 0.0
03/10/19 02:56 7.4 79 4.0 0.0 0.0 0 0.0 0.0 1024.0 0.0 7.4 7.4 0.0
03/10/19 02:57 7.4 79 4.0 0.0 0.0 0 0.0 0.0 1024.0 0.0 7.4 7.4 0.0
03/10/19 02:58 7.4 79 4.0 0.0 0.0 0 0.0 0.0 1024.0 0.0 7.4 7.4 0.0
03/10/19 02:59 7.4 79 4.0 0.0 0.0 0 0.0 0.0 1024.0 0.0 7.4 7.4 0.0
03/10/19 03:00 7.4 79 4.0 0.0 0.0 0 0.0 0.0 1024.0 0.0 7.4 7.4 0.0
03/10/19 03:02 7.4 80 4.2 0.0 0.0 0 0.0 0.0 1024.0 0.0 0.0 7.4 0.0
03/10/19 03:03 7.4 79 4.0 0.0 0.0 0 0.0 0.0 1024.0 0.0 7.4 7.4 0.0
03/10/19 03:04 7.4 79 4.0 0.0 0.0 0 0.0 0.0 1024.0 0.0 7.4 7.4 0.0
03/10/19 03:05 7.4 79 4.0 0.0 0.0 0 0.0 0.0 1024.0 0.0 7.4 7.4 0.0
03/10/19 03:06 7.4 79 4.0 0.0 0.0 0 0.0 0.0 1024.0 0.0 7.4 7.4 0.0
03/10/19 03:07 7.3 79 3.9 0.0 0.0 0 0.0 0.0 1024.0 0.0 7.3 7.3 0.0
03/10/19 03:08 7.4 80 4.2 0.0 0.0 0 0.0 0.0 1024.0 0.0 7.4 7.4 0.0
03/10/19 03:09 7.4 80 4.2 0.0 0.0 0 0.0 0.0 1024.0 0.0 7.4 7.4 0.0
03/10/19 03:10 7.3 80 4.1 0.0 0.0 0 0.0 0.0 1024.0 0.0 7.4 7.3 0.0
03/10/19 03:11 7.3 79 3.9 0.0 0.0 0 0.0 0.0 1024.0 0.0 7.3 7.3 0.0
03/10/19 03:12 7.3 79 3.9 0.0 0.0 0 0.0 0.0 1024.0 0.0 7.3 7.3 0.0
03/10/19 03:13 7.3 79 3.9 0.0 0.0 0 0.0 0.0 1024.0 0.0 7.3 7.3 0.0
03/10/19 03:14 7.3 80 4.1 0.0 0.0 0 0.0 0.0 1024.0 0.0 7.3 7.3 0.0
03/10/19 03:15 7.3 79 3.9 0.0 0.0 0 0.0 0.0 1024.0 0.0 7.3 7.3 0.0
03/10/19 03:17 7.3 79 3.9 0.0 0.0 0 0.0 0.0 1024.0 0.0 0.0 7.3 0.0
03/10/19 03:18 7.3 79 3.9 0.0 0.0 0 0.0 0.0 1024.0 0.0 7.3 7.3 0.0
03/10/19 03:19 7.3 79 3.9 0.0 0.0 0 0.0 0.0 1024.0 0.0 7.3 7.3 0.0
03/10/19 03:20 7.2 79 3.8 0.0 0.0 0 0.0 0.0 1024.0 0.0 7.2 7.2 0.0
03/10/19 03:21 7.2 79 3.8 0.0 0.0 0 0.0 0.0 1024.0 0.0 7.2 7.2 0.0
03/10/19 03:22 7.2 79 3.8 0.0 0.0 0 0.0 0.0 1024.0 0.0 7.2 7.2 0.0
03/10/19 03:23 7.2 79 3.8 0.0 0.0 0 0.0 0.0 1024.0 0.0 7.2 7.2 0.0
03/10/19 03:24 7.1 79 3.7 0.0 0.0 0 0.0 0.0 1024.0 0.0 7.2 7.1 0.0
03/10/19 03:25 7.1 79 3.7 0.0 0.0 0 0.0 0.0 1024.0 0.0 7.1 7.1 0.0
03/10/19 03:26 7.1 80 3.9 0.0 0.0 0 0.0 0.0 1024.0 0.0 7.1 7.1 0.0
03/10/19 03:27 7.2 80 4.0 0.0 0.0 0 0.0 0.0 1024.0 0.0 7.2 7.2 0.0
03/10/19 03:28 7.2 80 4.0 0.0 0.0 0 0.0 0.0 1024.0 0.0 7.2 7.2 0.0
03/10/19 03:29 7.3 80 4.1 0.0 0.0 0 0.0 0.0 1024.0 0.0 7.3 7.3 0.0
03/10/19 03:30 7.3 80 4.1 0.0 0.0 0 0.0 0.0 1024.0 0.0 7.3 7.3 0.0
03/10/19 03:32 7.2 80 4.0 0.0 0.0 0 0.0 0.0 1024.0 0.0 7.2 7.2 0.0
03/10/19 03:33 7.2 80 4.0 0.0 0.0 0 0.0 0.0 1024.0 0.0 7.2 7.2 0.0
03/10/19 03:34 7.2 80 4.0 0.0 0.0 0 0.0 0.0 1024.0 0.0 7.2 7.2 0.0
03/10/19 03:35 7.2 80 4.0 0.0 0.0 0 0.0 0.0 1024.0 0.0 7.2 7.2 0.0
03/10/19 03:36 7.2 80 4.0 0.0 0.0 0 0.0 0.0 1024.0 0.0 7.2 7.2 0.0
03/10/19 03:37 7.2 80 4.0 0.0 0.0 0 0.0 0.0 1024.0 0.0 7.2 7.2 0.0
03/10/19 03:38 7.2 80 4.0 0.0 0.0 0 0.0 0.0 1025.0 0.0 7.2 7.2 0.0
03/10/19 03:39 7.2 80 4.0 0.0 0.0 0 0.0 0.0 1025.0 0.0 7.2 7.2 0.0
03/10/19 03:40 7.3 80 4.1 0.0 0.0 0 0.0 0.0 1025.0 0.0 7.2 7.3 0.0
03/10/19 03:41 7.3 80 4.1 0.0 0.0 0 0.0 0.0 1025.0 0.0 7.3 7.3 0.0
03/10/19 03:42 7.2 80 4.0 0.0 0.0 0 0.0 0.0 1025.0 0.0 7.3 7.2 0.0
03/10/19 03:43 7.2 80 4.0 0.0 0.0 0 0.0 0.0 1025.0 0.0 7.2 7.2 0.0
03/10/19 03:44 7.2 79 3.8 0.0 0.0 0 0.0 0.0 1025.0 0.0 7.2 7.2 0.0
03/10/19 03:47 7.0 79 3.6 0.0 0.0 0 0.0 0.0 1025.0 0.0 7.0 7.0 0.0
03/10/19 03:48 7.0 79 3.6 0.0 0.0 0 0.0 0.0 1025.0 0.0 7.0 7.0 0.0
03/10/19 03:49 7.0 79 3.6 0.0 0.0 0 0.0 0.0 1025.0 0.0 7.0 7.0 0.0
03/10/19 03:50 6.9 80 3.7 0.0 0.0 0 0.0 0.0 1025.0 0.0 6.9 6.9 0.0
03/10/19 03:51 6.9 80 3.7 0.0 0.0 0 0.0 0.0 1025.0 0.0 6.9 6.9 0.0
03/10/19 03:52 6.8 80 3.6 0.0 0.0 0 0.0 0.0 1025.0 0.0 6.8 6.8 0.0
03/10/19 03:53 6.8 80 3.6 0.0 0.0 0 0.0 0.0 1024.0 0.0 6.8 6.8 0.0
03/10/19 03:54 6.8 80 3.6 0.0 0.0 0 0.0 0.0 1024.0 0.0 6.8 6.8 0.0
03/10/19 03:55 6.8 80 3.6 0.0 0.0 0 0.0 0.0 1024.0 0.0 6.8 6.8 0.0
03/10/19 03:56 6.7 80 3.5 0.0 0.0 0 0.0 0.0 1024.0 0.0 6.7 6.7 0.0
03/10/19 03:57 6.7 80 3.5 0.0 0.0 0 0.0 0.0 1024.0 0.0 6.7 6.7 0.0
03/10/19 03:58 6.7 80 3.5 0.0 0.0 0 0.0 0.0 1024.0 0.0 6.7 6.7 0.0
03/10/19 03:59 6.6 80 3.4 0.0 0.0 0 0.0 0.0 1024.0 0.0 6.6 6.6 0.0
03/10/19 04:00 6.5 80 3.3 0.0 0.0 0 0.0 0.0 1024.0 0.0 6.5 6.5 0.0
03/10/19 04:02 6.3 79 2.9 0.0 0.0 0 0.0 0.0 1024.0 0.0 6.4 6.3 0.0
03/10/19 04:03 6.2 79 2.8 0.0 0.0 0 0.0 0.0 1024.0 0.0 6.3 6.2 0.0
03/10/19 04:04 6.1 79 2.7 0.0 0.0 0 0.0 0.0 1024.0 0.0 6.1 6.1 0.0
03/10/19 04:05 6.1 79 2.7 0.0 0.0 0 0.0 0.0 1024.0 0.0 6.1 6.1 0.0
03/10/19 04:06 6.0 79 2.6 0.0 0.0 0 0.0 0.0 1024.0 0.0 6.0 6.0 0.0
03/10/19 04:07 6.0 79 2.6 0.0 0.0 0 0.0 0.0 1024.0 0.0 6.0 6.0 0.0
03/10/19 04:08 6.0 79 2.6 0.0 0.0 0 0.0 0.0 1024.0 0.0 6.0 6.0 0.0
03/10/19 04:09 5.9 80 2.7 0.0 0.0 0 0.0 0.0 1024.0 0.0 5.9 5.9 0.0
03/10/19 04:10 5.9 80 2.7 0.0 0.0 0 0.0 0.0 1024.0 0.0 5.9 5.9 0.0
03/10/19 04:11 5.9 80 2.7 0.0 0.0 0 0.0 0.0 1024.0 0.0 5.9 5.9 0.0
03/10/19 04:12 5.9 81 2.9 0.0 0.0 0 0.0 0.0 1024.0 0.0 5.9 5.9 0.0
03/10/19 04:13 5.9 81 2.9 0.0 0.0 0 0.0 0.0 1024.0 0.0 5.9 5.9 0.0
03/10/19 04:14 6.0 81 3.0 0.0 0.0 0 0.0 0.0 1024.0 0.0 6.0 6.0 0.0
03/10/19 04:17 6.1 82 3.3 0.0 0.0 0 0.0 0.0 1024.0 0.0 6.0 6.1 0.0
03/10/19 04:18 6.1 82 3.3 0.0 0.0 0 0.0 0.0 1024.0 0.0 6.1 6.1 0.0
03/10/19 04:19 6.1 82 3.3 0.0 0.0 0 0.0 0.0 1024.0 0.0 6.1 6.1 0.0
03/10/19 04:20 6.1 82 3.3 0.0 0.0 0 0.0 0.0 1024.0 0.0 6.1 6.1 0.0
03/10/19 04:21 6.1 82 3.3 0.0 0.0 0 0.0 0.0 1024.0 0.0 6.1 6.1 0.0
03/10/19 04:22 6.1 83 3.4 0.0 0.0 0 0.0 0.0 1024.0 0.0 6.1 6.1 0.0
03/10/19 04:23 6.2 83 3.5 0.0 0.0 0 0.0 0.0 1024.0 0.0 6.2 6.2 0.0
03/10/19 04:24 6.1 83 3.4 0.0 0.0 0 0.0 0.0 1024.0 0.0 6.1 6.1 0.0
03/10/19 04:25 6.1 83 3.4 0.0 0.0 0 0.0 0.0 1024.0 0.0 6.1 6.1 0.0
03/10/19 04:26 6.1 83 3.4 0.0 0.0 0 0.0 0.0 1024.0 0.0 6.1 6.1 0.0
03/10/19 04:27 6.1 83 3.4 0.0 0.0 0 0.0 0.0 1024.0 0.0 6.1 6.1 0.0
03/10/19 04:28 6.1 83 3.4 0.0 0.0 0 0.0 0.0 1024.0 0.0 6.1 6.1 0.0
03/10/19 04:29 6.1 83 3.4 0.0 0.0 0 0.0 0.0 1024.0 0.0 6.1 6.1 0.0
03/10/19 04:30 6.2 83 3.5 0.0 0.0 0 0.0 0.0 1024.0 0.0 6.2 6.2 0.0
03/10/19 04:32 6.2 84 3.7 0.0 0.0 0 0.0 0.0 1024.0 0.0 6.2 6.2 0.0
03/10/19 04:33 6.2 84 3.7 0.0 0.0 0 0.0 0.0 1024.0 0.0 6.2 6.2 0.0
03/10/19 04:34 6.2 84 3.7 0.0 0.0 0 0.0 0.0 1024.0 0.0 6.2 6.2 0.0
03/10/19 04:35 6.3 84 3.8 0.0 0.0 0 0.0 0.0 1024.0 0.0 6.3 6.3 0.0
03/10/19 04:36 6.3 84 3.8 0.0 0.0 0 0.0 0.0 1024.0 0.0 6.3 6.3 0.0
03/10/19 04:37 6.3 84 3.8 0.0 0.0 0 0.0 0.0 1024.0 0.0 6.3 6.3 0.0
03/10/19 04:38 6.3 84 3.8 0.0 0.0 0 0.0 0.0 1024.0 0.0 6.3 6.3 0.0
03/10/19 04:39 6.3 84 3.8 0.0 0.0 0 0.0 0.0 1024.0 0.0 6.3 6.3 0.0
03/10/19 04:40 6.3 84 3.8 0.0 0.0 0 0.0 0.0 1024.0 0.0 6.3 6.3 0.0
03/10/19 04:41 6.4 84 3.9 0.0 0.0 0 0.0 0.0 1024.0 0.0 6.4 6.4 0.0
03/10/19 04:42 6.4 84 3.9 0.0 0.0 0 0.0 0.0 1024.0 0.0 6.4 6.4 0.0
03/10/19 04:43 6.4 84 3.9 0.0 0.0 0 0.0 0.0 1024.0 0.0 6.4 6.4 0.0
03/10/19 04:44 6.5 84 4.0 0.0 0.0 0 0.0 0.0 1024.0 0.0 6.5 6.5 0.0
03/10/19 04:47 6.5 84 4.0 0.0 0.0 0 0.0 0.0 1024.0 0.0 6.5 6.5 0.0
03/10/19 04:48 6.6 84 4.1 0.0 0.0 0 0.0 0.0 1024.0 0.0 6.5 6.6 0.0
03/10/19 04:49 6.6 84 4.1 0.0 0.0 0 0.0 0.0 1024.0 0.0 6.6 6.6 0.0
03/10/19 04:50 6.6 84 4.1 0.0 0.0 0 0.0 0.0 1024.0 0.0 6.6 6.6 0.0
03/10/19 04:51 6.6 84 4.1 0.0 0.0 0 0.0 0.0 1024.0 0.0 6.6 6.6 0.0
03/10/19 04:52 6.6 84 4.1 0.0 0.0 0 0.0 0.0 1024.0 0.0 6.6 6.6 0.0
03/10/19 04:53 6.6 84 4.1 0.0 0.0 0 0.0 0.0 1025.0 0.0 6.6 6.6 0.0
03/10/19 04:54 6.6 84 4.1 0.0 0.0 0 0.0 0.0 1025.0 0.0 6.6 6.6 0.0
03/10/19 04:55 6.6 84 4.1 0.0 0.0 0 0.0 0.0 1025.0 0.0 6.6 6.6 0.0
03/10/19 04:56 6.6 84 4.1 0.0 0.0 0 0.0 0.0 1025.0 0.0 6.6 6.6 0.0
03/10/19 04:57 6.6 84 4.1 0.0 0.0 0 0.0 0.0 1025.0 0.0 6.6 6.6 0.0
03/10/19 04:58 6.6 84 4.1 0.0 0.0 0 0.0 0.0 1025.0 0.0 6.6 6.6 0.0
03/10/19 04:59 6.7 84 4.2 0.0 0.0 0 0.0 0.0 1025.0 0.0 6.7 6.7 0.0
03/10/19 05:02 6.9 83 4.2 0.0 0.0 0 0.0 0.0 1025.0 0.0 6.8 6.9 0.0
03/10/19 05:03 7.1 83 4.4 0.0 0.0 0 0.0 0.0 1025.0 0.0 7.1 7.1 0.0
03/10/19 05:04 7.3 82 4.4 0.0 0.0 0 0.0 0.0 1025.0 0.0 7.3 7.3 0.0
03/10/19 05:05 7.4 82 4.5 0.0 0.0 0 0.0 0.0 1025.0 0.0 7.4 7.4 0.0
03/10/19 05:06 7.5 81 4.4 0.0 0.0 0 0.0 0.0 1025.0 0.0 7.4 7.5 0.0
03/10/19 05:07 7.7 81 4.6 0.0 0.0 0 0.0 0.0 1025.0 0.0 7.7 7.7 0.0
03/10/19 05:08 7.8 81 4.7 0.0 0.0 0 0.0 0.0 1025.0 0.0 7.8 7.8 0.0
03/10/19 05:09 7.8 80 4.6 0.0 0.0 0 0.0 0.0 1025.0 0.0 7.8 7.8 0.0
03/10/19 05:10 8.0 79 4.6 0.0 0.0 0 0.0 0.0 1025.0 0.0 8.0 8.0 0.0
03/10/19 05:11 8.1 78 4.5 0.0 0.0 0 0.0 0.0 1025.0 0.0 8.1 8.1 0.0
03/10/19 05:12 8.2 78 4.6 0.0 0.0 0 0.0 0.0 1025.0 0.0 8.2 8.2 0.0
03/10/19 05:13 8.3 78 4.7 0.0 0.0 0 0.0 0.0 1025.0 0.0 8.3 8.3 0.0
03/10/19 05:14 8.4 77 4.6 0.0 0.0 0 0.0 0.0 1025.0 0.0 8.4 8.4 0.0
03/10/19 05:15 8.4 77 4.6 0.0 0.0 0 0.0 0.0 1025.0 0.0 8.4 8.4 0.0
03/10/19 05:17 8.6 76 4.6 0.0 0.0 0 0.0 0.0 1025.0 0.0 8.5 8.6 0.0
03/10/19 05:18 8.6 76 4.6 0.0 0.0 0 0.0 0.0 1025.0 0.0 8.6 8.6 0.0
03/10/19 05:19 8.7 75 4.5 0.0 0.0 0 0.0 0.0 1025.0 0.0 8.7 8.7 0.0
03/10/19 05:20 8.7 75 4.5 0.0 0.0 0 0.0 0.0 1025.0 0.0 8.7 8.7 0.0
03/10/19 05:21 8.7 75 4.5 0.0 0.0 0 0.0 0.0 1025.0 0.0 8.7 8.7 0.0
03/10/19 05:22 8.8 75 4.6 0.0 0.0 0 0.0 0.0 1025.0 0.0 8.8 8.8 0.0
03/10/19 05:23 8.8 74 4.4 0.0 0.0 0 0.0 0.0 1025.0 0.0 8.8 8.8 0.0
03/10/19 05:24 8.9 74 4.5 0.0 0.0 0 0.0 0.0 1025.0 0.0 8.9 8.9 0.0
03/10/19 05:25 8.9 74 4.5 0.0 0.0 0 0.0 0.0 1025.0 0.0 8.9 8.9 0.0
03/10/19 05:26 9.0 73 4.4 0.0 0.0 0 0.0 0.0 1025.0 0.0 9.0 9.0 0.0
03/10/19 05:27 9.0 73 4.4 0.0 0.0 0 0.0 0.0 1025.0 0.0 9.0 9.0 0.0
03/10/19 05:28 9.0 73 4.4 0.0 0.0 0 0.0 0.0 1025.0 0.0 9.0 9.0 0.0
03/10/19 05:29 9.1 72 4.3 0.0 0.0 0 0.0 0.0 1025.0 0.0 9.1 9.1 0.0
03/10/19 05:30 9.1 72 4.3 0.0 0.0 0 0.0 0.0 1025.0 0.0 9.1 9.1 0.0
03/10/19 05:32 9.2 72 4.4 0.0 0.0 0 0.0 0.0 1025.0 0.0 9.1 9.2 0.0
03/10/19 05:33 9.2 71 4.2 0.0 0.0 0 0.0 0.0 1025.0 0.0 9.2 9.2 0.0
03/10/19 05:34 9.2 71 4.2 0.0 0.0 0 0.0 0.0 1025.0 0.0 9.2 9.2 0.0
03/10/19 05:35 9.2 71 4.2 0.0 0.0 0 0.0 0.0 1025.0 0.0 9.2 9.2 0.0
03/10/19 05:36 9.3 71 4.3 0.0 0.0 0 0.0 0.0 1025.0 0.0 9.3 9.3 0.0
03/10/19 05:37 9.3 71 4.3 0.0 0.0 0 0.0 0.0 1025.0 0.0 9.3 9.3 0.0
03/10/19 05:38 9.3 71 4.3 0.0 0.0 0 0.0 0.0 1025.0 0.0 9.3 9.3 0.0
03/10/19 05:39 9.3 70 4.1 0.0 0.0 0 0.0 0.0 1025.0 0.0 9.3 9.3 0.0
03/10/19 05:40 9.3 70 4.1 0.0 0.0 0 0.0 0.0 1025.0 0.0 9.3 9.3 0.0
03/10/19 05:41 9.4 70 4.2 0.0 0.0 0 0.0 0.0 1025.0 0.0 9.3 9.4 0.0
03/10/19 05:42 9.4 70 4.2 0.0 0.0 0 0.0 0.0 1025.0 0.0 9.4 9.4 0.0
03/10/19 05:43 9.4 70 4.2 0.0 0.0 0 0.0 0.0 1025.0 0.0 9.4 9.4 0.0
03/10/19 05:44 9.4 69 4.0 0.0 0.0 0 0.0 0.0 1025.0 0.0 9.4 9.4 0.0
03/10/19 05:47 9.4 69 4.0 0.0 0.0 0 34.8 0.0 1024.0 0.0 9.4 9.4 0.0
03/10/19 05:46 9.4 69 4.0 0.0 0.0 0 34.8 0.0 1024.0 0.0 9.4 9.4 0.0
03/10/19 05:47 9.4 69 4.0 0.0 0.0 0 34.8 0.0 1025.0 0.0 9.4 9.4 0.0
03/10/19 05:48 9.5 69 4.1 0.0 0.0 0 34.8 0.0 1025.0 0.0 9.4 9.5 0.0
03/10/19 05:49 9.5 69 4.1 0.0 0.0 0 34.8 0.0 1025.0 0.0 9.5 9.5 0.0
03/10/19 05:50 9.5 69 4.1 0.0 0.0 0 34.8 0.0 1025.0 0.0 9.5 9.5 0.0
03/10/19 05:51 9.5 69 4.1 0.0 0.0 0 34.8 0.0 1025.0 0.0 9.5 9.5 0.0
03/10/19 05:52 9.5 68 3.9 0.0 0.0 0 34.8 0.0 1025.0 0.0 9.5 9.5 0.0
03/10/19 05:53 9.5 68 3.9 0.0 0.0 0 34.8 0.0 1025.0 0.0 9.5 9.5 0.0
03/10/19 05:54 9.5 68 3.9 0.0 0.0 0 34.8 0.0 1025.0 0.0 9.5 9.5 0.0
03/10/19 05:55 9.6 68 4.0 0.0 0.0 0 34.8 0.0 1025.0 0.0 9.5 9.6 0.0
03/10/19 05:56 9.6 68 4.0 0.0 0.0 0 34.8 0.0 1025.0 0.0 9.6 9.6 0.0
03/10/19 05:57 9.6 68 4.0 0.0 0.0 0 34.8 0.0 1025.0 0.0 9.6 9.6 0.0
03/10/19 05:58 9.6 68 4.0 0.0 0.0 0 34.8 0.0 1025.0 0.0 9.6 9.6 0.0
03/10/19 05:59 9.6 68 4.0 0.0 0.0 0 34.8 0.0 1025.0 0.0 9.6 9.6 0.0
03/10/19 06:00 9.7 68 4.1 0.0 0.0 0 34.8 0.0 1025.0 0.0 9.7 9.7 0.0
03/10/19 06:02 9.7 68 4.1 0.0 0.0 0 0.0 0.0 1025.0 0.0 9.7 9.7 0.0
03/10/19 06:03 9.9 67 4.1 0.0 0.0 0 0.0 0.0 1025.0 0.0 9.9 9.9 0.0
03/10/19 06:04 10.0 67 4.1 0.0 0.0 0 0.0 0.0 1025.0 0.0 10.0 10.0 0.0
03/10/19 06:05 10.1 67 4.2 0.0 0.0 0 0.0 0.0 1025.0 0.0 10.1 10.1 0.0
03/10/19 06:06 10.1 67 4.2 0.0 0.0 0 0.0 0.0 1025.0 0.0 10.1 10.1 0.0
03/10/19 06:07 10.1 67 4.2 0.0 0.0 0 0.0 0.0 1025.0 0.0 10.1 10.1 0.0
03/10/19 06:08 10.2 66 4.1 0.0 0.0 0 0.0 0.0 1026.0 0.0 10.1 10.2 0.0
03/10/19 06:09 10.3 66 4.2 0.0 0.0 0 0.0 0.0 1026.0 0.0 10.3 10.3 0.0
03/10/19 06:10 10.4 66 4.3 0.0 0.0 0 0.0 0.0 1026.0 0.0 10.3 10.4 0.0
03/10/19 06:11 10.6 66 4.5 0.0 0.0 0 0.0 0.0 1026.0 0.0 10.4 10.6 0.0
03/10/19 06:12 10.7 66 4.6 0.0 0.0 0 0.0 0.0 1026.0 0.0 10.7 10.7 0.0
03/10/19 06:13 10.9 66 4.8 0.0 0.0 0 0.0 0.0 1026.0 0.0 10.9 10.9 0.0
03/10/19 06:14 11.1 65 4.8 0.0 0.0 0 0.0 0.0 1026.0 0.0 11.1 11.1 0.0
03/10/19 06:15 11.3 65 5.0 0.0 0.0 0 0.0 0.0 1026.0 0.0 11.3 11.3 0.0
03/10/19 06:17 11.2 64 4.6 0.0 0.0 0 0.0 0.0 1026.0 0.0 11.2 11.2 0.0
03/10/19 06:18 11.1 64 4.5 0.0 0.0 0 0.0 0.0 1026.0 0.0 11.2 11.1 0.0
03/10/19 06:19 11.2 64 4.6 0.0 0.0 0 0.0 0.0 1026.0 0.0 11.1 11.2 0.0
03/10/19 06:20 11.3 64 4.7 0.0 0.0 0 0.0 0.0 1026.0 0.0 11.3 11.3 0.0
03/10/19 06:21 11.3 64 4.7 0.0 0.0 0 0.0 0.0 1026.0 0.0 11.3 11.3 0.0
03/10/19 06:22 11.4 64 4.8 0.0 0.0 0 0.0 0.0 1026.0 0.0 11.4 11.4 0.0
03/10/19 06:23 11.6 64 5.0 0.0 0.0 0 0.0 0.0 1025.0 0.0 11.6 11.6 0.0
03/10/19 06:24 11.7 64 5.1 0.0 0.0 0 0.0 0.0 1025.0 0.0 11.7 11.7 0.0
03/10/19 06:25 12.0 63 5.2 0.0 0.0 0 0.0 0.0 1025.0 0.0 11.9 12.0 0.0
03/10/19 06:26 12.1 63 5.3 0.0 0.0 0 0.0 0.0 1025.0 0.0 12.0 12.1 0.0
03/10/19 06:27 12.1 62 5.0 0.0 0.0 0 0.0 0.0 1025.0 0.0 12.1 12.1 0.0
03/10/19 06:28 12.2 62 5.1 0.0 0.0 0 0.0 0.0 1025.0 0.0 12.2 12.2 0.0
03/10/19 06:29 12.3 62 5.2 0.0 0.0 0 0.0 0.0 1025.0 0.0 12.3 12.3 0.0
03/10/19 06:30 12.4 62 5.3 0.0 0.0 0 0.0 0.0 1025.0 0.0 12.4 12.4 0.0
03/10/19 06:32 12.5 62 5.4 0.0 0.0 0 0.0 0.0 1025.0 0.0 12.5 12.5 0.0
03/10/19 06:33 12.5 61 5.2 0.0 0.0 0 0.0 0.0 1025.0 0.0 12.5 12.5 0.0
03/10/19 06:34 12.6 61 5.3 0.0 0.0 0 0.0 0.0 1025.0 0.0 12.5 12.6 0.0
03/10/19 06:38 12.6 61 5.3 0.0 0.0 0 34.8 0.0 1025.0 0.0 12.6 12.6 0.0
03/10/19 06:39 12.7 61 5.4 0.0 0.0 0 34.8 0.0 1025.0 0.0 12.7 12.7 0.0
03/10/19 06:40 12.7 61 5.4 0.0 0.0 0 34.8 0.0 1024.0 0.0 12.7 12.7 0.0
03/10/19 06:41 12.7 61 5.4 0.0 0.0 0 34.8 0.0 1024.0 0.0 12.7 12.7 0.0
03/10/19 06:42 12.8 61 5.5 0.0 0.0 0 34.8 0.0 1024.0 0.0 12.8 12.8 0.0
03/10/19 06:43 12.9 61 5.6 0.0 0.0 0 34.8 0.0 1024.0 0.0 12.9 12.9 0.0
03/10/19 06:44 13.0 61 5.6 0.0 0.0 0 34.8 0.0 1024.0 0.0 13.0 13.0 0.0
03/10/19 06:45 13.1 61 5.7 0.0 0.0 0 34.8 0.0 1024.0 0.0 13.1 13.1 0.0
03/10/19 06:46 13.2 60 5.6 0.0 0.0 0 34.8 0.0 1024.0 0.0 13.2 13.2 0.0
03/10/19 06:47 13.2 60 5.6 0.0 0.0 0 34.8 0.0 1024.0 0.0 13.2 13.2 0.0
03/10/19 06:46 13.2 60 5.6 0.0 0.0 0 34.8 0.0 1024.0 0.0 13.2 13.2 0.0
03/10/19 06:47 13.3 60 5.7 0.0 0.0 0 34.8 0.0 1024.0 0.0 13.3 13.3 0.0
03/10/19 06:48 13.4 59 5.5 0.0 0.0 0 34.8 0.0 1024.0 0.0 13.4 13.4 0.0
03/10/19 06:49 13.5 59 5.6 0.0 0.0 0 34.8 0.0 1024.0 0.0 13.4 13.5 0.0
03/10/19 06:50 13.5 59 5.6 0.0 0.0 0 34.8 0.0 1024.0 0.0 13.5 13.5 0.0
03/10/19 06:51 13.5 59 5.6 0.0 0.0 0 34.8 0.0 1024.0 0.0 13.5 13.5 0.0
03/10/19 06:52 13.6 59 5.7 0.0 0.0 0 34.8 0.0 1024.0 0.0 13.6 13.6 0.0
03/10/19 06:53 13.6 59 5.7 0.0 0.0 0 34.8 0.0 1024.0 0.0 13.6 13.6 0.0
03/10/19 06:54 13.7 59 5.8 0.0 0.0 0 34.8 0.0 1024.0 0.0 13.7 13.7 0.0
03/10/19 06:55 13.7 59 5.8 0.0 0.0 0 34.8 0.0 1024.0 0.0 13.7 13.7 0.0
03/10/19 06:56 13.8 59 5.9 0.0 0.0 0 34.8 0.0 1024.0 0.0 13.8 13.8 0.0
03/10/19 06:57 13.8 59 5.9 0.0 0.0 0 34.8 0.0 1024.0 0.0 13.8 13.8 0.0
03/10/19 06:58 14.0 58 5.9 0.0 0.0 0 34.8 0.0 1024.0 0.0 14.0 14.0 0.0
03/10/19 06:59 14.0 58 5.9 0.0 0.0 0 34.8 0.0 1024.0 0.0 14.0 14.0 0.0
03/10/19 07:00 14.2 58 6.0 0.0 0.0 0 34.8 0.0 1024.0 0.0 14.2 14.2 0.0
03/10/19 07:02 14.3 58 6.1 0.0 0.0 0 0.0 0.0 1024.0 0.0 14.3 14.3 0.0
03/10/19 07:03 14.5 58 6.3 0.0 0.0 0 0.0 0.0 1024.0 0.0 14.4 14.5 0.0
03/10/19 07:04 14.6 58 6.4 0.0 0.0 0 0.0 0.0 1024.0 0.0 14.5 14.6 0.0
03/10/19 07:05 14.8 58 6.6 0.0 0.0 0 0.0 0.0 1024.0 0.0 14.8 14.8 0.0
03/10/19 07:06 14.9 58 6.7 0.0 0.0 0 0.0 0.0 1024.0 0.0 14.9 14.9 0.0
03/10/19 07:07 15.0 57 6.5 0.0 0.0 0 0.0 0.0 1024.0 0.0 15.0 15.0 0.0
03/10/19 07:08 15.1 57 6.6 0.0 0.0 0 0.0 0.0 1025.0 0.0 15.0 15.1 0.0
03/10/19 07:09 15.2 57 6.7 0.0 0.0 0 0.0 0.0 1025.0 0.0 15.2 15.2 0.0
03/10/19 07:10 15.2 57 6.7 0.0 0.0 0 0.0 0.0 1025.0 0.0 15.2 15.2 0.0
03/10/19 07:11 15.3 56 6.6 0.0 0.0 0 0.0 0.0 1025.0 0.0 15.2 15.3 0.0
03/10/19 07:12 15.4 56 6.7 0.0 0.0 0 0.0 0.0 1025.0 0.0 15.3 15.4 0.0
03/10/19 07:13 15.5 56 6.8 0.0 0.0 0 0.0 0.0 1025.0 0.0 15.5 15.5 0.0
03/10/19 07:14 15.6 56 6.8 0.0 0.0 0 0.0 0.0 1025.0 0.0 15.6 15.6 0.0
03/10/19 07:15 15.7 56 6.9 0.0 2.2 135 0.0 0.0 1025.0 1.4 15.7 15.7 0.0
03/10/19 07:17 15.8 55 6.8 0.0 1.4 135 0.0 0.0 1025.0 0.0 15.8 15.8 0.0
03/10/19 07:18 15.9 55 6.9 0.0 1.4 135 0.0 0.0 1025.0 0.0 15.9 15.9 0.0
03/10/19 07:19 16.1 54 6.8 0.0 1.4 135 0.0 0.0 1025.0 0.0 16.0 16.1 0.0
03/10/19 07:20 16.1 54 6.8 1.8 3.2 246 0.0 0.0 1025.0 0.0 16.1 16.1 0.0
03/10/19 07:21 16.2 54 6.9 0.0 3.2 246 0.0 0.0 1025.0 0.0 16.2 16.2 0.0
03/10/19 07:22 16.3 54 7.0 0.0 3.2 246 0.0 0.0 1025.0 0.0 16.3 16.3 0.0
03/10/19 07:23 16.4 53 6.8 0.0 3.2 246 0.0 0.0 1025.0 0.0 16.4 16.4 0.0
03/10/19 07:24 16.5 54 7.2 0.0 3.2 239 0.0 0.0 1025.0 0.0 16.5 16.5 0.0
03/10/19 07:25 16.6 54 7.2 0.0 3.2 239 0.0 0.0 1025.0 0.0 16.6 16.6 0.0
03/10/19 07:26 16.8 53 7.2 0.0 3.2 252 0.0 0.0 1025.0 0.0 16.7 16.8 0.0
03/10/19 07:27 16.8 53 7.2 0.0 3.2 261 0.0 0.0 1025.0 1.4 16.8 16.8 0.0
03/10/19 07:28 16.9 53 7.3 0.0 3.2 273 0.0 0.0 1025.0 0.0 16.9 16.9 0.0
03/10/19 07:29 16.9 52 7.0 1.4 3.2 285 0.0 0.0 1025.0 1.4 16.9 16.9 0.0
03/10/19 07:30 16.9 52 7.0 0.0 2.5 293 0.0 0.0 1025.0 0.0 16.9 16.9 0.0
03/10/19 07:32 17.1 51 6.9 0.0 1.4 300 0.0 0.0 1025.0 0.0 17.1 17.1 0.0
03/10/19 07:33 17.2 52 7.3 0.0 2.5 326 0.0 0.0 1025.0 2.5 17.2 17.2 0.0
03/10/19 07:34 17.5 51 7.2 0.0 2.5 340 0.0 0.0 1025.0 0.0 17.5 17.5 0.0
03/10/19 07:35 17.6 51 7.3 0.0 2.5 336 0.0 0.0 1025.0 1.4 17.6 17.6 0.0
03/10/19 07:36 17.7 51 7.4 1.4 3.6 305 0.0 0.0 1025.0 0.0 17.7 17.7 0.0
03/10/19 07:37 17.7 51 7.4 0.0 3.6 293 0.0 0.0 1025.0 1.4 17.7 17.7 0.0
03/10/19 07:38 17.8 50 7.2 0.0 3.6 292 0.0 0.0 1024.0 0.0 17.8 17.8 0.0
03/10/19 07:39 17.9 50 7.3 0.0 3.6 292 0.0 0.0 1024.0 0.0 17.9 17.9 0.0
03/10/19 07:40 18.0 50 7.4 0.0 3.6 294 0.0 0.0 1024.0 0.0 18.0 18.0 0.0
03/10/19 07:41 18.0 49 7.1 0.0 3.6 289 0.0 0.0 1024.0 0.0 18.0 18.0 0.0
03/10/19 07:42 18.1 49 7.2 0.0 3.6 286 0.0 0.0 1024.0 0.0 18.1 18.1 0.0
03/10/19 07:43 18.2 49 7.3 0.0 3.6 283 0.0 0.0 1024.0 0.0 18.2 18.2 0.0
03/10/19 07:44 18.2 49 7.3 0.0 3.6 280 0.0 0.0 1024.0 0.0 18.2 18.2 0.0
03/10/19 07:45 18.3 49 7.4 0.0 3.6 274 0.0 0.0 1024.0 0.0 18.3 18.3 0.0
03/10/19 07:47 18.6 48 7.4 0.0 2.2 274 0.0 0.0 1024.0 0.0 18.6 18.6 0.0
03/10/19 07:48 18.6 48 7.4 0.0 2.2 270 0.0 0.0 1024.0 0.0 18.6 18.6 0.0
03/10/19 07:49 18.8 48 7.6 1.4 2.5 259 0.0 0.0 1024.0 0.0 18.7 18.8 0.0
03/10/19 07:50 18.9 48 7.6 0.0 2.5 263 0.0 0.0 1024.0 2.2 18.9 18.9 0.0
03/10/19 07:51 19.0 47 7.4 0.0 2.5 273 0.0 0.0 1024.0 0.0 19.0 19.0 0.0
03/10/19 07:52 19.1 47 7.5 0.0 2.5 273 0.0 0.0 1024.0 0.0 19.1 19.1 0.0
03/10/19 07:53 19.2 47 7.6 0.0 2.5 273 0.0 0.0 1025.0 0.0 19.2 19.2 0.0
03/10/19 07:54 19.3 47 7.7 0.0 2.5 273 0.0 0.0 1025.0 0.0 19.3 19.3 0.0
03/10/19 07:55 19.4 47 7.8 0.0 2.5 273 0.0 0.0 1025.0 0.0 19.4 19.4 0.0
03/10/19 07:56 19.5 46 7.6 0.0 2.5 273 0.0 0.0 1025.0 0.0 19.5 19.5 0.0
03/10/19 07:57 19.6 46 7.7 0.0 2.5 289 0.0 0.0 1025.0 2.2 19.5 19.6 0.0
03/10/19 07:58 19.6 46 7.7 0.0 2.5 290 0.0 0.0 1025.0 1.8 19.6 19.6 0.0
03/10/19 07:59 19.8 46 7.8 1.4 2.5 303 0.0 0.0 1025.0 2.5 19.8 19.8 0.0
03/10/19 08:00 19.9 46 7.9 1.4 2.5 310 0.0 0.0 1025.0 0.0 19.9 19.9 0.0
03/10/19 08:02 20.2 45 7.9 0.0 2.5 316 0.0 0.0 1025.0 1.4 20.2 20.2 0.0
03/10/19 08:03 20.3 45 8.0 0.0 2.5 330 0.0 0.0 1025.0 1.8 20.3 20.3 0.0
03/10/19 08:04 20.3 45 8.0 0.0 2.5 333 0.0 0.0 1025.0 0.0 20.3 20.3 0.0
03/10/19 08:05 20.3 45 8.0 0.0 2.5 336 0.0 0.0 1025.0 0.0 20.3 20.3 0.0
03/10/19 08:09 20.4 44 7.7 0.0 1.8 323 34.8 0.0 1025.0 0.0 20.4 20.4 0.0
03/10/19 08:10 20.5 44 7.8 0.0 1.8 323 34.8 0.0 1024.0 0.0 20.5 20.5 0.0
03/10/19 08:11 20.6 44 7.9 0.0 1.8 323 34.8 0.0 1024.0 0.0 20.6 20.6 0.0
03/10/19 08:12 20.7 44 8.0 0.0 1.8 329 34.8 0.0 1024.0 0.0 20.7 20.7 0.0
03/10/19 08:13 20.8 44 8.1 0.0 0.0 0 34.8 0.0 1024.0 0.0 20.8 20.8 0.0
03/10/19 08:14 20.9 44 8.2 0.0 0.0 0 34.8 0.0 1024.0 0.0 20.9 20.9 0.0
03/10/19 08:15 20.9 44 8.2 0.0 1.4 270 34.8 0.0 1024.0 1.4 20.9 20.9 0.0
03/10/19 08:16 20.9 43 7.8 1.4 1.4 270 34.8 0.0 1024.0 0.0 20.9 20.9 0.0
03/10/19 08:17 20.9 43 7.8 0.0 1.4 270 34.8 0.0 1024.0 0.0 20.9 20.9 0.0
03/10/19 08:16 20.9 43 7.8 0.0 1.4 270 34.8 0.0 1024.0 0.0 20.9 20.9 0.0
03/10/19 08:17 21.0 43 7.9 0.0 2.2 273 34.8 0.0 1024.0 0.0 21.0 21.0 0.0
03/10/19 08:18 21.1 43 8.0 0.0 4.0 260 34.8 0.0 1024.0 4.0 21.1 21.1 0.0
03/10/19 08:19 21.2 43 8.1 1.8 4.0 266 34.8 0.0 1024.0 1.4 21.2 21.2 0.0
03/10/19 08:20 21.3 43 8.2 0.0 4.0 266 34.8 0.0 1024.0 0.0 21.3 21.3 0.0
03/10/19 08:21 21.4 43 8.3 0.0 4.0 277 34.8 0.0 1024.0 0.0 21.4 21.4 0.0
03/10/19 08:22 21.6 42 8.1 1.4 4.0 288 34.8 0.0 1024.0 1.8 21.6 21.6 0.0
03/10/19 08:23 21.7 42 8.2 1.4 4.0 293 34.8 0.0 1024.0 1.4 21.7 21.7 0.0
03/10/19 08:24 21.7 42 8.2 0.0 4.0 293 34.8 0.0 1024.0 0.0 21.7 21.7 0.0
03/10/19 08:25 21.8 42 8.3 1.4 4.0 297 34.8 0.0 1024.0 1.8 21.8 21.8 0.0
03/10/19 08:26 21.8 42 8.3 0.0 4.0 299 34.8 0.0 1024.0 0.0 21.8 21.8 0.0
03/10/19 08:27 21.9 41 8.0 2.5 6.1 302 34.8 0.0 1024.0 2.2 21.9 21.9 0.0
03/10/19 08:28 21.9 41 8.0 1.8 6.1 303 34.8 0.0 1024.0 0.0 21.9 21.9 0.0
03/10/19 08:29 21.8 41 8.0 0.0 6.1 303 34.8 0.0 1024.0 3.2 21.8 21.8 0.0
03/10/19 08:30 21.7 41 7.9 1.8 6.1 293 34.8 0.0 1024.0 0.0 21.7 21.7 0.0
03/10/19 08:32 21.7 41 7.9 0.0 3.2 297 0.0 0.0 1024.0 0.0 21.7 21.7 0.0
03/10/19 08:33 21.7 41 7.9 0.0 3.2 299 0.0 0.0 1024.0 0.0 21.7 21.7 0.0
03/10/19 08:34 21.9 41 8.0 0.0 3.2 301 0.0 0.0 1024.0 0.0 21.8 21.9 0.0
03/10/19 08:35 22.0 40 7.8 0.0 3.2 305 0.0 0.0 1024.0 1.8 21.9 22.0 0.0
03/10/19 08:36 22.1 40 7.9 0.0 3.2 308 0.0 0.0 1024.0 0.0 22.1 22.1 0.0
03/10/19 08:37 22.2 40 8.0 0.0 3.2 309 0.0 0.0 1024.0 0.0 22.2 22.2 0.0
03/10/19 08:38 22.3 40 8.0 0.0 3.2 311 0.0 0.0 1025.0 0.0 22.3 22.3 0.0
03/10/19 08:39 22.4 40 8.1 0.0 3.2 291 0.0 0.0 1025.0 0.0 22.4 22.4 0.0
03/10/19 08:40 22.6 40 8.3 0.0 2.2 275 0.0 0.0 1025.0 1.4 22.6 22.6 0.0
03/10/19 08:41 22.7 40 8.4 1.4 3.2 264 0.0 0.0 1025.0 2.5 22.7 22.7 0.0
03/10/19 08:42 22.7 39 8.0 1.4 3.2 269 0.0 0.0 1025.0 0.0 22.7 22.7 0.0
03/10/19 08:43 22.8 39 8.1 0.0 3.2 274 0.0 0.0 1025.0 1.8 22.7 22.8 0.0
03/10/19 08:44 22.8 39 8.1 0.0 3.2 274 0.0 0.0 1025.0 0.0 22.8 22.8 0.0
03/10/19 08:45 22.8 39 8.1 0.0 3.2 269 0.0 0.0 1025.0 0.0 22.8 22.8 0.0
03/10/19 08:47 22.7 38 7.6 0.0 2.5 270 0.0 0.0 1025.0 0.0 22.7 22.7 0.0
03/10/19 08:48 22.8 39 8.1 0.0 2.5 270 0.0 0.0 1025.0 0.0 22.8 22.8 0.0
03/10/19 08:49 23.0 38 7.9 0.0 2.5 270 0.0 0.0 1025.0 0.0 22.9 23.0 0.0
03/10/19 08:50 23.1 38 8.0 0.0 2.5 270 0.0 0.0 1025.0 1.4 23.0 23.1 0.0
03/10/19 08:51 23.1 38 8.0 0.0 2.5 276 0.0 0.0 1025.0 1.4 23.1 23.1 0.0
03/10/19 08:52 23.2 37 7.7 1.4 2.2 276 0.0 0.0 1025.0 0.0 23.2 23.2 0.0
03/10/19 08:53 23.3 37 7.8 0.0 2.2 276 0.0 0.0 1024.0 0.0 23.3 23.3 0.0
03/10/19 08:54 23.4 37 7.9 0.0 2.2 277 0.0 0.0 1024.0 0.0 23.4 23.4 0.0
03/10/19 08:55 23.5 37 8.0 0.0 2.2 276 0.0 0.0 1024.0 0.0 23.5 23.5 0.0
03/10/19 08:56 23.6 37 8.1 0.0 2.5 280 0.0 0.0 1024.0 2.5 23.6 23.6 0.0
03/10/19 08:57 24.0 37 8.4 1.4 2.5 287 0.0 0.0 1024.0 2.5 24.0 24.0 0.0
03/10/19 08:58 24.1 37 8.5 1.4 2.5 291 0.0 0.0 1024.0 0.0 24.1 24.1 0.0
03/10/19 08:59 24.1 36 8.1 0.0 2.5 293 0.0 0.0 1024.0 0.0 24.1 24.1 0.0
03/10/19 09:02 24.3 36 8.3 0.0 2.5 283 0.0 0.0 1024.0 0.0 24.3 24.3 0.0
03/10/19 09:03 24.4 36 8.4 0.0 2.5 282 0.0 0.0 1024.0 1.8 24.4 24.4 0.0
03/10/19 09:04 24.3 36 8.3 1.4 2.5 282 0.0 0.0 1024.0 1.4 24.3 24.3 0.0
03/10/19 09:05 24.3 35 7.9 0.0 2.5 289 0.0 0.0 1024.0 0.0 24.3 24.3 0.0
03/10/19 09:06 24.4 35 7.9 0.0 2.5 292 0.0 0.0 1024.0 2.5 24.4 24.4 0.0
03/10/19 09:07 24.5 35 8.0 0.0 2.5 294 0.0 0.0 1024.0 0.0 24.5 24.5 0.0
03/10/19 09:08 24.6 35 8.1 0.0 2.5 297 0.0 0.0 1025.0 1.4 24.6 24.6 0.0
03/10/19 09:09 24.7 35 8.2 1.4 2.5 302 0.0 0.0 1025.0 0.0 24.7 24.7 0.0
03/10/19 09:10 24.7 35 8.2 0.0 2.5 302 0.0 0.0 1025.0 0.0 24.7 24.7 0.0
03/10/19 09:11 24.9 35 8.4 0.0 3.2 304 0.0 0.0 1025.0 1.8 24.9 24.9 0.0
03/10/19 09:12 24.9 35 8.4 1.4 3.2 301 0.0 0.0 1025.0 1.4 25.0 24.9 0.0
03/10/19 09:13 24.9 35 8.4 1.4 3.2 302 0.0 0.0 1025.0 1.4 24.9 24.9 0.0
03/10/19 09:14 24.9 35 8.4 0.0 3.2 298 0.0 0.0 1025.0 1.8 24.9 24.9 0.0
03/10/19 09:15 24.9 35 8.4 1.4 4.0 299 0.0 0.0 1025.0 0.0 24.9 24.9 0.0
03/10/19 09:17 25.0 34 8.0 0.0 2.2 262 0.0 0.0 1025.0 0.0 25.0 25.0 0.0
03/10/19 09:18 24.9 34 8.0 0.0 2.2 163 0.0 0.0 1025.0 0.0 24.9 24.9 0.0
03/10/19 09:19 24.9 34 8.0 0.0 2.2 163 0.0 0.0 1025.0 0.0 24.9 24.9 0.0
03/10/19 09:20 24.9 34 8.0 0.0 2.2 205 0.0 0.0 1025.0 0.0 24.9 24.9 0.0
03/10/19 09:21 25.0 33 7.6 0.0 2.2 205 0.0 0.0 1025.0 0.0 25.0 25.0 0.0
03/10/19 09:22 25.1 34 8.1 0.0 2.5 270 0.0 0.0 1025.0 0.0 25.1 25.1 0.0
03/10/19 09:23 25.2 34 8.2 0.0 2.5 259 0.0 0.0 1024.0 0.0 25.2 25.2 0.0
03/10/19 09:24 25.2 34 8.2 0.0 2.5 239 0.0 0.0 1024.0 0.0 25.2 25.2 0.0
03/10/19 09:25 25.3 34 8.3 0.0 3.2 270 0.0 0.0 1024.0 2.5 25.3 25.3 0.0
03/10/19 09:26 25.3 33 7.9 1.8 3.2 289 0.0 0.0 1024.0 0.0 25.3 25.3 0.0
03/10/19 09:27 25.3 33 7.9 0.0 3.2 291 0.0 0.0 1024.0 0.0 25.2 25.3 0.0
03/10/19 09:28 25.3 33 7.9 0.0 3.2 298 0.0 0.0 1024.0 1.4 25.3 25.3 0.0
03/10/19 09:29 25.4 33 8.0 0.0 3.2 298 0.0 0.0 1024.0 0.0 25.4 25.4 0.0
03/10/19 09:30 25.5 33 8.0 0.0 3.2 302 0.0 0.0 1024.0 0.0 25.5 25.5 0.0
03/10/19 09:32 25.6 33 8.1 0.0 2.5 279 0.0 0.0 1024.0 0.0 25.6 25.6 0.0
03/10/19 09:33 25.7 33 8.2 0.0 2.5 279 0.0 0.0 1024.0 0.0 25.7 25.7 0.0
03/10/19 09:34 25.8 33 8.3 0.0 2.5 289 0.0 0.0 1024.0 0.0 25.8 25.8 0.0
03/10/19 09:35 25.9 33 8.4 0.0 2.5 298 0.0 0.0 1024.0 1.4 25.8 25.9 0.0
03/10/19 09:36 25.8 32 7.8 1.8 5.0 313 0.0 0.0 1024.0 0.0 25.8 25.8 0.0
03/10/19 09:37 25.8 33 8.3 0.0 5.0 313 0.0 0.0 1024.0 0.0 25.8 25.8 0.0
03/10/19 09:38 26.0 32 8.0 0.0 5.0 313 0.0 0.0 1024.0 0.0 26.0 26.0 0.0
03/10/19 09:39 25.9 32 7.9 0.0 5.0 314 0.0 0.0 1024.0 2.2 26.0 25.9 0.0
03/10/19 09:40 26.0 32 8.0 0.0 5.0 314 0.0 0.0 1024.0 0.0 26.0 26.0 0.0
03/10/19 09:41 26.1 32 8.1 0.0 5.0 314 0.0 0.0 1024.0 0.0 26.1 26.1 0.0
03/10/19 09:42 25.9 32 7.9 0.0 5.0 314 0.0 0.0 1024.0 0.0 26.1 25.9 0.0
03/10/19 09:43 26.0 32 8.0 0.0 5.0 314 0.0 0.0 1024.0 0.0 26.0 26.0 0.0
03/10/19 09:44 26.1 32 8.1 0.0 5.0 314 0.0 0.0 1024.0 0.0 26.1 26.1 0.0
03/10/19 09:47 26.2 31 7.7 0.0 2.2 313 0.0 0.0 1024.0 0.0 26.2 26.2 0.0
03/10/19 09:48 26.3 31 7.8 0.0 2.2 313 0.0 0.0 1024.0 0.0 26.3 26.3 0.0
03/10/19 09:49 26.4 31 7.9 0.0 2.2 313 0.0 0.0 1024.0 0.0 26.4 26.4 0.0
03/10/19 09:50 26.5 31 8.0 0.0 2.2 314 0.0 0.0 1024.0 0.0 26.5 26.5 0.0
03/10/19 09:51 26.5 31 8.0 0.0 2.5 314 0.0 0.0 1024.0 2.2 26.5 26.5 0.0
03/10/19 09:52 26.5 31 8.0 1.8 2.5 314 0.0 0.0 1024.0 0.0 26.5 26.5 0.0
03/10/19 09:53 26.5 31 8.0 0.0 2.5 314 0.0 0.0 1025.0 0.0 26.5 26.5 0.0
03/10/19 09:54 26.5 31 8.0 0.0 2.5 314 0.0 0.0 1025.0 0.0 26.5 26.5 0.0
03/10/19 09:55 26.5 31 8.0 0.0 2.5 314 0.0 0.0 1025.0 0.0 26.5 26.5 0.0
03/10/19 09:56 26.5 31 8.0 0.0 2.5 314 0.0 0.0 1025.0 2.2 26.5 26.5 0.0
03/10/19 09:57 26.4 31 7.9 4.0 5.4 314 0.0 0.0 1025.0 5.4 26.4 26.4 0.0
03/10/19 09:58 25.5 31 7.1 4.3 5.4 314 0.0 0.0 1025.0 2.5 25.5 25.5 0.0
03/10/19 09:59 25.6 31 7.2 2.2 5.4 314 0.0 0.0 1025.0 1.8 25.6 25.6 0.0
03/10/19 10:00 25.8 31 7.4 0.0 5.4 314 0.0 0.0 1025.0 0.0 25.8 25.8 0.0
03/10/19 10:02 26.0 31 7.6 0.0 5.4 314 0.0 0.0 1025.0 0.0 26.0 26.0 0.0
03/10/19 10:03 26.2 31 7.7 0.0 5.4 314 0.0 0.0 1025.0 0.0 26.2 26.2 0.0
03/10/19 10:04 26.2 31 7.7 0.0 5.4 314 0.0 0.0 1025.0 0.0 26.2 26.2 0.0
03/10/19 10:05 26.3 31 7.8 0.0 5.4 314 0.0 0.0 1025.0 0.0 26.3 26.3 0.0
03/10/19 10:06 26.4 30 7.4 0.0 5.4 314 0.0 0.0 1025.0 0.0 26.4 26.4 0.0
03/10/19 10:07 26.5 30 7.5 1.8 5.4 314 0.0 0.0 1025.0 1.4 26.5 26.5 0.0
03/10/19 10:08 26.4 30 7.4 0.0 4.0 314 0.0 0.0 1026.0 0.0 26.4 26.4 0.0
03/10/19 10:09 26.5 30 7.5 0.0 4.0 314 0.0 0.0 1026.0 0.0 26.5 26.5 0.0
03/10/19 10:10 26.5 30 7.5 0.0 4.0 314 0.0 0.0 1026.0 0.0 26.5 26.5 0.0
03/10/19 10:11 26.6 30 7.6 0.0 4.0 314 0.0 0.0 1026.0 0.0 26.6 26.6 0.0
03/10/19 10:12 26.7 30 7.7 0.0 4.0 314 0.0 0.0 1026.0 0.0 26.7 26.2 0.0
03/10/19 10:13 26.7 30 7.7 1.4 4.0 314 0.0 0.0 1026.0 2.5 26.7 26.2 0.0
03/10/19 10:14 26.6 30 7.6 2.2 4.7 309 0.0 0.0 1026.0 1.8 26.7 26.6 0.0
03/10/19 10:15 26.6 30 7.6 0.0 4.7 310 0.0 0.0 1026.0 1.8 26.6 26.6 0.0
03/10/19 10:17 26.7 30 7.7 0.0 2.5 311 0.0 0.0 1026.0 0.0 26.7 26.2 0.0
03/10/19 10:18 26.9 30 7.9 0.0 2.5 311 0.0 0.0 1026.0 0.0 26.9 26.4 0.0
03/10/19 10:19 26.9 30 7.9 2.5 7.6 138 0.0 0.0 1026.0 4.0 26.9 26.4 0.0
03/10/19 10:20 26.9 30 7.9 2.2 7.6 136 0.0 0.0 1026.0 2.5 26.9 26.4 0.0
03/10/19 10:21 27.0 30 7.9 1.4 7.6 135 0.0 0.0 1026.0 1.4 26.9 26.4 0.0
03/10/19 10:22 27.1 29 7.5 0.0 7.6 135 0.0 0.0 1026.0 0.0 27.1 26.4 0.0
03/10/19 10:23 27.1 29 7.5 0.0 7.6 135 0.0 0.0 1026.0 0.0 27.1 26.4 0.0
03/10/19 10:24 27.2 29 7.6 0.0 7.6 135 0.0 0.0 1026.0 1.8 27.2 26.5 0.0
03/10/19 10:25 27.4 30 8.3 0.0 7.6 135 0.0 0.0 1026.0 0.0 27.4 26.7 0.0
03/10/19 10:26 27.6 29 8.0 1.4 7.6 126 0.0 0.0 1026.0 4.3 27.6 26.8 0.0
03/10/19 10:27 27.5 27 6.8 5.4 8.6 95 0.0 0.0 1026.0 4.0 27.5 26.6 0.0
03/10/19 10:28 26.8 27 6.2 4.0 8.6 12 0.0 0.0 1026.0 3.2 26.8 26.2 0.0
03/10/19 10:29 26.7 27 6.1 3.6 8.6 340 0.0 0.0 1026.0 1.4 26.7 26.1 0.0
03/10/19 10:30 26.7 28 6.7 1.4 8.6 329 0.0 0.0 1026.0 4.7 26.7 26.2 0.0
03/10/19 10:32 26.9 28 6.8 2.2 5.0 339 0.0 0.0 1026.0 3.2 26.9 26.3 0.0
03/10/19 10:33 26.3 27 5.8 3.6 5.0 326 0.0 0.0 1026.0 2.5 26.3 26.3 0.0
03/10/19 10:34 26.1 28 6.2 2.5 5.0 323 0.0 0.0 1026.0 2.5 26.1 26.1 0.0
03/10/19 10:35 26.1 27 5.6 2.2 5.0 321 0.0 0.0 1026.0 4.3 26.1 26.1 0.0
03/10/19 10:36 25.9 26 4.9 6.1 9.0 330 0.0 0.0 1026.0 6.8 25.9 25.9 0.0
03/10/19 10:37 25.9 28 6.0 3.6 9.0 331 0.0 0.0 1026.0 0.0 25.9 25.9 0.0
03/10/19 10:38 26.1 28 6.2 0.0 9.0 327 0.0 0.0 1025.0 1.8 26.1 26.1 0.0
03/10/19 10:39 26.4 29 6.9 1.4 9.0 323 0.0 0.0 1025.0 1.4 26.4 26.4 0.0
03/10/19 10:40 26.6 29 7.1 1.4 9.0 321 0.0 0.0 1025.0 0.0 26.6 26.6 0.0
03/10/19 10:41 26.7 29 7.2 1.4 9.0 318 0.0 0.0 1025.0 0.0 26.7 26.2 0.0
03/10/19 10:42 26.9 29 7.4 0.0 9.0 318 0.0 0.0 1025.0 1.8 26.9 26.3 0.0
03/10/19 10:43 27.5 29 7.9 1.4 9.0 319 0.0 0.0 1025.0 0.0 27.5 26.7 0.0
03/10/19 10:44 27.7 29 8.0 0.0 9.0 322 0.0 0.0 1025.0 2.2 27.7 26.8 0.0
03/10/19 10:47 27.7 28 7.5 0.0 2.2 322 0.0 0.0 1025.0 0.0 27.7 26.8 0.0
03/10/19 10:48 27.9 29 8.2 0.0 2.2 308 0.0 0.0 1025.0 0.0 27.9 27.0 0.0
03/10/19 10:49 28.0 28 7.8 0.0 2.2 300 0.0 0.0 1025.0 0.0 28.0 27.0 0.0
03/10/19 10:50 28.1 26 6.8 1.4 3.6 340 0.0 0.0 1025.0 2.5 28.1 27.0 0.0
03/10/19 10:51 28.1 27 7.3 0.0 3.6 344 0.0 0.0 1025.0 1.4 28.1 27.0 0.0
03/10/19 10:52 28.2 27 7.4 0.0 3.6 344 0.0 0.0 1025.0 0.0 28.2 27.1 0.0
03/10/19 10:53 28.2 27 7.4 0.0 5.0 48 0.0 0.0 1025.0 5.0 28.2 27.1 0.0
03/10/19 10:54 28.2 26 6.9 2.5 5.0 113 0.0 0.0 1025.0 2.5 28.2 27.1 0.0
03/10/19 10:55 28.1 27 7.3 1.4 5.0 129 0.0 0.0 1025.0 1.8 28.1 27.0 0.0
03/10/19 10:56 28.1 27 7.3 1.4 5.0 123 0.0 0.0 1025.0 0.0 28.1 27.0 0.0
03/10/19 10:57 28.2 26 6.9 0.0 5.0 123 0.0 0.0 1025.0 0.0 28.2 27.1 0.0
03/10/19 10:58 28.3 26 7.0 0.0 5.0 115 0.0 0.0 1025.0 0.0 28.3 27.1 0.0
03/10/19 10:59 28.4 27 7.6 0.0 5.0 92 0.0 0.0 1025.0 1.8 28.3 27.3 0.0
03/10/19 11:00 28.4 26 7.0 2.2 5.0 234 0.0 0.0 1025.0 2.2 28.4 27.2 0.0
03/10/19 11:02 28.6 26 7.2 0.0 5.0 49 0.0 0.0 1025.0 0.0 28.6 27.4 0.0
03/10/19 11:03 28.6 26 7.2 0.0 5.0 29 0.0 0.0 1025.0 0.0 28.6 27.4 0.0
03/10/19 11:04 28.7 26 7.3 0.0 2.5 318 0.0 0.0 1025.0 0.0 28.7 27.4 0.0
03/10/19 11:05 28.7 26 7.3 1.4 3.2 257 0.0 0.0 1025.0 1.8 28.7 27.4 0.0
03/10/19 11:06 29.0 25 7.0 1.4 3.2 260 0.0 0.0 1025.0 1.8 28.8 27.6 0.0
03/10/19 11:07 29.0 25 7.0 0.0 3.2 294 0.0 0.0 1025.0 2.2 29.0 27.6 0.0
03/10/19 11:08 29.1 25 7.1 1.8 3.2 303 0.0 0.0 1025.0 2.2 29.1 27.7 0.0
03/10/19 11:09 29.2 25 7.1 1.4 3.2 305 0.0 0.0 1025.0 0.0 29.2 27.8 0.0
03/10/19 11:10 29.2 25 7.1 0.0 3.2 304 0.0 0.0 1025.0 0.0 29.2 27.8 0.0
03/10/19 11:11 29.1 24 6.5 1.4 7.9 311 0.0 0.0 1025.0 7.9 29.1 27.7 0.0
03/10/19 11:12 28.8 23 5.6 6.1 7.9 324 0.0 0.0 1025.0 4.3 28.8 27.4 0.0
03/10/19 11:13 28.2 23 5.1 2.2 7.9 329 0.0 0.0 1025.0 0.0 28.5 27.0 0.0
03/10/19 11:14 28.1 23 5.0 2.5 7.9 328 0.0 0.0 1025.0 0.0 28.1 26.9 0.0
03/10/19 11:15 28.0 24 5.5 0.0 7.9 329 0.0 0.0 1025.0 1.8 28.0 26.9 0.0
03/10/19 11:17 28.2 24 5.7 0.0 7.9 313 0.0 0.0 1025.0 1.8 28.2 27.0 0.0
03/10/19 11:18 28.3 25 6.4 1.4 7.9 315 0.0 0.0 1025.0 1.4 28.3 27.1 0.0
03/10/19 11:19 28.5 25 6.6 0.0 7.9 316 0.0 0.0 1025.0 0.0 28.5 27.2 0.0
03/10/19 11:20 28.8 25 6.8 0.0 7.9 316 0.0 0.0 1025.0 0.0 28.8 27.5 0.0
03/10/19 11:21 29.2 25 7.1 1.4 7.9 315 0.0 0.0 1025.0 1.4 29.2 27.8 0.0
03/10/19 11:22 29.3 24 6.6 0.0 4.3 317 0.0 0.0 1025.0 0.0 29.3 27.8 0.0
03/10/19 11:23 29.3 24 6.6 0.0 2.2 315 0.0 0.0 1024.0 2.2 29.3 27.8 0.0
03/10/19 11:24 29.0 24 6.4 1.8 2.5 312 0.0 0.0 1024.0 1.4 29.0 27.6 0.0
03/10/19 11:25 28.8 24 6.2 0.0 2.5 306 0.0 0.0 1024.0 0.0 28.8 27.4 0.0
03/10/19 11:26 28.8 24 6.2 0.0 2.5 305 0.0 0.0 1024.0 0.0 28.8 27.4 0.0
03/10/19 11:27 28.8 24 6.2 0.0 2.5 302 0.0 0.0 1024.0 1.8 28.8 27.4 0.0
03/10/19 11:28 28.6 24 6.0 1.4 2.5 298 0.0 0.0 1024.0 0.0 28.6 27.3 0.0
03/10/19 11:29 28.2 24 5.7 1.4 3.2 287 0.0 0.0 1024.0 0.0 28.2 27.0 0.0
03/10/19 11:30 28.1 23 5.0 1.4 3.2 285 0.0 0.0 1024.0 0.0 28.1 26.9 0.0
03/10/19 11:32 28.4 24 5.9 0.0 2.2 309 0.0 0.0 1024.0 0.0 28.4 27.1 0.0
03/10/19 11:33 28.4 24 5.9 0.0 2.2 295 0.0 0.0 1024.0 1.4 28.4 27.1 0.0
03/10/19 11:34 28.3 24 5.8 0.0 1.8 316 0.0 0.0 1024.0 0.0 28.3 27.1 0.0
03/10/19 11:35 28.2 24 5.7 1.4 2.5 340 0.0 0.0 1024.0 0.0 28.2 27.0 0.0
03/10/19 11:36 28.5 24 6.0 0.0 2.5 340 0.0 0.0 1024.0 0.0 28.2 27.2 0.0
03/10/19 11:37 28.5 24 6.0 0.0 2.5 337 0.0 0.0 1024.0 0.0 28.5 27.2 0.0
03/10/19 11:38 28.5 23 5.3 1.8 3.6 327 0.0 0.0 1023.0 2.5 28.5 27.2 0.0
03/10/19 11:39 28.2 23 5.1 4.7 6.8 337 0.0 0.0 1023.0 2.5 28.2 27.0 0.0
03/10/19 11:40 28.1 23 5.0 3.2 6.8 337 0.0 0.0 1023.0 4.0 28.1 26.9 0.0
03/10/19 11:41 28.1 23 5.0 3.2 6.8 336 0.0 0.0 1023.0 2.5 28.1 26.9 0.0
03/10/19 11:42 28.1 22 4.4 3.2 6.8 336 0.0 0.0 1023.0 4.3 28.1 26.9 0.0
03/10/19 11:43 28.0 22 4.3 3.6 6.8 344 0.0 0.0 1023.0 1.4 28.0 26.8 0.0
03/10/19 11:44 28.0 23 4.9 3.6 6.8 349 0.0 0.0 1023.0 3.2 28.0 26.8 0.0
03/10/19 11:50 28.7 23 5.5 0.0 4.3 337 34.8 0.0 1023.0 1.4 28.7 27.3 0.0
03/10/19 11:51 28.9 23 5.7 0.0 4.3 333 34.8 0.0 1023.0 2.5 28.9 27.5 0.0
03/10/19 11:52 29.2 23 5.9 1.8 4.3 333 34.8 0.0 1023.0 0.0 29.2 27.7 0.0
03/10/19 11:53 29.4 22 5.5 0.0 3.2 327 34.8 0.0 1023.0 1.4 29.4 27.8 0.0
03/10/19 11:54 29.4 22 5.5 1.4 2.5 304 34.8 0.0 1023.0 1.8 29.4 27.8 0.0
03/10/19 11:55 29.4 22 5.5 1.8 2.5 316 34.8 0.0 1023.0 2.2 29.4 27.8 0.0
03/10/19 11:56 29.5 22 5.5 1.8 2.5 316 34.8 0.0 1023.0 0.0 29.5 27.9 0.0
03/10/19 11:57 29.4 22 5.5 1.4 2.5 316 34.8 0.0 1023.0 0.0 29.4 27.8 0.0
03/10/19 11:58 29.4 22 5.5 0.0 2.5 316 34.8 0.0 1023.0 1.4 29.4 27.8 0.0
03/10/19 11:59 29.4 22 5.5 0.0 2.5 316 34.8 0.0 1023.0 0.0 29.4 27.8 0.0
03/10/19 12:00 29.4 22 5.5 1.4 5.0 332 34.8 0.0 1023.0 5.0 29.4 27.8 0.0
03/10/19 12:01 29.3 21 4.7 1.8 5.0 337 34.8 0.0 1023.0 0.0 29.3 27.7 0.0
03/10/19 12:02 29.4 21 4.8 1.8 5.0 337 34.8 0.0 1023.0 0.0 29.4 27.8 0.0
03/10/19 12:06 30.1 21 5.4 1.4 5.0 342 34.8 0.0 1023.0 0.0 29.4 28.4 0.0
03/10/19 12:07 30.2 21 5.4 1.4 5.0 302 34.8 0.0 1023.0 4.3 30.2 28.4 0.0
03/10/19 12:08 30.1 20 4.7 1.8 5.0 173 34.8 0.0 1023.0 0.0 30.1 28.3 0.0
03/10/19 12:09 30.1 21 5.4 0.0 5.0 152 34.8 0.0 1023.0 1.4 30.1 28.4 0.0
03/10/19 12:10 30.2 20 4.7 1.4 5.0 141 34.8 0.0 1023.0 1.8 30.2 28.4 0.0
03/10/19 12:11 30.2 20 4.7 1.8 4.3 174 34.8 0.0 1023.0 1.4 30.2 28.4 0.0
03/10/19 12:12 30.1 20 4.7 3.6 6.8 245 34.8 0.0 1023.0 5.4 30.1 28.3 0.0
03/10/19 12:13 29.9 20 4.5 5.4 8.6 332 34.8 0.0 1023.0 7.6 29.9 28.2 0.0
03/10/19 12:14 29.5 20 4.2 4.3 8.6 323 34.8 0.0 1023.0 2.5 29.5 27.8 0.0
03/10/19 12:15 29.6 20 4.3 1.4 8.6 323 34.8 0.0 1023.0 3.6 29.6 27.9 0.0
03/10/19 12:17 29.7 20 4.3 1.4 7.6 290 0.0 0.0 1023.0 1.8 29.7 28.0 0.0
03/10/19 12:18 29.8 20 4.4 1.4 7.6 283 0.0 0.0 1023.0 1.4 29.8 28.1 0.0
03/10/19 12:19 29.9 20 4.5 0.0 7.6 283 0.0 0.0 1023.0 0.0 29.9 28.2 0.0
03/10/19 12:20 30.0 20 4.6 1.4 7.6 295 0.0 0.0 1023.0 4.7 30.0 28.2 0.0
03/10/19 12:21 30.0 20 4.6 4.0 7.6 291 0.0 0.0 1023.0 2.5 30.0 28.2 0.0
03/10/19 12:22 29.7 20 4.3 3.2 7.6 306 0.0 0.0 1023.0 6.5 29.7 28.0 0.0
03/10/19 12:23 29.4 20 4.1 5.0 7.6 311 0.0 0.0 1022.0 5.0 29.4 27.8 0.0
03/10/19 12:24 29.4 20 4.1 3.2 6.8 301 0.0 0.0 1022.0 4.0 29.4 27.8 0.0
03/10/19 12:25 29.5 20 4.2 2.5 6.8 298 0.0 0.0 1022.0 0.0 29.5 27.8 0.0
03/10/19 12:26 29.4 20 4.1 1.4 6.8 301 0.0 0.0 1022.0 4.7 29.4 27.8 0.0
03/10/19 12:27 29.2 20 3.9 2.5 6.8 309 0.0 0.0 1022.0 0.0 29.2 27.6 0.0
03/10/19 12:28 29.3 20 4.0 1.4 6.8 312 0.0 0.0 1022.0 0.0 29.3 27.7 0.0
03/10/19 12:29 29.6 20 4.3 0.0 6.8 312 0.0 0.0 1022.0 1.8 29.5 27.9 0.0
03/10/19 12:32 29.3 20 4.0 1.4 6.5 304 0.0 0.0 1022.0 0.0 29.3 27.7 0.0
03/10/19 12:33 29.4 21 4.8 0.0 5.0 296 0.0 0.0 1022.0 2.2 29.4 27.8 0.0
03/10/19 12:34 29.4 21 4.8 1.4 4.7 203 0.0 0.0 1022.0 1.8 29.4 27.8 0.0
03/10/19 12:35 29.6 21 5.0 0.0 4.7 146 0.0 0.0 1022.0 0.0 29.6 27.9 0.0
03/10/19 12:36 30.3 20 4.8 1.4 2.2 135 0.0 0.0 1022.0 2.2 30.0 28.5 0.0
03/10/19 12:37 30.6 20 5.1 0.0 2.2 135 0.0 0.0 1022.0 0.0 30.3 28.7 0.0
03/10/19 12:38 30.7 20 5.2 0.0 2.5 135 0.0 0.0 1023.0 2.5 30.7 28.8 0.0
03/10/19 12:39 30.9 20 5.3 1.4 2.5 135 0.0 0.0 1023.0 0.0 30.9 29.0 0.0
03/10/19 12:40 30.8 20 5.2 1.4 2.5 146 0.0 0.0 1023.0 0.0 30.8 28.9 0.0
03/10/19 12:41 30.5 19 4.3 0.0 4.0 162 0.0 0.0 1023.0 4.0 30.5 28.6 0.0
03/10/19 12:42 30.0 19 3.9 1.4 4.0 182 0.0 0.0 1023.0 0.0 30.0 28.2 0.0
03/10/19 12:43 29.8 19 3.7 0.0 4.0 201 0.0 0.0 1023.0 0.0 29.8 28.1 0.0
03/10/19 12:44 29.8 20 4.4 0.0 4.0 217 0.0 0.0 1023.0 0.0 29.8 28.1 0.0
03/10/19 12:45 29.9 20 4.5 0.0 4.0 219 0.0 0.0 1023.0 0.0 29.9 28.2 0.0
03/10/19 12:47 30.4 19 4.2 0.0 4.0 151 0.0 0.0 1023.0 0.0 30.4 28.5 0.0
03/10/19 12:48 30.6 20 5.1 0.0 4.0 161 0.0 0.0 1023.0 1.4 30.6 28.7 0.0
03/10/19 12:49 30.9 19 4.6 0.0 4.0 170 0.0 0.0 1023.0 0.0 30.9 29.0 0.0
03/10/19 12:50 31.1 19 4.7 0.0 4.0 170 0.0 0.0 1023.0 0.0 31.1 29.1 0.0
03/10/19 12:51 31.2 19 4.8 0.0 4.0 173 0.0 0.0 1023.0 1.4 31.2 29.2 0.0
03/10/19 12:52 31.4 19 5.0 1.8 4.3 193 0.0 0.0 1023.0 1.8 31.3 29.4 0.0
03/10/19 12:53 31.4 18 4.2 1.4 4.3 193 0.0 0.0 1023.0 0.0 31.4 29.4 0.0
03/10/19 12:54 31.3 18 4.1 2.2 4.3 262 0.0 0.0 1023.0 2.5 31.3 29.3 0.0
03/10/19 12:55 31.3 18 4.1 1.4 4.3 274 0.0 0.0 1023.0 2.5 31.3 29.3 0.0
03/10/19 12:56 31.3 18 4.1 1.4 4.3 281 0.0 0.0 1023.0 1.4 31.3 29.3 0.0
03/10/19 12:57 31.3 18 4.1 0.0 4.3 287 0.0 0.0 1023.0 1.8 31.3 29.3 0.0
03/10/19 12:58 31.4 18 4.2 0.0 4.3 297 0.0 0.0 1023.0 0.0 31.4 29.4 0.0
03/10/19 12:59 31.5 18 4.3 1.4 4.3 302 0.0 0.0 1023.0 1.8 31.5 29.4 0.0
03/10/19 13:00 31.6 18 4.4 0.0 4.3 304 0.0 0.0 1023.0 1.4 31.6 29.5 0.0
03/10/19 13:02 31.6 18 4.4 2.2 4.3 255 0.0 0.0 1023.0 1.4 31.6 29.5 0.0
03/10/19 13:03 31.7 18 4.5 1.8 4.3 253 0.0 0.0 1023.0 2.2 31.7 29.6 0.0
03/10/19 13:04 31.7 18 4.5 0.0 4.3 257 0.0 0.0 1023.0 1.8 31.7 29.6 0.0
03/10/19 13:05 31.7 18 4.5 1.4 4.3 266 0.0 0.0 1023.0 1.4 31.7 29.6 0.0
03/10/19 13:06 31.8 18 4.5 0.0 4.3 266 0.0 0.0 1023.0 0.0 31.8 29.7 0.0
03/10/19 13:07 32.0 17 3.9 1.8 4.3 269 0.0 0.0 1023.0 1.8 31.9 29.8 0.0
03/10/19 13:08 32.0 17 3.9 1.4 4.3 263 0.0 0.0 1023.0 1.8 32.0 29.8 0.0
03/10/19 13:09 32.0 15 2.1 1.4 4.3 257 0.0 0.0 1023.0 1.8 32.0 29.8 0.0
03/10/19 13:10 32.1 15 2.2 1.4 4.3 258 0.0 0.0 1023.0 0.0 32.1 29.9 0.0
03/10/19 13:11 32.2 17 4.1 0.0 3.6 255 0.0 0.0 1023.0 0.0 32.2 30.0 0.0
03/10/19 13:12 32.3 17 4.1 0.0 3.6 264 0.0 0.0 1023.0 0.0 32.3 30.1 0.0
03/10/19 13:13 32.3 15 2.4 0.0 3.6 274 0.0 0.0 1023.0 1.8 32.3 30.1 0.0
03/10/19 13:14 32.5 15 2.5 1.4 3.6 280 0.0 0.0 1023.0 2.2 32.4 30.2 0.0
03/10/19 13:15 32.4 12 -0.7 0.0 4.0 285 0.0 0.0 1023.0 3.2 32.5 30.0 0.0
03/10/19 13:17 32.1 10 -3.4 2.5 4.0 285 0.0 0.0 1023.0 0.0 32.1 29.5 0.0
03/10/19 13:18 32.1 10 -3.4 1.4 4.0 289 0.0 0.0 1023.0 4.0 32.1 29.5 0.0
03/10/19 13:19 32.1 10 -3.4 4.3 6.1 288 0.0 0.0 1023.0 2.5 32.1 29.5 0.0
03/10/19 13:20 31.7 8 -6.6 2.2 6.1 260 0.0 0.0 1023.0 3.2 31.7 29.0 0.0
03/10/19 13:21 31.6 8 -6.7 1.8 6.1 196 0.0 0.0 1023.0 2.2 31.6 28.9 0.0
03/10/19 13:22 31.6 8 -6.7 1.8 6.1 168 0.0 0.0 1023.0 0.0 31.6 28.9 0.0
03/10/19 13:23 31.8 10 -3.6 0.0 6.1 168 0.0 0.0 1023.0 0.0 31.6 29.3 0.0
03/10/19 13:24 31.8 8 -6.5 1.4 6.1 153 0.0 0.0 1023.0 1.8 31.8 29.1 0.0
03/10/19 13:25 31.8 5 -12.5 3.2 6.1 177 0.0 0.0 1023.0 2.5 31.8 28.8 0.0
03/10/19 13:26 31.7 3 -18.8 3.2 6.1 24 0.0 0.0 1023.0 2.2 31.7 28.6 0.0
03/10/19 13:27 31.6 5 -12.7 1.4 6.1 39 0.0 0.0 1023.0 1.4 31.6 28.7 0.0
03/10/19 13:28 31.6 5 -12.7 0.0 6.1 59 0.0 0.0 1023.0 0.0 31.6 28.7 0.0
03/10/19 13:29 31.8 8 -6.5 0.0 4.7 44 0.0 0.0 1023.0 0.0 31.8 29.1 0.0
03/10/19 13:30 32.1 7 -8.1 0.0 4.7 19 0.0 0.0 1023.0 0.0 31.9 29.2 0.0
03/10/19 13:32 32.3 10 -3.2 0.0 3.6 47 0.0 0.0 1023.0 3.6 32.3 29.7 0.0
03/10/19 13:33 32.4 5 -12.1 2.2 4.0 11 0.0 0.0 1023.0 1.4 32.4 29.3 0.0
03/10/19 13:34 32.4 7 -7.8 1.4 4.0 8 0.0 0.0 1023.0 0.0 32.4 29.4 0.0
03/10/19 13:35 32.5 7 -7.8 0.0 4.0 13 0.0 0.0 1023.0 3.2 32.5 29.5 0.0
03/10/19 13:36 32.1 2 -23.2 4.3 5.8 77 0.0 0.0 1023.0 5.8 32.1 28.9 0.0
03/10/19 13:37 30.9 2 -23.9 3.6 7.9 50 0.0 0.0 1023.0 7.9 31.2 28.0 0.0
03/10/19 13:38 30.9 2 -23.9 7.9 10.1 95 0.0 0.0 1022.0 1.8 30.9 28.0 0.0
03/10/19 13:39 30.6 3 -19.5 2.2 10.1 101 0.0 0.0 1022.0 1.8 30.6 27.8 0.0
03/10/19 13:40 30.6 3 -19.5 1.8 10.1 104 0.0 0.0 1022.0 2.5 30.6 27.8 0.0
03/10/19 13:41 31.2 3 -19.1 0.0 10.1 104 0.0 0.0 1022.0 0.0 31.2 28.3 0.0
03/10/19 13:42 31.5 3 -18.9 0.0 10.1 109 0.0 0.0 1022.0 1.4 31.5 28.5 0.0
03/10/19 13:43 31.8 3 -18.7 0.0 10.1 121 0.0 0.0 1022.0 1.8 31.8 28.7 0.0
03/10/19 13:44 32.0 5 -12.4 1.4 10.1 125 0.0 0.0 1022.0 0.0 32.0 29.0 0.0
03/10/19 13:45 31.6 3 -18.8 0.0 10.1 126 0.0 0.0 1022.0 1.8 31.6 28.5 0.0
03/10/19 13:48 31.8 5 -12.5 0.0 2.5 112 0.0 0.0 1022.0 0.0 31.8 28.8 0.0
03/10/19 13:49 32.0 5 -12.4 0.0 2.5 115 0.0 0.0 1022.0 0.0 32.0 29.0 0.0
03/10/19 13:50 32.1 7 -8.1 0.0 2.5 118 0.0 0.0 1022.0 0.0 32.1 29.2 0.0
03/10/19 13:51 32.3 7 -7.9 0.0 1.8 123 0.0 0.0 1022.0 0.0 32.3 29.4 0.0
03/10/19 13:52 32.2 2 -23.1 0.0 1.8 123 0.0 0.0 1022.0 0.0 32.2 28.9 0.0
03/10/19 13:53 32.2 5 -12.3 0.0 1.8 128 0.0 0.0 1022.0 1.4 32.2 29.1 0.0
03/10/19 13:54 32.2 2 -23.1 1.4 2.2 132 0.0 0.0 1022.0 0.0 32.2 28.9 0.0
03/10/19 13:55 32.3 5 -12.2 0.0 2.2 133 0.0 0.0 1022.0 0.0 32.3 29.2 0.0
03/10/19 13:56 32.4 5 -12.1 0.0 2.2 135 0.0 0.0 1022.0 1.8 32.4 29.3 0.0
03/10/19 13:57 32.4 5 -12.1 1.4 2.5 135 0.0 0.0 1022.0 2.2 32.4 29.3 0.0
03/10/19 13:58 32.4 2 -23.0 0.0 2.5 135 0.0 0.0 1022.0 0.0 32.4 29.1 0.0
03/10/19 13:59 32.3 5 -12.2 1.4 2.5 135 0.0 0.0 1022.0 1.8 32.3 29.2 0.0
03/10/19 14:02 31.9 3 -18.6 0.0 2.2 133 0.0 0.0 1022.0 0.0 31.9 28.8 0.0
03/10/19 14:03 32.1 2 -23.2 0.0 2.2 133 0.0 0.0 1022.0 1.8 32.1 28.9 0.0
03/10/19 14:04 32.0 2 -23.2 3.2 5.4 135 0.0 0.0 1022.0 1.4 32.0 28.8 0.0
03/10/19 14:05 31.8 2 -23.4 0.0 5.4 135 0.0 0.0 1022.0 0.0 31.8 28.6 0.0
03/10/19 14:06 31.9 2 -23.3 0.0 5.4 135 0.0 0.0 1022.0 0.0 31.9 28.7 0.0
03/10/19 14:07 32.3 2 -23.1 0.0 5.4 135 0.0 0.0 1022.0 0.0 32.1 29.0 0.0
03/10/19 14:08 32.4 2 -23.0 0.0 5.4 129 0.0 0.0 1022.0 1.8 32.3 29.1 0.0
03/10/19 14:09 32.6 2 -22.9 0.0 5.4 124 0.0 0.0 1022.0 2.2 32.6 29.2 0.0
03/10/19 14:10 32.7 2 -22.8 0.0 5.4 124 0.0 0.0 1022.0 0.0 32.7 29.3 0.0
03/10/19 14:11 32.7 2 -22.8 0.0 5.4 124 0.0 0.0 1022.0 0.0 32.7 29.3 0.0
03/10/19 14:12 32.7 2 -22.8 0.0 5.4 124 0.0 0.0 1022.0 0.0 32.7 29.3 0.0
03/10/19 14:13 32.8 2 -22.7 0.0 5.4 149 0.0 0.0 1022.0 4.3 32.8 29.4 0.0
03/10/19 14:14 32.8 2 -22.7 1.8 4.3 206 0.0 0.0 1022.0 1.4 32.8 29.4 0.0
03/10/19 14:17 32.8 2 -22.7 0.0 4.3 146 0.0 0.0 1022.0 0.0 32.8 29.4 0.0
03/10/19 14:18 32.7 2 -22.8 0.0 4.3 146 0.0 0.0 1022.0 0.0 32.7 29.3 0.0
03/10/19 14:19 32.7 2 -22.8 0.0 4.3 162 0.0 0.0 1022.0 0.0 32.7 29.3 0.0
03/10/19 14:20 32.6 2 -22.9 0.0 4.3 162 0.0 0.0 1022.0 0.0 32.6 29.2 0.0
03/10/19 14:21 32.5 2 -22.9 0.0 4.3 154 0.0 0.0 1022.0 2.2 32.5 29.1 0.0
03/10/19 14:22 32.5 2 -22.9 0.0 4.3 168 0.0 0.0 1022.0 3.6 32.5 29.1 0.0
03/10/19 14:23 31.6 2 -23.5 1.8 4.3 175 0.0 0.0 1022.0 1.4 32.0 28.5 0.0
03/10/19 14:24 31.6 2 -23.5 0.0 3.6 184 0.0 0.0 1022.0 0.0 31.6 28.5 0.0
03/10/19 14:25 31.6 2 -23.5 0.0 5.0 169 0.0 0.0 1022.0 5.0 31.6 28.5 0.0
03/10/19 14:26 31.3 2 -23.7 0.0 6.8 152 0.0 0.0 1022.0 5.4 31.6 28.3 0.0
03/10/19 14:27 31.3 2 -23.7 2.5 6.8 148 0.0 0.0 1022.0 4.3 31.3 28.3 0.0
03/10/19 14:28 31.0 2 -23.9 4.7 6.8 144 0.0 0.0 1022.0 4.0 31.0 28.1 0.0
03/10/19 14:29 30.5 2 -24.2 3.6 6.8 142 0.0 0.0 1022.0 4.0 30.5 27.7 0.0
03/10/19 14:30 30.0 2 -24.5 3.2 6.8 141 0.0 0.0 1022.0 1.8 30.2 27.3 0.0
03/10/19 14:32 29.2 2 -25.0 4.7 5.4 148 0.0 0.0 1022.0 4.0 29.2 26.7 0.0
03/10/19 14:33 29.0 2 -25.2 2.5 5.4 144 0.0 0.0 1022.0 0.0 29.0 26.6 0.0
03/10/19 14:34 28.9 2 -25.2 0.0 5.4 144 0.0 0.0 1022.0 0.0 28.9 26.5 0.0
03/10/19 14:35 29.2 2 -25.0 0.0 5.4 144 0.0 0.0 1022.0 0.0 29.2 26.7 0.0
03/10/19 14:36 29.5 2 -24.8 0.0 5.4 140 0.0 0.0 1022.0 0.0 29.5 27.0 0.0
03/10/19 14:37 29.9 2 -24.6 0.0 4.3 139 0.0 0.0 1022.0 0.0 29.9 27.3 0.0
03/10/19 14:38 30.6 2 -24.1 0.0 4.3 137 0.0 0.0 1021.0 0.0 30.2 27.8 0.0
03/10/19 14:39 30.7 2 -24.1 0.0 4.3 136 0.0 0.0 1021.0 0.0 30.7 27.8 0.0
03/10/19 14:40 30.8 2 -24.0 1.4 4.3 135 0.0 0.0 1021.0 1.8 30.8 27.9 0.0
03/10/19 14:41 30.9 2 -23.9 1.8 4.3 143 0.0 0.0 1021.0 0.0 30.9 28.0 0.0
03/10/19 14:42 30.9 2 -23.9 0.0 4.0 158 0.0 0.0 1021.0 0.0 30.9 28.0 0.0
03/10/19 14:43 31.1 2 -23.8 0.0 3.2 167 0.0 0.0 1021.0 0.0 31.1 28.1 0.0
03/10/19 14:44 31.2 2 -23.8 0.0 3.2 167 0.0 0.0 1021.0 0.0 31.2 28.2 0.0
03/10/19 14:45 31.5 2 -23.6 0.0 3.2 176 0.0 0.0 1021.0 0.0 31.2 28.4 0.0
03/10/19 14:47 31.8 2 -23.4 0.0 1.8 135 0.0 0.0 1021.0 0.0 31.8 28.6 0.0
03/10/19 14:48 31.9 2 -23.3 0.0 2.5 156 0.0 0.0 1021.0 1.4 31.9 28.7 0.0
03/10/19 14:49 31.9 2 -23.3 1.8 2.5 146 0.0 0.0 1021.0 2.2 31.9 28.7 0.0
03/10/19 14:50 31.7 2 -23.4 4.0 5.0 60 0.0 0.0 1021.0 2.5 31.7 28.6 0.0
03/10/19 14:51 31.4 2 -23.6 1.4 5.0 37 0.0 0.0 1021.0 0.0 31.4 28.3 0.0
03/10/19 14:52 31.3 2 -23.7 0.0 5.0 37 0.0 0.0 1021.0 0.0 31.3 28.3 0.0
03/10/19 14:53 31.2 2 -23.8 0.0 5.0 22 0.0 0.0 1021.0 4.7 31.3 28.2 0.0
03/10/19 14:54 30.8 2 -24.0 4.0 5.0 17 0.0 0.0 1021.0 0.0 30.8 27.9 0.0
03/10/19 14:55 30.6 2 -24.1 0.0 5.0 14 0.0 0.0 1021.0 0.0 30.6 27.8 0.0
03/10/19 14:58 30.7 2 -24.1 0.0 4.7 54 34.8 0.0 1023.0 0.0 30.7 27.8 0.0
03/10/19 14:59 30.9 2 -23.9 0.0 4.7 35 34.8 0.0 1021.0 0.0 30.9 28.0 0.0
03/10/19 15:00 31.1 2 -23.8 0.0 4.7 23 34.8 0.0 1021.0 0.0 31.1 28.1 0.0
03/10/19 15:01 31.3 2 -23.7 0.0 4.7 23 34.8 0.0 1021.0 0.0 31.3 28.3 0.0
03/10/19 15:02 31.5 2 -23.6 0.0 4.7 348 34.8 0.0 1021.0 4.7 31.5 28.4 0.0
03/10/19 15:01 31.5 2 -23.6 0.0 4.7 348 34.8 0.0 1021.0 4.7 31.5 28.4 0.0
03/10/19 15:02 31.8 2 -23.4 0.0 4.7 348 34.8 0.0 1021.0 0.0 31.8 28.6 0.0
03/10/19 15:03 31.8 2 -23.4 0.0 4.7 348 34.8 0.0 1021.0 0.0 31.8 28.6 0.0
03/10/19 15:04 31.9 2 -23.3 0.0 4.7 314 34.8 0.0 1021.0 3.6 31.9 28.7 0.0
03/10/19 15:05 31.9 2 -23.3 3.2 4.7 314 34.8 0.0 1021.0 4.3 31.9 28.7 0.0
03/10/19 15:06 31.8 2 -23.4 1.4 4.7 314 34.8 0.0 1021.0 0.0 31.8 28.6 0.0
03/10/19 15:07 31.7 2 -23.4 0.0 4.7 314 34.8 0.0 1021.0 0.0 31.7 28.6 0.0
03/10/19 15:08 31.7 2 -23.4 0.0 4.7 314 34.8 0.0 1021.0 0.0 31.7 28.6 0.0
03/10/19 15:09 31.7 2 -23.4 0.0 4.7 314 34.8 0.0 1021.0 0.0 31.7 28.6 0.0
03/10/19 15:10 31.5 2 -23.6 1.4 4.7 314 34.8 0.0 1021.0 1.4 31.5 28.4 0.0
03/10/19 15:11 31.4 2 -23.6 1.4 4.7 314 34.8 0.0 1021.0 0.0 31.4 28.3 0.0
03/10/19 15:12 31.5 2 -23.6 0.0 4.7 314 34.8 0.0 1021.0 1.4 31.5 28.4 0.0
03/10/19 15:13 31.5 2 -23.6 1.8 4.3 314 34.8 0.0 1021.0 0.0 31.5 28.4 0.0
03/10/19 15:14 31.5 2 -23.6 0.0 4.3 314 34.8 0.0 1021.0 0.0 31.5 28.4 0.0
03/10/19 15:15 31.7 2 -23.4 0.0 4.3 314 34.8 0.0 1021.0 0.0 31.7 28.6 0.0
03/10/19 15:17 31.5 2 -23.6 1.8 4.3 135 0.0 0.0 1021.0 4.3 31.5 28.4 0.0
03/10/19 15:18 31.3 2 -23.7 4.3 5.4 139 0.0 0.0 1021.0 2.5 31.3 28.3 0.0
03/10/19 15:19 31.3 2 -23.7 1.4 5.4 147 0.0 0.0 1021.0 1.8 31.3 28.3 0.0
03/10/19 15:20 31.3 2 -23.7 1.8 5.4 167 0.0 0.0 1021.0 3.2 31.3 28.3 0.0
03/10/19 15:21 31.0 2 -23.9 2.5 5.8 182 0.0 0.0 1021.0 0.0 31.0 28.1 0.0
03/10/19 15:22 31.0 2 -23.9 0.0 5.8 179 0.0 0.0 1021.0 0.0 31.0 28.1 0.0
03/10/19 15:23 31.4 2 -23.6 0.0 5.8 179 0.0 0.0 1021.0 0.0 31.2 28.3 0.0
03/10/19 15:24 31.7 2 -23.4 0.0 5.8 179 0.0 0.0 1021.0 0.0 31.7 28.6 0.0
03/10/19 15:25 31.8 2 -23.4 0.0 5.8 179 0.0 0.0 1021.0 0.0 31.8 28.6 0.0
03/10/19 15:26 31.9 2 -23.3 0.0 5.8 184 0.0 0.0 1021.0 0.0 31.9 28.7 0.0
03/10/19 15:27 31.9 2 -23.3 0.0 5.8 195 0.0 0.0 1021.0 0.0 31.9 28.7 0.0
03/10/19 15:28 31.9 2 -23.3 1.4 5.8 225 0.0 0.0 1021.0 0.0 31.9 28.7 0.0
03/10/19 15:29 31.7 2 -23.4 0.0 5.8 225 0.0 0.0 1021.0 0.0 31.7 28.6 0.0
03/10/19 15:30 31.6 2 -23.5 0.0 5.8 225 0.0 0.0 1021.0 0.0 31.6 28.5 0.0
03/10/19 15:32 31.6 2 -23.5 0.0 0.0 0 0.0 0.0 1021.0 0.0 31.6 28.5 0.0
03/10/19 15:33 31.7 2 -23.4 0.0 1.4 225 0.0 0.0 1021.0 0.0 31.7 28.6 0.0
03/10/19 15:34 31.7 2 -23.4 0.0 1.4 225 0.0 0.0 1021.0 0.0 31.7 28.6 0.0
03/10/19 15:35 31.8 2 -23.4 0.0 1.4 225 0.0 0.0 1021.0 0.0 31.8 28.6 0.0
03/10/19 15:36 31.8 2 -23.4 0.0 1.4 225 0.0 0.0 1021.0 0.0 31.8 28.6 0.0
03/10/19 15:37 31.8 2 -23.4 0.0 1.4 225 0.0 0.0 1021.0 0.0 31.8 28.6 0.0
03/10/19 15:38 31.8 2 -23.4 0.0 1.8 225 0.0 0.0 1021.0 1.8 31.9 28.6 0.0
03/10/19 15:39 31.8 2 -23.4 0.0 1.8 225 0.0 0.0 1021.0 0.0 31.8 28.6 0.0
03/10/19 15:40 31.8 2 -23.4 0.0 1.8 225 0.0 0.0 1021.0 0.0 31.8 28.6 0.0
03/10/19 15:41 31.8 2 -23.4 0.0 1.8 225 0.0 0.0 1021.0 0.0 31.8 28.6 0.0
03/10/19 15:42 31.8 2 -23.4 0.0 1.8 225 0.0 0.0 1021.0 0.0 31.8 28.6 0.0
03/10/19 15:43 31.8 2 -23.4 0.0 3.6 225 0.0 0.0 1021.0 2.5 31.8 28.6 0.0
03/10/19 15:44 31.6 2 -23.5 0.0 3.6 225 0.0 0.0 1021.0 0.0 31.6 28.5 0.0
03/10/19 15:47 31.2 2 -23.8 0.0 2.5 225 0.0 0.0 1021.0 0.0 31.2 28.2 0.0
03/10/19 15:48 30.9 2 -23.9 0.0 2.5 225 0.0 0.0 1021.0 0.0 30.9 28.0 0.0
03/10/19 15:49 30.5 2 -24.2 0.0 2.5 225 0.0 0.0 1021.0 0.0 30.5 27.7 0.0
03/10/19 15:50 30.2 2 -24.4 0.0 2.5 225 0.0 0.0 1021.0 0.0 30.2 27.5 0.0
03/10/19 15:51 30.1 2 -24.5 0.0 2.5 225 0.0 0.0 1021.0 0.0 30.1 27.4 0.0
03/10/19 15:52 30.0 2 -24.5 0.0 2.5 225 0.0 0.0 1021.0 0.0 30.0 27.3 0.0
03/10/19 15:53 29.6 2 -24.8 1.4 4.7 351 0.0 0.0 1021.0 3.2 29.9 27.0 0.0
03/10/19 15:54 29.4 2 -24.9 2.2 4.7 73 0.0 0.0 1021.0 2.5 29.4 26.9 0.0
03/10/19 15:55 29.4 2 -24.9 1.8 4.7 96 0.0 0.0 1021.0 1.4 29.4 26.9 0.0
03/10/19 15:56 29.2 2 -25.0 0.0 4.7 107 0.0 0.0 1021.0 0.0 29.2 26.7 0.0
03/10/19 15:57 28.9 2 -25.2 0.0 4.7 108 0.0 0.0 1021.0 0.0 28.9 26.5 0.0
03/10/19 15:58 28.6 2 -25.4 0.0 4.7 123 0.0 0.0 1021.0 0.0 28.6 26.3 0.0
03/10/19 15:59 28.3 2 -25.6 0.0 4.7 187 0.0 0.0 1021.0 3.2 28.3 26.1 0.0
03/10/19 16:00 27.9 2 -25.9 0.0 4.7 187 0.0 0.0 1021.0 0.0 27.9 25.8 0.0
03/10/19 16:02 27.1 2 -26.4 0.0 3.2 79 0.0 0.0 1021.0 0.0 27.1 25.2 0.0
03/10/19 16:03 27.2 2 -26.3 0.0 3.2 79 0.0 0.0 1021.0 0.0 27.2 25.3 0.0
03/10/19 16:04 27.2 2 -26.3 0.0 3.2 127 0.0 0.0 1021.0 0.0 27.2 25.3 0.0
03/10/19 16:05 27.0 2 -26.4 0.0 3.2 163 0.0 0.0 1021.0 0.0 27.0 25.2 0.0
03/10/19 16:06 27.1 2 -26.4 0.0 3.2 188 0.0 0.0 1021.0 0.0 27.1 25.2 0.0
03/10/19 16:07 27.1 2 -26.4 0.0 3.2 188 0.0 0.0 1021.0 0.0 27.1 25.2 0.0
03/10/19 16:08 27.0 2 -26.4 0.0 3.2 188 0.0 0.0 1021.0 0.0 27.0 25.2 0.0
03/10/19 16:11 26.8 2 -26.6 0.0 0.0 0 34.8 0.0 1021.0 0.0 26.8 25.0 0.0
03/10/19 16:12 26.8 2 -26.6 0.0 0.0 0 34.8 0.0 1021.0 0.0 26.8 25.0 0.0
03/10/19 16:13 26.5 2 -26.8 0.0 2.2 1 34.8 0.0 1021.0 2.2 26.5 26.5 0.0
03/10/19 16:14 26.2 2 -27.0 0.0 2.2 1 34.8 0.0 1021.0 0.0 26.2 26.2 0.0
03/10/19 16:15 26.0 2 -27.1 0.0 2.2 1 34.8 0.0 1021.0 0.0 26.0 26.0 0.0
03/10/19 16:16 25.9 2 -27.2 0.0 2.2 1 34.8 0.0 1021.0 0.0 25.9 25.9 0.0
03/10/19 16:17 25.7 2 -27.3 0.0 2.2 1 34.8 0.0 1021.0 0.0 25.7 25.7 0.0
03/10/19 16:16 25.8 2 -27.2 0.0 2.2 1 34.8 0.0 1021.0 0.0 25.7 25.8 0.0
03/10/19 16:17 25.8 2 -27.2 0.0 2.2 1 34.8 0.0 1021.0 0.0 25.8 25.8 0.0
03/10/19 16:18 25.9 2 -27.2 0.0 2.2 1 34.8 0.0 1021.0 0.0 25.9 25.9 0.0
03/10/19 16:19 26.0 2 -27.1 0.0 2.2 1 34.8 0.0 1021.0 0.0 26.0 26.0 0.0
03/10/19 16:20 26.1 2 -27.0 0.0 2.2 1 34.8 0.0 1021.0 0.0 26.1 26.1 0.0
03/10/19 16:21 26.2 2 -27.0 0.0 2.2 1 34.8 0.0 1021.0 0.0 26.2 26.2 0.0
03/10/19 16:22 26.2 2 -27.0 0.0 2.2 1 34.8 0.0 1021.0 0.0 26.2 26.2 0.0
03/10/19 16:23 26.4 2 -26.8 0.0 2.2 1 34.8 0.0 1021.0 0.0 26.4 26.4 0.0
03/10/19 16:24 26.6 2 -26.7 0.0 0.0 0 34.8 0.0 1021.0 0.0 26.5 26.6 0.0
03/10/19 16:25 26.8 2 -26.6 0.0 0.0 0 34.8 0.0 1021.0 0.0 26.8 25.0 0.0
03/10/19 16:26 26.9 2 -26.5 0.0 0.0 0 34.8 0.0 1021.0 0.0 26.9 25.1 0.0
03/10/19 16:27 27.0 2 -26.4 0.0 0.0 0 34.8 0.0 1021.0 0.0 27.0 25.2 0.0
03/10/19 16:28 27.0 2 -26.4 0.0 0.0 0 34.8 0.0 1021.0 0.0 27.0 25.2 0.0
03/10/19 16:29 27.1 2 -26.4 0.0 0.0 0 34.8 0.0 1021.0 0.0 27.1 25.2 0.0
03/10/19 16:30 27.1 2 -26.4 0.0 0.0 0 34.8 0.0 1021.0 0.0 27.1 25.2 0.0
03/10/19 16:32 27.0 2 -26.4 0.0 0.0 0 0.0 0.0 1021.0 0.0 27.0 25.2 0.0
03/10/19 16:33 26.9 2 -26.5 0.0 0.0 0 0.0 0.0 1021.0 0.0 26.9 25.1 0.0
03/10/19 16:34 26.7 2 -26.6 0.0 0.0 0 0.0 0.0 1021.0 0.0 26.7 25.0 0.0
03/10/19 16:35 26.6 2 -26.7 0.0 0.0 0 0.0 0.0 1021.0 0.0 26.6 26.6 0.0
03/10/19 16:36 26.4 2 -26.8 0.0 0.0 0 0.0 0.0 1021.0 0.0 26.4 26.4 0.0
03/10/19 16:37 26.3 2 -26.9 0.0 0.0 0 0.0 0.0 1021.0 0.0 26.3 26.3 0.0
03/10/19 16:38 26.1 2 -27.0 0.0 0.0 0 0.0 0.0 1021.0 0.0 26.1 26.1 0.0
03/10/19 16:39 25.8 2 -27.2 0.0 0.0 0 0.0 0.0 1021.0 0.0 25.8 25.8 0.0
03/10/19 16:40 25.6 2 -27.3 0.0 0.0 0 0.0 0.0 1021.0 0.0 25.6 25.6 0.0
03/10/19 16:41 25.5 2 -27.4 0.0 0.0 0 0.0 0.0 1021.0 0.0 25.5 25.5 0.0
03/10/19 16:42 25.4 2 -27.5 0.0 0.0 0 0.0 0.0 1021.0 0.0 25.4 25.4 0.0
03/10/19 16:43 25.2 2 -27.6 0.0 0.0 0 0.0 0.0 1021.0 0.0 25.2 25.2 0.0
03/10/19 16:44 25.1 2 -27.7 0.0 0.0 0 0.0 0.0 1021.0 0.0 25.1 25.1 0.0
03/10/19 16:45 24.9 2 -27.8 0.0 0.0 0 0.0 0.0 1021.0 0.0 24.9 24.9 0.0
03/10/19 16:47 24.5 2 -28.1 0.0 0.0 0 0.0 0.0 1021.0 0.0 24.5 24.5 0.0
03/10/19 16:48 24.4 2 -28.1 0.0 0.0 0 0.0 0.0 1021.0 0.0 24.4 24.4 0.0
03/10/19 16:49 24.3 2 -28.2 0.0 0.0 0 0.0 0.0 1021.0 0.0 24.3 24.3 0.0
03/10/19 16:50 24.2 2 -28.3 0.0 0.0 0 0.0 0.0 1021.0 0.0 24.2 24.2 0.0
03/10/19 16:51 24.0 2 -28.4 1.4 0.0 0 0.0 0.0 1021.0 0.0 24.0 24.0 0.0
03/10/19 16:52 23.8 2 -28.5 0.0 1.4 270 0.0 0.0 1021.0 0.0 23.8 23.8 0.0
03/10/19 16:53 23.7 2 -28.6 0.0 1.4 270 0.0 0.0 1021.0 0.0 23.7 23.7 0.0
03/10/19 16:54 23.5 2 -28.7 0.0 1.4 270 0.0 0.0 1021.0 0.0 23.6 23.5 0.0
03/10/19 16:55 23.4 2 -28.8 0.0 1.4 270 0.0 0.0 1021.0 0.0 23.5 23.4 0.0
03/10/19 16:56 23.3 2 -28.8 0.0 1.4 270 0.0 0.0 1021.0 0.0 23.4 23.3 0.0
03/10/19 16:57 23.2 2 -28.9 0.0 1.4 270 0.0 0.0 1021.0 0.0 23.3 23.2 0.0
03/10/19 16:58 23.1 2 -29.0 0.0 1.4 270 0.0 0.0 1021.0 0.0 23.1 23.1 0.0
03/10/19 16:59 23.0 2 -29.0 0.0 1.4 207 0.0 0.0 1021.0 0.0 23.0 23.0 0.0
03/10/19 17:00 22.9 3 -24.7 0.0 1.4 207 0.0 0.0 1021.0 0.0 22.9 22.9 0.0
03/10/19 17:02 22.8 3 -24.7 0.0 0.0 0 0.0 0.0 1021.0 0.0 0.0 22.8 0.0
03/10/19 17:03 22.7 3 -24.8 0.0 0.0 0 0.0 0.0 1021.0 0.0 22.8 22.7 0.0
03/10/19 17:04 22.6 3 -24.9 0.0 0.0 0 0.0 0.0 1021.0 0.0 22.6 22.6 0.0
03/10/19 17:05 22.5 3 -24.9 0.0 0.0 0 0.0 0.0 1021.0 0.0 22.5 22.5 0.0
03/10/19 17:06 22.4 3 -25.0 0.0 0.0 0 0.0 0.0 1021.0 0.0 22.4 22.4 0.0
03/10/19 17:07 22.4 3 -25.0 0.0 0.0 0 0.0 0.0 1021.0 0.0 22.4 22.4 0.0
03/10/19 17:08 22.3 3 -25.1 0.0 0.0 0 0.0 0.0 1021.0 0.0 22.4 22.3 0.0
03/10/19 17:09 22.1 3 -25.2 0.0 0.0 0 0.0 0.0 1021.0 0.0 22.2 22.1 0.0
03/10/19 17:10 22.1 3 -25.2 0.0 0.0 0 0.0 0.0 1021.0 0.0 22.1 22.1 0.0
03/10/19 17:11 22.0 3 -25.3 0.0 0.0 0 0.0 0.0 1021.0 0.0 22.1 22.0 0.0
03/10/19 17:12 21.9 3 -25.3 0.0 0.0 0 0.0 0.0 1021.0 0.0 22.0 21.9 0.0
03/10/19 17:13 21.8 3 -25.4 0.0 0.0 0 0.0 0.0 1021.0 0.0 21.8 21.8 0.0
03/10/19 17:14 21.8 3 -25.4 0.0 0.0 0 0.0 0.0 1021.0 0.0 21.8 21.8 0.0
03/10/19 17:15 21.7 3 -25.5 0.0 0.0 0 0.0 0.0 1021.0 0.0 21.7 21.7 0.0
03/10/19 17:17 21.5 3 -25.6 0.0 0.0 0 0.0 0.0 1021.0 0.0 21.6 21.5 0.0
03/10/19 17:18 21.5 3 -25.6 0.0 0.0 0 0.0 0.0 1021.0 0.0 21.5 21.5 0.0
03/10/19 17:19 21.5 3 -25.6 0.0 0.0 0 0.0 0.0 1021.0 0.0 21.5 21.5 0.0
03/10/19 17:20 21.4 3 -25.7 0.0 0.0 0 0.0 0.0 1021.0 0.0 21.4 21.4 0.0
03/10/19 17:21 21.3 3 -25.7 0.0 0.0 0 0.0 0.0 1021.0 0.0 21.3 21.3 0.0
03/10/19 17:22 21.3 3 -25.7 0.0 0.0 0 0.0 0.0 1021.0 0.0 21.3 21.3 0.0
03/10/19 17:23 21.2 3 -25.8 0.0 0.0 0 0.0 0.0 1021.0 0.0 21.2 21.2 0.0
03/10/19 17:24 21.1 3 -25.9 0.0 0.0 0 0.0 0.0 1021.0 0.0 21.2 21.1 0.0
03/10/19 17:25 21.1 3 -25.9 0.0 0.0 0 0.0 0.0 1021.0 0.0 21.1 21.1 0.0
03/10/19 17:26 21.1 3 -25.9 0.0 0.0 0 0.0 0.0 1021.0 0.0 21.1 21.1 0.0
03/10/19 17:27 21.0 3 -26.0 0.0 0.0 0 0.0 0.0 1021.0 0.0 21.1 21.0 0.0
03/10/19 17:28 21.0 3 -26.0 0.0 0.0 0 0.0 0.0 1021.0 0.0 21.0 21.0 0.0
03/10/19 17:29 20.9 4 -22.8 0.0 0.0 0 0.0 0.0 1021.0 0.0 20.9 20.9 0.0
03/10/19 17:30 20.9 4 -22.8 0.0 0.0 0 0.0 0.0 1021.0 0.0 20.9 20.9 0.0
03/10/19 17:32 20.7 4 -22.9 0.0 0.0 0 0.0 0.0 1021.0 0.0 0.0 20.7 0.0
03/10/19 17:33 20.7 5 -20.4 0.0 0.0 0 0.0 0.0 1021.0 0.0 20.7 20.7 0.0
03/10/19 17:34 20.6 5 -20.5 0.0 0.0 0 0.0 0.0 1021.0 0.0 20.7 20.6 0.0
03/10/19 17:35 20.6 5 -20.5 0.0 0.0 0 0.0 0.0 1021.0 0.0 20.6 20.6 0.0
03/10/19 17:36 20.6 5 -20.5 0.0 0.0 0 0.0 0.0 1021.0 0.0 20.6 20.6 0.0
03/10/19 17:37 20.5 5 -20.5 0.0 0.0 0 0.0 0.0 1021.0 0.0 20.5 20.5 0.0
03/10/19 17:38 20.5 5 -20.5 0.0 0.0 0 0.0 0.0 1021.0 0.0 20.5 20.5 0.0
03/10/19 17:39 20.4 7 -16.6 0.0 0.0 0 0.0 0.0 1021.0 0.0 20.4 20.4 0.0
03/10/19 17:40 20.3 7 -16.7 0.0 0.0 0 0.0 0.0 1021.0 0.0 20.3 20.3 0.0
03/10/19 17:41 20.3 10 -12.4 0.0 0.0 0 0.0 0.0 1021.0 0.0 20.3 20.3 0.0
03/10/19 17:42 20.2 10 -12.4 0.0 0.0 0 0.0 0.0 1021.0 0.0 20.2 20.2 0.0
03/10/19 17:43 20.2 10 -12.4 0.0 0.0 0 0.0 0.0 1021.0 0.0 20.2 20.2 0.0
03/10/19 17:44 20.2 10 -12.4 0.0 0.0 0 0.0 0.0 1021.0 0.0 20.2 20.2 0.0
03/10/19 17:47 20.0 12 -10.3 0.0 0.0 0 0.0 0.0 1021.0 0.0 20.0 20.0 0.0
03/10/19 17:48 19.9 12 -10.4 0.0 0.0 0 0.0 0.0 1021.0 0.0 20.0 19.9 0.0
03/10/19 17:49 19.8 12 -10.5 0.0 0.0 0 0.0 0.0 1021.0 0.0 19.8 19.8 0.0
03/10/19 17:50 19.8 12 -10.5 0.0 0.0 0 0.0 0.0 1021.0 0.0 19.8 19.8 0.0
03/10/19 17:51 19.8 15 -7.6 0.0 0.0 0 0.0 0.0 1021.0 0.0 19.8 19.8 0.0
03/10/19 17:52 19.7 15 -7.7 0.0 0.0 0 0.0 0.0 1021.0 0.0 19.7 19.7 0.0
03/10/19 17:53 19.7 15 -7.7 0.0 0.0 0 0.0 0.0 1021.0 0.0 19.7 19.7 0.0
03/10/19 17:54 19.6 15 -7.8 0.0 0.0 0 0.0 0.0 1021.0 0.0 19.6 19.6 0.0
03/10/19 17:55 19.5 15 -7.9 0.0 0.0 0 0.0 0.0 1021.0 0.0 19.6 19.5 0.0
03/10/19 17:56 19.5 15 -7.9 0.0 0.0 0 0.0 0.0 1021.0 0.0 19.5 19.5 0.0
03/10/19 17:57 19.4 15 -7.9 0.0 0.0 0 0.0 0.0 1021.0 0.0 19.4 19.4 0.0
03/10/19 17:58 19.4 15 -7.9 0.0 0.0 0 0.0 0.0 1021.0 0.0 19.4 19.4 0.0
03/10/19 17:59 19.4 17 -6.3 0.0 0.0 0 0.0 0.0 1021.0 0.0 19.4 19.4 0.0
03/10/19 18:02 19.2 17 -6.5 0.0 0.0 0 0.0 0.0 1021.0 0.0 0.0 19.2 0.0
03/10/19 18:03 19.2 20 -4.3 0.0 0.0 0 0.0 0.0 1021.0 0.0 19.2 19.2 0.0
03/10/19 18:04 19.1 20 -4.4 0.0 0.0 0 0.0 0.0 1021.0 0.0 19.1 19.1 0.0
03/10/19 18:05 19.1 20 -4.4 0.0 0.0 0 0.0 0.0 1021.0 0.0 19.1 19.1 0.0
03/10/19 18:06 19.1 20 -4.4 0.0 0.0 0 0.0 0.0 1021.0 0.0 19.1 19.1 0.0
03/10/19 18:07 19.0 20 -4.5 0.0 0.0 0 0.0 0.0 1021.0 0.0 19.0 19.0 0.0
03/10/19 18:08 19.0 20 -4.5 0.0 0.0 0 0.0 0.0 1022.0 0.0 19.0 19.0 0.0
03/10/19 18:09 19.0 20 -4.5 0.0 0.0 0 0.0 0.0 1022.0 0.0 19.0 19.0 0.0
03/10/19 18:10 18.9 20 -4.6 0.0 0.0 0 0.0 0.0 1022.0 0.0 19.0 18.9 0.0
03/10/19 18:11 18.9 20 -4.6 0.0 0.0 0 0.0 0.0 1022.0 0.0 18.9 18.9 0.0
03/10/19 18:12 18.9 20 -4.6 0.0 0.0 0 0.0 0.0 1022.0 0.0 18.9 18.9 0.0
03/10/19 18:13 18.9 20 -4.6 0.0 0.0 0 0.0 0.0 1022.0 0.0 18.9 18.9 0.0
03/10/19 18:14 18.9 20 -4.6 0.0 0.0 0 0.0 0.0 1022.0 0.0 18.9 18.9 0.0
03/10/19 18:17 18.8 23 -2.8 0.0 0.0 0 0.0 0.0 1022.0 0.0 18.8 18.8 0.0
03/10/19 18:18 18.8 23 -2.8 0.0 0.0 0 0.0 0.0 1022.0 0.0 18.8 18.8 0.0
03/10/19 18:19 18.8 23 -2.8 0.0 0.0 0 0.0 0.0 1022.0 0.0 18.8 18.8 0.0
03/10/19 18:20 18.8 23 -2.8 0.0 0.0 0 0.0 0.0 1022.0 0.0 18.8 18.8 0.0
03/10/19 18:21 18.8 23 -2.8 0.0 0.0 0 0.0 0.0 1022.0 0.0 18.8 18.8 0.0
03/10/19 18:22 18.8 23 -2.8 0.0 0.0 0 0.0 0.0 1022.0 0.0 18.8 18.8 0.0
03/10/19 18:23 18.8 23 -2.8 0.0 0.0 0 0.0 0.0 1022.0 0.0 18.8 18.8 0.0
03/10/19 18:24 18.8 23 -2.8 0.0 0.0 0 0.0 0.0 1022.0 0.0 18.8 18.8 0.0
03/10/19 18:25 18.8 23 -2.8 0.0 0.0 0 0.0 0.0 1022.0 0.0 18.8 18.8 0.0
03/10/19 18:26 18.7 23 -2.9 0.0 0.0 0 0.0 0.0 1022.0 0.0 18.8 18.7 0.0
03/10/19 18:27 18.7 23 -2.9 0.0 0.0 0 0.0 0.0 1022.0 0.0 18.7 18.7 0.0
03/10/19 18:28 18.7 23 -2.9 0.0 0.0 0 0.0 0.0 1022.0 0.0 18.7 18.7 0.0
03/10/19 18:29 18.7 23 -2.9 0.0 0.0 0 0.0 0.0 1022.0 0.0 18.7 18.7 0.0
03/10/19 18:32 18.7 23 -2.9 0.0 0.0 0 34.8 0.0 1021.0 0.0 18.7 18.7 0.0
03/10/19 18:32 18.7 24 -2.3 0.0 0.0 0 34.8 0.0 1022.0 0.0 18.7 18.7 0.0
03/10/19 18:33 18.7 24 -2.3 0.0 0.0 0 34.8 0.0 1022.0 0.0 18.7 18.7 0.0
03/10/19 18:34 18.6 24 -2.4 0.0 0.0 0 34.8 0.0 1022.0 0.0 18.7 18.6 0.0
03/10/19 18:35 18.6 24 -2.4 0.0 0.0 0 34.8 0.0 1022.0 0.0 18.6 18.6 0.0
03/10/19 18:36 18.6 24 -2.4 0.0 0.0 0 34.8 0.0 1022.0 0.0 18.6 18.6 0.0
03/10/19 18:37 18.6 24 -2.4 0.0 0.0 0 34.8 0.0 1022.0 0.0 18.6 18.6 0.0
03/10/19 18:38 18.6 24 -2.4 0.0 0.0 0 34.8 0.0 1022.0 0.0 18.6 18.6 0.0
03/10/19 18:39 18.6 24 -2.4 0.0 0.0 0 34.8 0.0 1022.0 0.0 18.6 18.6 0.0
03/10/19 18:40 18.6 24 -2.4 0.0 0.0 0 34.8 0.0 1022.0 0.0 18.6 18.6 0.0
03/10/19 18:41 18.6 24 -2.4 0.0 0.0 0 34.8 0.0 1022.0 0.0 18.6 18.6 0.0
03/10/19 18:42 18.5 24 -2.5 0.0 0.0 0 34.8 0.0 1022.0 0.0 18.6 18.5 0.0
03/10/19 18:43 18.6 24 -2.4 0.0 0.0 0 34.8 0.0 1022.0 0.0 18.5 18.6 0.0
03/10/19 18:44 18.6 24 -2.4 0.0 0.0 0 34.8 0.0 1022.0 0.0 18.6 18.6 0.0
03/10/19 18:45 18.5 24 -2.5 0.0 0.0 0 34.8 0.0 1022.0 0.0 18.6 18.5 0.0
03/10/19 18:47 18.5 24 -2.5 0.0 0.0 0 0.0 0.0 1022.0 0.0 18.5 18.5 0.0
03/10/19 18:48 18.4 25 -2.0 0.0 0.0 0 0.0 0.0 1022.0 0.0 18.5 18.4 0.0
03/10/19 18:49 18.4 25 -2.0 0.0 0.0 0 0.0 0.0 1022.0 0.0 18.4 18.4 0.0
03/10/19 18:50 18.4 25 -2.0 2.2 5.8 135 0.0 0.0 1022.0 5.8 18.4 18.4 0.0
03/10/19 18:51 18.5 26 -1.4 6.1 9.0 135 0.0 0.0 1022.0 5.8 18.5 18.5 0.0
03/10/19 18:52 18.5 25 -1.9 1.8 9.0 144 0.0 0.0 1022.0 6.1 18.5 18.5 0.0
03/10/19 18:53 18.5 27 -0.9 4.3 9.0 150 0.0 0.0 1023.0 0.0 18.5 18.5 0.0
03/10/19 18:54 18.5 29 0.1 4.3 9.0 150 0.0 0.0 1023.0 0.0 18.5 18.5 0.0
03/10/19 18:55 18.5 30 0.6 1.4 9.0 155 0.0 0.0 1023.0 1.4 18.5 18.5 0.0
03/10/19 18:56 18.5 30 0.6 2.2 9.0 153 0.0 0.0 1023.0 0.0 18.5 18.5 0.0
03/10/19 18:57 18.5 30 0.6 2.2 9.0 152 0.0 0.0 1023.0 0.0 18.5 18.5 0.0
03/10/19 18:58 18.5 30 0.6 0.0 9.0 152 0.0 0.0 1023.0 0.0 18.5 18.5 0.0
03/10/19 18:59 18.4 31 0.9 0.0 9.0 152 0.0 0.0 1023.0 0.0 18.4 18.4 0.0
03/10/19 19:00 18.4 31 0.9 0.0 9.0 152 0.0 0.0 1023.0 0.0 18.4 18.4 0.0
03/10/19 19:02 18.4 31 0.9 0.0 6.1 143 0.0 0.0 1023.0 2.2 18.4 18.4 0.0
03/10/19 19:03 18.3 33 1.7 0.0 3.6 137 0.0 0.0 1023.0 0.0 18.3 18.3 0.0
03/10/19 19:04 18.3 33 1.7 1.4 3.6 137 0.0 0.0 1023.0 0.0 18.3 18.3 0.0
03/10/19 19:05 18.3 33 1.7 0.0 3.6 137 0.0 0.0 1023.0 0.0 18.3 18.3 0.0
03/10/19 19:06 18.2 33 1.6 0.0 3.6 135 0.0 0.0 1023.0 0.0 18.3 18.2 0.0
03/10/19 19:07 18.2 33 1.6 0.0 3.6 135 0.0 0.0 1023.0 0.0 18.2 18.2 0.0
03/10/19 19:08 18.2 33 1.6 0.0 3.6 135 0.0 0.0 1023.0 0.0 18.2 18.2 0.0
03/10/19 19:09 18.2 34 2.1 1.8 3.6 135 0.0 0.0 1023.0 0.0 18.2 18.2 0.0
03/10/19 19:10 18.2 34 2.1 1.8 3.6 135 0.0 0.0 1023.0 0.0 18.2 18.2 0.0
03/10/19 19:11 18.2 34 2.1 0.0 3.6 135 0.0 0.0 1023.0 0.0 18.2 18.2 0.0
03/10/19 19:12 18.1 34 2.0 0.0 3.6 135 0.0 0.0 1023.0 0.0 18.2 18.1 0.0
03/10/19 19:13 18.1 34 2.0 0.0 1.4 135 0.0 0.0 1023.0 0.0 18.1 18.1 0.0
03/10/19 19:14 18.0 34 1.9 0.0 1.4 135 0.0 0.0 1023.0 0.0 18.0 18.0 0.0
03/10/19 19:15 18.0 35 2.3 0.0 2.2 162 0.0 0.0 1023.0 0.0 18.0 18.0 0.0
03/10/19 19:17 17.9 35 2.2 0.0 0.0 0 0.0 0.0 1023.0 0.0 17.9 17.9 0.0
03/10/19 19:18 17.9 36 2.6 0.0 0.0 0 0.0 0.0 1023.0 0.0 17.9 17.9 0.0
03/10/19 19:19 17.9 36 2.6 0.0 0.0 0 0.0 0.0 1023.0 0.0 17.9 17.9 0.0
03/10/19 19:20 17.8 36 2.5 0.0 0.0 0 0.0 0.0 1023.0 0.0 17.9 17.8 0.0
03/10/19 19:21 17.8 36 2.5 0.0 0.0 0 0.0 0.0 1023.0 0.0 17.8 17.8 0.0
03/10/19 19:22 17.7 36 2.4 0.0 0.0 0 0.0 0.0 1023.0 0.0 17.7 17.7 0.0
03/10/19 19:23 17.7 36 2.4 0.0 0.0 0 0.0 0.0 1023.0 0.0 17.7 17.7 0.0
03/10/19 19:24 17.7 36 2.4 0.0 0.0 0 0.0 0.0 1023.0 0.0 17.7 17.7 0.0
03/10/19 19:25 17.6 37 2.7 0.0 0.0 0 0.0 0.0 1023.0 0.0 17.6 17.6 0.0
03/10/19 19:26 17.6 37 2.7 1.8 4.7 135 0.0 0.0 1023.0 4.7 17.6 17.6 0.0
03/10/19 19:27 17.5 37 2.6 1.4 4.7 135 0.0 0.0 1023.0 2.5 17.5 17.5 0.0
03/10/19 19:28 17.5 37 2.6 0.0 4.7 135 0.0 0.0 1023.0 1.4 17.5 17.5 0.0
03/10/19 19:29 17.5 38 3.0 0.0 4.7 135 0.0 0.0 1023.0 0.0 17.5 17.5 0.0
03/10/19 19:32 17.4 38 2.9 0.0 4.7 135 0.0 0.0 1023.0 0.0 17.4 17.4 0.0
03/10/19 19:33 17.4 39 3.3 0.0 4.7 135 0.0 0.0 1023.0 0.0 17.4 17.4 0.0
03/10/19 19:34 17.3 39 3.2 0.0 4.7 135 0.0 0.0 1023.0 0.0 17.3 17.3 0.0
03/10/19 19:35 17.3 39 3.2 0.0 4.7 143 0.0 0.0 1023.0 2.2 17.3 17.3 0.0
03/10/19 19:36 17.2 39 3.1 0.0 4.7 151 0.0 0.0 1023.0 1.4 17.2 17.2 0.0
03/10/19 19:37 17.2 39 3.1 1.4 2.5 152 0.0 0.0 1023.0 0.0 17.2 17.2 0.0
03/10/19 19:38 17.2 39 3.1 0.0 2.2 156 0.0 0.0 1023.0 0.0 17.2 17.2 0.0
03/10/19 19:39 17.2 39 3.1 1.4 2.2 155 0.0 0.0 1023.0 1.8 17.2 17.2 0.0
03/10/19 19:40 17.2 40 3.5 1.4 2.2 148 0.0 0.0 1023.0 2.2 17.2 17.2 0.0
03/10/19 19:41 17.1 40 3.4 0.0 2.2 148 0.0 0.0 1023.0 0.0 17.1 17.1 0.0
03/10/19 19:42 17.1 40 3.4 0.0 2.2 148 0.0 0.0 1023.0 0.0 17.1 17.1 0.0
03/10/19 19:43 17.0 40 3.3 0.0 2.2 148 0.0 0.0 1023.0 0.0 17.0 17.0 0.0
03/10/19 19:44 17.0 40 3.3 0.0 2.2 148 0.0 0.0 1023.0 0.0 17.0 17.0 0.0
03/10/19 19:45 17.0 40 3.3 0.0 2.2 144 0.0 0.0 1023.0 0.0 17.0 17.0 0.0
03/10/19 19:47 16.9 41 3.6 0.0 2.2 151 0.0 0.0 1023.0 0.0 16.9 16.9 0.0
03/10/19 19:48 16.8 41 3.5 0.0 2.2 151 0.0 0.0 1023.0 0.0 16.8 16.8 0.0
03/10/19 19:49 16.8 41 3.5 0.0 2.2 151 0.0 0.0 1023.0 0.0 16.8 16.8 0.0
03/10/19 19:50 16.7 41 3.4 0.0 2.2 147 0.0 0.0 1023.0 0.0 16.8 16.7 0.0
03/10/19 19:51 16.7 42 3.7 0.0 4.0 135 0.0 0.0 1023.0 4.0 16.7 16.7 0.0
03/10/19 19:52 16.7 42 3.7 0.0 4.0 135 0.0 0.0 1023.0 0.0 16.7 16.7 0.0
03/10/19 19:53 16.6 42 3.6 0.0 4.0 135 0.0 0.0 1022.0 0.0 16.6 16.6 0.0
03/10/19 19:54 16.6 42 3.6 0.0 4.0 135 0.0 0.0 1022.0 0.0 16.6 16.6 0.0
03/10/19 19:55 16.6 42 3.6 0.0 4.0 135 0.0 0.0 1022.0 0.0 16.6 16.6 0.0
03/10/19 19:56 16.5 42 3.5 0.0 4.0 135 0.0 0.0 1022.0 0.0 16.5 16.5 0.0
03/10/19 19:57 16.5 42 3.5 0.0 4.0 135 0.0 0.0 1022.0 0.0 16.5 16.5 0.0
03/10/19 19:58 16.4 42 3.4 0.0 4.0 135 0.0 0.0 1022.0 0.0 16.5 16.4 0.0
03/10/19 19:59 16.4 42 3.4 0.0 4.0 135 0.0 0.0 1022.0 0.0 16.4 16.4 0.0
03/10/19 20:02 16.3 43 3.7 0.0 1.4 135 0.0 0.0 1022.0 1.4 16.3 16.3 0.0
03/10/19 20:03 16.3 44 4.0 0.0 1.4 135 0.0 0.0 1022.0 1.4 16.3 16.3 0.0
03/10/19 20:04 16.3 44 4.0 0.0 1.4 135 0.0 0.0 1022.0 0.0 16.3 16.3 0.0
03/10/19 20:05 16.2 44 3.9 0.0 1.4 135 0.0 0.0 1022.0 0.0 16.3 16.2 0.0
03/10/19 20:06 16.2 44 3.9 0.0 1.4 135 0.0 0.0 1022.0 0.0 16.2 16.2 0.0
03/10/19 20:07 16.2 44 3.9 0.0 1.4 135 0.0 0.0 1022.0 0.0 16.2 16.2 0.0
03/10/19 20:08 16.2 44 3.9 0.0 1.4 164 0.0 0.0 1022.0 1.4 16.2 16.2 0.0
03/10/19 20:09 16.2 44 3.9 1.8 3.2 163 0.0 0.0 1022.0 3.2 16.2 16.2 0.0
03/10/19 20:10 16.1 44 3.8 2.2 3.2 163 0.0 0.0 1022.0 0.0 16.2 16.1 0.0
03/10/19 20:11 16.2 45 4.2 2.2 3.2 163 0.0 0.0 1022.0 0.0 16.1 16.2 0.0
03/10/19 20:12 16.1 45 4.2 2.2 3.2 169 0.0 0.0 1022.0 0.0 16.2 16.1 0.0
03/10/19 20:13 16.1 45 4.2 2.2 3.2 157 0.0 0.0 1022.0 1.4 16.1 16.1 0.0
03/10/19 20:14 16.1 45 4.2 2.2 3.2 157 0.0 0.0 1022.0 1.4 16.1 16.1 0.0
03/10/19 20:15 16.1 45 4.2 0.0 3.2 157 0.0 0.0 1022.0 0.0 16.1 16.1 0.0
03/10/19 20:17 16.1 45 4.2 0.0 3.2 160 0.0 0.0 1022.0 0.0 16.1 16.1 0.0
03/10/19 20:18 16.0 45 4.1 0.0 3.2 160 0.0 0.0 1022.0 0.0 16.0 16.0 0.0
03/10/19 20:19 16.0 45 4.1 0.0 3.2 160 0.0 0.0 1022.0 0.0 16.0 16.0 0.0
03/10/19 20:20 16.0 46 4.4 4.7 6.8 138 0.0 0.0 1022.0 3.6 16.0 16.0 0.0
03/10/19 20:21 16.0 46 4.4 1.8 6.8 137 0.0 0.0 1022.0 2.5 16.0 16.0 0.0
03/10/19 20:22 16.0 46 4.4 1.8 6.8 137 0.0 0.0 1022.0 2.5 16.0 16.0 0.0
03/10/19 20:23 16.0 46 4.4 1.8 6.8 142 0.0 0.0 1022.0 1.8 16.0 16.0 0.0
03/10/19 20:24 16.0 46 4.4 3.2 6.8 142 0.0 0.0 1022.0 6.5 16.0 16.0 0.0
03/10/19 20:25 16.0 46 4.4 3.2 6.8 140 0.0 0.0 1022.0 6.5 16.0 16.0 0.0
03/10/19 20:26 15.9 47 4.6 0.0 6.8 139 0.0 0.0 1022.0 0.0 15.9 15.9 0.0
03/10/19 20:27 15.9 47 4.6 0.0 6.8 139 0.0 0.0 1022.0 0.0 15.9 15.9 0.0
03/10/19 20:28 15.9 46 4.3 0.0 6.8 139 0.0 0.0 1022.0 2.2 15.9 15.9 0.0
03/10/19 20:29 15.9 47 4.6 0.0 6.8 139 0.0 0.0 1022.0 2.2 15.9 15.9 0.0
03/10/19 20:32 15.8 47 4.5 2.2 6.5 139 0.0 0.0 1022.0 2.2 0.0 15.8 0.0
03/10/19 20:33 15.8 47 4.5 2.2 6.5 138 0.0 0.0 1022.0 1.4 15.8 15.8 0.0
03/10/19 20:34 15.8 48 4.8 4.0 6.5 141 0.0 0.0 1022.0 1.8 15.8 15.8 0.0
03/10/19 20:35 15.8 48 4.8 4.0 6.5 145 0.0 0.0 1022.0 1.8 15.8 15.8 0.0
03/10/19 20:36 15.8 48 4.8 4.0 2.2 154 0.0 0.0 1022.0 1.8 15.8 15.8 0.0
03/10/19 20:37 15.8 47 4.5 0.0 2.2 158 0.0 0.0 1022.0 2.2 15.8 15.8 0.0
03/10/19 20:38 15.8 48 4.8 2.5 5.0 145 0.0 0.0 1023.0 2.2 15.8 15.8 0.0
03/10/19 20:39 15.8 48 4.8 2.2 5.0 145 0.0 0.0 1023.0 0.0 15.8 15.8 0.0
03/10/19 20:40 15.8 48 4.8 2.2 5.0 145 0.0 0.0 1023.0 0.0 15.8 15.8 0.0
03/10/19 20:41 15.7 48 4.7 2.2 5.0 146 0.0 0.0 1023.0 0.0 15.8 15.7 0.0
03/10/19 20:42 15.7 47 4.4 2.2 5.0 147 0.0 0.0 1023.0 0.0 15.7 15.7 0.0
03/10/19 20:43 15.7 48 4.7 2.2 5.0 149 0.0 0.0 1023.0 0.0 15.7 15.7 0.0
03/10/19 20:44 15.6 48 4.6 2.2 5.0 151 0.0 0.0 1023.0 0.0 15.7 15.6 0.0
03/10/19 20:45 15.6 48 4.6 0.0 5.0 147 0.0 0.0 1023.0 0.0 15.6 15.6 0.0
03/10/19 20:47 15.5 48 4.5 0.0 2.2 151 0.0 0.0 1023.0 0.0 0.0 15.5 0.0
03/10/19 20:48 15.5 47 4.2 0.0 2.2 144 0.0 0.0 1023.0 0.0 15.5 15.5 0.0
03/10/19 20:49 15.4 47 4.1 0.0 0.0 0 0.0 0.0 1023.0 0.0 15.5 15.4 0.0
03/10/19 20:50 15.4 48 4.4 0.0 0.0 0 0.0 0.0 1023.0 0.0 15.4 15.4 0.0
03/10/19 20:51 15.4 48 4.4 0.0 0.0 0 0.0 0.0 1023.0 0.0 15.4 15.4 0.0
03/10/19 20:52 15.4 48 4.4 1.4 1.4 181 0.0 0.0 1023.0 1.4 15.4 15.4 0.0
03/10/19 20:53 15.4 48 4.4 1.4 1.4 181 0.0 0.0 1023.0 1.4 15.4 15.4 0.0
03/10/19 20:54 15.3 48 4.3 1.4 1.4 181 0.0 0.0 1023.0 0.0 15.4 15.3 0.0
03/10/19 20:55 15.3 48 4.3 0.0 2.2 181 0.0 0.0 1023.0 2.2 15.3 15.3 0.0
03/10/19 20:56 15.3 48 4.3 0.0 2.2 181 0.0 0.0 1023.0 2.2 15.3 15.3 0.0
03/10/19 20:57 15.3 48 4.3 0.0 2.2 181 0.0 0.0 1023.0 2.2 15.3 15.3 0.0
03/10/19 20:58 15.3 48 4.3 0.0 2.2 181 0.0 0.0 1023.0 0.0 15.3 15.3 0.0
03/10/19 20:59 15.2 48 4.3 0.0 2.2 181 0.0 0.0 1023.0 0.0 15.3 15.2 0.0
03/10/19 21:00 15.2 48 4.3 0.0 2.2 181 0.0 0.0 1023.0 0.0 15.2 15.2 0.0
03/10/19 21:02 15.2 48 4.3 0.0 2.2 181 0.0 0.0 1023.0 0.0 15.2 15.2 0.0
03/10/19 21:03 15.2 48 4.3 0.0 2.2 181 0.0 0.0 1023.0 0.0 15.2 15.2 0.0
03/10/19 21:04 15.2 48 4.3 0.0 2.2 181 0.0 0.0 1023.0 1.4 15.2 15.2 0.0
03/10/19 21:05 15.1 48 4.2 1.4 2.2 181 0.0 0.0 1023.0 0.0 15.2 15.1 0.0
03/10/19 21:06 15.1 48 4.2 0.0 2.2 181 0.0 0.0 1023.0 0.0 15.1 15.1 0.0
03/10/19 21:07 15.1 48 4.2 0.0 2.2 201 0.0 0.0 1023.0 2.2 15.1 15.1 0.0
03/10/19 21:08 15.1 48 4.2 0.0 2.2 195 0.0 0.0 1023.0 0.0 15.1 15.1 0.0
03/10/19 21:09 15.1 48 4.2 0.0 5.8 187 0.0 0.0 1023.0 5.8 15.1 15.1 0.0
03/10/19 21:10 15.1 48 4.2 0.0 5.8 187 0.0 0.0 1023.0 0.0 15.1 15.1 0.0
03/10/19 21:11 15.0 48 4.1 1.4 5.8 175 0.0 0.0 1023.0 1.4 15.1 15.0 0.0
03/10/19 21:12 15.0 48 4.1 1.4 5.8 170 0.0 0.0 1023.0 1.4 15.0 15.0 0.0
03/10/19 21:13 15.0 49 4.4 1.4 5.8 170 0.0 0.0 1023.0 0.0 15.0 15.0 0.0
03/10/19 21:14 14.9 49 4.3 1.4 5.8 169 0.0 0.0 1023.0 0.0 15.0 14.9 0.0
03/10/19 21:15 14.9 49 4.3 0.0 5.8 168 0.0 0.0 1023.0 0.0 14.9 14.9 0.0
03/10/19 21:17 14.9 49 4.3 0.0 5.8 187 0.0 0.0 1023.0 0.0 14.9 14.9 0.0
03/10/19 21:18 14.9 49 4.3 0.0 5.8 183 0.0 0.0 1023.0 0.0 14.9 14.9 0.0
03/10/19 21:19 14.9 49 4.3 0.0 5.8 183 0.0 0.0 1023.0 0.0 14.9 14.9 0.0
03/10/19 21:20 14.8 49 4.2 0.0 1.4 172 0.0 0.0 1023.0 0.0 14.9 14.8 0.0
03/10/19 21:21 14.8 49 4.2 0.0 1.4 172 0.0 0.0 1023.0 0.0 14.8 14.8 0.0
03/10/19 21:22 14.8 49 4.2 0.0 1.4 169 0.0 0.0 1023.0 0.0 14.8 14.8 0.0
03/10/19 21:23 14.7 49 4.1 0.0 3.6 181 0.0 0.0 1023.0 0.0 14.7 14.7 0.0
03/10/19 21:24 14.7 49 4.1 1.4 3.6 165 0.0 0.0 1023.0 0.0 14.7 14.7 0.0
03/10/19 21:25 14.7 49 4.1 1.4 3.6 155 0.0 0.0 1023.0 2.5 14.7 14.7 0.0
03/10/19 21:26 14.7 50 4.4 0.0 3.6 162 0.0 0.0 1023.0 0.0 14.7 14.7 0.0
03/10/19 21:27 14.7 49 4.1 0.0 3.6 162 0.0 0.0 1023.0 0.0 14.7 14.7 0.0
03/10/19 21:28 14.7 49 4.1 0.0 3.6 162 0.0 0.0 1023.0 0.0 14.7 14.7 0.0
03/10/19 21:29 14.6 50 4.3 0.0 3.6 162 0.0 0.0 1023.0 0.0 14.7 14.6 0.0
03/10/19 21:30 14.6 50 4.3 0.0 3.6 162 0.0 0.0 1023.0 0.0 14.6 14.6 0.0
03/10/19 21:32 14.5 50 4.2 0.0 2.5 142 0.0 0.0 1023.0 1.8 14.5 14.5 0.0
03/10/19 21:33 14.5 50 4.2 0.0 2.5 140 0.0 0.0 1023.0 2.2 14.5 14.5 0.0
03/10/19 21:34 14.5 50 4.2 0.0 2.5 138 0.0 0.0 1023.0 2.2 14.5 14.5 0.0
03/10/19 21:35 14.5 50 4.2 0.0 2.5 138 0.0 0.0 1023.0 0.0 14.5 14.5 0.0
03/10/19 21:36 14.5 50 4.2 0.0 2.2 135 0.0 0.0 1023.0 0.0 14.5 14.5 0.0
03/10/19 21:37 14.5 50 4.2 0.0 2.2 135 0.0 0.0 1023.0 2.2 14.5 14.5 0.0
03/10/19 21:38 14.5 50 4.2 0.0 2.2 135 0.0 0.0 1023.0 0.0 14.5 14.5 0.0
03/10/19 21:39 14.5 50 4.2 0.0 2.2 135 0.0 0.0 1023.0 0.0 14.5 14.5 0.0
03/10/19 21:40 14.5 50 4.2 0.0 2.2 135 0.0 0.0 1023.0 0.0 14.5 14.5 0.0
03/10/19 21:41 14.4 50 4.1 0.0 2.2 135 0.0 0.0 1023.0 0.0 14.5 14.4 0.0
03/10/19 21:42 14.4 50 4.1 0.0 2.2 135 0.0 0.0 1023.0 0.0 14.4 14.4 0.0
03/10/19 21:43 14.4 50 4.1 0.0 2.2 135 0.0 0.0 1023.0 0.0 14.4 14.4 0.0
03/10/19 21:44 14.4 50 4.1 0.0 2.2 135 0.0 0.0 1023.0 0.0 14.4 14.4 0.0
03/10/19 21:45 14.3 50 4.0 0.0 2.2 135 0.0 0.0 1023.0 0.0 14.4 14.3 0.0
03/10/19 21:47 14.3 50 4.0 0.0 2.2 135 0.0 0.0 1023.0 0.0 0.0 14.3 0.0
03/10/19 21:48 14.3 50 4.0 0.0 0.0 0 0.0 0.0 1023.0 0.0 14.3 14.3 0.0
03/10/19 21:49 14.3 50 4.0 0.0 0.0 0 0.0 0.0 1023.0 0.0 14.3 14.3 0.0
03/10/19 21:50 14.3 50 4.0 0.0 0.0 0 0.0 0.0 1023.0 0.0 14.3 14.3 0.0
03/10/19 21:51 14.2 50 3.9 0.0 0.0 0 0.0 0.0 1023.0 0.0 14.3 14.2 0.0
03/10/19 21:52 14.2 50 3.9 0.0 0.0 0 0.0 0.0 1023.0 0.0 14.2 14.2 0.0
03/10/19 21:53 14.2 50 3.9 0.0 0.0 0 0.0 0.0 1023.0 0.0 14.2 14.2 0.0
03/10/19 21:54 14.2 50 3.9 0.0 0.0 0 0.0 0.0 1023.0 0.0 14.2 14.2 0.0
03/10/19 21:55 14.2 50 3.9 0.0 0.0 0 0.0 0.0 1023.0 0.0 14.2 14.2 0.0
03/10/19 21:56 14.1 50 3.8 0.0 0.0 0 0.0 0.0 1023.0 0.0 14.2 14.1 0.0
03/10/19 21:57 14.1 50 3.8 0.0 0.0 0 0.0 0.0 1023.0 0.0 14.1 14.1 0.0
03/10/19 21:58 14.1 50 3.8 0.0 0.0 0 0.0 0.0 1023.0 0.0 14.1 14.1 0.0
03/10/19 21:59 14.1 51 4.1 0.0 0.0 0 0.0 0.0 1023.0 0.0 14.1 14.1 0.0
03/10/19 22:02 14.0 51 4.0 0.0 0.0 0 0.0 0.0 1023.0 0.0 0.0 14.0 0.0
03/10/19 22:03 14.0 51 4.0 0.0 0.0 0 0.0 0.0 1023.0 0.0 14.0 14.0 0.0
03/10/19 22:04 14.0 51 4.0 0.0 0.0 0 0.0 0.0 1023.0 0.0 14.0 14.0 0.0
03/10/19 22:05 13.9 51 3.9 0.0 0.0 0 0.0 0.0 1023.0 0.0 14.0 13.9 0.0
03/10/19 22:06 14.0 51 4.0 0.0 0.0 0 0.0 0.0 1023.0 0.0 13.9 14.0 0.0
03/10/19 22:07 13.9 51 3.9 0.0 0.0 0 0.0 0.0 1023.0 0.0 13.9 13.9 0.0
03/10/19 22:08 13.9 51 3.9 0.0 0.0 0 0.0 0.0 1023.0 0.0 13.9 13.9 0.0
03/10/19 22:09 13.9 51 3.9 0.0 0.0 0 0.0 0.0 1023.0 0.0 13.9 13.9 0.0
03/10/19 22:10 13.9 51 3.9 0.0 0.0 0 0.0 0.0 1023.0 0.0 13.9 13.9 0.0
03/10/19 22:11 13.9 51 3.9 0.0 0.0 0 0.0 0.0 1023.0 0.0 13.9 13.9 0.0
03/10/19 22:12 13.9 51 3.9 0.0 0.0 0 0.0 0.0 1023.0 0.0 13.9 13.9 0.0
03/10/19 22:13 13.9 51 3.9 0.0 0.0 0 0.0 0.0 1023.0 0.0 13.9 13.9 0.0
03/10/19 22:14 13.9 51 3.9 0.0 0.0 0 0.0 0.0 1023.0 0.0 13.9 13.9 0.0
03/10/19 22:15 13.8 51 3.8 0.0 0.0 0 0.0 0.0 1023.0 0.0 13.9 13.8 0.0
03/10/19 22:17 13.8 51 3.8 0.0 0.0 0 0.0 0.0 1023.0 0.0 13.8 13.8 0.0
03/10/19 22:18 13.8 51 3.8 0.0 0.0 0 0.0 0.0 1023.0 0.0 13.8 13.8 0.0
03/10/19 22:19 13.7 51 3.7 0.0 0.0 0 0.0 0.0 1023.0 0.0 13.8 13.7 0.0
03/10/19 22:20 13.7 51 3.7 0.0 0.0 0 0.0 0.0 1023.0 0.0 13.7 13.7 0.0
03/10/19 22:21 13.7 51 3.7 0.0 0.0 0 0.0 0.0 1023.0 0.0 13.7 13.7 0.0
03/10/19 22:22 13.7 51 3.7 0.0 0.0 0 0.0 0.0 1023.0 0.0 13.7 13.7 0.0
03/10/19 22:23 13.7 51 3.7 0.0 0.0 0 0.0 0.0 1023.0 0.0 13.7 13.7 0.0
03/10/19 22:24 13.7 52 4.0 0.0 0.0 0 0.0 0.0 1023.0 0.0 13.7 13.7 0.0
03/10/19 22:25 13.7 52 4.0 0.0 0.0 0 0.0 0.0 1023.0 0.0 13.7 13.7 0.0
03/10/19 22:26 13.7 52 4.0 0.0 0.0 0 0.0 0.0 1023.0 0.0 13.7 13.7 0.0
03/10/19 22:27 13.7 52 4.0 0.0 0.0 0 0.0 0.0 1023.0 0.0 13.7 13.7 0.0
03/10/19 22:28 13.7 52 4.0 0.0 0.0 0 0.0 0.0 1023.0 0.0 13.7 13.7 0.0
03/10/19 22:29 13.7 52 4.0 0.0 0.0 0 0.0 0.0 1023.0 0.0 13.7 13.7 0.0
03/10/19 22:30 13.7 52 4.0 0.0 0.0 0 0.0 0.0 1023.0 0.0 13.7 13.7 0.0
03/10/19 22:32 13.7 52 4.0 0.0 0.0 0 0.0 0.0 1023.0 0.0 13.7 13.7 0.0
03/10/19 22:33 13.7 52 4.0 0.0 0.0 0 0.0 0.0 1023.0 0.0 13.7 13.7 0.0
03/10/19 22:34 13.6 52 3.9 0.0 0.0 0 0.0 0.0 1023.0 0.0 13.6 13.6 0.0
03/10/19 22:35 13.7 52 4.0 0.0 0.0 0 0.0 0.0 1023.0 0.0 13.6 13.7 0.0
03/10/19 22:36 13.7 52 4.0 0.0 3.2 181 0.0 0.0 1023.0 0.0 13.7 13.7 0.0
03/10/19 22:37 13.7 52 4.0 0.0 3.2 169 0.0 0.0 1023.0 0.0 13.7 13.7 0.0
03/10/19 22:38 13.6 52 3.9 0.0 3.2 169 0.0 0.0 1023.0 0.0 13.7 13.6 0.0
03/10/19 22:39 13.6 52 3.9 0.0 3.2 169 0.0 0.0 1023.0 0.0 13.6 13.6 0.0
03/10/19 22:40 13.6 52 3.9 0.0 3.2 169 0.0 0.0 1023.0 0.0 13.6 13.6 0.0
03/10/19 22:41 13.6 52 3.9 1.8 3.6 152 0.0 0.0 1023.0 0.0 13.6 13.6 0.0
03/10/19 22:42 13.6 52 3.9 1.8 3.6 146 0.0 0.0 1023.0 1.8 13.6 13.6 0.0
03/10/19 22:43 13.6 52 3.9 0.0 3.6 145 0.0 0.0 1023.0 0.0 13.6 13.6 0.0
03/10/19 22:44 13.7 52 4.0 0.0 3.6 145 0.0 0.0 1023.0 1.4 13.7 13.7 0.0
03/10/19 22:47 13.7 53 4.3 3.2 2.5 140 0.0 0.0 1023.0 0.0 13.7 13.7 0.0
03/10/19 22:48 13.7 53 4.3 2.2 2.5 138 0.0 0.0 1023.0 2.5 13.7 13.7 0.0
03/10/19 22:49 13.7 53 4.3 1.4 2.5 137 0.0 0.0 1023.0 0.0 13.7 13.7 0.0
03/10/19 22:50 13.7 53 4.3 1.4 2.5 137 0.0 0.0 1023.0 0.0 13.7 13.7 0.0
03/10/19 22:51 13.7 53 4.3 0.0 2.5 136 0.0 0.0 1023.0 1.4 13.7 13.7 0.0
03/10/19 22:52 13.7 53 4.3 0.0 2.5 136 0.0 0.0 1023.0 0.0 13.7 13.7 0.0
03/10/19 22:53 13.6 53 4.2 0.0 2.5 135 0.0 0.0 1023.0 0.0 13.6 13.6 0.0
03/10/19 22:54 13.6 53 4.2 0.0 4.3 135 0.0 0.0 1023.0 4.3 13.6 13.6 0.0
03/10/19 22:55 13.6 53 4.2 3.2 4.3 135 0.0 0.0 1023.0 2.5 13.6 13.6 0.0
03/10/19 22:56 13.6 53 4.2 3.2 4.3 135 0.0 0.0 1023.0 2.5 13.6 13.6 0.0
03/10/19 22:57 13.6 53 4.2 1.8 4.3 135 0.0 0.0 1023.0 0.0 13.6 13.6 0.0
03/10/19 22:58 13.6 53 4.2 0.0 4.3 135 0.0 0.0 1023.0 0.0 13.6 13.6 0.0
03/10/19 22:59 13.6 53 4.2 0.0 4.3 135 0.0 0.0 1023.0 0.0 13.6 13.6 0.0
03/10/19 23:00 13.6 53 4.2 0.0 4.3 135 0.0 0.0 1023.0 0.0 13.6 13.6 0.0
03/10/19 23:02 13.6 53 4.2 0.0 4.3 135 0.0 0.0 1023.0 0.0 13.6 13.6 0.0
03/10/19 23:03 13.5 53 4.1 2.5 5.0 135 0.0 0.0 1023.0 3.6 13.5 13.5 0.0
03/10/19 23:04 13.5 53 4.1 1.4 5.0 135 0.0 0.0 1023.0 0.0 13.5 13.5 0.0
03/10/19 23:05 13.5 53 4.1 1.4 5.0 135 0.0 0.0 1023.0 1.4 13.5 13.5 0.0
03/10/19 23:06 13.5 53 4.1 0.0 5.0 135 0.0 0.0 1023.0 0.0 13.5 13.5 0.0
03/10/19 23:07 13.5 54 4.4 2.2 5.0 135 0.0 0.0 1023.0 2.2 13.5 13.5 0.0
03/10/19 23:08 13.5 54 4.4 2.5 5.0 135 0.0 0.0 1023.0 2.5 13.5 13.5 0.0
03/10/19 23:09 13.5 54 4.4 2.5 5.0 135 0.0 0.0 1023.0 1.4 13.5 13.5 0.0
03/10/19 23:10 13.5 54 4.4 0.0 5.0 135 0.0 0.0 1023.0 0.0 13.5 13.5 0.0
03/10/19 23:11 13.5 54 4.4 0.0 5.0 135 0.0 0.0 1023.0 0.0 13.5 13.5 0.0
03/10/19 23:12 13.5 54 4.4 0.0 5.0 135 0.0 0.0 1023.0 0.0 13.5 13.5 0.0
03/10/19 23:13 13.5 54 4.4 1.4 4.0 135 0.0 0.0 1023.0 0.0 13.5 13.5 0.0
03/10/19 23:14 13.5 54 4.4 1.4 4.0 135 0.0 0.0 1023.0 0.0 13.5 13.5 0.0
03/10/19 23:17 13.4 54 4.3 1.8 2.5 135 0.0 0.0 1023.0 2.5 13.4 13.4 0.0
03/10/19 23:18 13.4 54 4.3 1.8 2.5 135 0.0 0.0 1023.0 0.0 13.4 13.4 0.0
03/10/19 23:19 13.4 54 4.3 0.0 2.5 135 0.0 0.0 1023.0 1.4 13.4 13.4 0.0
03/10/19 23:20 13.3 54 4.2 0.0 2.5 135 0.0 0.0 1023.0 1.4 13.4 13.3 0.0
03/10/19 23:21 13.3 54 4.2 1.8 2.5 135 0.0 0.0 1023.0 1.8 13.3 13.3 0.0
03/10/19 23:22 13.3 54 4.2 1.4 2.5 135 0.0 0.0 1023.0 0.0 13.3 13.3 0.0
03/10/19 23:23 13.3 54 4.2 1.4 2.5 135 0.0 0.0 1023.0 1.8 13.3 13.3 0.0
03/10/19 23:24 13.2 54 4.1 1.8 3.2 135 0.0 0.0 1023.0 3.2 13.2 13.2 0.0
03/10/19 23:25 13.2 54 4.1 0.0 3.2 135 0.0 0.0 1023.0 0.0 13.2 13.2 0.0
03/10/19 23:26 13.2 54 4.1 0.0 3.2 135 0.0 0.0 1023.0 0.0 13.2 13.2 0.0
03/10/19 23:27 13.2 54 4.1 0.0 3.2 135 0.0 0.0 1023.0 0.0 13.2 13.2 0.0
03/10/19 23:28 13.3 54 4.2 0.0 3.2 135 0.0 0.0 1023.0 0.0 13.3 13.3 0.0
03/10/19 23:29 13.2 54 4.1 1.4 3.2 135 0.0 0.0 1023.0 0.0 13.3 13.2 0.0
03/10/19 23:30 13.2 54 4.1 1.4 3.2 135 0.0 0.0 1023.0 3.2 13.2 13.2 0.0
03/10/19 23:32 13.1 54 4.0 1.4 3.2 135 0.0 0.0 1023.0 0.0 13.1 13.1 0.0
03/10/19 23:33 13.1 54 4.0 0.0 3.2 135 0.0 0.0 1023.0 0.0 13.1 13.1 0.0
03/10/19 23:34 13.1 54 4.0 0.0 3.2 135 0.0 0.0 1023.0 0.0 13.1 13.1 0.0
03/10/19 23:35 13.1 54 4.0 0.0 3.2 135 0.0 0.0 1023.0 0.0 13.1 13.1 0.0
03/10/19 23:36 13.1 54 4.0 0.0 3.2 135 0.0 0.0 1023.0 0.0 13.1 13.1 0.0
03/10/19 23:37 13.0 54 3.9 0.0 3.2 135 0.0 0.0 1023.0 0.0 13.0 13.0 0.0
03/10/19 23:38 13.0 54 3.9 0.0 3.2 135 0.0 0.0 1022.0 0.0 13.0 13.0 0.0
03/10/19 23:39 13.0 54 3.9 0.0 3.2 135 0.0 0.0 1022.0 1.8 13.0 13.0 0.0
03/10/19 23:40 13.0 54 3.9 0.0 4.0 135 0.0 0.0 1022.0 2.5 13.0 13.0 0.0
03/10/19 23:41 12.9 54 3.8 1.8 4.0 135 0.0 0.0 1022.0 3.2 12.9 12.9 0.0
03/10/19 23:42 12.9 54 3.8 0.0 4.0 135 0.0 0.0 1022.0 0.0 12.9 12.9 0.0
03/10/19 23:43 12.9 54 3.8 0.0 4.0 135 0.0 0.0 1022.0 0.0 12.9 12.9 0.0
03/10/19 23:44 12.9 54 3.8 0.0 4.0 135 0.0 0.0 1022.0 0.0 12.9 12.9 0.0
03/10/19 23:45 12.9 55 4.1 0.0 4.0 135 0.0 0.0 1022.0 0.0 12.9 12.9 0.0
03/10/19 23:47 12.9 55 4.1 0.0 3.2 135 0.0 0.0 1022.0 0.0 12.9 12.9 0.0
03/10/19 23:48 12.8 55 4.0 0.0 3.2 135 0.0 0.0 1022.0 0.0 12.8 12.8 0.0
03/10/19 23:49 12.8 55 4.0 0.0 3.2 135 0.0 0.0 1022.0 0.0 12.8 12.8 0.0
03/10/19 23:50 12.8 55 4.0 0.0 3.2 135 0.0 0.0 1022.0 0.0 12.8 12.8 0.0
03/10/19 23:51 12.8 55 4.0 0.0 3.2 135 0.0 0.0 1022.0 0.0 12.8 12.8 0.0
03/10/19 23:52 12.8 55 4.0 0.0 1.8 135 0.0 0.0 1022.0 0.0 12.8 12.8 0.0
03/10/19 23:53 12.8 55 4.0 0.0 1.8 135 0.0 0.0 1022.0 0.0 12.8 12.8 0.0
03/10/19 23:54 12.8 55 4.0 0.0 2.2 135 0.0 0.0 1022.0 2.2 12.8 12.8 0.0
03/10/19 23:55 12.8 55 4.0 2.2 2.2 135 0.0 0.0 1022.0 0.0 12.8 12.8 0.0
03/10/19 23:56 12.8 55 4.0 1.8 2.2 135 0.0 0.0 1022.0 1.8 12.8 12.8 0.0
03/10/19 23:57 12.8 55 4.0 1.4 4.0 135 0.0 0.0 1022.0 3.2 12.8 12.8 0.0
03/10/19 23:58 12.8 55 4.0 1.8 4.0 135 0.0 0.0 1022.0 1.8 12.8 12.8 0.0
03/10/19 23:59 12.8 55 4.0 1.4 4.0 135 0.0 0.0 1022.0 2.5 12.8 12.8 0.0
 
  Back to Top
Date Time Temperature Humidity Dewpoint Wind Speed High Gust Wind Bearing Rainfall Rate Total Rainfall Pressure Gust Wind Chill Heat Index UV Index
04/10/19 00:02 12.8 55 4.0 0.0 3.2 135 0.0 0.0 1022.0 0.0 12.8 12.8 0.0
04/10/19 00:03 12.8 55 4.0 0.0 3.2 135 0.0 0.0 1022.0 2.2 12.8 12.8 0.0
04/10/19 00:04 12.8 55 4.0 1.4 3.2 135 0.0 0.0 1022.0 2.2 12.8 12.8 0.0
04/10/19 00:05 12.8 55 4.0 1.8 3.2 135 0.0 0.0 1022.0 2.2 12.8 12.8 0.0
04/10/19 00:06 12.7 55 3.9 1.8 3.2 135 0.0 0.0 1022.0 2.5 12.7 12.7 0.0
04/10/19 00:07 12.7 56 4.1 2.2 3.6 135 0.0 0.0 1022.0 1.4 12.7 12.7 0.0
04/10/19 00:08 12.7 56 4.1 2.2 3.6 135 0.0 0.0 1023.0 1.8 12.7 12.7 0.0
04/10/19 00:09 12.7 56 4.1 2.5 4.3 135 0.0 0.0 1023.0 3.6 12.7 12.7 0.0
04/10/19 00:10 12.7 56 4.1 2.5 4.3 135 0.0 0.0 1023.0 2.2 12.7 12.7 0.0
04/10/19 00:11 12.8 56 4.2 2.2 4.3 135 0.0 0.0 1023.0 1.8 12.8 12.8 0.0
04/10/19 00:12 12.7 56 4.1 2.2 4.3 135 0.0 0.0 1023.0 0.0 12.7 12.7 0.0
04/10/19 00:13 12.7 56 4.1 1.8 4.3 135 0.0 0.0 1023.0 1.8 12.7 12.7 0.0
04/10/19 00:14 12.7 56 4.1 1.4 4.3 135 0.0 0.0 1023.0 0.0 12.7 12.7 0.0
04/10/19 00:15 12.7 56 4.1 0.0 4.3 135 0.0 0.0 1023.0 0.0 12.7 12.7 0.0
04/10/19 00:17 12.7 56 4.1 0.0 3.6 135 0.0 0.0 1023.0 3.2 0.0 12.7 0.0
04/10/19 00:18 12.7 56 4.1 0.0 3.6 135 0.0 0.0 1023.0 1.4 12.7 12.7 0.0
04/10/19 00:19 12.7 56 4.1 1.4 3.6 135 0.0 0.0 1023.0 0.0 12.7 12.7 0.0
04/10/19 00:20 12.7 56 4.1 1.4 3.2 135 0.0 0.0 1023.0 2.5 12.7 12.7 0.0
04/10/19 00:21 12.6 56 4.0 2.2 3.2 135 0.0 0.0 1023.0 0.0 12.6 12.6 0.0
04/10/19 00:22 12.6 56 4.0 0.0 3.2 135 0.0 0.0 1023.0 0.0 12.6 12.6 0.0
04/10/19 00:23 12.6 56 4.0 0.0 3.2 135 0.0 0.0 1023.0 0.0 12.6 12.6 0.0
04/10/19 00:24 12.6 56 4.0 0.0 3.2 135 0.0 0.0 1023.0 0.0 12.6 12.6 0.0
04/10/19 00:25 12.6 56 4.0 0.0 3.2 135 0.0 0.0 1023.0 2.2 12.6 12.6 0.0
04/10/19 00:26 12.6 56 4.0 0.0 3.2 135 0.0 0.0 1023.0 0.0 12.6 12.6 0.0
04/10/19 00:27 12.6 56 4.0 0.0 3.2 135 0.0 0.0 1023.0 0.0 12.6 12.6 0.0
04/10/19 00:28 12.6 56 4.0 1.4 3.2 135 0.0 0.0 1023.0 0.0 12.6 12.6 0.0
04/10/19 00:29 12.6 56 4.0 0.0 3.6 135 0.0 0.0 1023.0 3.6 12.6 12.6 0.0
04/10/19 00:30 12.5 56 4.0 1.8 4.0 135 0.0 0.0 1023.0 4.0 12.5 12.5 0.0
04/10/19 00:32 12.6 57 4.3 1.4 4.0 135 0.0 0.0 1023.0 0.0 12.6 12.6 0.0
04/10/19 00:33 12.6 56 4.0 0.0 4.0 135 0.0 0.0 1023.0 0.0 12.6 12.6 0.0
04/10/19 00:34 12.6 56 4.0 0.0 4.0 135 0.0 0.0 1023.0 0.0 12.6 12.6 0.0
04/10/19 00:35 12.5 56 4.0 1.4 4.0 135 0.0 0.0 1023.0 0.0 12.5 12.5 0.0
04/10/19 00:36 12.6 57 4.3 1.4 4.0 135 0.0 0.0 1023.0 0.0 12.6 12.6 0.0
04/10/19 00:37 12.6 57 4.3 2.5 4.0 135 0.0 0.0 1023.0 1.8 12.6 12.6 0.0
04/10/19 00:38 12.6 57 4.3 3.2 4.0 135 0.0 0.0 1023.0 2.5 12.6 12.6 0.0
04/10/19 00:39 12.6 57 4.3 1.8 4.0 135 0.0 0.0 1023.0 0.0 12.6 12.6 0.0
04/10/19 00:40 12.6 57 4.3 1.4 4.0 135 0.0 0.0 1023.0 2.5 12.6 12.6 0.0
04/10/19 00:41 12.6 57 4.3 1.4 3.2 135 0.0 0.0 1023.0 2.2 12.6 12.6 0.0
04/10/19 00:42 12.6 57 4.3 2.2 4.0 135 0.0 0.0 1023.0 1.4 12.6 12.6 0.0
04/10/19 00:43 12.6 57 4.3 2.2 4.0 135 0.0 0.0 1023.0 2.2 12.6 12.6 0.0
04/10/19 00:44 12.6 57 4.3 1.4 4.0 135 0.0 0.0 1023.0 0.0 12.6 12.6 0.0
04/10/19 00:45 12.6 57 4.3 0.0 4.0 135 0.0 0.0 1023.0 0.0 12.6 12.6 0.0
04/10/19 00:47 12.6 56 4.0 0.0 2.5 135 0.0 0.0 1023.0 1.8 12.6 12.6 0.0
04/10/19 00:48 12.6 56 4.0 0.0 2.5 135 0.0 0.0 1023.0 0.0 12.6 12.6 0.0
04/10/19 00:49 12.6 56 4.0 0.0 2.5 135 0.0 0.0 1023.0 2.2 12.6 12.6 0.0
04/10/19 00:50 12.6 56 4.0 0.0 2.5 135 0.0 0.0 1023.0 0.0 12.6 12.6 0.0
04/10/19 00:51 12.5 56 4.0 0.0 2.2 135 0.0 0.0 1023.0 0.0 12.5 12.5 0.0
04/10/19 00:52 12.5 56 4.0 0.0 2.2 135 0.0 0.0 1023.0 0.0 12.5 12.5 0.0
04/10/19 00:53 12.5 56 4.0 1.4 2.2 129 0.0 0.0 1023.0 0.0 12.5 12.5 0.0
04/10/19 00:54 12.4 56 3.9 0.0 2.2 128 0.0 0.0 1023.0 0.0 12.4 12.4 0.0
04/10/19 00:55 12.4 56 3.9 0.0 2.2 128 0.0 0.0 1023.0 0.0 12.4 12.4 0.0
04/10/19 00:56 12.4 56 3.9 0.0 2.2 128 0.0 0.0 1023.0 0.0 12.4 12.4 0.0
04/10/19 00:57 12.3 56 3.8 0.0 2.2 128 0.0 0.0 1023.0 0.0 12.3 12.3 0.0
04/10/19 00:58 12.3 56 3.8 0.0 2.2 124 0.0 0.0 1023.0 0.0 12.3 12.3 0.0
04/10/19 00:59 12.2 56 3.7 0.0 2.2 101 0.0 0.0 1023.0 0.0 12.3 12.2 0.0
04/10/19 01:02 12.1 56 3.6 0.0 0.0 0 0.0 0.0 1023.0 0.0 12.1 12.1 0.0
04/10/19 01:03 12.0 56 3.5 0.0 0.0 0 0.0 0.0 1023.0 0.0 12.0 12.0 0.0
04/10/19 01:04 12.0 56 3.5 0.0 0.0 0 0.0 0.0 1023.0 0.0 12.0 12.0 0.0
04/10/19 01:05 11.9 56 3.4 0.0 0.0 0 0.0 0.0 1023.0 0.0 11.9 11.9 0.0
04/10/19 01:06 11.8 56 3.3 0.0 0.0 0 0.0 0.0 1023.0 0.0 11.9 11.8 0.0
04/10/19 01:07 11.8 56 3.3 0.0 0.0 0 0.0 0.0 1023.0 0.0 11.8 11.8 0.0
04/10/19 01:08 11.7 56 3.2 0.0 0.0 0 0.0 0.0 1023.0 0.0 11.7 11.7 0.0
04/10/19 01:09 11.7 56 3.2 0.0 0.0 0 0.0 0.0 1023.0 0.0 11.7 11.7 0.0
04/10/19 01:10 11.7 56 3.2 0.0 0.0 0 0.0 0.0 1023.0 0.0 11.7 11.7 0.0
04/10/19 01:11 11.7 56 3.2 0.0 0.0 0 0.0 0.0 1023.0 0.0 11.7 11.7 0.0
04/10/19 01:12 11.6 56 3.1 0.0 0.0 0 0.0 0.0 1023.0 0.0 11.6 11.6 0.0
04/10/19 01:13 11.6 56 3.1 0.0 0.0 0 0.0 0.0 1023.0 0.0 11.6 11.6 0.0
04/10/19 01:14 11.6 56 3.1 0.0 0.0 0 0.0 0.0 1023.0 0.0 11.6 11.6 0.0
04/10/19 01:15 11.6 56 3.1 0.0 0.0 0 0.0 0.0 1023.0 0.0 11.6 11.6 0.0
04/10/19 01:17 11.6 56 3.1 0.0 0.0 0 0.0 0.0 1023.0 0.0 11.6 11.6 0.0
04/10/19 01:18 11.6 56 3.1 0.0 0.0 0 0.0 0.0 1023.0 0.0 11.6 11.6 0.0
04/10/19 01:19 11.6 56 3.1 0.0 0.0 0 0.0 0.0 1023.0 0.0 11.6 11.6 0.0
04/10/19 01:20 11.5 56 3.0 0.0 0.0 0 0.0 0.0 1023.0 0.0 11.5 11.5 0.0
04/10/19 01:21 11.5 56 3.0 0.0 0.0 0 0.0 0.0 1023.0 0.0 11.5 11.5 0.0
04/10/19 01:22 11.5 56 3.0 0.0 0.0 0 0.0 0.0 1023.0 0.0 11.5 11.5 0.0
04/10/19 01:23 11.4 56 2.9 0.0 0.0 0 0.0 0.0 1023.0 0.0 11.4 11.4 0.0
04/10/19 01:24 11.4 56 2.9 0.0 0.0 0 0.0 0.0 1023.0 0.0 11.4 11.4 0.0
04/10/19 01:25 11.4 56 2.9 0.0 1.4 1 0.0 0.0 1023.0 0.0 11.4 11.4 0.0
04/10/19 01:26 11.4 56 2.9 0.0 1.4 1 0.0 0.0 1023.0 0.0 11.4 11.4 0.0
04/10/19 01:27 11.4 56 2.9 0.0 1.4 1 0.0 0.0 1023.0 0.0 11.4 11.4 0.0
04/10/19 01:28 11.4 56 2.9 0.0 1.4 1 0.0 0.0 1023.0 0.0 11.4 11.4 0.0
04/10/19 01:29 11.4 56 2.9 0.0 1.4 1 0.0 0.0 1023.0 0.0 11.4 11.4 0.0
04/10/19 01:30 11.4 56 2.9 0.0 1.4 1 0.0 0.0 1023.0 0.0 11.4 11.4 0.0
04/10/19 01:32 11.4 56 2.9 0.0 0.0 0 0.0 0.0 1023.0 0.0 0.0 11.4 0.0
04/10/19 01:33 11.4 56 2.9 0.0 0.0 0 0.0 0.0 1023.0 0.0 11.4 11.4 0.0
04/10/19 01:34 11.4 56 2.9 0.0 0.0 0 0.0 0.0 1023.0 0.0 11.4 11.4 0.0
04/10/19 01:35 11.3 56 2.8 0.0 0.0 0 0.0 0.0 1023.0 0.0 11.3 11.3 0.0
04/10/19 01:36 11.2 56 2.7 0.0 0.0 0 0.0 0.0 1023.0 0.0 11.3 11.2 0.0
04/10/19 01:37 11.2 56 2.7 0.0 0.0 0 0.0 0.0 1023.0 0.0 11.2 11.2 0.0
04/10/19 01:38 11.1 56 2.6 0.0 0.0 0 0.0 0.0 1022.0 0.0 11.1 11.1 0.0
04/10/19 01:39 11.1 56 2.6 0.0 0.0 0 0.0 0.0 1022.0 0.0 11.1 11.1 0.0
04/10/19 01:40 11.1 56 2.6 0.0 0.0 0 0.0 0.0 1022.0 0.0 11.1 11.1 0.0
04/10/19 01:41 11.1 57 2.9 0.0 0.0 0 0.0 0.0 1022.0 0.0 11.1 11.1 0.0
04/10/19 01:42 11.0 57 2.8 0.0 0.0 0 0.0 0.0 1022.0 0.0 11.1 11.0 0.0
04/10/19 01:43 11.0 57 2.8 0.0 0.0 0 0.0 0.0 1022.0 0.0 11.0 11.0 0.0
04/10/19 01:44 11.0 57 2.8 0.0 0.0 0 0.0 0.0 1022.0 0.0 11.0 11.0 0.0
04/10/19 01:47 11.0 57 2.8 0.0 0.0 0 0.0 0.0 1022.0 0.0 11.0 11.0 0.0
04/10/19 01:48 11.0 57 2.8 0.0 0.0 0 0.0 0.0 1022.0 0.0 11.0 11.0 0.0
04/10/19 01:49 11.0 57 2.8 0.0 0.0 0 0.0 0.0 1022.0 0.0 11.0 11.0 0.0
04/10/19 01:50 10.9 57 2.7 0.0 0.0 0 0.0 0.0 1022.0 0.0 10.9 10.9 0.0
04/10/19 01:51 10.9 57 2.7 0.0 0.0 0 0.0 0.0 1022.0 0.0 10.9 10.9 0.0
04/10/19 01:52 10.9 57 2.7 0.0 0.0 0 0.0 0.0 1022.0 0.0 10.9 10.9 0.0
04/10/19 01:53 10.9 57 2.7 0.0 0.0 0 0.0 0.0 1022.0 0.0 10.9 10.9 0.0
04/10/19 01:54 10.9 57 2.7 0.0 0.0 0 0.0 0.0 1022.0 0.0 10.9 10.9 0.0
04/10/19 01:55 10.9 57 2.7 0.0 0.0 0 0.0 0.0 1022.0 0.0 10.9 10.9 0.0
04/10/19 01:56 10.8 57 2.6 0.0 0.0 0 0.0 0.0 1022.0 0.0 10.9 10.8 0.0
04/10/19 01:57 10.8 57 2.6 0.0 0.0 0 0.0 0.0 1022.0 0.0 10.8 10.8 0.0
04/10/19 01:58 10.8 57 2.6 0.0 0.0 0 0.0 0.0 1022.0 0.0 10.8 10.8 0.0
04/10/19 01:59 10.9 57 2.7 0.0 0.0 0 0.0 0.0 1022.0 0.0 10.9 10.9 0.0
04/10/19 02:00 10.9 57 2.7 0.0 0.0 0 0.0 0.0 1022.0 0.0 10.9 10.9 0.0
04/10/19 02:02 10.9 57 2.7 0.0 0.0 0 0.0 0.0 1022.0 0.0 0.0 10.9 0.0
04/10/19 02:03 10.9 57 2.7 0.0 0.0 0 0.0 0.0 1022.0 0.0 10.9 10.9 0.0
04/10/19 02:04 10.9 57 2.7 0.0 0.0 0 0.0 0.0 1022.0 0.0 10.9 10.9 0.0
04/10/19 02:05 10.8 57 2.6 0.0 0.0 0 0.0 0.0 1022.0 0.0 10.8 10.8 0.0
04/10/19 02:06 10.8 57 2.6 0.0 0.0 0 0.0 0.0 1022.0 0.0 10.8 10.8 0.0
04/10/19 02:07 10.7 57 2.5 0.0 0.0 0 0.0 0.0 1022.0 0.0 10.8 10.7 0.0
04/10/19 02:08 10.7 57 2.5 0.0 0.0 0 0.0 0.0 1022.0 0.0 10.7 10.7 0.0
04/10/19 02:09 10.7 57 2.5 0.0 0.0 0 0.0 0.0 1022.0 0.0 10.7 10.7 0.0
04/10/19 02:10 10.7 57 2.5 0.0 0.0 0 0.0 0.0 1022.0 0.0 10.7 10.7 0.0
04/10/19 02:11 10.6 57 2.4 0.0 0.0 0 0.0 0.0 1022.0 0.0 10.6 10.6 0.0
04/10/19 02:12 10.6 57 2.4 0.0 0.0 0 0.0 0.0 1022.0 0.0 10.6 10.6 0.0
04/10/19 02:13 10.6 57 2.4 0.0 0.0 0 0.0 0.0 1022.0 0.0 10.6 10.6 0.0
04/10/19 02:14 10.6 57 2.4 0.0 0.0 0 0.0 0.0 1022.0 0.0 10.6 10.6 0.0
04/10/19 02:17 10.6 57 2.4 0.0 0.0 0 0.0 0.0 1022.0 0.0 10.6 10.6 0.0
04/10/19 02:18 10.5 57 2.3 0.0 0.0 0 0.0 0.0 1022.0 0.0 10.5 10.5 0.0
04/10/19 02:19 10.5 58 2.6 0.0 0.0 0 0.0 0.0 1022.0 0.0 10.5 10.5 0.0
04/10/19 02:20 10.5 58 2.6 0.0 0.0 0 0.0 0.0 1022.0 0.0 10.5 10.5 0.0
04/10/19 02:21 10.5 57 2.3 0.0 0.0 0 0.0 0.0 1022.0 0.0 10.5 10.5 0.0
04/10/19 02:22 10.5 58 2.6 0.0 0.0 0 0.0 0.0 1022.0 0.0 10.5 10.5 0.0
04/10/19 02:23 10.5 58 2.6 0.0 0.0 0 0.0 0.0 1022.0 0.0 10.5 10.5 0.0
04/10/19 02:24 10.5 58 2.6 0.0 0.0 0 0.0 0.0 1022.0 0.0 10.5 10.5 0.0
04/10/19 02:25 10.5 58 2.6 0.0 0.0 0 0.0 0.0 1022.0 0.0 10.5 10.5 0.0
04/10/19 02:26 10.5 58 2.6 0.0 0.0 0 0.0 0.0 1022.0 0.0 10.5 10.5 0.0
04/10/19 02:27 10.5 58 2.6 0.0 0.0 0 0.0 0.0 1022.0 0.0 10.5 10.5 0.0
04/10/19 02:28 10.5 58 2.6 0.0 0.0 0 0.0 0.0 1022.0 0.0 10.5 10.5 0.0
04/10/19 02:29 10.5 58 2.6 0.0 0.0 0 0.0 0.0 1022.0 0.0 10.5 10.5 0.0
04/10/19 02:30 10.6 58 2.7 0.0 0.0 0 0.0 0.0 1022.0 0.0 10.5 10.6 0.0
04/10/19 02:32 10.6 58 2.7 0.0 0.0 0 0.0 0.0 1022.0 0.0 10.6 10.6 0.0
04/10/19 02:33 10.6 58 2.7 0.0 0.0 0 0.0 0.0 1022.0 0.0 10.6 10.6 0.0
04/10/19 02:34 10.6 58 2.7 0.0 0.0 0 0.0 0.0 1022.0 0.0 10.6 10.6 0.0
04/10/19 02:35 10.6 58 2.7 0.0 0.0 0 0.0 0.0 1022.0 0.0 10.6 10.6 0.0
04/10/19 02:36 10.5 58 2.6 0.0 0.0 0 0.0 0.0 1022.0 0.0 10.5 10.5 0.0
04/10/19 02:37 10.6 58 2.7 0.0 0.0 0 0.0 0.0 1022.0 0.0 10.5 10.6 0.0
04/10/19 02:38 10.6 58 2.7 0.0 0.0 0 0.0 0.0 1022.0 0.0 10.6 10.6 0.0
04/10/19 02:39 10.6 58 2.7 0.0 0.0 0 0.0 0.0 1022.0 0.0 10.6 10.6 0.0
04/10/19 02:40 10.6 58 2.7 0.0 0.0 0 0.0 0.0 1022.0 0.0 10.6 10.6 0.0
04/10/19 02:41 10.6 58 2.7 0.0 0.0 0 0.0 0.0 1022.0 0.0 10.6 10.6 0.0
04/10/19 02:42 10.6 58 2.7 0.0 0.0 0 0.0 0.0 1022.0 0.0 10.6 10.6 0.0
04/10/19 02:43 10.6 58 2.7 0.0 0.0 0 0.0 0.0 1022.0 0.0 10.6 10.6 0.0
04/10/19 02:44 10.6 58 2.7 0.0 0.0 0 0.0 0.0 1022.0 0.0 10.6 10.6 0.0
04/10/19 02:45 10.6 58 2.7 0.0 0.0 0 0.0 0.0 1022.0 0.0 10.6 10.6 0.0
04/10/19 02:48 10.6 58 2.7 0.0 0.0 0 0.0 0.0 1022.0 0.0 10.6 10.6 0.0
04/10/19 02:49 10.6 58 2.7 0.0 0.0 0 0.0 0.0 1022.0 0.0 10.6 10.6 0.0
04/10/19 02:50 10.6 58 2.7 0.0 0.0 0 0.0 0.0 1022.0 0.0 10.6 10.6 0.0
04/10/19 02:51 10.6 58 2.7 0.0 0.0 0 0.0 0.0 1022.0 0.0 10.6 10.6 0.0
04/10/19 02:52 10.6 58 2.7 0.0 0.0 0 0.0 0.0 1022.0 0.0 10.6 10.6 0.0
04/10/19 02:53 10.6 58 2.7 0.0 0.0 0 0.0 0.0 1021.0 0.0 10.6 10.6 0.0
04/10/19 02:54 10.6 58 2.7 0.0 0.0 0 0.0 0.0 1021.0 0.0 10.6 10.6 0.0
04/10/19 02:55 10.6 58 2.7 0.0 0.0 0 0.0 0.0 1021.0 0.0 10.6 10.6 0.0
04/10/19 02:56 10.6 58 2.7 0.0 0.0 0 0.0 0.0 1021.0 0.0 10.6 10.6 0.0
04/10/19 02:57 10.6 58 2.7 0.0 0.0 0 0.0 0.0 1021.0 0.0 10.6 10.6 0.0
04/10/19 02:58 10.6 58 2.7 0.0 0.0 0 0.0 0.0 1021.0 0.0 10.6 10.6 0.0
04/10/19 02:59 10.6 58 2.7 0.0 0.0 0 0.0 0.0 1021.0 0.0 10.6 10.6 0.0
04/10/19 03:00 10.5 58 2.6 0.0 0.0 0 0.0 0.0 1021.0 0.0 10.6 10.5 0.0
04/10/19 03:02 10.5 58 2.6 0.0 0.0 0 0.0 0.0 1021.0 0.0 10.5 10.5 0.0
04/10/19 03:03 10.5 58 2.6 0.0 0.0 0 0.0 0.0 1021.0 0.0 10.5 10.5 0.0
04/10/19 03:04 10.4 58 2.5 0.0 0.0 0 0.0 0.0 1021.0 0.0 10.5 10.4 0.0
04/10/19 03:05 10.4 58 2.5 0.0 0.0 0 0.0 0.0 1021.0 0.0 10.4 10.4 0.0
04/10/19 03:06 10.4 58 2.5 0.0 0.0 0 0.0 0.0 1021.0 0.0 10.4 10.4 0.0
04/10/19 03:07 10.3 58 2.4 0.0 0.0 0 0.0 0.0 1021.0 0.0 10.3 10.3 0.0
04/10/19 03:08 10.3 58 2.4 0.0 0.0 0 0.0 0.0 1022.0 0.0 10.3 10.3 0.0
04/10/19 03:09 10.3 58 2.4 0.0 0.0 0 0.0 0.0 1022.0 0.0 10.3 10.3 0.0
04/10/19 03:10 10.3 58 2.4 0.0 0.0 0 0.0 0.0 1022.0 0.0 10.3 10.3 0.0
04/10/19 03:11 10.4 58 2.5 0.0 0.0 0 0.0 0.0 1022.0 0.0 10.4 10.4 0.0
04/10/19 03:12 10.4 58 2.5 0.0 0.0 0 0.0 0.0 1022.0 0.0 10.4 10.4 0.0
04/10/19 03:13 10.5 58 2.6 0.0 0.0 0 0.0 0.0 1022.0 0.0 10.4 10.5 0.0
04/10/19 03:14 10.5 58 2.6 0.0 0.0 0 0.0 0.0 1022.0 0.0 10.5 10.5 0.0
04/10/19 03:15 10.5 58 2.6 0.0 0.0 0 0.0 0.0 1022.0 0.0 10.5 10.5 0.0
04/10/19 03:17 10.6 58 2.7 0.0 0.0 0 0.0 0.0 1022.0 0.0 10.6 10.6 0.0
04/10/19 03:18 10.7 58 2.8 0.0 0.0 0 0.0 0.0 1022.0 0.0 10.6 10.7 0.0
04/10/19 03:19 10.7 58 2.8 0.0 0.0 0 0.0 0.0 1022.0 0.0 10.7 10.7 0.0
04/10/19 03:20 10.7 58 2.8 0.0 0.0 0 0.0 0.0 1022.0 0.0 10.7 10.7 0.0
04/10/19 03:21 10.7 58 2.8 0.0 0.0 0 0.0 0.0 1022.0 0.0 10.7 10.7 0.0
04/10/19 03:22 10.8 58 2.9 0.0 0.0 0 0.0 0.0 1022.0 0.0 10.8 10.8 0.0
04/10/19 03:23 10.8 58 2.9 0.0 0.0 0 0.0 0.0 1021.0 0.0 10.8 10.8 0.0
04/10/19 03:24 10.8 58 2.9 0.0 0.0 0 0.0 0.0 1021.0 0.0 10.8 10.8 0.0
04/10/19 03:25 10.9 57 2.7 0.0 0.0 0 0.0 0.0 1021.0 0.0 10.8 10.9 0.0
04/10/19 03:26 10.9 57 2.7 0.0 0.0 0 0.0 0.0 1021.0 0.0 10.9 10.9 0.0
04/10/19 03:27 10.9 57 2.7 0.0 0.0 0 0.0 0.0 1021.0 0.0 10.9 10.9 0.0
04/10/19 03:28 10.9 57 2.7 0.0 0.0 0 0.0 0.0 1021.0 0.0 10.9 10.9 0.0
04/10/19 03:29 11.0 57 2.8 0.0 0.0 0 0.0 0.0 1021.0 0.0 11.0 11.0 0.0
04/10/19 03:30 11.0 57 2.8 0.0 0.0 0 0.0 0.0 1021.0 0.0 11.0 11.0 0.0
04/10/19 03:32 11.0 57 2.8 0.0 0.0 0 0.0 0.0 1021.0 0.0 0.0 11.0 0.0
04/10/19 03:33 11.0 57 2.8 0.0 0.0 0 0.0 0.0 1021.0 0.0 11.0 11.0 0.0
04/10/19 03:34 11.1 56 2.6 0.0 0.0 0 0.0 0.0 1021.0 0.0 11.0 11.1 0.0
04/10/19 03:35 11.1 56 2.6 0.0 0.0 0 0.0 0.0 1021.0 0.0 11.1 11.1 0.0
04/10/19 03:36 11.1 56 2.6 0.0 0.0 0 0.0 0.0 1021.0 0.0 11.1 11.1 0.0
04/10/19 03:37 11.1 56 2.6 0.0 0.0 0 0.0 0.0 1021.0 0.0 11.1 11.1 0.0
04/10/19 03:38 11.1 56 2.6 0.0 0.0 0 0.0 0.0 1022.0 0.0 11.1 11.1 0.0
04/10/19 03:39 11.2 56 2.7 0.0 0.0 0 0.0 0.0 1022.0 0.0 11.1 11.2 0.0
04/10/19 03:43 11.2 56 2.7 0.0 0.0 0 34.8 0.0 1022.0 0.0 11.2 11.2 0.0
04/10/19 03:44 11.2 56 2.7 0.0 0.0 0 34.8 0.0 1022.0 0.0 11.2 11.2 0.0
04/10/19 03:45 11.3 56 2.8 0.0 0.0 0 34.8 0.0 1022.0 0.0 11.3 11.3 0.0
04/10/19 03:46 11.3 56 2.8 0.0 0.0 0 34.8 0.0 1022.0 0.0 11.3 11.3 0.0
04/10/19 03:47 11.3 56 2.8 0.0 0.0 0 34.8 0.0 1022.0 0.0 11.3 11.3 0.0
04/10/19 03:47 11.3 55 2.6 0.0 0.0 0 34.8 0.0 1022.0 0.0 11.3 11.3 0.0
04/10/19 03:48 11.3 55 2.6 0.0 0.0 0 34.8 0.0 1022.0 0.0 11.3 11.3 0.0
04/10/19 03:49 11.3 55 2.6 0.0 0.0 0 34.8 0.0 1022.0 0.0 11.3 11.3 0.0
04/10/19 03:50 11.3 55 2.6 0.0 0.0 0 34.8 0.0 1022.0 0.0 11.3 11.3 0.0
04/10/19 03:51 11.3 55 2.6 0.0 0.0 0 34.8 0.0 1022.0 0.0 11.3 11.3 0.0
04/10/19 03:52 11.3 55 2.6 0.0 0.0 0 34.8 0.0 1022.0 0.0 11.3 11.3 0.0
04/10/19 03:53 11.4 55 2.7 0.0 0.0 0 34.8 0.0 1022.0 0.0 11.3 11.4 0.0
04/10/19 03:54 11.4 55 2.7 0.0 0.0 0 34.8 0.0 1022.0 0.0 11.4 11.4 0.0
04/10/19 03:55 11.4 55 2.7 0.0 0.0 0 34.8 0.0 1022.0 0.0 11.4 11.4 0.0
04/10/19 03:56 11.4 55 2.7 0.0 0.0 0 34.8 0.0 1022.0 0.0 11.4 11.4 0.0
04/10/19 03:57 11.4 55 2.7 0.0 0.0 0 34.8 0.0 1022.0 0.0 11.4 11.4 0.0
04/10/19 03:58 11.5 55 2.8 0.0 0.0 0 34.8 0.0 1022.0 0.0 11.5 11.5 0.0
04/10/19 03:59 11.5 55 2.8 0.0 0.0 0 34.8 0.0 1022.0 0.0 11.5 11.5 0.0
04/10/19 04:02 11.5 55 2.8 0.0 0.0 0 0.0 0.0 1022.0 0.0 11.5 11.5 0.0
04/10/19 04:03 11.6 55 2.9 0.0 0.0 0 0.0 0.0 1022.0 0.0 11.5 11.6 0.0
04/10/19 04:04 11.6 55 2.9 0.0 0.0 0 0.0 0.0 1022.0 0.0 11.6 11.6 0.0
04/10/19 04:05 11.6 55 2.9 0.0 0.0 0 0.0 0.0 1022.0 0.0 11.6 11.6 0.0
04/10/19 04:06 11.6 55 2.9 0.0 0.0 0 0.0 0.0 1022.0 0.0 11.6 11.6 0.0
04/10/19 04:07 11.6 55 2.9 0.0 0.0 0 0.0 0.0 1022.0 0.0 11.6 11.6 0.0
04/10/19 04:08 11.6 54 2.6 0.0 0.0 0 0.0 0.0 1022.0 0.0 11.6 11.6 0.0
04/10/19 04:09 11.6 54 2.6 0.0 0.0 0 0.0 0.0 1022.0 0.0 11.6 11.6 0.0
04/10/19 04:10 11.5 54 2.5 0.0 0.0 0 0.0 0.0 1022.0 0.0 11.6 11.5 0.0
04/10/19 04:11 11.5 54 2.5 0.0 0.0 0 0.0 0.0 1022.0 0.0 11.5 11.5 0.0
04/10/19 04:12 11.5 54 2.5 0.0 0.0 0 0.0 0.0 1022.0 0.0 11.5 11.5 0.0
04/10/19 04:13 11.5 54 2.5 0.0 0.0 0 0.0 0.0 1022.0 0.0 11.5 11.5 0.0
04/10/19 04:14 11.5 54 2.5 0.0 0.0 0 0.0 0.0 1022.0 0.0 11.5 11.5 0.0
04/10/19 04:18 11.5 54 2.5 0.0 0.0 0 0.0 0.0 1022.0 0.0 0.0 11.5 0.0
04/10/19 04:19 11.5 54 2.5 0.0 0.0 0 0.0 0.0 1022.0 0.0 11.5 11.5 0.0
04/10/19 04:20 11.5 54 2.5 0.0 0.0 0 0.0 0.0 1022.0 0.0 11.5 11.5 0.0
04/10/19 04:21 11.5 54 2.5 0.0 0.0 0 0.0 0.0 1022.0 0.0 11.5 11.5 0.0
04/10/19 04:22 11.5 54 2.5 0.0 0.0 0 0.0 0.0 1022.0 0.0 11.5 11.5 0.0
04/10/19 04:23 11.4 54 2.4 0.0 0.0 0 0.0 0.0 1022.0 0.0 11.4 11.4 0.0
04/10/19 04:24 11.4 54 2.4 0.0 0.0 0 0.0 0.0 1022.0 0.0 11.4 11.4 0.0
04/10/19 04:25 11.4 54 2.4 0.0 0.0 0 0.0 0.0 1022.0 0.0 11.4 11.4 0.0
04/10/19 04:26 11.4 54 2.4 0.0 0.0 0 0.0 0.0 1022.0 0.0 11.4 11.4 0.0
04/10/19 04:27 11.4 54 2.4 0.0 0.0 0 0.0 0.0 1022.0 0.0 11.4 11.4 0.0
04/10/19 04:28 11.4 54 2.4 0.0 0.0 0 0.0 0.0 1022.0 0.0 11.4 11.4 0.0
04/10/19 04:29 11.3 54 2.3 0.0 0.0 0 0.0 0.0 1022.0 0.0 11.3 11.3 0.0
04/10/19 04:30 11.3 54 2.3 0.0 0.0 0 0.0 0.0 1022.0 0.0 11.3 11.3 0.0
04/10/19 04:32 11.3 54 2.3 0.0 0.0 0 0.0 0.0 1022.0 0.0 11.3 11.3 0.0
04/10/19 04:33 11.3 54 2.3 0.0 0.0 0 0.0 0.0 1022.0 0.0 11.3 11.3 0.0
04/10/19 04:34 11.3 54 2.3 0.0 0.0 0 0.0 0.0 1022.0 0.0 11.3 11.3 0.0
04/10/19 04:35 11.3 54 2.3 0.0 0.0 0 0.0 0.0 1022.0 0.0 11.3 11.3 0.0
04/10/19 04:36 11.3 54 2.3 0.0 0.0 0 0.0 0.0 1022.0 0.0 11.3 11.3 0.0
04/10/19 04:37 11.3 54 2.3 0.0 0.0 0 0.0 0.0 1022.0 0.0 11.3 11.3 0.0
04/10/19 04:38 11.3 54 2.3 0.0 0.0 0 0.0 0.0 1022.0 0.0 11.3 11.3 0.0
04/10/19 04:39 11.3 54 2.3 0.0 0.0 0 0.0 0.0 1022.0 0.0 11.3 11.3 0.0
04/10/19 04:40 11.3 54 2.3 0.0 0.0 0 0.0 0.0 1022.0 0.0 11.3 11.3 0.0
04/10/19 04:41 11.3 54 2.3 0.0 0.0 0 0.0 0.0 1022.0 0.0 11.3 11.3 0.0
04/10/19 04:42 11.3 54 2.3 0.0 0.0 0 0.0 0.0 1022.0 0.0 11.3 11.3 0.0
04/10/19 04:43 11.3 54 2.3 0.0 0.0 0 0.0 0.0 1022.0 0.0 11.3 11.3 0.0
04/10/19 04:44 11.3 54 2.3 0.0 0.0 0 0.0 0.0 1022.0 0.0 11.3 11.3 0.0
04/10/19 04:45 11.3 54 2.3 0.0 0.0 0 0.0 0.0 1022.0 0.0 11.3 11.3 0.0
04/10/19 04:47 11.2 54 2.2 0.0 0.0 0 0.0 0.0 1022.0 0.0 11.2 11.2 0.0
04/10/19 04:48 11.2 54 2.2 0.0 0.0 0 0.0 0.0 1022.0 0.0 11.2 11.2 0.0
04/10/19 04:49 11.2 54 2.2 0.0 0.0 0 0.0 0.0 1022.0 0.0 11.2 11.2 0.0
04/10/19 04:50 11.2 54 2.2 0.0 0.0 0 0.0 0.0 1022.0 0.0 11.2 11.2 0.0
04/10/19 04:51 11.2 54 2.2 0.0 0.0 0 0.0 0.0 1022.0 0.0 11.2 11.2 0.0
04/10/19 04:52 11.2 54 2.2 0.0 0.0 0 0.0 0.0 1022.0 0.0 11.2 11.2 0.0
04/10/19 04:53 11.2 54 2.2 0.0 0.0 0 0.0 0.0 1022.0